<?xml version="1.0" encoding="UTF-8"?>
<gpx xmlns="http://www.topografix.com/GPX/1/1"
     creator="GpsDumpMac 0.36"
     version="1.1"
     xmlns:xsi="http://www.w3.org/2001/XMLSchema-instance"
     xsi:schemaLocation="http://www.topografix.com/GPX/1/1 http://www.topografix.com/GPX/1/1/gpx.xsd">
  <metadata>
    <link href="http://www.gethome.no/stein.sorensen/">
      <text>GPS dump for www.flightlog.org</text>
    </link>
    <time>2016-08-07T17:43:40Z</time>
    <bounds minlat="40.384217" minlon="-5.791817" maxlat="40.427350" maxlon="-5.297750"/>
  </metadata>
  <trk>
    <name>Track 001</name>
    <trkseg>
      <trkpt lat="40.422533" lon="-5.301733">
        <ele>1926.0</ele>
        <time>2016-08-06T12:03:41Z</time>
      </trkpt>
      <trkpt lat="40.422650" lon="-5.301650">
        <ele>1927.0</ele>
        <time>2016-08-06T12:03:43Z</time>
      </trkpt>
      <trkpt lat="40.422783" lon="-5.301500">
        <ele>1922.0</ele>
        <time>2016-08-06T12:03:45Z</time>
      </trkpt>
      <trkpt lat="40.422933" lon="-5.301383">
        <ele>1922.0</ele>
        <time>2016-08-06T12:03:47Z</time>
      </trkpt>
      <trkpt lat="40.423050" lon="-5.301300">
        <ele>1923.0</ele>
        <time>2016-08-06T12:03:49Z</time>
      </trkpt>
      <trkpt lat="40.423167" lon="-5.301200">
        <ele>1919.0</ele>
        <time>2016-08-06T12:03:51Z</time>
      </trkpt>
      <trkpt lat="40.423317" lon="-5.301100">
        <ele>1913.0</ele>
        <time>2016-08-06T12:03:53Z</time>
      </trkpt>
      <trkpt lat="40.423483" lon="-5.301083">
        <ele>1912.0</ele>
        <time>2016-08-06T12:03:55Z</time>
      </trkpt>
      <trkpt lat="40.423600" lon="-5.301083">
        <ele>1913.0</ele>
        <time>2016-08-06T12:03:57Z</time>
      </trkpt>
      <trkpt lat="40.423717" lon="-5.301117">
        <ele>1914.0</ele>
        <time>2016-08-06T12:03:59Z</time>
      </trkpt>
      <trkpt lat="40.423800" lon="-5.301183">
        <ele>1917.0</ele>
        <time>2016-08-06T12:04:01Z</time>
      </trkpt>
      <trkpt lat="40.423733" lon="-5.301333">
        <ele>1918.0</ele>
        <time>2016-08-06T12:04:03Z</time>
      </trkpt>
      <trkpt lat="40.423600" lon="-5.301467">
        <ele>1921.0</ele>
        <time>2016-08-06T12:04:05Z</time>
      </trkpt>
      <trkpt lat="40.423483" lon="-5.301583">
        <ele>1924.0</ele>
        <time>2016-08-06T12:04:07Z</time>
      </trkpt>
      <trkpt lat="40.423383" lon="-5.301733">
        <ele>1926.0</ele>
        <time>2016-08-06T12:04:09Z</time>
      </trkpt>
      <trkpt lat="40.423250" lon="-5.301867">
        <ele>1928.0</ele>
        <time>2016-08-06T12:04:11Z</time>
      </trkpt>
      <trkpt lat="40.423183" lon="-5.302033">
        <ele>1929.0</ele>
        <time>2016-08-06T12:04:13Z</time>
      </trkpt>
      <trkpt lat="40.423250" lon="-5.302150">
        <ele>1931.0</ele>
        <time>2016-08-06T12:04:15Z</time>
      </trkpt>
      <trkpt lat="40.423367" lon="-5.302117">
        <ele>1935.0</ele>
        <time>2016-08-06T12:04:17Z</time>
      </trkpt>
      <trkpt lat="40.423450" lon="-5.302033">
        <ele>1941.0</ele>
        <time>2016-08-06T12:04:19Z</time>
      </trkpt>
      <trkpt lat="40.423467" lon="-5.301933">
        <ele>1941.0</ele>
        <time>2016-08-06T12:04:21Z</time>
      </trkpt>
      <trkpt lat="40.423533" lon="-5.301800">
        <ele>1938.0</ele>
        <time>2016-08-06T12:04:23Z</time>
      </trkpt>
      <trkpt lat="40.423667" lon="-5.301667">
        <ele>1940.0</ele>
        <time>2016-08-06T12:04:25Z</time>
      </trkpt>
      <trkpt lat="40.423700" lon="-5.301567">
        <ele>1943.0</ele>
        <time>2016-08-06T12:04:27Z</time>
      </trkpt>
      <trkpt lat="40.423733" lon="-5.301450">
        <ele>1940.0</ele>
        <time>2016-08-06T12:04:29Z</time>
      </trkpt>
      <trkpt lat="40.423817" lon="-5.301317">
        <ele>1934.0</ele>
        <time>2016-08-06T12:04:31Z</time>
      </trkpt>
      <trkpt lat="40.423900" lon="-5.301150">
        <ele>1933.0</ele>
        <time>2016-08-06T12:04:33Z</time>
      </trkpt>
      <trkpt lat="40.423950" lon="-5.301017">
        <ele>1932.0</ele>
        <time>2016-08-06T12:04:35Z</time>
      </trkpt>
      <trkpt lat="40.424017" lon="-5.300900">
        <ele>1929.0</ele>
        <time>2016-08-06T12:04:37Z</time>
      </trkpt>
      <trkpt lat="40.424117" lon="-5.300783">
        <ele>1928.0</ele>
        <time>2016-08-06T12:04:39Z</time>
      </trkpt>
      <trkpt lat="40.424200" lon="-5.300683">
        <ele>1927.0</ele>
        <time>2016-08-06T12:04:41Z</time>
      </trkpt>
      <trkpt lat="40.424300" lon="-5.300600">
        <ele>1925.0</ele>
        <time>2016-08-06T12:04:43Z</time>
      </trkpt>
      <trkpt lat="40.424400" lon="-5.300500">
        <ele>1923.0</ele>
        <time>2016-08-06T12:04:45Z</time>
      </trkpt>
      <trkpt lat="40.424500" lon="-5.300417">
        <ele>1921.0</ele>
        <time>2016-08-06T12:04:47Z</time>
      </trkpt>
      <trkpt lat="40.424617" lon="-5.300350">
        <ele>1919.0</ele>
        <time>2016-08-06T12:04:49Z</time>
      </trkpt>
      <trkpt lat="40.424717" lon="-5.300250">
        <ele>1918.0</ele>
        <time>2016-08-06T12:04:51Z</time>
      </trkpt>
      <trkpt lat="40.424833" lon="-5.300183">
        <ele>1917.0</ele>
        <time>2016-08-06T12:04:53Z</time>
      </trkpt>
      <trkpt lat="40.424950" lon="-5.300100">
        <ele>1917.0</ele>
        <time>2016-08-06T12:04:55Z</time>
      </trkpt>
      <trkpt lat="40.425067" lon="-5.299967">
        <ele>1918.0</ele>
        <time>2016-08-06T12:04:57Z</time>
      </trkpt>
      <trkpt lat="40.425150" lon="-5.299850">
        <ele>1922.0</ele>
        <time>2016-08-06T12:04:59Z</time>
      </trkpt>
      <trkpt lat="40.425233" lon="-5.299767">
        <ele>1924.0</ele>
        <time>2016-08-06T12:05:01Z</time>
      </trkpt>
      <trkpt lat="40.425333" lon="-5.299633">
        <ele>1925.0</ele>
        <time>2016-08-06T12:05:03Z</time>
      </trkpt>
      <trkpt lat="40.425433" lon="-5.299533">
        <ele>1930.0</ele>
        <time>2016-08-06T12:05:05Z</time>
      </trkpt>
      <trkpt lat="40.425483" lon="-5.299467">
        <ele>1936.0</ele>
        <time>2016-08-06T12:05:07Z</time>
      </trkpt>
      <trkpt lat="40.425550" lon="-5.299367">
        <ele>1938.0</ele>
        <time>2016-08-06T12:05:09Z</time>
      </trkpt>
      <trkpt lat="40.425617" lon="-5.299367">
        <ele>1942.0</ele>
        <time>2016-08-06T12:05:11Z</time>
      </trkpt>
      <trkpt lat="40.425600" lon="-5.299550">
        <ele>1941.0</ele>
        <time>2016-08-06T12:05:13Z</time>
      </trkpt>
      <trkpt lat="40.425450" lon="-5.299800">
        <ele>1943.0</ele>
        <time>2016-08-06T12:05:15Z</time>
      </trkpt>
      <trkpt lat="40.425233" lon="-5.299900">
        <ele>1952.0</ele>
        <time>2016-08-06T12:05:17Z</time>
      </trkpt>
      <trkpt lat="40.425050" lon="-5.299983">
        <ele>1957.0</ele>
        <time>2016-08-06T12:05:19Z</time>
      </trkpt>
      <trkpt lat="40.424900" lon="-5.300167">
        <ele>1961.0</ele>
        <time>2016-08-06T12:05:21Z</time>
      </trkpt>
      <trkpt lat="40.424883" lon="-5.300317">
        <ele>1966.0</ele>
        <time>2016-08-06T12:05:23Z</time>
      </trkpt>
      <trkpt lat="40.424933" lon="-5.300400">
        <ele>1968.0</ele>
        <time>2016-08-06T12:05:25Z</time>
      </trkpt>
      <trkpt lat="40.425017" lon="-5.300383">
        <ele>1972.0</ele>
        <time>2016-08-06T12:05:27Z</time>
      </trkpt>
      <trkpt lat="40.425067" lon="-5.300267">
        <ele>1977.0</ele>
        <time>2016-08-06T12:05:29Z</time>
      </trkpt>
      <trkpt lat="40.425100" lon="-5.300167">
        <ele>1976.0</ele>
        <time>2016-08-06T12:05:31Z</time>
      </trkpt>
      <trkpt lat="40.425183" lon="-5.300033">
        <ele>1972.0</ele>
        <time>2016-08-06T12:05:33Z</time>
      </trkpt>
      <trkpt lat="40.425217" lon="-5.299800">
        <ele>1974.0</ele>
        <time>2016-08-06T12:05:35Z</time>
      </trkpt>
      <trkpt lat="40.425200" lon="-5.299600">
        <ele>1976.0</ele>
        <time>2016-08-06T12:05:37Z</time>
      </trkpt>
      <trkpt lat="40.425200" lon="-5.299400">
        <ele>1973.0</ele>
        <time>2016-08-06T12:05:39Z</time>
      </trkpt>
      <trkpt lat="40.425217" lon="-5.299200">
        <ele>1970.0</ele>
        <time>2016-08-06T12:05:41Z</time>
      </trkpt>
      <trkpt lat="40.425267" lon="-5.299083">
        <ele>1970.0</ele>
        <time>2016-08-06T12:05:43Z</time>
      </trkpt>
      <trkpt lat="40.425317" lon="-5.299000">
        <ele>1968.0</ele>
        <time>2016-08-06T12:05:45Z</time>
      </trkpt>
      <trkpt lat="40.425383" lon="-5.299000">
        <ele>1966.0</ele>
        <time>2016-08-06T12:05:47Z</time>
      </trkpt>
      <trkpt lat="40.425400" lon="-5.299183">
        <ele>1961.0</ele>
        <time>2016-08-06T12:05:49Z</time>
      </trkpt>
      <trkpt lat="40.425267" lon="-5.299433">
        <ele>1959.0</ele>
        <time>2016-08-06T12:05:51Z</time>
      </trkpt>
      <trkpt lat="40.425083" lon="-5.299617">
        <ele>1960.0</ele>
        <time>2016-08-06T12:05:53Z</time>
      </trkpt>
      <trkpt lat="40.424900" lon="-5.299767">
        <ele>1959.0</ele>
        <time>2016-08-06T12:05:55Z</time>
      </trkpt>
      <trkpt lat="40.424700" lon="-5.299950">
        <ele>1956.0</ele>
        <time>2016-08-06T12:05:57Z</time>
      </trkpt>
      <trkpt lat="40.424483" lon="-5.300100">
        <ele>1955.0</ele>
        <time>2016-08-06T12:05:59Z</time>
      </trkpt>
      <trkpt lat="40.424267" lon="-5.300233">
        <ele>1953.0</ele>
        <time>2016-08-06T12:06:01Z</time>
      </trkpt>
      <trkpt lat="40.424017" lon="-5.300367">
        <ele>1952.0</ele>
        <time>2016-08-06T12:06:03Z</time>
      </trkpt>
      <trkpt lat="40.423783" lon="-5.300517">
        <ele>1950.0</ele>
        <time>2016-08-06T12:06:05Z</time>
      </trkpt>
      <trkpt lat="40.423550" lon="-5.300700">
        <ele>1947.0</ele>
        <time>2016-08-06T12:06:07Z</time>
      </trkpt>
      <trkpt lat="40.423350" lon="-5.300950">
        <ele>1947.0</ele>
        <time>2016-08-06T12:06:09Z</time>
      </trkpt>
      <trkpt lat="40.423133" lon="-5.301083">
        <ele>1954.0</ele>
        <time>2016-08-06T12:06:11Z</time>
      </trkpt>
      <trkpt lat="40.422933" lon="-5.301167">
        <ele>1957.0</ele>
        <time>2016-08-06T12:06:13Z</time>
      </trkpt>
      <trkpt lat="40.422800" lon="-5.301283">
        <ele>1957.0</ele>
        <time>2016-08-06T12:06:15Z</time>
      </trkpt>
      <trkpt lat="40.422733" lon="-5.301417">
        <ele>1956.0</ele>
        <time>2016-08-06T12:06:17Z</time>
      </trkpt>
      <trkpt lat="40.422733" lon="-5.301517">
        <ele>1955.0</ele>
        <time>2016-08-06T12:06:19Z</time>
      </trkpt>
      <trkpt lat="40.422783" lon="-5.301600">
        <ele>1956.0</ele>
        <time>2016-08-06T12:06:21Z</time>
      </trkpt>
      <trkpt lat="40.422833" lon="-5.301633">
        <ele>1957.0</ele>
        <time>2016-08-06T12:06:23Z</time>
      </trkpt>
      <trkpt lat="40.422900" lon="-5.301650">
        <ele>1957.0</ele>
        <time>2016-08-06T12:06:25Z</time>
      </trkpt>
      <trkpt lat="40.422967" lon="-5.301683">
        <ele>1958.0</ele>
        <time>2016-08-06T12:06:27Z</time>
      </trkpt>
      <trkpt lat="40.423033" lon="-5.301667">
        <ele>1956.0</ele>
        <time>2016-08-06T12:06:29Z</time>
      </trkpt>
      <trkpt lat="40.423133" lon="-5.301600">
        <ele>1956.0</ele>
        <time>2016-08-06T12:06:31Z</time>
      </trkpt>
      <trkpt lat="40.423217" lon="-5.301550">
        <ele>1959.0</ele>
        <time>2016-08-06T12:06:33Z</time>
      </trkpt>
      <trkpt lat="40.423317" lon="-5.301483">
        <ele>1958.0</ele>
        <time>2016-08-06T12:06:35Z</time>
      </trkpt>
      <trkpt lat="40.423433" lon="-5.301417">
        <ele>1957.0</ele>
        <time>2016-08-06T12:06:37Z</time>
      </trkpt>
      <trkpt lat="40.423533" lon="-5.301367">
        <ele>1960.0</ele>
        <time>2016-08-06T12:06:39Z</time>
      </trkpt>
      <trkpt lat="40.423600" lon="-5.301317">
        <ele>1959.0</ele>
        <time>2016-08-06T12:06:41Z</time>
      </trkpt>
      <trkpt lat="40.423650" lon="-5.301267">
        <ele>1955.0</ele>
        <time>2016-08-06T12:06:43Z</time>
      </trkpt>
      <trkpt lat="40.423783" lon="-5.301250">
        <ele>1948.0</ele>
        <time>2016-08-06T12:06:45Z</time>
      </trkpt>
      <trkpt lat="40.423933" lon="-5.301267">
        <ele>1955.0</ele>
        <time>2016-08-06T12:06:47Z</time>
      </trkpt>
      <trkpt lat="40.423967" lon="-5.301283">
        <ele>1963.0</ele>
        <time>2016-08-06T12:06:49Z</time>
      </trkpt>
      <trkpt lat="40.423983" lon="-5.301283">
        <ele>1963.0</ele>
        <time>2016-08-06T12:06:51Z</time>
      </trkpt>
      <trkpt lat="40.424067" lon="-5.301267">
        <ele>1962.0</ele>
        <time>2016-08-06T12:06:53Z</time>
      </trkpt>
      <trkpt lat="40.424167" lon="-5.301267">
        <ele>1964.0</ele>
        <time>2016-08-06T12:06:55Z</time>
      </trkpt>
      <trkpt lat="40.424267" lon="-5.301250">
        <ele>1964.0</ele>
        <time>2016-08-06T12:06:57Z</time>
      </trkpt>
      <trkpt lat="40.424383" lon="-5.301217">
        <ele>1965.0</ele>
        <time>2016-08-06T12:06:59Z</time>
      </trkpt>
      <trkpt lat="40.424483" lon="-5.301233">
        <ele>1965.0</ele>
        <time>2016-08-06T12:07:01Z</time>
      </trkpt>
      <trkpt lat="40.424600" lon="-5.301233">
        <ele>1964.0</ele>
        <time>2016-08-06T12:07:03Z</time>
      </trkpt>
      <trkpt lat="40.424733" lon="-5.301183">
        <ele>1963.0</ele>
        <time>2016-08-06T12:07:05Z</time>
      </trkpt>
      <trkpt lat="40.424867" lon="-5.301150">
        <ele>1963.0</ele>
        <time>2016-08-06T12:07:07Z</time>
      </trkpt>
      <trkpt lat="40.424983" lon="-5.301150">
        <ele>1963.0</ele>
        <time>2016-08-06T12:07:09Z</time>
      </trkpt>
      <trkpt lat="40.425133" lon="-5.301083">
        <ele>1961.0</ele>
        <time>2016-08-06T12:07:11Z</time>
      </trkpt>
      <trkpt lat="40.425300" lon="-5.301067">
        <ele>1965.0</ele>
        <time>2016-08-06T12:07:13Z</time>
      </trkpt>
      <trkpt lat="40.425400" lon="-5.301033">
        <ele>1969.0</ele>
        <time>2016-08-06T12:07:15Z</time>
      </trkpt>
      <trkpt lat="40.425500" lon="-5.300883">
        <ele>1969.0</ele>
        <time>2016-08-06T12:07:17Z</time>
      </trkpt>
      <trkpt lat="40.425550" lon="-5.300650">
        <ele>1971.0</ele>
        <time>2016-08-06T12:07:19Z</time>
      </trkpt>
      <trkpt lat="40.425483" lon="-5.300400">
        <ele>1974.0</ele>
        <time>2016-08-06T12:07:21Z</time>
      </trkpt>
      <trkpt lat="40.425300" lon="-5.300267">
        <ele>1975.0</ele>
        <time>2016-08-06T12:07:23Z</time>
      </trkpt>
      <trkpt lat="40.425100" lon="-5.300283">
        <ele>1975.0</ele>
        <time>2016-08-06T12:07:25Z</time>
      </trkpt>
      <trkpt lat="40.424900" lon="-5.300383">
        <ele>1974.0</ele>
        <time>2016-08-06T12:07:27Z</time>
      </trkpt>
      <trkpt lat="40.424767" lon="-5.300583">
        <ele>1975.0</ele>
        <time>2016-08-06T12:07:29Z</time>
      </trkpt>
      <trkpt lat="40.424683" lon="-5.300817">
        <ele>1979.0</ele>
        <time>2016-08-06T12:07:31Z</time>
      </trkpt>
      <trkpt lat="40.424650" lon="-5.301050">
        <ele>1981.0</ele>
        <time>2016-08-06T12:07:33Z</time>
      </trkpt>
      <trkpt lat="40.424667" lon="-5.301283">
        <ele>1983.0</ele>
        <time>2016-08-06T12:07:35Z</time>
      </trkpt>
      <trkpt lat="40.424650" lon="-5.301500">
        <ele>1987.0</ele>
        <time>2016-08-06T12:07:37Z</time>
      </trkpt>
      <trkpt lat="40.424650" lon="-5.301700">
        <ele>1988.0</ele>
        <time>2016-08-06T12:07:39Z</time>
      </trkpt>
      <trkpt lat="40.424733" lon="-5.301833">
        <ele>1989.0</ele>
        <time>2016-08-06T12:07:41Z</time>
      </trkpt>
      <trkpt lat="40.424867" lon="-5.301883">
        <ele>1992.0</ele>
        <time>2016-08-06T12:07:43Z</time>
      </trkpt>
      <trkpt lat="40.424983" lon="-5.301967">
        <ele>1996.0</ele>
        <time>2016-08-06T12:07:45Z</time>
      </trkpt>
      <trkpt lat="40.425083" lon="-5.302000">
        <ele>1999.0</ele>
        <time>2016-08-06T12:07:47Z</time>
      </trkpt>
      <trkpt lat="40.425233" lon="-5.301917">
        <ele>2002.0</ele>
        <time>2016-08-06T12:07:49Z</time>
      </trkpt>
      <trkpt lat="40.425300" lon="-5.301750">
        <ele>2003.0</ele>
        <time>2016-08-06T12:07:51Z</time>
      </trkpt>
      <trkpt lat="40.425283" lon="-5.301533">
        <ele>2000.0</ele>
        <time>2016-08-06T12:07:53Z</time>
      </trkpt>
      <trkpt lat="40.425200" lon="-5.301283">
        <ele>1998.0</ele>
        <time>2016-08-06T12:07:55Z</time>
      </trkpt>
      <trkpt lat="40.425017" lon="-5.301117">
        <ele>1997.0</ele>
        <time>2016-08-06T12:07:57Z</time>
      </trkpt>
      <trkpt lat="40.424833" lon="-5.301017">
        <ele>1998.0</ele>
        <time>2016-08-06T12:07:59Z</time>
      </trkpt>
      <trkpt lat="40.424617" lon="-5.301050">
        <ele>1998.0</ele>
        <time>2016-08-06T12:08:01Z</time>
      </trkpt>
      <trkpt lat="40.424433" lon="-5.301200">
        <ele>1998.0</ele>
        <time>2016-08-06T12:08:03Z</time>
      </trkpt>
      <trkpt lat="40.424250" lon="-5.301383">
        <ele>2002.0</ele>
        <time>2016-08-06T12:08:05Z</time>
      </trkpt>
      <trkpt lat="40.424067" lon="-5.301500">
        <ele>2008.0</ele>
        <time>2016-08-06T12:08:07Z</time>
      </trkpt>
      <trkpt lat="40.423933" lon="-5.301600">
        <ele>2014.0</ele>
        <time>2016-08-06T12:08:09Z</time>
      </trkpt>
      <trkpt lat="40.423850" lon="-5.301733">
        <ele>2016.0</ele>
        <time>2016-08-06T12:08:11Z</time>
      </trkpt>
      <trkpt lat="40.423867" lon="-5.301850">
        <ele>2017.0</ele>
        <time>2016-08-06T12:08:13Z</time>
      </trkpt>
      <trkpt lat="40.423900" lon="-5.301933">
        <ele>2019.0</ele>
        <time>2016-08-06T12:08:15Z</time>
      </trkpt>
      <trkpt lat="40.424017" lon="-5.301967">
        <ele>2020.0</ele>
        <time>2016-08-06T12:08:17Z</time>
      </trkpt>
      <trkpt lat="40.424150" lon="-5.301917">
        <ele>2020.0</ele>
        <time>2016-08-06T12:08:19Z</time>
      </trkpt>
      <trkpt lat="40.424267" lon="-5.301833">
        <ele>2020.0</ele>
        <time>2016-08-06T12:08:21Z</time>
      </trkpt>
      <trkpt lat="40.424400" lon="-5.301650">
        <ele>2018.0</ele>
        <time>2016-08-06T12:08:23Z</time>
      </trkpt>
      <trkpt lat="40.424500" lon="-5.301417">
        <ele>2019.0</ele>
        <time>2016-08-06T12:08:25Z</time>
      </trkpt>
      <trkpt lat="40.424583" lon="-5.301283">
        <ele>2021.0</ele>
        <time>2016-08-06T12:08:27Z</time>
      </trkpt>
      <trkpt lat="40.424667" lon="-5.301183">
        <ele>2018.0</ele>
        <time>2016-08-06T12:08:29Z</time>
      </trkpt>
      <trkpt lat="40.424767" lon="-5.301033">
        <ele>2016.0</ele>
        <time>2016-08-06T12:08:31Z</time>
      </trkpt>
      <trkpt lat="40.424850" lon="-5.300900">
        <ele>2014.0</ele>
        <time>2016-08-06T12:08:33Z</time>
      </trkpt>
      <trkpt lat="40.424983" lon="-5.300883">
        <ele>2009.0</ele>
        <time>2016-08-06T12:08:35Z</time>
      </trkpt>
      <trkpt lat="40.425067" lon="-5.301033">
        <ele>2006.0</ele>
        <time>2016-08-06T12:08:37Z</time>
      </trkpt>
      <trkpt lat="40.425033" lon="-5.301267">
        <ele>2005.0</ele>
        <time>2016-08-06T12:08:39Z</time>
      </trkpt>
      <trkpt lat="40.424933" lon="-5.301450">
        <ele>2005.0</ele>
        <time>2016-08-06T12:08:41Z</time>
      </trkpt>
      <trkpt lat="40.424750" lon="-5.301633">
        <ele>2004.0</ele>
        <time>2016-08-06T12:08:43Z</time>
      </trkpt>
      <trkpt lat="40.424533" lon="-5.301783">
        <ele>2005.0</ele>
        <time>2016-08-06T12:08:45Z</time>
      </trkpt>
      <trkpt lat="40.424333" lon="-5.301900">
        <ele>2005.0</ele>
        <time>2016-08-06T12:08:47Z</time>
      </trkpt>
      <trkpt lat="40.424117" lon="-5.302017">
        <ele>2000.0</ele>
        <time>2016-08-06T12:08:49Z</time>
      </trkpt>
      <trkpt lat="40.423833" lon="-5.302067">
        <ele>1997.0</ele>
        <time>2016-08-06T12:08:51Z</time>
      </trkpt>
      <trkpt lat="40.423617" lon="-5.302133">
        <ele>2001.0</ele>
        <time>2016-08-06T12:08:53Z</time>
      </trkpt>
      <trkpt lat="40.423467" lon="-5.302250">
        <ele>1999.0</ele>
        <time>2016-08-06T12:08:55Z</time>
      </trkpt>
      <trkpt lat="40.423317" lon="-5.302417">
        <ele>1994.0</ele>
        <time>2016-08-06T12:08:57Z</time>
      </trkpt>
      <trkpt lat="40.423250" lon="-5.302617">
        <ele>1997.0</ele>
        <time>2016-08-06T12:08:59Z</time>
      </trkpt>
      <trkpt lat="40.423267" lon="-5.302733">
        <ele>1999.0</ele>
        <time>2016-08-06T12:09:01Z</time>
      </trkpt>
      <trkpt lat="40.423333" lon="-5.302817">
        <ele>1999.0</ele>
        <time>2016-08-06T12:09:03Z</time>
      </trkpt>
      <trkpt lat="40.423433" lon="-5.302867">
        <ele>1999.0</ele>
        <time>2016-08-06T12:09:05Z</time>
      </trkpt>
      <trkpt lat="40.423533" lon="-5.302950">
        <ele>1995.0</ele>
        <time>2016-08-06T12:09:07Z</time>
      </trkpt>
      <trkpt lat="40.423633" lon="-5.303067">
        <ele>1993.0</ele>
        <time>2016-08-06T12:09:09Z</time>
      </trkpt>
      <trkpt lat="40.423717" lon="-5.303183">
        <ele>1993.0</ele>
        <time>2016-08-06T12:09:11Z</time>
      </trkpt>
      <trkpt lat="40.423750" lon="-5.303300">
        <ele>1989.0</ele>
        <time>2016-08-06T12:09:13Z</time>
      </trkpt>
      <trkpt lat="40.423833" lon="-5.303500">
        <ele>1984.0</ele>
        <time>2016-08-06T12:09:15Z</time>
      </trkpt>
      <trkpt lat="40.423900" lon="-5.303650">
        <ele>1986.0</ele>
        <time>2016-08-06T12:09:17Z</time>
      </trkpt>
      <trkpt lat="40.423983" lon="-5.303650">
        <ele>1984.0</ele>
        <time>2016-08-06T12:09:19Z</time>
      </trkpt>
      <trkpt lat="40.424083" lon="-5.303550">
        <ele>1982.0</ele>
        <time>2016-08-06T12:09:21Z</time>
      </trkpt>
      <trkpt lat="40.424100" lon="-5.303367">
        <ele>1978.0</ele>
        <time>2016-08-06T12:09:23Z</time>
      </trkpt>
      <trkpt lat="40.424050" lon="-5.303133">
        <ele>1973.0</ele>
        <time>2016-08-06T12:09:25Z</time>
      </trkpt>
      <trkpt lat="40.424017" lon="-5.302867">
        <ele>1967.0</ele>
        <time>2016-08-06T12:09:27Z</time>
      </trkpt>
      <trkpt lat="40.424017" lon="-5.302600">
        <ele>1964.0</ele>
        <time>2016-08-06T12:09:29Z</time>
      </trkpt>
      <trkpt lat="40.423983" lon="-5.302367">
        <ele>1963.0</ele>
        <time>2016-08-06T12:09:31Z</time>
      </trkpt>
      <trkpt lat="40.424000" lon="-5.302133">
        <ele>1959.0</ele>
        <time>2016-08-06T12:09:33Z</time>
      </trkpt>
      <trkpt lat="40.424050" lon="-5.301900">
        <ele>1954.0</ele>
        <time>2016-08-06T12:09:35Z</time>
      </trkpt>
      <trkpt lat="40.424067" lon="-5.301683">
        <ele>1950.0</ele>
        <time>2016-08-06T12:09:37Z</time>
      </trkpt>
      <trkpt lat="40.424133" lon="-5.301467">
        <ele>1948.0</ele>
        <time>2016-08-06T12:09:39Z</time>
      </trkpt>
      <trkpt lat="40.424200" lon="-5.301283">
        <ele>1948.0</ele>
        <time>2016-08-06T12:09:41Z</time>
      </trkpt>
      <trkpt lat="40.424267" lon="-5.301100">
        <ele>1948.0</ele>
        <time>2016-08-06T12:09:43Z</time>
      </trkpt>
      <trkpt lat="40.424333" lon="-5.300917">
        <ele>1948.0</ele>
        <time>2016-08-06T12:09:45Z</time>
      </trkpt>
      <trkpt lat="40.424433" lon="-5.300767">
        <ele>1948.0</ele>
        <time>2016-08-06T12:09:47Z</time>
      </trkpt>
      <trkpt lat="40.424550" lon="-5.300650">
        <ele>1949.0</ele>
        <time>2016-08-06T12:09:49Z</time>
      </trkpt>
      <trkpt lat="40.424650" lon="-5.300533">
        <ele>1953.0</ele>
        <time>2016-08-06T12:09:51Z</time>
      </trkpt>
      <trkpt lat="40.424717" lon="-5.300417">
        <ele>1954.0</ele>
        <time>2016-08-06T12:09:53Z</time>
      </trkpt>
      <trkpt lat="40.424817" lon="-5.300267">
        <ele>1955.0</ele>
        <time>2016-08-06T12:09:55Z</time>
      </trkpt>
      <trkpt lat="40.424900" lon="-5.300083">
        <ele>1956.0</ele>
        <time>2016-08-06T12:09:57Z</time>
      </trkpt>
      <trkpt lat="40.424967" lon="-5.299950">
        <ele>1958.0</ele>
        <time>2016-08-06T12:09:59Z</time>
      </trkpt>
      <trkpt lat="40.425033" lon="-5.299817">
        <ele>1958.0</ele>
        <time>2016-08-06T12:10:01Z</time>
      </trkpt>
      <trkpt lat="40.425083" lon="-5.299667">
        <ele>1954.0</ele>
        <time>2016-08-06T12:10:03Z</time>
      </trkpt>
      <trkpt lat="40.425150" lon="-5.299517">
        <ele>1949.0</ele>
        <time>2016-08-06T12:10:05Z</time>
      </trkpt>
      <trkpt lat="40.425233" lon="-5.299433">
        <ele>1947.0</ele>
        <time>2016-08-06T12:10:07Z</time>
      </trkpt>
      <trkpt lat="40.425317" lon="-5.299400">
        <ele>1948.0</ele>
        <time>2016-08-06T12:10:09Z</time>
      </trkpt>
      <trkpt lat="40.425400" lon="-5.299400">
        <ele>1949.0</ele>
        <time>2016-08-06T12:10:11Z</time>
      </trkpt>
      <trkpt lat="40.425533" lon="-5.299433">
        <ele>1951.0</ele>
        <time>2016-08-06T12:10:13Z</time>
      </trkpt>
      <trkpt lat="40.425650" lon="-5.299400">
        <ele>1953.0</ele>
        <time>2016-08-06T12:10:15Z</time>
      </trkpt>
      <trkpt lat="40.425767" lon="-5.299317">
        <ele>1956.0</ele>
        <time>2016-08-06T12:10:17Z</time>
      </trkpt>
      <trkpt lat="40.425850" lon="-5.299233">
        <ele>1963.0</ele>
        <time>2016-08-06T12:10:19Z</time>
      </trkpt>
      <trkpt lat="40.425867" lon="-5.299117">
        <ele>1963.0</ele>
        <time>2016-08-06T12:10:21Z</time>
      </trkpt>
      <trkpt lat="40.425883" lon="-5.298950">
        <ele>1959.0</ele>
        <time>2016-08-06T12:10:23Z</time>
      </trkpt>
      <trkpt lat="40.425883" lon="-5.298667">
        <ele>1956.0</ele>
        <time>2016-08-06T12:10:25Z</time>
      </trkpt>
      <trkpt lat="40.425867" lon="-5.298400">
        <ele>1956.0</ele>
        <time>2016-08-06T12:10:27Z</time>
      </trkpt>
      <trkpt lat="40.425917" lon="-5.298217">
        <ele>1956.0</ele>
        <time>2016-08-06T12:10:29Z</time>
      </trkpt>
      <trkpt lat="40.425983" lon="-5.298083">
        <ele>1954.0</ele>
        <time>2016-08-06T12:10:31Z</time>
      </trkpt>
      <trkpt lat="40.426083" lon="-5.298050">
        <ele>1952.0</ele>
        <time>2016-08-06T12:10:33Z</time>
      </trkpt>
      <trkpt lat="40.426183" lon="-5.298067">
        <ele>1952.0</ele>
        <time>2016-08-06T12:10:35Z</time>
      </trkpt>
      <trkpt lat="40.426283" lon="-5.298100">
        <ele>1951.0</ele>
        <time>2016-08-06T12:10:37Z</time>
      </trkpt>
      <trkpt lat="40.426367" lon="-5.298200">
        <ele>1951.0</ele>
        <time>2016-08-06T12:10:39Z</time>
      </trkpt>
      <trkpt lat="40.426400" lon="-5.298400">
        <ele>1949.0</ele>
        <time>2016-08-06T12:10:41Z</time>
      </trkpt>
      <trkpt lat="40.426367" lon="-5.298633">
        <ele>1950.0</ele>
        <time>2016-08-06T12:10:43Z</time>
      </trkpt>
      <trkpt lat="40.426317" lon="-5.298800">
        <ele>1951.0</ele>
        <time>2016-08-06T12:10:45Z</time>
      </trkpt>
      <trkpt lat="40.426200" lon="-5.298950">
        <ele>1949.0</ele>
        <time>2016-08-06T12:10:47Z</time>
      </trkpt>
      <trkpt lat="40.426000" lon="-5.299083">
        <ele>1946.0</ele>
        <time>2016-08-06T12:10:49Z</time>
      </trkpt>
      <trkpt lat="40.425800" lon="-5.299250">
        <ele>1948.0</ele>
        <time>2016-08-06T12:10:51Z</time>
      </trkpt>
      <trkpt lat="40.425650" lon="-5.299383">
        <ele>1952.0</ele>
        <time>2016-08-06T12:10:53Z</time>
      </trkpt>
      <trkpt lat="40.425483" lon="-5.299500">
        <ele>1951.0</ele>
        <time>2016-08-06T12:10:55Z</time>
      </trkpt>
      <trkpt lat="40.425333" lon="-5.299683">
        <ele>1948.0</ele>
        <time>2016-08-06T12:10:57Z</time>
      </trkpt>
      <trkpt lat="40.425300" lon="-5.299867">
        <ele>1949.0</ele>
        <time>2016-08-06T12:10:59Z</time>
      </trkpt>
      <trkpt lat="40.425300" lon="-5.300017">
        <ele>1947.0</ele>
        <time>2016-08-06T12:11:01Z</time>
      </trkpt>
      <trkpt lat="40.425283" lon="-5.300183">
        <ele>1943.0</ele>
        <time>2016-08-06T12:11:03Z</time>
      </trkpt>
      <trkpt lat="40.425300" lon="-5.300383">
        <ele>1939.0</ele>
        <time>2016-08-06T12:11:05Z</time>
      </trkpt>
      <trkpt lat="40.425417" lon="-5.300517">
        <ele>1939.0</ele>
        <time>2016-08-06T12:11:07Z</time>
      </trkpt>
      <trkpt lat="40.425533" lon="-5.300517">
        <ele>1942.0</ele>
        <time>2016-08-06T12:11:09Z</time>
      </trkpt>
      <trkpt lat="40.425650" lon="-5.300517">
        <ele>1945.0</ele>
        <time>2016-08-06T12:11:11Z</time>
      </trkpt>
      <trkpt lat="40.425733" lon="-5.300500">
        <ele>1945.0</ele>
        <time>2016-08-06T12:11:13Z</time>
      </trkpt>
      <trkpt lat="40.425850" lon="-5.300400">
        <ele>1943.0</ele>
        <time>2016-08-06T12:11:15Z</time>
      </trkpt>
      <trkpt lat="40.425950" lon="-5.300250">
        <ele>1943.0</ele>
        <time>2016-08-06T12:11:17Z</time>
      </trkpt>
      <trkpt lat="40.426050" lon="-5.300117">
        <ele>1943.0</ele>
        <time>2016-08-06T12:11:19Z</time>
      </trkpt>
      <trkpt lat="40.426133" lon="-5.300000">
        <ele>1943.0</ele>
        <time>2016-08-06T12:11:21Z</time>
      </trkpt>
      <trkpt lat="40.426233" lon="-5.299883">
        <ele>1942.0</ele>
        <time>2016-08-06T12:11:23Z</time>
      </trkpt>
      <trkpt lat="40.426350" lon="-5.299750">
        <ele>1942.0</ele>
        <time>2016-08-06T12:11:25Z</time>
      </trkpt>
      <trkpt lat="40.426450" lon="-5.299667">
        <ele>1944.0</ele>
        <time>2016-08-06T12:11:27Z</time>
      </trkpt>
      <trkpt lat="40.426533" lon="-5.299567">
        <ele>1943.0</ele>
        <time>2016-08-06T12:11:29Z</time>
      </trkpt>
      <trkpt lat="40.426650" lon="-5.299467">
        <ele>1941.0</ele>
        <time>2016-08-06T12:11:31Z</time>
      </trkpt>
      <trkpt lat="40.426783" lon="-5.299350">
        <ele>1943.0</ele>
        <time>2016-08-06T12:11:33Z</time>
      </trkpt>
      <trkpt lat="40.426900" lon="-5.299250">
        <ele>1948.0</ele>
        <time>2016-08-06T12:11:35Z</time>
      </trkpt>
      <trkpt lat="40.427017" lon="-5.299167">
        <ele>1950.0</ele>
        <time>2016-08-06T12:11:37Z</time>
      </trkpt>
      <trkpt lat="40.427167" lon="-5.299067">
        <ele>1953.0</ele>
        <time>2016-08-06T12:11:39Z</time>
      </trkpt>
      <trkpt lat="40.427267" lon="-5.298967">
        <ele>1960.0</ele>
        <time>2016-08-06T12:11:41Z</time>
      </trkpt>
      <trkpt lat="40.427333" lon="-5.298867">
        <ele>1965.0</ele>
        <time>2016-08-06T12:11:43Z</time>
      </trkpt>
      <trkpt lat="40.427350" lon="-5.298667">
        <ele>1965.0</ele>
        <time>2016-08-06T12:11:45Z</time>
      </trkpt>
      <trkpt lat="40.427200" lon="-5.298400">
        <ele>1962.0</ele>
        <time>2016-08-06T12:11:47Z</time>
      </trkpt>
      <trkpt lat="40.426950" lon="-5.298250">
        <ele>1964.0</ele>
        <time>2016-08-06T12:11:49Z</time>
      </trkpt>
      <trkpt lat="40.426683" lon="-5.298283">
        <ele>1967.0</ele>
        <time>2016-08-06T12:11:51Z</time>
      </trkpt>
      <trkpt lat="40.426450" lon="-5.298450">
        <ele>1973.0</ele>
        <time>2016-08-06T12:11:53Z</time>
      </trkpt>
      <trkpt lat="40.426267" lon="-5.298533">
        <ele>1984.0</ele>
        <time>2016-08-06T12:11:55Z</time>
      </trkpt>
      <trkpt lat="40.426117" lon="-5.298600">
        <ele>1988.0</ele>
        <time>2016-08-06T12:11:57Z</time>
      </trkpt>
      <trkpt lat="40.425967" lon="-5.298750">
        <ele>1987.0</ele>
        <time>2016-08-06T12:11:59Z</time>
      </trkpt>
      <trkpt lat="40.425833" lon="-5.298950">
        <ele>1990.0</ele>
        <time>2016-08-06T12:12:01Z</time>
      </trkpt>
      <trkpt lat="40.425833" lon="-5.299100">
        <ele>1995.0</ele>
        <time>2016-08-06T12:12:03Z</time>
      </trkpt>
      <trkpt lat="40.425867" lon="-5.299167">
        <ele>1997.0</ele>
        <time>2016-08-06T12:12:05Z</time>
      </trkpt>
      <trkpt lat="40.425933" lon="-5.299200">
        <ele>1998.0</ele>
        <time>2016-08-06T12:12:07Z</time>
      </trkpt>
      <trkpt lat="40.426033" lon="-5.299183">
        <ele>2000.0</ele>
        <time>2016-08-06T12:12:09Z</time>
      </trkpt>
      <trkpt lat="40.426117" lon="-5.299133">
        <ele>2004.0</ele>
        <time>2016-08-06T12:12:11Z</time>
      </trkpt>
      <trkpt lat="40.426167" lon="-5.299050">
        <ele>2008.0</ele>
        <time>2016-08-06T12:12:13Z</time>
      </trkpt>
      <trkpt lat="40.426200" lon="-5.298917">
        <ele>2010.0</ele>
        <time>2016-08-06T12:12:15Z</time>
      </trkpt>
      <trkpt lat="40.426233" lon="-5.298700">
        <ele>2010.0</ele>
        <time>2016-08-06T12:12:17Z</time>
      </trkpt>
      <trkpt lat="40.426217" lon="-5.298450">
        <ele>2017.0</ele>
        <time>2016-08-06T12:12:19Z</time>
      </trkpt>
      <trkpt lat="40.426183" lon="-5.298233">
        <ele>2024.0</ele>
        <time>2016-08-06T12:12:21Z</time>
      </trkpt>
      <trkpt lat="40.426050" lon="-5.298000">
        <ele>2030.0</ele>
        <time>2016-08-06T12:12:23Z</time>
      </trkpt>
      <trkpt lat="40.425817" lon="-5.297817">
        <ele>2034.0</ele>
        <time>2016-08-06T12:12:25Z</time>
      </trkpt>
      <trkpt lat="40.425550" lon="-5.297750">
        <ele>2039.0</ele>
        <time>2016-08-06T12:12:27Z</time>
      </trkpt>
      <trkpt lat="40.425283" lon="-5.297867">
        <ele>2038.0</ele>
        <time>2016-08-06T12:12:29Z</time>
      </trkpt>
      <trkpt lat="40.425133" lon="-5.298117">
        <ele>2041.0</ele>
        <time>2016-08-06T12:12:31Z</time>
      </trkpt>
      <trkpt lat="40.425017" lon="-5.298300">
        <ele>2048.0</ele>
        <time>2016-08-06T12:12:33Z</time>
      </trkpt>
      <trkpt lat="40.424900" lon="-5.298450">
        <ele>2049.0</ele>
        <time>2016-08-06T12:12:35Z</time>
      </trkpt>
      <trkpt lat="40.424867" lon="-5.298667">
        <ele>2048.0</ele>
        <time>2016-08-06T12:12:37Z</time>
      </trkpt>
      <trkpt lat="40.424917" lon="-5.298767">
        <ele>2052.0</ele>
        <time>2016-08-06T12:12:39Z</time>
      </trkpt>
      <trkpt lat="40.424967" lon="-5.298767">
        <ele>2056.0</ele>
        <time>2016-08-06T12:12:41Z</time>
      </trkpt>
      <trkpt lat="40.425000" lon="-5.298783">
        <ele>2055.0</ele>
        <time>2016-08-06T12:12:43Z</time>
      </trkpt>
      <trkpt lat="40.425083" lon="-5.298767">
        <ele>2052.0</ele>
        <time>2016-08-06T12:12:45Z</time>
      </trkpt>
      <trkpt lat="40.425183" lon="-5.298733">
        <ele>2051.0</ele>
        <time>2016-08-06T12:12:47Z</time>
      </trkpt>
      <trkpt lat="40.425250" lon="-5.298700">
        <ele>2051.0</ele>
        <time>2016-08-06T12:12:49Z</time>
      </trkpt>
      <trkpt lat="40.425333" lon="-5.298667">
        <ele>2049.0</ele>
        <time>2016-08-06T12:12:51Z</time>
      </trkpt>
      <trkpt lat="40.425417" lon="-5.298633">
        <ele>2048.0</ele>
        <time>2016-08-06T12:12:53Z</time>
      </trkpt>
      <trkpt lat="40.425500" lon="-5.298617">
        <ele>2047.0</ele>
        <time>2016-08-06T12:12:55Z</time>
      </trkpt>
      <trkpt lat="40.425583" lon="-5.298600">
        <ele>2045.0</ele>
        <time>2016-08-06T12:12:57Z</time>
      </trkpt>
      <trkpt lat="40.425667" lon="-5.298650">
        <ele>2043.0</ele>
        <time>2016-08-06T12:12:59Z</time>
      </trkpt>
      <trkpt lat="40.425700" lon="-5.298800">
        <ele>2042.0</ele>
        <time>2016-08-06T12:13:01Z</time>
      </trkpt>
      <trkpt lat="40.425700" lon="-5.298967">
        <ele>2040.0</ele>
        <time>2016-08-06T12:13:03Z</time>
      </trkpt>
      <trkpt lat="40.425667" lon="-5.299200">
        <ele>2038.0</ele>
        <time>2016-08-06T12:13:05Z</time>
      </trkpt>
      <trkpt lat="40.425600" lon="-5.299417">
        <ele>2038.0</ele>
        <time>2016-08-06T12:13:07Z</time>
      </trkpt>
      <trkpt lat="40.425483" lon="-5.299617">
        <ele>2037.0</ele>
        <time>2016-08-06T12:13:09Z</time>
      </trkpt>
      <trkpt lat="40.425367" lon="-5.299817">
        <ele>2036.0</ele>
        <time>2016-08-06T12:13:11Z</time>
      </trkpt>
      <trkpt lat="40.425267" lon="-5.300033">
        <ele>2035.0</ele>
        <time>2016-08-06T12:13:13Z</time>
      </trkpt>
      <trkpt lat="40.425183" lon="-5.300250">
        <ele>2034.0</ele>
        <time>2016-08-06T12:13:15Z</time>
      </trkpt>
      <trkpt lat="40.425117" lon="-5.300467">
        <ele>2031.0</ele>
        <time>2016-08-06T12:13:17Z</time>
      </trkpt>
      <trkpt lat="40.425050" lon="-5.300700">
        <ele>2029.0</ele>
        <time>2016-08-06T12:13:19Z</time>
      </trkpt>
      <trkpt lat="40.424983" lon="-5.300933">
        <ele>2026.0</ele>
        <time>2016-08-06T12:13:21Z</time>
      </trkpt>
      <trkpt lat="40.424900" lon="-5.301200">
        <ele>2022.0</ele>
        <time>2016-08-06T12:13:23Z</time>
      </trkpt>
      <trkpt lat="40.424833" lon="-5.301433">
        <ele>2020.0</ele>
        <time>2016-08-06T12:13:25Z</time>
      </trkpt>
      <trkpt lat="40.424733" lon="-5.301650">
        <ele>2020.0</ele>
        <time>2016-08-06T12:13:27Z</time>
      </trkpt>
      <trkpt lat="40.424633" lon="-5.301833">
        <ele>2020.0</ele>
        <time>2016-08-06T12:13:29Z</time>
      </trkpt>
      <trkpt lat="40.424550" lon="-5.302033">
        <ele>2017.0</ele>
        <time>2016-08-06T12:13:31Z</time>
      </trkpt>
      <trkpt lat="40.424433" lon="-5.302267">
        <ele>2016.0</ele>
        <time>2016-08-06T12:13:33Z</time>
      </trkpt>
      <trkpt lat="40.424317" lon="-5.302450">
        <ele>2018.0</ele>
        <time>2016-08-06T12:13:35Z</time>
      </trkpt>
      <trkpt lat="40.424233" lon="-5.302633">
        <ele>2017.0</ele>
        <time>2016-08-06T12:13:37Z</time>
      </trkpt>
      <trkpt lat="40.424150" lon="-5.302833">
        <ele>2013.0</ele>
        <time>2016-08-06T12:13:39Z</time>
      </trkpt>
      <trkpt lat="40.424033" lon="-5.303033">
        <ele>2009.0</ele>
        <time>2016-08-06T12:13:41Z</time>
      </trkpt>
      <trkpt lat="40.423967" lon="-5.303267">
        <ele>2003.0</ele>
        <time>2016-08-06T12:13:43Z</time>
      </trkpt>
      <trkpt lat="40.423867" lon="-5.303500">
        <ele>2000.0</ele>
        <time>2016-08-06T12:13:45Z</time>
      </trkpt>
      <trkpt lat="40.423767" lon="-5.303700">
        <ele>1997.0</ele>
        <time>2016-08-06T12:13:47Z</time>
      </trkpt>
      <trkpt lat="40.423700" lon="-5.303917">
        <ele>1993.0</ele>
        <time>2016-08-06T12:13:49Z</time>
      </trkpt>
      <trkpt lat="40.423633" lon="-5.304133">
        <ele>1989.0</ele>
        <time>2016-08-06T12:13:51Z</time>
      </trkpt>
      <trkpt lat="40.423583" lon="-5.304367">
        <ele>1984.0</ele>
        <time>2016-08-06T12:13:53Z</time>
      </trkpt>
      <trkpt lat="40.423533" lon="-5.304633">
        <ele>1979.0</ele>
        <time>2016-08-06T12:13:55Z</time>
      </trkpt>
      <trkpt lat="40.423467" lon="-5.304900">
        <ele>1977.0</ele>
        <time>2016-08-06T12:13:57Z</time>
      </trkpt>
      <trkpt lat="40.423417" lon="-5.305150">
        <ele>1976.0</ele>
        <time>2016-08-06T12:13:59Z</time>
      </trkpt>
      <trkpt lat="40.423367" lon="-5.305417">
        <ele>1976.0</ele>
        <time>2016-08-06T12:14:01Z</time>
      </trkpt>
      <trkpt lat="40.423283" lon="-5.305667">
        <ele>1977.0</ele>
        <time>2016-08-06T12:14:03Z</time>
      </trkpt>
      <trkpt lat="40.423200" lon="-5.305867">
        <ele>1977.0</ele>
        <time>2016-08-06T12:14:05Z</time>
      </trkpt>
      <trkpt lat="40.423183" lon="-5.306067">
        <ele>1973.0</ele>
        <time>2016-08-06T12:14:07Z</time>
      </trkpt>
      <trkpt lat="40.423167" lon="-5.306267">
        <ele>1971.0</ele>
        <time>2016-08-06T12:14:09Z</time>
      </trkpt>
      <trkpt lat="40.423150" lon="-5.306450">
        <ele>1969.0</ele>
        <time>2016-08-06T12:14:11Z</time>
      </trkpt>
      <trkpt lat="40.423133" lon="-5.306650">
        <ele>1966.0</ele>
        <time>2016-08-06T12:14:13Z</time>
      </trkpt>
      <trkpt lat="40.423083" lon="-5.306900">
        <ele>1964.0</ele>
        <time>2016-08-06T12:14:15Z</time>
      </trkpt>
      <trkpt lat="40.423017" lon="-5.307117">
        <ele>1966.0</ele>
        <time>2016-08-06T12:14:17Z</time>
      </trkpt>
      <trkpt lat="40.422983" lon="-5.307300">
        <ele>1965.0</ele>
        <time>2016-08-06T12:14:19Z</time>
      </trkpt>
      <trkpt lat="40.422933" lon="-5.307533">
        <ele>1961.0</ele>
        <time>2016-08-06T12:14:21Z</time>
      </trkpt>
      <trkpt lat="40.422917" lon="-5.307750">
        <ele>1961.0</ele>
        <time>2016-08-06T12:14:23Z</time>
      </trkpt>
      <trkpt lat="40.422883" lon="-5.307950">
        <ele>1961.0</ele>
        <time>2016-08-06T12:14:25Z</time>
      </trkpt>
      <trkpt lat="40.422867" lon="-5.308150">
        <ele>1958.0</ele>
        <time>2016-08-06T12:14:27Z</time>
      </trkpt>
      <trkpt lat="40.422850" lon="-5.308383">
        <ele>1955.0</ele>
        <time>2016-08-06T12:14:29Z</time>
      </trkpt>
      <trkpt lat="40.422850" lon="-5.308600">
        <ele>1954.0</ele>
        <time>2016-08-06T12:14:31Z</time>
      </trkpt>
      <trkpt lat="40.422850" lon="-5.308817">
        <ele>1952.0</ele>
        <time>2016-08-06T12:14:33Z</time>
      </trkpt>
      <trkpt lat="40.422833" lon="-5.309067">
        <ele>1950.0</ele>
        <time>2016-08-06T12:14:35Z</time>
      </trkpt>
      <trkpt lat="40.422800" lon="-5.309333">
        <ele>1951.0</ele>
        <time>2016-08-06T12:14:37Z</time>
      </trkpt>
      <trkpt lat="40.422750" lon="-5.309567">
        <ele>1952.0</ele>
        <time>2016-08-06T12:14:39Z</time>
      </trkpt>
      <trkpt lat="40.422700" lon="-5.309800">
        <ele>1951.0</ele>
        <time>2016-08-06T12:14:41Z</time>
      </trkpt>
      <trkpt lat="40.422667" lon="-5.310050">
        <ele>1949.0</ele>
        <time>2016-08-06T12:14:43Z</time>
      </trkpt>
      <trkpt lat="40.422617" lon="-5.310283">
        <ele>1948.0</ele>
        <time>2016-08-06T12:14:45Z</time>
      </trkpt>
      <trkpt lat="40.422550" lon="-5.310517">
        <ele>1946.0</ele>
        <time>2016-08-06T12:14:47Z</time>
      </trkpt>
      <trkpt lat="40.422483" lon="-5.310750">
        <ele>1945.0</ele>
        <time>2016-08-06T12:14:49Z</time>
      </trkpt>
      <trkpt lat="40.422417" lon="-5.311017">
        <ele>1945.0</ele>
        <time>2016-08-06T12:14:51Z</time>
      </trkpt>
      <trkpt lat="40.422333" lon="-5.311233">
        <ele>1946.0</ele>
        <time>2016-08-06T12:14:53Z</time>
      </trkpt>
      <trkpt lat="40.422267" lon="-5.311450">
        <ele>1944.0</ele>
        <time>2016-08-06T12:14:55Z</time>
      </trkpt>
      <trkpt lat="40.422217" lon="-5.311700">
        <ele>1941.0</ele>
        <time>2016-08-06T12:14:57Z</time>
      </trkpt>
      <trkpt lat="40.422183" lon="-5.311917">
        <ele>1941.0</ele>
        <time>2016-08-06T12:14:59Z</time>
      </trkpt>
      <trkpt lat="40.422183" lon="-5.312117">
        <ele>1940.0</ele>
        <time>2016-08-06T12:15:01Z</time>
      </trkpt>
      <trkpt lat="40.422167" lon="-5.312333">
        <ele>1940.0</ele>
        <time>2016-08-06T12:15:03Z</time>
      </trkpt>
      <trkpt lat="40.422133" lon="-5.312533">
        <ele>1941.0</ele>
        <time>2016-08-06T12:15:05Z</time>
      </trkpt>
      <trkpt lat="40.422117" lon="-5.312733">
        <ele>1939.0</ele>
        <time>2016-08-06T12:15:07Z</time>
      </trkpt>
      <trkpt lat="40.422117" lon="-5.312950">
        <ele>1937.0</ele>
        <time>2016-08-06T12:15:09Z</time>
      </trkpt>
      <trkpt lat="40.422117" lon="-5.313183">
        <ele>1940.0</ele>
        <time>2016-08-06T12:15:11Z</time>
      </trkpt>
      <trkpt lat="40.422117" lon="-5.313383">
        <ele>1943.0</ele>
        <time>2016-08-06T12:15:13Z</time>
      </trkpt>
      <trkpt lat="40.422100" lon="-5.313567">
        <ele>1942.0</ele>
        <time>2016-08-06T12:15:15Z</time>
      </trkpt>
      <trkpt lat="40.422067" lon="-5.313817">
        <ele>1936.0</ele>
        <time>2016-08-06T12:15:17Z</time>
      </trkpt>
      <trkpt lat="40.422050" lon="-5.314083">
        <ele>1935.0</ele>
        <time>2016-08-06T12:15:19Z</time>
      </trkpt>
      <trkpt lat="40.422050" lon="-5.314300">
        <ele>1933.0</ele>
        <time>2016-08-06T12:15:21Z</time>
      </trkpt>
      <trkpt lat="40.422067" lon="-5.314533">
        <ele>1930.0</ele>
        <time>2016-08-06T12:15:23Z</time>
      </trkpt>
      <trkpt lat="40.422083" lon="-5.314767">
        <ele>1930.0</ele>
        <time>2016-08-06T12:15:25Z</time>
      </trkpt>
      <trkpt lat="40.422083" lon="-5.314967">
        <ele>1930.0</ele>
        <time>2016-08-06T12:15:27Z</time>
      </trkpt>
      <trkpt lat="40.422033" lon="-5.315200">
        <ele>1929.0</ele>
        <time>2016-08-06T12:15:29Z</time>
      </trkpt>
      <trkpt lat="40.421983" lon="-5.315450">
        <ele>1930.0</ele>
        <time>2016-08-06T12:15:31Z</time>
      </trkpt>
      <trkpt lat="40.421967" lon="-5.315683">
        <ele>1933.0</ele>
        <time>2016-08-06T12:15:33Z</time>
      </trkpt>
      <trkpt lat="40.422000" lon="-5.315883">
        <ele>1935.0</ele>
        <time>2016-08-06T12:15:35Z</time>
      </trkpt>
      <trkpt lat="40.422100" lon="-5.316017">
        <ele>1933.0</ele>
        <time>2016-08-06T12:15:37Z</time>
      </trkpt>
      <trkpt lat="40.422217" lon="-5.316050">
        <ele>1934.0</ele>
        <time>2016-08-06T12:15:39Z</time>
      </trkpt>
      <trkpt lat="40.422300" lon="-5.316033">
        <ele>1934.0</ele>
        <time>2016-08-06T12:15:41Z</time>
      </trkpt>
      <trkpt lat="40.422333" lon="-5.315933">
        <ele>1932.0</ele>
        <time>2016-08-06T12:15:43Z</time>
      </trkpt>
      <trkpt lat="40.422333" lon="-5.315783">
        <ele>1930.0</ele>
        <time>2016-08-06T12:15:45Z</time>
      </trkpt>
      <trkpt lat="40.422267" lon="-5.315583">
        <ele>1928.0</ele>
        <time>2016-08-06T12:15:47Z</time>
      </trkpt>
      <trkpt lat="40.422167" lon="-5.315400">
        <ele>1926.0</ele>
        <time>2016-08-06T12:15:49Z</time>
      </trkpt>
      <trkpt lat="40.422100" lon="-5.315183">
        <ele>1924.0</ele>
        <time>2016-08-06T12:15:51Z</time>
      </trkpt>
      <trkpt lat="40.422067" lon="-5.314983">
        <ele>1925.0</ele>
        <time>2016-08-06T12:15:53Z</time>
      </trkpt>
      <trkpt lat="40.422033" lon="-5.314833">
        <ele>1924.0</ele>
        <time>2016-08-06T12:15:55Z</time>
      </trkpt>
      <trkpt lat="40.422050" lon="-5.314667">
        <ele>1920.0</ele>
        <time>2016-08-06T12:15:57Z</time>
      </trkpt>
      <trkpt lat="40.422117" lon="-5.314583">
        <ele>1917.0</ele>
        <time>2016-08-06T12:15:59Z</time>
      </trkpt>
      <trkpt lat="40.422200" lon="-5.314617">
        <ele>1915.0</ele>
        <time>2016-08-06T12:16:01Z</time>
      </trkpt>
      <trkpt lat="40.422267" lon="-5.314717">
        <ele>1914.0</ele>
        <time>2016-08-06T12:16:03Z</time>
      </trkpt>
      <trkpt lat="40.422317" lon="-5.314883">
        <ele>1912.0</ele>
        <time>2016-08-06T12:16:05Z</time>
      </trkpt>
      <trkpt lat="40.422383" lon="-5.315100">
        <ele>1912.0</ele>
        <time>2016-08-06T12:16:07Z</time>
      </trkpt>
      <trkpt lat="40.422417" lon="-5.315283">
        <ele>1918.0</ele>
        <time>2016-08-06T12:16:09Z</time>
      </trkpt>
      <trkpt lat="40.422433" lon="-5.315467">
        <ele>1920.0</ele>
        <time>2016-08-06T12:16:11Z</time>
      </trkpt>
      <trkpt lat="40.422467" lon="-5.315683">
        <ele>1918.0</ele>
        <time>2016-08-06T12:16:13Z</time>
      </trkpt>
      <trkpt lat="40.422433" lon="-5.315933">
        <ele>1916.0</ele>
        <time>2016-08-06T12:16:15Z</time>
      </trkpt>
      <trkpt lat="40.422350" lon="-5.316167">
        <ele>1914.0</ele>
        <time>2016-08-06T12:16:17Z</time>
      </trkpt>
      <trkpt lat="40.422250" lon="-5.316417">
        <ele>1910.0</ele>
        <time>2016-08-06T12:16:19Z</time>
      </trkpt>
      <trkpt lat="40.422133" lon="-5.316683">
        <ele>1907.0</ele>
        <time>2016-08-06T12:16:21Z</time>
      </trkpt>
      <trkpt lat="40.422050" lon="-5.316950">
        <ele>1905.0</ele>
        <time>2016-08-06T12:16:23Z</time>
      </trkpt>
      <trkpt lat="40.421983" lon="-5.317217">
        <ele>1904.0</ele>
        <time>2016-08-06T12:16:25Z</time>
      </trkpt>
      <trkpt lat="40.421900" lon="-5.317483">
        <ele>1903.0</ele>
        <time>2016-08-06T12:16:27Z</time>
      </trkpt>
      <trkpt lat="40.421850" lon="-5.317750">
        <ele>1902.0</ele>
        <time>2016-08-06T12:16:29Z</time>
      </trkpt>
      <trkpt lat="40.421800" lon="-5.318033">
        <ele>1900.0</ele>
        <time>2016-08-06T12:16:31Z</time>
      </trkpt>
      <trkpt lat="40.421733" lon="-5.318300">
        <ele>1899.0</ele>
        <time>2016-08-06T12:16:33Z</time>
      </trkpt>
      <trkpt lat="40.421683" lon="-5.318533">
        <ele>1898.0</ele>
        <time>2016-08-06T12:16:35Z</time>
      </trkpt>
      <trkpt lat="40.421650" lon="-5.318800">
        <ele>1897.0</ele>
        <time>2016-08-06T12:16:37Z</time>
      </trkpt>
      <trkpt lat="40.421617" lon="-5.319083">
        <ele>1897.0</ele>
        <time>2016-08-06T12:16:39Z</time>
      </trkpt>
      <trkpt lat="40.421567" lon="-5.319350">
        <ele>1898.0</ele>
        <time>2016-08-06T12:16:41Z</time>
      </trkpt>
      <trkpt lat="40.421517" lon="-5.319583">
        <ele>1897.0</ele>
        <time>2016-08-06T12:16:43Z</time>
      </trkpt>
      <trkpt lat="40.421500" lon="-5.319833">
        <ele>1898.0</ele>
        <time>2016-08-06T12:16:45Z</time>
      </trkpt>
      <trkpt lat="40.421483" lon="-5.320083">
        <ele>1900.0</ele>
        <time>2016-08-06T12:16:47Z</time>
      </trkpt>
      <trkpt lat="40.421417" lon="-5.320350">
        <ele>1904.0</ele>
        <time>2016-08-06T12:16:49Z</time>
      </trkpt>
      <trkpt lat="40.421333" lon="-5.320583">
        <ele>1909.0</ele>
        <time>2016-08-06T12:16:51Z</time>
      </trkpt>
      <trkpt lat="40.421317" lon="-5.320817">
        <ele>1910.0</ele>
        <time>2016-08-06T12:16:53Z</time>
      </trkpt>
      <trkpt lat="40.421367" lon="-5.321017">
        <ele>1910.0</ele>
        <time>2016-08-06T12:16:55Z</time>
      </trkpt>
      <trkpt lat="40.421433" lon="-5.321150">
        <ele>1910.0</ele>
        <time>2016-08-06T12:16:57Z</time>
      </trkpt>
      <trkpt lat="40.421517" lon="-5.321200">
        <ele>1909.0</ele>
        <time>2016-08-06T12:16:59Z</time>
      </trkpt>
      <trkpt lat="40.421617" lon="-5.321233">
        <ele>1906.0</ele>
        <time>2016-08-06T12:17:01Z</time>
      </trkpt>
      <trkpt lat="40.421733" lon="-5.321250">
        <ele>1904.0</ele>
        <time>2016-08-06T12:17:03Z</time>
      </trkpt>
      <trkpt lat="40.421833" lon="-5.321250">
        <ele>1905.0</ele>
        <time>2016-08-06T12:17:05Z</time>
      </trkpt>
      <trkpt lat="40.421883" lon="-5.321133">
        <ele>1902.0</ele>
        <time>2016-08-06T12:17:07Z</time>
      </trkpt>
      <trkpt lat="40.421850" lon="-5.320900">
        <ele>1901.0</ele>
        <time>2016-08-06T12:17:09Z</time>
      </trkpt>
      <trkpt lat="40.421750" lon="-5.320750">
        <ele>1906.0</ele>
        <time>2016-08-06T12:17:11Z</time>
      </trkpt>
      <trkpt lat="40.421633" lon="-5.320717">
        <ele>1906.0</ele>
        <time>2016-08-06T12:17:13Z</time>
      </trkpt>
      <trkpt lat="40.421517" lon="-5.320583">
        <ele>1901.0</ele>
        <time>2016-08-06T12:17:15Z</time>
      </trkpt>
      <trkpt lat="40.421450" lon="-5.320367">
        <ele>1899.0</ele>
        <time>2016-08-06T12:17:17Z</time>
      </trkpt>
      <trkpt lat="40.421467" lon="-5.320233">
        <ele>1900.0</ele>
        <time>2016-08-06T12:17:19Z</time>
      </trkpt>
      <trkpt lat="40.421483" lon="-5.320167">
        <ele>1898.0</ele>
        <time>2016-08-06T12:17:21Z</time>
      </trkpt>
      <trkpt lat="40.421600" lon="-5.320133">
        <ele>1892.0</ele>
        <time>2016-08-06T12:17:23Z</time>
      </trkpt>
      <trkpt lat="40.421767" lon="-5.320167">
        <ele>1891.0</ele>
        <time>2016-08-06T12:17:25Z</time>
      </trkpt>
      <trkpt lat="40.421850" lon="-5.320300">
        <ele>1892.0</ele>
        <time>2016-08-06T12:17:27Z</time>
      </trkpt>
      <trkpt lat="40.421867" lon="-5.320517">
        <ele>1887.0</ele>
        <time>2016-08-06T12:17:29Z</time>
      </trkpt>
      <trkpt lat="40.421833" lon="-5.320817">
        <ele>1884.0</ele>
        <time>2016-08-06T12:17:31Z</time>
      </trkpt>
      <trkpt lat="40.421717" lon="-5.321083">
        <ele>1888.0</ele>
        <time>2016-08-06T12:17:33Z</time>
      </trkpt>
      <trkpt lat="40.421600" lon="-5.321283">
        <ele>1890.0</ele>
        <time>2016-08-06T12:17:35Z</time>
      </trkpt>
      <trkpt lat="40.421433" lon="-5.321483">
        <ele>1888.0</ele>
        <time>2016-08-06T12:17:37Z</time>
      </trkpt>
      <trkpt lat="40.421267" lon="-5.321683">
        <ele>1887.0</ele>
        <time>2016-08-06T12:17:39Z</time>
      </trkpt>
      <trkpt lat="40.421083" lon="-5.321867">
        <ele>1887.0</ele>
        <time>2016-08-06T12:17:41Z</time>
      </trkpt>
      <trkpt lat="40.420917" lon="-5.322067">
        <ele>1885.0</ele>
        <time>2016-08-06T12:17:43Z</time>
      </trkpt>
      <trkpt lat="40.420767" lon="-5.322283">
        <ele>1883.0</ele>
        <time>2016-08-06T12:17:45Z</time>
      </trkpt>
      <trkpt lat="40.420617" lon="-5.322517">
        <ele>1882.0</ele>
        <time>2016-08-06T12:17:47Z</time>
      </trkpt>
      <trkpt lat="40.420500" lon="-5.322767">
        <ele>1880.0</ele>
        <time>2016-08-06T12:17:49Z</time>
      </trkpt>
      <trkpt lat="40.420400" lon="-5.323000">
        <ele>1881.0</ele>
        <time>2016-08-06T12:17:51Z</time>
      </trkpt>
      <trkpt lat="40.420300" lon="-5.323233">
        <ele>1883.0</ele>
        <time>2016-08-06T12:17:53Z</time>
      </trkpt>
      <trkpt lat="40.420250" lon="-5.323450">
        <ele>1881.0</ele>
        <time>2016-08-06T12:17:55Z</time>
      </trkpt>
      <trkpt lat="40.420267" lon="-5.323667">
        <ele>1877.0</ele>
        <time>2016-08-06T12:17:57Z</time>
      </trkpt>
      <trkpt lat="40.420333" lon="-5.323850">
        <ele>1874.0</ele>
        <time>2016-08-06T12:17:59Z</time>
      </trkpt>
      <trkpt lat="40.420417" lon="-5.323967">
        <ele>1874.0</ele>
        <time>2016-08-06T12:18:01Z</time>
      </trkpt>
      <trkpt lat="40.420500" lon="-5.324067">
        <ele>1872.0</ele>
        <time>2016-08-06T12:18:03Z</time>
      </trkpt>
      <trkpt lat="40.420600" lon="-5.324100">
        <ele>1870.0</ele>
        <time>2016-08-06T12:18:05Z</time>
      </trkpt>
      <trkpt lat="40.420717" lon="-5.324117">
        <ele>1867.0</ele>
        <time>2016-08-06T12:18:07Z</time>
      </trkpt>
      <trkpt lat="40.420817" lon="-5.324117">
        <ele>1865.0</ele>
        <time>2016-08-06T12:18:09Z</time>
      </trkpt>
      <trkpt lat="40.420917" lon="-5.324117">
        <ele>1862.0</ele>
        <time>2016-08-06T12:18:11Z</time>
      </trkpt>
      <trkpt lat="40.421033" lon="-5.324067">
        <ele>1859.0</ele>
        <time>2016-08-06T12:18:13Z</time>
      </trkpt>
      <trkpt lat="40.421133" lon="-5.324033">
        <ele>1858.0</ele>
        <time>2016-08-06T12:18:15Z</time>
      </trkpt>
      <trkpt lat="40.421217" lon="-5.323983">
        <ele>1858.0</ele>
        <time>2016-08-06T12:18:17Z</time>
      </trkpt>
      <trkpt lat="40.421333" lon="-5.323917">
        <ele>1857.0</ele>
        <time>2016-08-06T12:18:19Z</time>
      </trkpt>
      <trkpt lat="40.421433" lon="-5.323867">
        <ele>1858.0</ele>
        <time>2016-08-06T12:18:21Z</time>
      </trkpt>
      <trkpt lat="40.421517" lon="-5.323817">
        <ele>1859.0</ele>
        <time>2016-08-06T12:18:23Z</time>
      </trkpt>
      <trkpt lat="40.421633" lon="-5.323767">
        <ele>1857.0</ele>
        <time>2016-08-06T12:18:25Z</time>
      </trkpt>
      <trkpt lat="40.421717" lon="-5.323683">
        <ele>1854.0</ele>
        <time>2016-08-06T12:18:27Z</time>
      </trkpt>
      <trkpt lat="40.421817" lon="-5.323600">
        <ele>1851.0</ele>
        <time>2016-08-06T12:18:29Z</time>
      </trkpt>
      <trkpt lat="40.421917" lon="-5.323533">
        <ele>1848.0</ele>
        <time>2016-08-06T12:18:31Z</time>
      </trkpt>
      <trkpt lat="40.422017" lon="-5.323483">
        <ele>1845.0</ele>
        <time>2016-08-06T12:18:33Z</time>
      </trkpt>
      <trkpt lat="40.422133" lon="-5.323450">
        <ele>1842.0</ele>
        <time>2016-08-06T12:18:35Z</time>
      </trkpt>
      <trkpt lat="40.422267" lon="-5.323433">
        <ele>1842.0</ele>
        <time>2016-08-06T12:18:37Z</time>
      </trkpt>
      <trkpt lat="40.422333" lon="-5.323400">
        <ele>1842.0</ele>
        <time>2016-08-06T12:18:39Z</time>
      </trkpt>
      <trkpt lat="40.422433" lon="-5.323417">
        <ele>1838.0</ele>
        <time>2016-08-06T12:18:41Z</time>
      </trkpt>
      <trkpt lat="40.422550" lon="-5.323483">
        <ele>1836.0</ele>
        <time>2016-08-06T12:18:43Z</time>
      </trkpt>
      <trkpt lat="40.422650" lon="-5.323550">
        <ele>1836.0</ele>
        <time>2016-08-06T12:18:45Z</time>
      </trkpt>
      <trkpt lat="40.422750" lon="-5.323600">
        <ele>1834.0</ele>
        <time>2016-08-06T12:18:47Z</time>
      </trkpt>
      <trkpt lat="40.422850" lon="-5.323667">
        <ele>1833.0</ele>
        <time>2016-08-06T12:18:49Z</time>
      </trkpt>
      <trkpt lat="40.422933" lon="-5.323750">
        <ele>1831.0</ele>
        <time>2016-08-06T12:18:51Z</time>
      </trkpt>
      <trkpt lat="40.423017" lon="-5.323883">
        <ele>1829.0</ele>
        <time>2016-08-06T12:18:53Z</time>
      </trkpt>
      <trkpt lat="40.423067" lon="-5.324033">
        <ele>1827.0</ele>
        <time>2016-08-06T12:18:55Z</time>
      </trkpt>
      <trkpt lat="40.423133" lon="-5.324217">
        <ele>1826.0</ele>
        <time>2016-08-06T12:18:57Z</time>
      </trkpt>
      <trkpt lat="40.423217" lon="-5.324400">
        <ele>1826.0</ele>
        <time>2016-08-06T12:18:59Z</time>
      </trkpt>
      <trkpt lat="40.423250" lon="-5.324617">
        <ele>1829.0</ele>
        <time>2016-08-06T12:19:01Z</time>
      </trkpt>
      <trkpt lat="40.423250" lon="-5.324867">
        <ele>1833.0</ele>
        <time>2016-08-06T12:19:03Z</time>
      </trkpt>
      <trkpt lat="40.423233" lon="-5.325067">
        <ele>1839.0</ele>
        <time>2016-08-06T12:19:05Z</time>
      </trkpt>
      <trkpt lat="40.423133" lon="-5.325267">
        <ele>1840.0</ele>
        <time>2016-08-06T12:19:07Z</time>
      </trkpt>
      <trkpt lat="40.423000" lon="-5.325483">
        <ele>1840.0</ele>
        <time>2016-08-06T12:19:09Z</time>
      </trkpt>
      <trkpt lat="40.422950" lon="-5.325700">
        <ele>1840.0</ele>
        <time>2016-08-06T12:19:11Z</time>
      </trkpt>
      <trkpt lat="40.422917" lon="-5.325900">
        <ele>1839.0</ele>
        <time>2016-08-06T12:19:13Z</time>
      </trkpt>
      <trkpt lat="40.422883" lon="-5.326117">
        <ele>1836.0</ele>
        <time>2016-08-06T12:19:15Z</time>
      </trkpt>
      <trkpt lat="40.422900" lon="-5.326350">
        <ele>1831.0</ele>
        <time>2016-08-06T12:19:17Z</time>
      </trkpt>
      <trkpt lat="40.422900" lon="-5.326600">
        <ele>1828.0</ele>
        <time>2016-08-06T12:19:19Z</time>
      </trkpt>
      <trkpt lat="40.422867" lon="-5.326817">
        <ele>1826.0</ele>
        <time>2016-08-06T12:19:21Z</time>
      </trkpt>
      <trkpt lat="40.422867" lon="-5.327017">
        <ele>1822.0</ele>
        <time>2016-08-06T12:19:23Z</time>
      </trkpt>
      <trkpt lat="40.422900" lon="-5.327200">
        <ele>1818.0</ele>
        <time>2016-08-06T12:19:25Z</time>
      </trkpt>
      <trkpt lat="40.422950" lon="-5.327317">
        <ele>1815.0</ele>
        <time>2016-08-06T12:19:27Z</time>
      </trkpt>
      <trkpt lat="40.423017" lon="-5.327367">
        <ele>1811.0</ele>
        <time>2016-08-06T12:19:29Z</time>
      </trkpt>
      <trkpt lat="40.423117" lon="-5.327300">
        <ele>1806.0</ele>
        <time>2016-08-06T12:19:31Z</time>
      </trkpt>
      <trkpt lat="40.423200" lon="-5.327183">
        <ele>1803.0</ele>
        <time>2016-08-06T12:19:33Z</time>
      </trkpt>
      <trkpt lat="40.423283" lon="-5.327083">
        <ele>1799.0</ele>
        <time>2016-08-06T12:19:35Z</time>
      </trkpt>
      <trkpt lat="40.423383" lon="-5.326967">
        <ele>1794.0</ele>
        <time>2016-08-06T12:19:37Z</time>
      </trkpt>
      <trkpt lat="40.423467" lon="-5.326850">
        <ele>1792.0</ele>
        <time>2016-08-06T12:19:39Z</time>
      </trkpt>
      <trkpt lat="40.423533" lon="-5.326750">
        <ele>1791.0</ele>
        <time>2016-08-06T12:19:41Z</time>
      </trkpt>
      <trkpt lat="40.423583" lon="-5.326600">
        <ele>1787.0</ele>
        <time>2016-08-06T12:19:43Z</time>
      </trkpt>
      <trkpt lat="40.423650" lon="-5.326450">
        <ele>1784.0</ele>
        <time>2016-08-06T12:19:45Z</time>
      </trkpt>
      <trkpt lat="40.423683" lon="-5.326267">
        <ele>1783.0</ele>
        <time>2016-08-06T12:19:47Z</time>
      </trkpt>
      <trkpt lat="40.423717" lon="-5.326100">
        <ele>1781.0</ele>
        <time>2016-08-06T12:19:49Z</time>
      </trkpt>
      <trkpt lat="40.423750" lon="-5.325917">
        <ele>1778.0</ele>
        <time>2016-08-06T12:19:51Z</time>
      </trkpt>
      <trkpt lat="40.423783" lon="-5.325700">
        <ele>1777.0</ele>
        <time>2016-08-06T12:19:53Z</time>
      </trkpt>
      <trkpt lat="40.423767" lon="-5.325500">
        <ele>1777.0</ele>
        <time>2016-08-06T12:19:55Z</time>
      </trkpt>
      <trkpt lat="40.423700" lon="-5.325317">
        <ele>1773.0</ele>
        <time>2016-08-06T12:19:57Z</time>
      </trkpt>
      <trkpt lat="40.423633" lon="-5.325083">
        <ele>1769.0</ele>
        <time>2016-08-06T12:19:59Z</time>
      </trkpt>
      <trkpt lat="40.423583" lon="-5.324883">
        <ele>1765.0</ele>
        <time>2016-08-06T12:20:01Z</time>
      </trkpt>
      <trkpt lat="40.423567" lon="-5.324667">
        <ele>1761.0</ele>
        <time>2016-08-06T12:20:03Z</time>
      </trkpt>
      <trkpt lat="40.423583" lon="-5.324467">
        <ele>1758.0</ele>
        <time>2016-08-06T12:20:05Z</time>
      </trkpt>
      <trkpt lat="40.423650" lon="-5.324300">
        <ele>1755.0</ele>
        <time>2016-08-06T12:20:07Z</time>
      </trkpt>
      <trkpt lat="40.423717" lon="-5.324150">
        <ele>1752.0</ele>
        <time>2016-08-06T12:20:09Z</time>
      </trkpt>
      <trkpt lat="40.423850" lon="-5.324067">
        <ele>1750.0</ele>
        <time>2016-08-06T12:20:11Z</time>
      </trkpt>
      <trkpt lat="40.423983" lon="-5.324033">
        <ele>1748.0</ele>
        <time>2016-08-06T12:20:13Z</time>
      </trkpt>
      <trkpt lat="40.424117" lon="-5.323983">
        <ele>1749.0</ele>
        <time>2016-08-06T12:20:15Z</time>
      </trkpt>
      <trkpt lat="40.424183" lon="-5.323867">
        <ele>1752.0</ele>
        <time>2016-08-06T12:20:17Z</time>
      </trkpt>
      <trkpt lat="40.424200" lon="-5.323700">
        <ele>1752.0</ele>
        <time>2016-08-06T12:20:19Z</time>
      </trkpt>
      <trkpt lat="40.424167" lon="-5.323467">
        <ele>1755.0</ele>
        <time>2016-08-06T12:20:21Z</time>
      </trkpt>
      <trkpt lat="40.424083" lon="-5.323267">
        <ele>1757.0</ele>
        <time>2016-08-06T12:20:23Z</time>
      </trkpt>
      <trkpt lat="40.423983" lon="-5.323083">
        <ele>1757.0</ele>
        <time>2016-08-06T12:20:25Z</time>
      </trkpt>
      <trkpt lat="40.424000" lon="-5.322867">
        <ele>1756.0</ele>
        <time>2016-08-06T12:20:27Z</time>
      </trkpt>
      <trkpt lat="40.424100" lon="-5.322750">
        <ele>1760.0</ele>
        <time>2016-08-06T12:20:29Z</time>
      </trkpt>
      <trkpt lat="40.424183" lon="-5.322783">
        <ele>1762.0</ele>
        <time>2016-08-06T12:20:31Z</time>
      </trkpt>
      <trkpt lat="40.424217" lon="-5.322983">
        <ele>1761.0</ele>
        <time>2016-08-06T12:20:33Z</time>
      </trkpt>
      <trkpt lat="40.424083" lon="-5.323217">
        <ele>1764.0</ele>
        <time>2016-08-06T12:20:35Z</time>
      </trkpt>
      <trkpt lat="40.423933" lon="-5.323400">
        <ele>1767.0</ele>
        <time>2016-08-06T12:20:37Z</time>
      </trkpt>
      <trkpt lat="40.423767" lon="-5.323583">
        <ele>1767.0</ele>
        <time>2016-08-06T12:20:39Z</time>
      </trkpt>
      <trkpt lat="40.423650" lon="-5.323833">
        <ele>1767.0</ele>
        <time>2016-08-06T12:20:41Z</time>
      </trkpt>
      <trkpt lat="40.423617" lon="-5.324067">
        <ele>1767.0</ele>
        <time>2016-08-06T12:20:43Z</time>
      </trkpt>
      <trkpt lat="40.423667" lon="-5.324233">
        <ele>1768.0</ele>
        <time>2016-08-06T12:20:45Z</time>
      </trkpt>
      <trkpt lat="40.423767" lon="-5.324283">
        <ele>1769.0</ele>
        <time>2016-08-06T12:20:47Z</time>
      </trkpt>
      <trkpt lat="40.423833" lon="-5.324183">
        <ele>1772.0</ele>
        <time>2016-08-06T12:20:49Z</time>
      </trkpt>
      <trkpt lat="40.423867" lon="-5.324067">
        <ele>1775.0</ele>
        <time>2016-08-06T12:20:51Z</time>
      </trkpt>
      <trkpt lat="40.423850" lon="-5.323900">
        <ele>1775.0</ele>
        <time>2016-08-06T12:20:53Z</time>
      </trkpt>
      <trkpt lat="40.423750" lon="-5.323667">
        <ele>1776.0</ele>
        <time>2016-08-06T12:20:55Z</time>
      </trkpt>
      <trkpt lat="40.423633" lon="-5.323467">
        <ele>1779.0</ele>
        <time>2016-08-06T12:20:57Z</time>
      </trkpt>
      <trkpt lat="40.423550" lon="-5.323283">
        <ele>1780.0</ele>
        <time>2016-08-06T12:20:59Z</time>
      </trkpt>
      <trkpt lat="40.423483" lon="-5.323083">
        <ele>1780.0</ele>
        <time>2016-08-06T12:21:01Z</time>
      </trkpt>
      <trkpt lat="40.423433" lon="-5.322883">
        <ele>1783.0</ele>
        <time>2016-08-06T12:21:03Z</time>
      </trkpt>
      <trkpt lat="40.423367" lon="-5.322683">
        <ele>1785.0</ele>
        <time>2016-08-06T12:21:05Z</time>
      </trkpt>
      <trkpt lat="40.423267" lon="-5.322500">
        <ele>1786.0</ele>
        <time>2016-08-06T12:21:07Z</time>
      </trkpt>
      <trkpt lat="40.423200" lon="-5.322283">
        <ele>1786.0</ele>
        <time>2016-08-06T12:21:09Z</time>
      </trkpt>
      <trkpt lat="40.423133" lon="-5.322067">
        <ele>1788.0</ele>
        <time>2016-08-06T12:21:11Z</time>
      </trkpt>
      <trkpt lat="40.423083" lon="-5.321850">
        <ele>1790.0</ele>
        <time>2016-08-06T12:21:13Z</time>
      </trkpt>
      <trkpt lat="40.423033" lon="-5.321650">
        <ele>1794.0</ele>
        <time>2016-08-06T12:21:15Z</time>
      </trkpt>
      <trkpt lat="40.422933" lon="-5.321433">
        <ele>1796.0</ele>
        <time>2016-08-06T12:21:17Z</time>
      </trkpt>
      <trkpt lat="40.422833" lon="-5.321217">
        <ele>1799.0</ele>
        <time>2016-08-06T12:21:19Z</time>
      </trkpt>
      <trkpt lat="40.422733" lon="-5.321017">
        <ele>1802.0</ele>
        <time>2016-08-06T12:21:21Z</time>
      </trkpt>
      <trkpt lat="40.422667" lon="-5.320800">
        <ele>1802.0</ele>
        <time>2016-08-06T12:21:23Z</time>
      </trkpt>
      <trkpt lat="40.422700" lon="-5.320617">
        <ele>1801.0</ele>
        <time>2016-08-06T12:21:25Z</time>
      </trkpt>
      <trkpt lat="40.422800" lon="-5.320600">
        <ele>1801.0</ele>
        <time>2016-08-06T12:21:27Z</time>
      </trkpt>
      <trkpt lat="40.422833" lon="-5.320733">
        <ele>1802.0</ele>
        <time>2016-08-06T12:21:29Z</time>
      </trkpt>
      <trkpt lat="40.422783" lon="-5.320917">
        <ele>1803.0</ele>
        <time>2016-08-06T12:21:31Z</time>
      </trkpt>
      <trkpt lat="40.422733" lon="-5.321133">
        <ele>1803.0</ele>
        <time>2016-08-06T12:21:33Z</time>
      </trkpt>
      <trkpt lat="40.422700" lon="-5.321367">
        <ele>1802.0</ele>
        <time>2016-08-06T12:21:35Z</time>
      </trkpt>
      <trkpt lat="40.422650" lon="-5.321600">
        <ele>1804.0</ele>
        <time>2016-08-06T12:21:37Z</time>
      </trkpt>
      <trkpt lat="40.422617" lon="-5.321817">
        <ele>1805.0</ele>
        <time>2016-08-06T12:21:39Z</time>
      </trkpt>
      <trkpt lat="40.422567" lon="-5.322067">
        <ele>1804.0</ele>
        <time>2016-08-06T12:21:41Z</time>
      </trkpt>
      <trkpt lat="40.422517" lon="-5.322333">
        <ele>1804.0</ele>
        <time>2016-08-06T12:21:43Z</time>
      </trkpt>
      <trkpt lat="40.422450" lon="-5.322583">
        <ele>1806.0</ele>
        <time>2016-08-06T12:21:45Z</time>
      </trkpt>
      <trkpt lat="40.422400" lon="-5.322850">
        <ele>1805.0</ele>
        <time>2016-08-06T12:21:47Z</time>
      </trkpt>
      <trkpt lat="40.422417" lon="-5.323050">
        <ele>1804.0</ele>
        <time>2016-08-06T12:21:49Z</time>
      </trkpt>
      <trkpt lat="40.422483" lon="-5.323150">
        <ele>1803.0</ele>
        <time>2016-08-06T12:21:51Z</time>
      </trkpt>
      <trkpt lat="40.422567" lon="-5.323133">
        <ele>1803.0</ele>
        <time>2016-08-06T12:21:53Z</time>
      </trkpt>
      <trkpt lat="40.422600" lon="-5.323000">
        <ele>1804.0</ele>
        <time>2016-08-06T12:21:55Z</time>
      </trkpt>
      <trkpt lat="40.422600" lon="-5.322883">
        <ele>1805.0</ele>
        <time>2016-08-06T12:21:57Z</time>
      </trkpt>
      <trkpt lat="40.422633" lon="-5.322767">
        <ele>1802.0</ele>
        <time>2016-08-06T12:21:59Z</time>
      </trkpt>
      <trkpt lat="40.422700" lon="-5.322633">
        <ele>1803.0</ele>
        <time>2016-08-06T12:22:01Z</time>
      </trkpt>
      <trkpt lat="40.422717" lon="-5.322500">
        <ele>1805.0</ele>
        <time>2016-08-06T12:22:03Z</time>
      </trkpt>
      <trkpt lat="40.422733" lon="-5.322400">
        <ele>1805.0</ele>
        <time>2016-08-06T12:22:05Z</time>
      </trkpt>
      <trkpt lat="40.422750" lon="-5.322233">
        <ele>1804.0</ele>
        <time>2016-08-06T12:22:07Z</time>
      </trkpt>
      <trkpt lat="40.422717" lon="-5.322067">
        <ele>1805.0</ele>
        <time>2016-08-06T12:22:09Z</time>
      </trkpt>
      <trkpt lat="40.422717" lon="-5.321917">
        <ele>1805.0</ele>
        <time>2016-08-06T12:22:11Z</time>
      </trkpt>
      <trkpt lat="40.422717" lon="-5.321767">
        <ele>1805.0</ele>
        <time>2016-08-06T12:22:13Z</time>
      </trkpt>
      <trkpt lat="40.422717" lon="-5.321600">
        <ele>1806.0</ele>
        <time>2016-08-06T12:22:15Z</time>
      </trkpt>
      <trkpt lat="40.422683" lon="-5.321450">
        <ele>1807.0</ele>
        <time>2016-08-06T12:22:17Z</time>
      </trkpt>
      <trkpt lat="40.422650" lon="-5.321267">
        <ele>1807.0</ele>
        <time>2016-08-06T12:22:19Z</time>
      </trkpt>
      <trkpt lat="40.422567" lon="-5.321067">
        <ele>1809.0</ele>
        <time>2016-08-06T12:22:21Z</time>
      </trkpt>
      <trkpt lat="40.422483" lon="-5.320867">
        <ele>1811.0</ele>
        <time>2016-08-06T12:22:23Z</time>
      </trkpt>
      <trkpt lat="40.422400" lon="-5.320667">
        <ele>1812.0</ele>
        <time>2016-08-06T12:22:25Z</time>
      </trkpt>
      <trkpt lat="40.422333" lon="-5.320450">
        <ele>1813.0</ele>
        <time>2016-08-06T12:22:27Z</time>
      </trkpt>
      <trkpt lat="40.422250" lon="-5.320233">
        <ele>1814.0</ele>
        <time>2016-08-06T12:22:29Z</time>
      </trkpt>
      <trkpt lat="40.422167" lon="-5.320000">
        <ele>1814.0</ele>
        <time>2016-08-06T12:22:31Z</time>
      </trkpt>
      <trkpt lat="40.422133" lon="-5.319750">
        <ele>1815.0</ele>
        <time>2016-08-06T12:22:33Z</time>
      </trkpt>
      <trkpt lat="40.422100" lon="-5.319533">
        <ele>1816.0</ele>
        <time>2016-08-06T12:22:35Z</time>
      </trkpt>
      <trkpt lat="40.422117" lon="-5.319367">
        <ele>1817.0</ele>
        <time>2016-08-06T12:22:37Z</time>
      </trkpt>
      <trkpt lat="40.422183" lon="-5.319283">
        <ele>1820.0</ele>
        <time>2016-08-06T12:22:39Z</time>
      </trkpt>
      <trkpt lat="40.422233" lon="-5.319300">
        <ele>1824.0</ele>
        <time>2016-08-06T12:22:41Z</time>
      </trkpt>
      <trkpt lat="40.422233" lon="-5.319350">
        <ele>1825.0</ele>
        <time>2016-08-06T12:22:43Z</time>
      </trkpt>
      <trkpt lat="40.422317" lon="-5.319467">
        <ele>1823.0</ele>
        <time>2016-08-06T12:22:45Z</time>
      </trkpt>
      <trkpt lat="40.422350" lon="-5.319667">
        <ele>1827.0</ele>
        <time>2016-08-06T12:22:47Z</time>
      </trkpt>
      <trkpt lat="40.422317" lon="-5.319833">
        <ele>1828.0</ele>
        <time>2016-08-06T12:22:49Z</time>
      </trkpt>
      <trkpt lat="40.422333" lon="-5.320017">
        <ele>1825.0</ele>
        <time>2016-08-06T12:22:51Z</time>
      </trkpt>
      <trkpt lat="40.422317" lon="-5.320267">
        <ele>1826.0</ele>
        <time>2016-08-06T12:22:53Z</time>
      </trkpt>
      <trkpt lat="40.422267" lon="-5.320500">
        <ele>1829.0</ele>
        <time>2016-08-06T12:22:55Z</time>
      </trkpt>
      <trkpt lat="40.422233" lon="-5.320750">
        <ele>1830.0</ele>
        <time>2016-08-06T12:22:57Z</time>
      </trkpt>
      <trkpt lat="40.422233" lon="-5.320983">
        <ele>1831.0</ele>
        <time>2016-08-06T12:22:59Z</time>
      </trkpt>
      <trkpt lat="40.422200" lon="-5.321217">
        <ele>1833.0</ele>
        <time>2016-08-06T12:23:01Z</time>
      </trkpt>
      <trkpt lat="40.422150" lon="-5.321450">
        <ele>1833.0</ele>
        <time>2016-08-06T12:23:03Z</time>
      </trkpt>
      <trkpt lat="40.422117" lon="-5.321717">
        <ele>1833.0</ele>
        <time>2016-08-06T12:23:05Z</time>
      </trkpt>
      <trkpt lat="40.422150" lon="-5.321883">
        <ele>1833.0</ele>
        <time>2016-08-06T12:23:07Z</time>
      </trkpt>
      <trkpt lat="40.422233" lon="-5.321900">
        <ele>1832.0</ele>
        <time>2016-08-06T12:23:09Z</time>
      </trkpt>
      <trkpt lat="40.422283" lon="-5.321800">
        <ele>1831.0</ele>
        <time>2016-08-06T12:23:11Z</time>
      </trkpt>
      <trkpt lat="40.422267" lon="-5.321633">
        <ele>1832.0</ele>
        <time>2016-08-06T12:23:13Z</time>
      </trkpt>
      <trkpt lat="40.422250" lon="-5.321467">
        <ele>1832.0</ele>
        <time>2016-08-06T12:23:15Z</time>
      </trkpt>
      <trkpt lat="40.422233" lon="-5.321283">
        <ele>1832.0</ele>
        <time>2016-08-06T12:23:17Z</time>
      </trkpt>
      <trkpt lat="40.422183" lon="-5.321083">
        <ele>1833.0</ele>
        <time>2016-08-06T12:23:19Z</time>
      </trkpt>
      <trkpt lat="40.422133" lon="-5.320900">
        <ele>1836.0</ele>
        <time>2016-08-06T12:23:21Z</time>
      </trkpt>
      <trkpt lat="40.422067" lon="-5.320717">
        <ele>1837.0</ele>
        <time>2016-08-06T12:23:23Z</time>
      </trkpt>
      <trkpt lat="40.421983" lon="-5.320517">
        <ele>1835.0</ele>
        <time>2016-08-06T12:23:25Z</time>
      </trkpt>
      <trkpt lat="40.421917" lon="-5.320283">
        <ele>1836.0</ele>
        <time>2016-08-06T12:23:27Z</time>
      </trkpt>
      <trkpt lat="40.421850" lon="-5.320083">
        <ele>1838.0</ele>
        <time>2016-08-06T12:23:29Z</time>
      </trkpt>
      <trkpt lat="40.421783" lon="-5.319867">
        <ele>1838.0</ele>
        <time>2016-08-06T12:23:31Z</time>
      </trkpt>
      <trkpt lat="40.421700" lon="-5.319650">
        <ele>1838.0</ele>
        <time>2016-08-06T12:23:33Z</time>
      </trkpt>
      <trkpt lat="40.421633" lon="-5.319400">
        <ele>1837.0</ele>
        <time>2016-08-06T12:23:35Z</time>
      </trkpt>
      <trkpt lat="40.421600" lon="-5.319167">
        <ele>1837.0</ele>
        <time>2016-08-06T12:23:37Z</time>
      </trkpt>
      <trkpt lat="40.421567" lon="-5.318933">
        <ele>1839.0</ele>
        <time>2016-08-06T12:23:39Z</time>
      </trkpt>
      <trkpt lat="40.421567" lon="-5.318750">
        <ele>1840.0</ele>
        <time>2016-08-06T12:23:41Z</time>
      </trkpt>
      <trkpt lat="40.421583" lon="-5.318617">
        <ele>1838.0</ele>
        <time>2016-08-06T12:23:43Z</time>
      </trkpt>
      <trkpt lat="40.421633" lon="-5.318533">
        <ele>1835.0</ele>
        <time>2016-08-06T12:23:45Z</time>
      </trkpt>
      <trkpt lat="40.421733" lon="-5.318583">
        <ele>1834.0</ele>
        <time>2016-08-06T12:23:47Z</time>
      </trkpt>
      <trkpt lat="40.421767" lon="-5.318733">
        <ele>1835.0</ele>
        <time>2016-08-06T12:23:49Z</time>
      </trkpt>
      <trkpt lat="40.421767" lon="-5.318867">
        <ele>1835.0</ele>
        <time>2016-08-06T12:23:51Z</time>
      </trkpt>
      <trkpt lat="40.421800" lon="-5.319033">
        <ele>1835.0</ele>
        <time>2016-08-06T12:23:53Z</time>
      </trkpt>
      <trkpt lat="40.421833" lon="-5.319200">
        <ele>1834.0</ele>
        <time>2016-08-06T12:23:55Z</time>
      </trkpt>
      <trkpt lat="40.421850" lon="-5.319400">
        <ele>1834.0</ele>
        <time>2016-08-06T12:23:57Z</time>
      </trkpt>
      <trkpt lat="40.421900" lon="-5.319583">
        <ele>1833.0</ele>
        <time>2016-08-06T12:23:59Z</time>
      </trkpt>
      <trkpt lat="40.421950" lon="-5.319750">
        <ele>1833.0</ele>
        <time>2016-08-06T12:24:01Z</time>
      </trkpt>
      <trkpt lat="40.421967" lon="-5.319950">
        <ele>1834.0</ele>
        <time>2016-08-06T12:24:03Z</time>
      </trkpt>
      <trkpt lat="40.421967" lon="-5.320167">
        <ele>1834.0</ele>
        <time>2016-08-06T12:24:05Z</time>
      </trkpt>
      <trkpt lat="40.421983" lon="-5.320367">
        <ele>1836.0</ele>
        <time>2016-08-06T12:24:07Z</time>
      </trkpt>
      <trkpt lat="40.421983" lon="-5.320567">
        <ele>1837.0</ele>
        <time>2016-08-06T12:24:09Z</time>
      </trkpt>
      <trkpt lat="40.422000" lon="-5.320767">
        <ele>1835.0</ele>
        <time>2016-08-06T12:24:11Z</time>
      </trkpt>
      <trkpt lat="40.422050" lon="-5.320967">
        <ele>1832.0</ele>
        <time>2016-08-06T12:24:13Z</time>
      </trkpt>
      <trkpt lat="40.422100" lon="-5.321200">
        <ele>1831.0</ele>
        <time>2016-08-06T12:24:15Z</time>
      </trkpt>
      <trkpt lat="40.422133" lon="-5.321450">
        <ele>1832.0</ele>
        <time>2016-08-06T12:24:17Z</time>
      </trkpt>
      <trkpt lat="40.422117" lon="-5.321683">
        <ele>1836.0</ele>
        <time>2016-08-06T12:24:19Z</time>
      </trkpt>
      <trkpt lat="40.422067" lon="-5.321900">
        <ele>1838.0</ele>
        <time>2016-08-06T12:24:21Z</time>
      </trkpt>
      <trkpt lat="40.422050" lon="-5.322083">
        <ele>1836.0</ele>
        <time>2016-08-06T12:24:23Z</time>
      </trkpt>
      <trkpt lat="40.422067" lon="-5.322283">
        <ele>1832.0</ele>
        <time>2016-08-06T12:24:25Z</time>
      </trkpt>
      <trkpt lat="40.422133" lon="-5.322383">
        <ele>1829.0</ele>
        <time>2016-08-06T12:24:27Z</time>
      </trkpt>
      <trkpt lat="40.422217" lon="-5.322350">
        <ele>1827.0</ele>
        <time>2016-08-06T12:24:29Z</time>
      </trkpt>
      <trkpt lat="40.422250" lon="-5.322250">
        <ele>1826.0</ele>
        <time>2016-08-06T12:24:31Z</time>
      </trkpt>
      <trkpt lat="40.422267" lon="-5.322117">
        <ele>1822.0</ele>
        <time>2016-08-06T12:24:33Z</time>
      </trkpt>
      <trkpt lat="40.422350" lon="-5.321950">
        <ele>1817.0</ele>
        <time>2016-08-06T12:24:35Z</time>
      </trkpt>
      <trkpt lat="40.422433" lon="-5.321783">
        <ele>1818.0</ele>
        <time>2016-08-06T12:24:37Z</time>
      </trkpt>
      <trkpt lat="40.422467" lon="-5.321650">
        <ele>1820.0</ele>
        <time>2016-08-06T12:24:39Z</time>
      </trkpt>
      <trkpt lat="40.422500" lon="-5.321517">
        <ele>1821.0</ele>
        <time>2016-08-06T12:24:41Z</time>
      </trkpt>
      <trkpt lat="40.422483" lon="-5.321333">
        <ele>1820.0</ele>
        <time>2016-08-06T12:24:43Z</time>
      </trkpt>
      <trkpt lat="40.422433" lon="-5.321150">
        <ele>1822.0</ele>
        <time>2016-08-06T12:24:45Z</time>
      </trkpt>
      <trkpt lat="40.422383" lon="-5.320983">
        <ele>1823.0</ele>
        <time>2016-08-06T12:24:47Z</time>
      </trkpt>
      <trkpt lat="40.422333" lon="-5.320783">
        <ele>1821.0</ele>
        <time>2016-08-06T12:24:49Z</time>
      </trkpt>
      <trkpt lat="40.422250" lon="-5.320583">
        <ele>1821.0</ele>
        <time>2016-08-06T12:24:51Z</time>
      </trkpt>
      <trkpt lat="40.422217" lon="-5.320383">
        <ele>1820.0</ele>
        <time>2016-08-06T12:24:53Z</time>
      </trkpt>
      <trkpt lat="40.422183" lon="-5.320167">
        <ele>1821.0</ele>
        <time>2016-08-06T12:24:55Z</time>
      </trkpt>
      <trkpt lat="40.422150" lon="-5.319983">
        <ele>1821.0</ele>
        <time>2016-08-06T12:24:57Z</time>
      </trkpt>
      <trkpt lat="40.422133" lon="-5.319800">
        <ele>1820.0</ele>
        <time>2016-08-06T12:24:59Z</time>
      </trkpt>
      <trkpt lat="40.422200" lon="-5.319667">
        <ele>1818.0</ele>
        <time>2016-08-06T12:25:01Z</time>
      </trkpt>
      <trkpt lat="40.422300" lon="-5.319650">
        <ele>1818.0</ele>
        <time>2016-08-06T12:25:03Z</time>
      </trkpt>
      <trkpt lat="40.422367" lon="-5.319700">
        <ele>1817.0</ele>
        <time>2016-08-06T12:25:05Z</time>
      </trkpt>
      <trkpt lat="40.422450" lon="-5.319817">
        <ele>1812.0</ele>
        <time>2016-08-06T12:25:07Z</time>
      </trkpt>
      <trkpt lat="40.422550" lon="-5.320017">
        <ele>1809.0</ele>
        <time>2016-08-06T12:25:09Z</time>
      </trkpt>
      <trkpt lat="40.422633" lon="-5.320233">
        <ele>1809.0</ele>
        <time>2016-08-06T12:25:11Z</time>
      </trkpt>
      <trkpt lat="40.422683" lon="-5.320450">
        <ele>1809.0</ele>
        <time>2016-08-06T12:25:13Z</time>
      </trkpt>
      <trkpt lat="40.422717" lon="-5.320717">
        <ele>1809.0</ele>
        <time>2016-08-06T12:25:15Z</time>
      </trkpt>
      <trkpt lat="40.422717" lon="-5.320983">
        <ele>1815.0</ele>
        <time>2016-08-06T12:25:17Z</time>
      </trkpt>
      <trkpt lat="40.422717" lon="-5.321167">
        <ele>1819.0</ele>
        <time>2016-08-06T12:25:19Z</time>
      </trkpt>
      <trkpt lat="40.422733" lon="-5.321383">
        <ele>1816.0</ele>
        <time>2016-08-06T12:25:21Z</time>
      </trkpt>
      <trkpt lat="40.422700" lon="-5.321617">
        <ele>1814.0</ele>
        <time>2016-08-06T12:25:23Z</time>
      </trkpt>
      <trkpt lat="40.422683" lon="-5.321817">
        <ele>1811.0</ele>
        <time>2016-08-06T12:25:25Z</time>
      </trkpt>
      <trkpt lat="40.422717" lon="-5.322050">
        <ele>1809.0</ele>
        <time>2016-08-06T12:25:27Z</time>
      </trkpt>
      <trkpt lat="40.422733" lon="-5.322283">
        <ele>1808.0</ele>
        <time>2016-08-06T12:25:29Z</time>
      </trkpt>
      <trkpt lat="40.422717" lon="-5.322500">
        <ele>1807.0</ele>
        <time>2016-08-06T12:25:31Z</time>
      </trkpt>
      <trkpt lat="40.422683" lon="-5.322733">
        <ele>1803.0</ele>
        <time>2016-08-06T12:25:33Z</time>
      </trkpt>
      <trkpt lat="40.422700" lon="-5.323000">
        <ele>1798.0</ele>
        <time>2016-08-06T12:25:35Z</time>
      </trkpt>
      <trkpt lat="40.422733" lon="-5.323250">
        <ele>1797.0</ele>
        <time>2016-08-06T12:25:37Z</time>
      </trkpt>
      <trkpt lat="40.422767" lon="-5.323483">
        <ele>1795.0</ele>
        <time>2016-08-06T12:25:39Z</time>
      </trkpt>
      <trkpt lat="40.422833" lon="-5.323717">
        <ele>1791.0</ele>
        <time>2016-08-06T12:25:41Z</time>
      </trkpt>
      <trkpt lat="40.422917" lon="-5.323933">
        <ele>1788.0</ele>
        <time>2016-08-06T12:25:43Z</time>
      </trkpt>
      <trkpt lat="40.423017" lon="-5.324150">
        <ele>1786.0</ele>
        <time>2016-08-06T12:25:45Z</time>
      </trkpt>
      <trkpt lat="40.423083" lon="-5.324367">
        <ele>1784.0</ele>
        <time>2016-08-06T12:25:47Z</time>
      </trkpt>
      <trkpt lat="40.423133" lon="-5.324583">
        <ele>1782.0</ele>
        <time>2016-08-06T12:25:49Z</time>
      </trkpt>
      <trkpt lat="40.423167" lon="-5.324833">
        <ele>1780.0</ele>
        <time>2016-08-06T12:25:51Z</time>
      </trkpt>
      <trkpt lat="40.423133" lon="-5.325083">
        <ele>1778.0</ele>
        <time>2016-08-06T12:25:53Z</time>
      </trkpt>
      <trkpt lat="40.423100" lon="-5.325350">
        <ele>1774.0</ele>
        <time>2016-08-06T12:25:55Z</time>
      </trkpt>
      <trkpt lat="40.423100" lon="-5.325617">
        <ele>1771.0</ele>
        <time>2016-08-06T12:25:57Z</time>
      </trkpt>
      <trkpt lat="40.423133" lon="-5.325867">
        <ele>1769.0</ele>
        <time>2016-08-06T12:25:59Z</time>
      </trkpt>
      <trkpt lat="40.423167" lon="-5.326100">
        <ele>1771.0</ele>
        <time>2016-08-06T12:26:01Z</time>
      </trkpt>
      <trkpt lat="40.423250" lon="-5.326283">
        <ele>1778.0</ele>
        <time>2016-08-06T12:26:03Z</time>
      </trkpt>
      <trkpt lat="40.423333" lon="-5.326317">
        <ele>1785.0</ele>
        <time>2016-08-06T12:26:05Z</time>
      </trkpt>
      <trkpt lat="40.423417" lon="-5.326317">
        <ele>1786.0</ele>
        <time>2016-08-06T12:26:07Z</time>
      </trkpt>
      <trkpt lat="40.423500" lon="-5.326217">
        <ele>1784.0</ele>
        <time>2016-08-06T12:26:09Z</time>
      </trkpt>
      <trkpt lat="40.423550" lon="-5.326033">
        <ele>1785.0</ele>
        <time>2016-08-06T12:26:11Z</time>
      </trkpt>
      <trkpt lat="40.423533" lon="-5.325817">
        <ele>1785.0</ele>
        <time>2016-08-06T12:26:13Z</time>
      </trkpt>
      <trkpt lat="40.423417" lon="-5.325583">
        <ele>1787.0</ele>
        <time>2016-08-06T12:26:15Z</time>
      </trkpt>
      <trkpt lat="40.423217" lon="-5.325417">
        <ele>1791.0</ele>
        <time>2016-08-06T12:26:17Z</time>
      </trkpt>
      <trkpt lat="40.423067" lon="-5.325367">
        <ele>1794.0</ele>
        <time>2016-08-06T12:26:19Z</time>
      </trkpt>
      <trkpt lat="40.422867" lon="-5.325367">
        <ele>1790.0</ele>
        <time>2016-08-06T12:26:21Z</time>
      </trkpt>
      <trkpt lat="40.422617" lon="-5.325400">
        <ele>1785.0</ele>
        <time>2016-08-06T12:26:23Z</time>
      </trkpt>
      <trkpt lat="40.422400" lon="-5.325550">
        <ele>1784.0</ele>
        <time>2016-08-06T12:26:25Z</time>
      </trkpt>
      <trkpt lat="40.422267" lon="-5.325817">
        <ele>1782.0</ele>
        <time>2016-08-06T12:26:27Z</time>
      </trkpt>
      <trkpt lat="40.422200" lon="-5.326067">
        <ele>1782.0</ele>
        <time>2016-08-06T12:26:29Z</time>
      </trkpt>
      <trkpt lat="40.422183" lon="-5.326300">
        <ele>1784.0</ele>
        <time>2016-08-06T12:26:31Z</time>
      </trkpt>
      <trkpt lat="40.422183" lon="-5.326533">
        <ele>1785.0</ele>
        <time>2016-08-06T12:26:33Z</time>
      </trkpt>
      <trkpt lat="40.422183" lon="-5.326750">
        <ele>1787.0</ele>
        <time>2016-08-06T12:26:35Z</time>
      </trkpt>
      <trkpt lat="40.422150" lon="-5.326983">
        <ele>1789.0</ele>
        <time>2016-08-06T12:26:37Z</time>
      </trkpt>
      <trkpt lat="40.422167" lon="-5.327183">
        <ele>1790.0</ele>
        <time>2016-08-06T12:26:39Z</time>
      </trkpt>
      <trkpt lat="40.422200" lon="-5.327350">
        <ele>1790.0</ele>
        <time>2016-08-06T12:26:41Z</time>
      </trkpt>
      <trkpt lat="40.422250" lon="-5.327483">
        <ele>1791.0</ele>
        <time>2016-08-06T12:26:43Z</time>
      </trkpt>
      <trkpt lat="40.422317" lon="-5.327533">
        <ele>1790.0</ele>
        <time>2016-08-06T12:26:45Z</time>
      </trkpt>
      <trkpt lat="40.422400" lon="-5.327550">
        <ele>1788.0</ele>
        <time>2016-08-06T12:26:47Z</time>
      </trkpt>
      <trkpt lat="40.422483" lon="-5.327517">
        <ele>1786.0</ele>
        <time>2016-08-06T12:26:49Z</time>
      </trkpt>
      <trkpt lat="40.422567" lon="-5.327433">
        <ele>1782.0</ele>
        <time>2016-08-06T12:26:51Z</time>
      </trkpt>
      <trkpt lat="40.422667" lon="-5.327333">
        <ele>1780.0</ele>
        <time>2016-08-06T12:26:53Z</time>
      </trkpt>
      <trkpt lat="40.422750" lon="-5.327233">
        <ele>1779.0</ele>
        <time>2016-08-06T12:26:55Z</time>
      </trkpt>
      <trkpt lat="40.422800" lon="-5.327083">
        <ele>1776.0</ele>
        <time>2016-08-06T12:26:57Z</time>
      </trkpt>
      <trkpt lat="40.422867" lon="-5.326917">
        <ele>1772.0</ele>
        <time>2016-08-06T12:26:59Z</time>
      </trkpt>
      <trkpt lat="40.422917" lon="-5.326717">
        <ele>1768.0</ele>
        <time>2016-08-06T12:27:01Z</time>
      </trkpt>
      <trkpt lat="40.422967" lon="-5.326483">
        <ele>1767.0</ele>
        <time>2016-08-06T12:27:03Z</time>
      </trkpt>
      <trkpt lat="40.423017" lon="-5.326283">
        <ele>1766.0</ele>
        <time>2016-08-06T12:27:05Z</time>
      </trkpt>
      <trkpt lat="40.423050" lon="-5.326100">
        <ele>1765.0</ele>
        <time>2016-08-06T12:27:07Z</time>
      </trkpt>
      <trkpt lat="40.423100" lon="-5.325900">
        <ele>1764.0</ele>
        <time>2016-08-06T12:27:09Z</time>
      </trkpt>
      <trkpt lat="40.423167" lon="-5.325700">
        <ele>1766.0</ele>
        <time>2016-08-06T12:27:11Z</time>
      </trkpt>
      <trkpt lat="40.423200" lon="-5.325517">
        <ele>1770.0</ele>
        <time>2016-08-06T12:27:13Z</time>
      </trkpt>
      <trkpt lat="40.423200" lon="-5.325283">
        <ele>1769.0</ele>
        <time>2016-08-06T12:27:15Z</time>
      </trkpt>
      <trkpt lat="40.423217" lon="-5.325033">
        <ele>1768.0</ele>
        <time>2016-08-06T12:27:17Z</time>
      </trkpt>
      <trkpt lat="40.423283" lon="-5.324817">
        <ele>1770.0</ele>
        <time>2016-08-06T12:27:19Z</time>
      </trkpt>
      <trkpt lat="40.423333" lon="-5.324633">
        <ele>1772.0</ele>
        <time>2016-08-06T12:27:21Z</time>
      </trkpt>
      <trkpt lat="40.423333" lon="-5.324400">
        <ele>1774.0</ele>
        <time>2016-08-06T12:27:23Z</time>
      </trkpt>
      <trkpt lat="40.423317" lon="-5.324167">
        <ele>1777.0</ele>
        <time>2016-08-06T12:27:25Z</time>
      </trkpt>
      <trkpt lat="40.423317" lon="-5.323950">
        <ele>1779.0</ele>
        <time>2016-08-06T12:27:27Z</time>
      </trkpt>
      <trkpt lat="40.423267" lon="-5.323717">
        <ele>1781.0</ele>
        <time>2016-08-06T12:27:29Z</time>
      </trkpt>
      <trkpt lat="40.423183" lon="-5.323483">
        <ele>1781.0</ele>
        <time>2016-08-06T12:27:31Z</time>
      </trkpt>
      <trkpt lat="40.423117" lon="-5.323217">
        <ele>1777.0</ele>
        <time>2016-08-06T12:27:33Z</time>
      </trkpt>
      <trkpt lat="40.423183" lon="-5.323000">
        <ele>1775.0</ele>
        <time>2016-08-06T12:27:35Z</time>
      </trkpt>
      <trkpt lat="40.423300" lon="-5.322933">
        <ele>1778.0</ele>
        <time>2016-08-06T12:27:37Z</time>
      </trkpt>
      <trkpt lat="40.423383" lon="-5.322933">
        <ele>1781.0</ele>
        <time>2016-08-06T12:27:39Z</time>
      </trkpt>
      <trkpt lat="40.423450" lon="-5.322983">
        <ele>1780.0</ele>
        <time>2016-08-06T12:27:41Z</time>
      </trkpt>
      <trkpt lat="40.423500" lon="-5.323117">
        <ele>1779.0</ele>
        <time>2016-08-06T12:27:43Z</time>
      </trkpt>
      <trkpt lat="40.423483" lon="-5.323317">
        <ele>1782.0</ele>
        <time>2016-08-06T12:27:45Z</time>
      </trkpt>
      <trkpt lat="40.423350" lon="-5.323500">
        <ele>1783.0</ele>
        <time>2016-08-06T12:27:47Z</time>
      </trkpt>
      <trkpt lat="40.423183" lon="-5.323633">
        <ele>1784.0</ele>
        <time>2016-08-06T12:27:49Z</time>
      </trkpt>
      <trkpt lat="40.422983" lon="-5.323767">
        <ele>1784.0</ele>
        <time>2016-08-06T12:27:51Z</time>
      </trkpt>
      <trkpt lat="40.422817" lon="-5.323933">
        <ele>1786.0</ele>
        <time>2016-08-06T12:27:53Z</time>
      </trkpt>
      <trkpt lat="40.422633" lon="-5.324083">
        <ele>1790.0</ele>
        <time>2016-08-06T12:27:55Z</time>
      </trkpt>
      <trkpt lat="40.422467" lon="-5.324200">
        <ele>1796.0</ele>
        <time>2016-08-06T12:27:57Z</time>
      </trkpt>
      <trkpt lat="40.422367" lon="-5.324367">
        <ele>1799.0</ele>
        <time>2016-08-06T12:27:59Z</time>
      </trkpt>
      <trkpt lat="40.422383" lon="-5.324567">
        <ele>1801.0</ele>
        <time>2016-08-06T12:28:01Z</time>
      </trkpt>
      <trkpt lat="40.422417" lon="-5.324700">
        <ele>1803.0</ele>
        <time>2016-08-06T12:28:03Z</time>
      </trkpt>
      <trkpt lat="40.422500" lon="-5.324750">
        <ele>1802.0</ele>
        <time>2016-08-06T12:28:05Z</time>
      </trkpt>
      <trkpt lat="40.422617" lon="-5.324683">
        <ele>1797.0</ele>
        <time>2016-08-06T12:28:07Z</time>
      </trkpt>
      <trkpt lat="40.422683" lon="-5.324450">
        <ele>1794.0</ele>
        <time>2016-08-06T12:28:09Z</time>
      </trkpt>
      <trkpt lat="40.422650" lon="-5.324217">
        <ele>1796.0</ele>
        <time>2016-08-06T12:28:11Z</time>
      </trkpt>
      <trkpt lat="40.422617" lon="-5.323983">
        <ele>1795.0</ele>
        <time>2016-08-06T12:28:13Z</time>
      </trkpt>
      <trkpt lat="40.422617" lon="-5.323700">
        <ele>1793.0</ele>
        <time>2016-08-06T12:28:15Z</time>
      </trkpt>
      <trkpt lat="40.422633" lon="-5.323433">
        <ele>1796.0</ele>
        <time>2016-08-06T12:28:17Z</time>
      </trkpt>
      <trkpt lat="40.422617" lon="-5.323183">
        <ele>1800.0</ele>
        <time>2016-08-06T12:28:19Z</time>
      </trkpt>
      <trkpt lat="40.422617" lon="-5.322933">
        <ele>1803.0</ele>
        <time>2016-08-06T12:28:21Z</time>
      </trkpt>
      <trkpt lat="40.422633" lon="-5.322700">
        <ele>1805.0</ele>
        <time>2016-08-06T12:28:23Z</time>
      </trkpt>
      <trkpt lat="40.422633" lon="-5.322450">
        <ele>1808.0</ele>
        <time>2016-08-06T12:28:25Z</time>
      </trkpt>
      <trkpt lat="40.422633" lon="-5.322200">
        <ele>1812.0</ele>
        <time>2016-08-06T12:28:27Z</time>
      </trkpt>
      <trkpt lat="40.422583" lon="-5.321950">
        <ele>1815.0</ele>
        <time>2016-08-06T12:28:29Z</time>
      </trkpt>
      <trkpt lat="40.422517" lon="-5.321667">
        <ele>1819.0</ele>
        <time>2016-08-06T12:28:31Z</time>
      </trkpt>
      <trkpt lat="40.422450" lon="-5.321450">
        <ele>1823.0</ele>
        <time>2016-08-06T12:28:33Z</time>
      </trkpt>
      <trkpt lat="40.422367" lon="-5.321217">
        <ele>1826.0</ele>
        <time>2016-08-06T12:28:35Z</time>
      </trkpt>
      <trkpt lat="40.422267" lon="-5.321000">
        <ele>1828.0</ele>
        <time>2016-08-06T12:28:37Z</time>
      </trkpt>
      <trkpt lat="40.422183" lon="-5.320783">
        <ele>1829.0</ele>
        <time>2016-08-06T12:28:39Z</time>
      </trkpt>
      <trkpt lat="40.422100" lon="-5.320550">
        <ele>1830.0</ele>
        <time>2016-08-06T12:28:41Z</time>
      </trkpt>
      <trkpt lat="40.422067" lon="-5.320317">
        <ele>1834.0</ele>
        <time>2016-08-06T12:28:43Z</time>
      </trkpt>
      <trkpt lat="40.422083" lon="-5.320167">
        <ele>1836.0</ele>
        <time>2016-08-06T12:28:45Z</time>
      </trkpt>
      <trkpt lat="40.422167" lon="-5.320117">
        <ele>1838.0</ele>
        <time>2016-08-06T12:28:47Z</time>
      </trkpt>
      <trkpt lat="40.422233" lon="-5.320217">
        <ele>1840.0</ele>
        <time>2016-08-06T12:28:49Z</time>
      </trkpt>
      <trkpt lat="40.422217" lon="-5.320400">
        <ele>1845.0</ele>
        <time>2016-08-06T12:28:51Z</time>
      </trkpt>
      <trkpt lat="40.422183" lon="-5.320567">
        <ele>1848.0</ele>
        <time>2016-08-06T12:28:53Z</time>
      </trkpt>
      <trkpt lat="40.422117" lon="-5.320783">
        <ele>1849.0</ele>
        <time>2016-08-06T12:28:55Z</time>
      </trkpt>
      <trkpt lat="40.422000" lon="-5.320983">
        <ele>1853.0</ele>
        <time>2016-08-06T12:28:57Z</time>
      </trkpt>
      <trkpt lat="40.421883" lon="-5.321117">
        <ele>1855.0</ele>
        <time>2016-08-06T12:28:59Z</time>
      </trkpt>
      <trkpt lat="40.421717" lon="-5.321283">
        <ele>1855.0</ele>
        <time>2016-08-06T12:29:01Z</time>
      </trkpt>
      <trkpt lat="40.421550" lon="-5.321483">
        <ele>1857.0</ele>
        <time>2016-08-06T12:29:03Z</time>
      </trkpt>
      <trkpt lat="40.421400" lon="-5.321683">
        <ele>1859.0</ele>
        <time>2016-08-06T12:29:05Z</time>
      </trkpt>
      <trkpt lat="40.421250" lon="-5.321850">
        <ele>1864.0</ele>
        <time>2016-08-06T12:29:07Z</time>
      </trkpt>
      <trkpt lat="40.421133" lon="-5.321983">
        <ele>1868.0</ele>
        <time>2016-08-06T12:29:09Z</time>
      </trkpt>
      <trkpt lat="40.421017" lon="-5.322150">
        <ele>1870.0</ele>
        <time>2016-08-06T12:29:11Z</time>
      </trkpt>
      <trkpt lat="40.421000" lon="-5.322317">
        <ele>1872.0</ele>
        <time>2016-08-06T12:29:13Z</time>
      </trkpt>
      <trkpt lat="40.421067" lon="-5.322383">
        <ele>1875.0</ele>
        <time>2016-08-06T12:29:15Z</time>
      </trkpt>
      <trkpt lat="40.421150" lon="-5.322350">
        <ele>1879.0</ele>
        <time>2016-08-06T12:29:17Z</time>
      </trkpt>
      <trkpt lat="40.421233" lon="-5.322167">
        <ele>1879.0</ele>
        <time>2016-08-06T12:29:19Z</time>
      </trkpt>
      <trkpt lat="40.421250" lon="-5.321933">
        <ele>1881.0</ele>
        <time>2016-08-06T12:29:21Z</time>
      </trkpt>
      <trkpt lat="40.421217" lon="-5.321683">
        <ele>1886.0</ele>
        <time>2016-08-06T12:29:23Z</time>
      </trkpt>
      <trkpt lat="40.421167" lon="-5.321450">
        <ele>1891.0</ele>
        <time>2016-08-06T12:29:25Z</time>
      </trkpt>
      <trkpt lat="40.421150" lon="-5.321283">
        <ele>1896.0</ele>
        <time>2016-08-06T12:29:27Z</time>
      </trkpt>
      <trkpt lat="40.421167" lon="-5.321117">
        <ele>1897.0</ele>
        <time>2016-08-06T12:29:29Z</time>
      </trkpt>
      <trkpt lat="40.421150" lon="-5.320883">
        <ele>1898.0</ele>
        <time>2016-08-06T12:29:31Z</time>
      </trkpt>
      <trkpt lat="40.421083" lon="-5.320633">
        <ele>1899.0</ele>
        <time>2016-08-06T12:29:33Z</time>
      </trkpt>
      <trkpt lat="40.421050" lon="-5.320400">
        <ele>1899.0</ele>
        <time>2016-08-06T12:29:35Z</time>
      </trkpt>
      <trkpt lat="40.421100" lon="-5.320233">
        <ele>1899.0</ele>
        <time>2016-08-06T12:29:37Z</time>
      </trkpt>
      <trkpt lat="40.421183" lon="-5.320183">
        <ele>1902.0</ele>
        <time>2016-08-06T12:29:39Z</time>
      </trkpt>
      <trkpt lat="40.421267" lon="-5.320250">
        <ele>1902.0</ele>
        <time>2016-08-06T12:29:41Z</time>
      </trkpt>
      <trkpt lat="40.421317" lon="-5.320417">
        <ele>1903.0</ele>
        <time>2016-08-06T12:29:43Z</time>
      </trkpt>
      <trkpt lat="40.421333" lon="-5.320617">
        <ele>1904.0</ele>
        <time>2016-08-06T12:29:45Z</time>
      </trkpt>
      <trkpt lat="40.421283" lon="-5.320850">
        <ele>1900.0</ele>
        <time>2016-08-06T12:29:47Z</time>
      </trkpt>
      <trkpt lat="40.421217" lon="-5.321133">
        <ele>1900.0</ele>
        <time>2016-08-06T12:29:49Z</time>
      </trkpt>
      <trkpt lat="40.421083" lon="-5.321333">
        <ele>1899.0</ele>
        <time>2016-08-06T12:29:51Z</time>
      </trkpt>
      <trkpt lat="40.420900" lon="-5.321517">
        <ele>1898.0</ele>
        <time>2016-08-06T12:29:53Z</time>
      </trkpt>
      <trkpt lat="40.420700" lon="-5.321717">
        <ele>1895.0</ele>
        <time>2016-08-06T12:29:55Z</time>
      </trkpt>
      <trkpt lat="40.420450" lon="-5.321917">
        <ele>1893.0</ele>
        <time>2016-08-06T12:29:57Z</time>
      </trkpt>
      <trkpt lat="40.420233" lon="-5.322133">
        <ele>1892.0</ele>
        <time>2016-08-06T12:29:59Z</time>
      </trkpt>
      <trkpt lat="40.420033" lon="-5.322333">
        <ele>1892.0</ele>
        <time>2016-08-06T12:30:01Z</time>
      </trkpt>
      <trkpt lat="40.419850" lon="-5.322550">
        <ele>1893.0</ele>
        <time>2016-08-06T12:30:03Z</time>
      </trkpt>
      <trkpt lat="40.419717" lon="-5.322750">
        <ele>1896.0</ele>
        <time>2016-08-06T12:30:05Z</time>
      </trkpt>
      <trkpt lat="40.419617" lon="-5.322917">
        <ele>1897.0</ele>
        <time>2016-08-06T12:30:07Z</time>
      </trkpt>
      <trkpt lat="40.419517" lon="-5.323150">
        <ele>1899.0</ele>
        <time>2016-08-06T12:30:09Z</time>
      </trkpt>
      <trkpt lat="40.419483" lon="-5.323350">
        <ele>1903.0</ele>
        <time>2016-08-06T12:30:11Z</time>
      </trkpt>
      <trkpt lat="40.419483" lon="-5.323483">
        <ele>1903.0</ele>
        <time>2016-08-06T12:30:13Z</time>
      </trkpt>
      <trkpt lat="40.419583" lon="-5.323500">
        <ele>1901.0</ele>
        <time>2016-08-06T12:30:15Z</time>
      </trkpt>
      <trkpt lat="40.419683" lon="-5.323400">
        <ele>1900.0</ele>
        <time>2016-08-06T12:30:17Z</time>
      </trkpt>
      <trkpt lat="40.419733" lon="-5.323283">
        <ele>1903.0</ele>
        <time>2016-08-06T12:30:19Z</time>
      </trkpt>
      <trkpt lat="40.419783" lon="-5.323217">
        <ele>1902.0</ele>
        <time>2016-08-06T12:30:21Z</time>
      </trkpt>
      <trkpt lat="40.419883" lon="-5.323117">
        <ele>1900.0</ele>
        <time>2016-08-06T12:30:23Z</time>
      </trkpt>
      <trkpt lat="40.419967" lon="-5.323017">
        <ele>1900.0</ele>
        <time>2016-08-06T12:30:25Z</time>
      </trkpt>
      <trkpt lat="40.420050" lon="-5.322933">
        <ele>1899.0</ele>
        <time>2016-08-06T12:30:27Z</time>
      </trkpt>
      <trkpt lat="40.420133" lon="-5.322800">
        <ele>1896.0</ele>
        <time>2016-08-06T12:30:29Z</time>
      </trkpt>
      <trkpt lat="40.420200" lon="-5.322700">
        <ele>1895.0</ele>
        <time>2016-08-06T12:30:31Z</time>
      </trkpt>
      <trkpt lat="40.420283" lon="-5.322600">
        <ele>1892.0</ele>
        <time>2016-08-06T12:30:33Z</time>
      </trkpt>
      <trkpt lat="40.420383" lon="-5.322517">
        <ele>1888.0</ele>
        <time>2016-08-06T12:30:35Z</time>
      </trkpt>
      <trkpt lat="40.420467" lon="-5.322533">
        <ele>1882.0</ele>
        <time>2016-08-06T12:30:37Z</time>
      </trkpt>
      <trkpt lat="40.420533" lon="-5.322683">
        <ele>1878.0</ele>
        <time>2016-08-06T12:30:39Z</time>
      </trkpt>
      <trkpt lat="40.420467" lon="-5.322900">
        <ele>1875.0</ele>
        <time>2016-08-06T12:30:41Z</time>
      </trkpt>
      <trkpt lat="40.420317" lon="-5.323083">
        <ele>1872.0</ele>
        <time>2016-08-06T12:30:43Z</time>
      </trkpt>
      <trkpt lat="40.420117" lon="-5.323233">
        <ele>1870.0</ele>
        <time>2016-08-06T12:30:45Z</time>
      </trkpt>
      <trkpt lat="40.419917" lon="-5.323400">
        <ele>1867.0</ele>
        <time>2016-08-06T12:30:47Z</time>
      </trkpt>
      <trkpt lat="40.419700" lon="-5.323633">
        <ele>1864.0</ele>
        <time>2016-08-06T12:30:49Z</time>
      </trkpt>
      <trkpt lat="40.419517" lon="-5.323867">
        <ele>1865.0</ele>
        <time>2016-08-06T12:30:51Z</time>
      </trkpt>
      <trkpt lat="40.419350" lon="-5.324067">
        <ele>1866.0</ele>
        <time>2016-08-06T12:30:53Z</time>
      </trkpt>
      <trkpt lat="40.419183" lon="-5.324283">
        <ele>1864.0</ele>
        <time>2016-08-06T12:30:55Z</time>
      </trkpt>
      <trkpt lat="40.419033" lon="-5.324500">
        <ele>1865.0</ele>
        <time>2016-08-06T12:30:57Z</time>
      </trkpt>
      <trkpt lat="40.418883" lon="-5.324683">
        <ele>1865.0</ele>
        <time>2016-08-06T12:30:59Z</time>
      </trkpt>
      <trkpt lat="40.418733" lon="-5.324867">
        <ele>1862.0</ele>
        <time>2016-08-06T12:31:01Z</time>
      </trkpt>
      <trkpt lat="40.418617" lon="-5.325083">
        <ele>1861.0</ele>
        <time>2016-08-06T12:31:03Z</time>
      </trkpt>
      <trkpt lat="40.418500" lon="-5.325267">
        <ele>1860.0</ele>
        <time>2016-08-06T12:31:05Z</time>
      </trkpt>
      <trkpt lat="40.418383" lon="-5.325467">
        <ele>1859.0</ele>
        <time>2016-08-06T12:31:07Z</time>
      </trkpt>
      <trkpt lat="40.418300" lon="-5.325733">
        <ele>1860.0</ele>
        <time>2016-08-06T12:31:09Z</time>
      </trkpt>
      <trkpt lat="40.418217" lon="-5.325933">
        <ele>1865.0</ele>
        <time>2016-08-06T12:31:11Z</time>
      </trkpt>
      <trkpt lat="40.418117" lon="-5.326100">
        <ele>1867.0</ele>
        <time>2016-08-06T12:31:13Z</time>
      </trkpt>
      <trkpt lat="40.418017" lon="-5.326283">
        <ele>1865.0</ele>
        <time>2016-08-06T12:31:15Z</time>
      </trkpt>
      <trkpt lat="40.417950" lon="-5.326500">
        <ele>1863.0</ele>
        <time>2016-08-06T12:31:17Z</time>
      </trkpt>
      <trkpt lat="40.417867" lon="-5.326700">
        <ele>1862.0</ele>
        <time>2016-08-06T12:31:19Z</time>
      </trkpt>
      <trkpt lat="40.417783" lon="-5.326883">
        <ele>1862.0</ele>
        <time>2016-08-06T12:31:21Z</time>
      </trkpt>
      <trkpt lat="40.417683" lon="-5.327083">
        <ele>1861.0</ele>
        <time>2016-08-06T12:31:23Z</time>
      </trkpt>
      <trkpt lat="40.417567" lon="-5.327283">
        <ele>1860.0</ele>
        <time>2016-08-06T12:31:25Z</time>
      </trkpt>
      <trkpt lat="40.417450" lon="-5.327450">
        <ele>1859.0</ele>
        <time>2016-08-06T12:31:27Z</time>
      </trkpt>
      <trkpt lat="40.417317" lon="-5.327617">
        <ele>1856.0</ele>
        <time>2016-08-06T12:31:29Z</time>
      </trkpt>
      <trkpt lat="40.417167" lon="-5.327783">
        <ele>1854.0</ele>
        <time>2016-08-06T12:31:31Z</time>
      </trkpt>
      <trkpt lat="40.417000" lon="-5.327917">
        <ele>1852.0</ele>
        <time>2016-08-06T12:31:33Z</time>
      </trkpt>
      <trkpt lat="40.416833" lon="-5.328033">
        <ele>1849.0</ele>
        <time>2016-08-06T12:31:35Z</time>
      </trkpt>
      <trkpt lat="40.416650" lon="-5.328200">
        <ele>1844.0</ele>
        <time>2016-08-06T12:31:37Z</time>
      </trkpt>
      <trkpt lat="40.416450" lon="-5.328383">
        <ele>1842.0</ele>
        <time>2016-08-06T12:31:39Z</time>
      </trkpt>
      <trkpt lat="40.416283" lon="-5.328583">
        <ele>1843.0</ele>
        <time>2016-08-06T12:31:41Z</time>
      </trkpt>
      <trkpt lat="40.416150" lon="-5.328750">
        <ele>1843.0</ele>
        <time>2016-08-06T12:31:43Z</time>
      </trkpt>
      <trkpt lat="40.416050" lon="-5.328967">
        <ele>1841.0</ele>
        <time>2016-08-06T12:31:45Z</time>
      </trkpt>
      <trkpt lat="40.415967" lon="-5.329183">
        <ele>1840.0</ele>
        <time>2016-08-06T12:31:47Z</time>
      </trkpt>
      <trkpt lat="40.415900" lon="-5.329383">
        <ele>1839.0</ele>
        <time>2016-08-06T12:31:49Z</time>
      </trkpt>
      <trkpt lat="40.415850" lon="-5.329600">
        <ele>1838.0</ele>
        <time>2016-08-06T12:31:51Z</time>
      </trkpt>
      <trkpt lat="40.415817" lon="-5.329817">
        <ele>1837.0</ele>
        <time>2016-08-06T12:31:53Z</time>
      </trkpt>
      <trkpt lat="40.415783" lon="-5.330017">
        <ele>1835.0</ele>
        <time>2016-08-06T12:31:55Z</time>
      </trkpt>
      <trkpt lat="40.415717" lon="-5.330233">
        <ele>1833.0</ele>
        <time>2016-08-06T12:31:57Z</time>
      </trkpt>
      <trkpt lat="40.415633" lon="-5.330483">
        <ele>1832.0</ele>
        <time>2016-08-06T12:31:59Z</time>
      </trkpt>
      <trkpt lat="40.415567" lon="-5.330717">
        <ele>1831.0</ele>
        <time>2016-08-06T12:32:01Z</time>
      </trkpt>
      <trkpt lat="40.415500" lon="-5.330967">
        <ele>1832.0</ele>
        <time>2016-08-06T12:32:03Z</time>
      </trkpt>
      <trkpt lat="40.415450" lon="-5.331167">
        <ele>1834.0</ele>
        <time>2016-08-06T12:32:05Z</time>
      </trkpt>
      <trkpt lat="40.415383" lon="-5.331367">
        <ele>1832.0</ele>
        <time>2016-08-06T12:32:07Z</time>
      </trkpt>
      <trkpt lat="40.415333" lon="-5.331617">
        <ele>1829.0</ele>
        <time>2016-08-06T12:32:09Z</time>
      </trkpt>
      <trkpt lat="40.415267" lon="-5.331833">
        <ele>1830.0</ele>
        <time>2016-08-06T12:32:11Z</time>
      </trkpt>
      <trkpt lat="40.415183" lon="-5.332050">
        <ele>1830.0</ele>
        <time>2016-08-06T12:32:13Z</time>
      </trkpt>
      <trkpt lat="40.415050" lon="-5.332283">
        <ele>1827.0</ele>
        <time>2016-08-06T12:32:15Z</time>
      </trkpt>
      <trkpt lat="40.414917" lon="-5.332517">
        <ele>1825.0</ele>
        <time>2016-08-06T12:32:17Z</time>
      </trkpt>
      <trkpt lat="40.414767" lon="-5.332733">
        <ele>1825.0</ele>
        <time>2016-08-06T12:32:19Z</time>
      </trkpt>
      <trkpt lat="40.414600" lon="-5.332917">
        <ele>1825.0</ele>
        <time>2016-08-06T12:32:21Z</time>
      </trkpt>
      <trkpt lat="40.414450" lon="-5.333117">
        <ele>1822.0</ele>
        <time>2016-08-06T12:32:23Z</time>
      </trkpt>
      <trkpt lat="40.414267" lon="-5.333333">
        <ele>1821.0</ele>
        <time>2016-08-06T12:32:25Z</time>
      </trkpt>
      <trkpt lat="40.414117" lon="-5.333533">
        <ele>1819.0</ele>
        <time>2016-08-06T12:32:27Z</time>
      </trkpt>
      <trkpt lat="40.414000" lon="-5.333783">
        <ele>1816.0</ele>
        <time>2016-08-06T12:32:29Z</time>
      </trkpt>
      <trkpt lat="40.413867" lon="-5.334033">
        <ele>1816.0</ele>
        <time>2016-08-06T12:32:31Z</time>
      </trkpt>
      <trkpt lat="40.413733" lon="-5.334267">
        <ele>1815.0</ele>
        <time>2016-08-06T12:32:33Z</time>
      </trkpt>
      <trkpt lat="40.413583" lon="-5.334517">
        <ele>1813.0</ele>
        <time>2016-08-06T12:32:35Z</time>
      </trkpt>
      <trkpt lat="40.413417" lon="-5.334767">
        <ele>1812.0</ele>
        <time>2016-08-06T12:32:37Z</time>
      </trkpt>
      <trkpt lat="40.413250" lon="-5.335017">
        <ele>1815.0</ele>
        <time>2016-08-06T12:32:39Z</time>
      </trkpt>
      <trkpt lat="40.413117" lon="-5.335250">
        <ele>1819.0</ele>
        <time>2016-08-06T12:32:41Z</time>
      </trkpt>
      <trkpt lat="40.413033" lon="-5.335467">
        <ele>1821.0</ele>
        <time>2016-08-06T12:32:43Z</time>
      </trkpt>
      <trkpt lat="40.413000" lon="-5.335667">
        <ele>1821.0</ele>
        <time>2016-08-06T12:32:45Z</time>
      </trkpt>
      <trkpt lat="40.413067" lon="-5.335817">
        <ele>1822.0</ele>
        <time>2016-08-06T12:32:47Z</time>
      </trkpt>
      <trkpt lat="40.413133" lon="-5.335800">
        <ele>1823.0</ele>
        <time>2016-08-06T12:32:49Z</time>
      </trkpt>
      <trkpt lat="40.413167" lon="-5.335700">
        <ele>1822.0</ele>
        <time>2016-08-06T12:32:51Z</time>
      </trkpt>
      <trkpt lat="40.413183" lon="-5.335550">
        <ele>1821.0</ele>
        <time>2016-08-06T12:32:53Z</time>
      </trkpt>
      <trkpt lat="40.413183" lon="-5.335333">
        <ele>1822.0</ele>
        <time>2016-08-06T12:32:55Z</time>
      </trkpt>
      <trkpt lat="40.413200" lon="-5.335183">
        <ele>1826.0</ele>
        <time>2016-08-06T12:32:57Z</time>
      </trkpt>
      <trkpt lat="40.413200" lon="-5.335050">
        <ele>1830.0</ele>
        <time>2016-08-06T12:32:59Z</time>
      </trkpt>
      <trkpt lat="40.413133" lon="-5.334867">
        <ele>1831.0</ele>
        <time>2016-08-06T12:33:01Z</time>
      </trkpt>
      <trkpt lat="40.413100" lon="-5.334683">
        <ele>1832.0</ele>
        <time>2016-08-06T12:33:03Z</time>
      </trkpt>
      <trkpt lat="40.413117" lon="-5.334550">
        <ele>1835.0</ele>
        <time>2016-08-06T12:33:05Z</time>
      </trkpt>
      <trkpt lat="40.413133" lon="-5.334450">
        <ele>1835.0</ele>
        <time>2016-08-06T12:33:07Z</time>
      </trkpt>
      <trkpt lat="40.413183" lon="-5.334367">
        <ele>1832.0</ele>
        <time>2016-08-06T12:33:09Z</time>
      </trkpt>
      <trkpt lat="40.413317" lon="-5.334400">
        <ele>1831.0</ele>
        <time>2016-08-06T12:33:11Z</time>
      </trkpt>
      <trkpt lat="40.413367" lon="-5.334550">
        <ele>1835.0</ele>
        <time>2016-08-06T12:33:13Z</time>
      </trkpt>
      <trkpt lat="40.413400" lon="-5.334717">
        <ele>1837.0</ele>
        <time>2016-08-06T12:33:15Z</time>
      </trkpt>
      <trkpt lat="40.413317" lon="-5.334983">
        <ele>1838.0</ele>
        <time>2016-08-06T12:33:17Z</time>
      </trkpt>
      <trkpt lat="40.413167" lon="-5.335200">
        <ele>1842.0</ele>
        <time>2016-08-06T12:33:19Z</time>
      </trkpt>
      <trkpt lat="40.413017" lon="-5.335350">
        <ele>1843.0</ele>
        <time>2016-08-06T12:33:21Z</time>
      </trkpt>
      <trkpt lat="40.412900" lon="-5.335550">
        <ele>1841.0</ele>
        <time>2016-08-06T12:33:23Z</time>
      </trkpt>
      <trkpt lat="40.412883" lon="-5.335700">
        <ele>1838.0</ele>
        <time>2016-08-06T12:33:25Z</time>
      </trkpt>
      <trkpt lat="40.412900" lon="-5.335800">
        <ele>1832.0</ele>
        <time>2016-08-06T12:33:27Z</time>
      </trkpt>
      <trkpt lat="40.412983" lon="-5.335817">
        <ele>1827.0</ele>
        <time>2016-08-06T12:33:29Z</time>
      </trkpt>
      <trkpt lat="40.413050" lon="-5.335717">
        <ele>1823.0</ele>
        <time>2016-08-06T12:33:31Z</time>
      </trkpt>
      <trkpt lat="40.413117" lon="-5.335633">
        <ele>1820.0</ele>
        <time>2016-08-06T12:33:33Z</time>
      </trkpt>
      <trkpt lat="40.413200" lon="-5.335567">
        <ele>1816.0</ele>
        <time>2016-08-06T12:33:35Z</time>
      </trkpt>
      <trkpt lat="40.413300" lon="-5.335517">
        <ele>1815.0</ele>
        <time>2016-08-06T12:33:37Z</time>
      </trkpt>
      <trkpt lat="40.413367" lon="-5.335483">
        <ele>1813.0</ele>
        <time>2016-08-06T12:33:39Z</time>
      </trkpt>
      <trkpt lat="40.413450" lon="-5.335483">
        <ele>1807.0</ele>
        <time>2016-08-06T12:33:41Z</time>
      </trkpt>
      <trkpt lat="40.413550" lon="-5.335550">
        <ele>1803.0</ele>
        <time>2016-08-06T12:33:43Z</time>
      </trkpt>
      <trkpt lat="40.413633" lon="-5.335667">
        <ele>1800.0</ele>
        <time>2016-08-06T12:33:45Z</time>
      </trkpt>
      <trkpt lat="40.413733" lon="-5.335783">
        <ele>1794.0</ele>
        <time>2016-08-06T12:33:47Z</time>
      </trkpt>
      <trkpt lat="40.413833" lon="-5.335917">
        <ele>1789.0</ele>
        <time>2016-08-06T12:33:49Z</time>
      </trkpt>
      <trkpt lat="40.413967" lon="-5.336017">
        <ele>1786.0</ele>
        <time>2016-08-06T12:33:51Z</time>
      </trkpt>
      <trkpt lat="40.414050" lon="-5.336117">
        <ele>1786.0</ele>
        <time>2016-08-06T12:33:53Z</time>
      </trkpt>
      <trkpt lat="40.414150" lon="-5.336200">
        <ele>1781.0</ele>
        <time>2016-08-06T12:33:55Z</time>
      </trkpt>
      <trkpt lat="40.414300" lon="-5.336283">
        <ele>1778.0</ele>
        <time>2016-08-06T12:33:57Z</time>
      </trkpt>
      <trkpt lat="40.414417" lon="-5.336317">
        <ele>1781.0</ele>
        <time>2016-08-06T12:33:59Z</time>
      </trkpt>
      <trkpt lat="40.414483" lon="-5.336367">
        <ele>1782.0</ele>
        <time>2016-08-06T12:34:01Z</time>
      </trkpt>
      <trkpt lat="40.414600" lon="-5.336333">
        <ele>1782.0</ele>
        <time>2016-08-06T12:34:03Z</time>
      </trkpt>
      <trkpt lat="40.414700" lon="-5.336233">
        <ele>1785.0</ele>
        <time>2016-08-06T12:34:05Z</time>
      </trkpt>
      <trkpt lat="40.414767" lon="-5.336183">
        <ele>1788.0</ele>
        <time>2016-08-06T12:34:07Z</time>
      </trkpt>
      <trkpt lat="40.414833" lon="-5.336117">
        <ele>1788.0</ele>
        <time>2016-08-06T12:34:09Z</time>
      </trkpt>
      <trkpt lat="40.414883" lon="-5.335917">
        <ele>1785.0</ele>
        <time>2016-08-06T12:34:11Z</time>
      </trkpt>
      <trkpt lat="40.414800" lon="-5.335650">
        <ele>1784.0</ele>
        <time>2016-08-06T12:34:13Z</time>
      </trkpt>
      <trkpt lat="40.414583" lon="-5.335483">
        <ele>1784.0</ele>
        <time>2016-08-06T12:34:15Z</time>
      </trkpt>
      <trkpt lat="40.414350" lon="-5.335433">
        <ele>1789.0</ele>
        <time>2016-08-06T12:34:17Z</time>
      </trkpt>
      <trkpt lat="40.414150" lon="-5.335417">
        <ele>1794.0</ele>
        <time>2016-08-06T12:34:19Z</time>
      </trkpt>
      <trkpt lat="40.413917" lon="-5.335483">
        <ele>1791.0</ele>
        <time>2016-08-06T12:34:21Z</time>
      </trkpt>
      <trkpt lat="40.413667" lon="-5.335617">
        <ele>1793.0</ele>
        <time>2016-08-06T12:34:23Z</time>
      </trkpt>
      <trkpt lat="40.413483" lon="-5.335800">
        <ele>1795.0</ele>
        <time>2016-08-06T12:34:25Z</time>
      </trkpt>
      <trkpt lat="40.413400" lon="-5.336067">
        <ele>1793.0</ele>
        <time>2016-08-06T12:34:27Z</time>
      </trkpt>
      <trkpt lat="40.413400" lon="-5.336317">
        <ele>1795.0</ele>
        <time>2016-08-06T12:34:29Z</time>
      </trkpt>
      <trkpt lat="40.413450" lon="-5.336500">
        <ele>1795.0</ele>
        <time>2016-08-06T12:34:31Z</time>
      </trkpt>
      <trkpt lat="40.413533" lon="-5.336700">
        <ele>1795.0</ele>
        <time>2016-08-06T12:34:33Z</time>
      </trkpt>
      <trkpt lat="40.413600" lon="-5.336833">
        <ele>1801.0</ele>
        <time>2016-08-06T12:34:35Z</time>
      </trkpt>
      <trkpt lat="40.413617" lon="-5.336933">
        <ele>1801.0</ele>
        <time>2016-08-06T12:34:37Z</time>
      </trkpt>
      <trkpt lat="40.413683" lon="-5.337083">
        <ele>1796.0</ele>
        <time>2016-08-06T12:34:39Z</time>
      </trkpt>
      <trkpt lat="40.413783" lon="-5.337117">
        <ele>1795.0</ele>
        <time>2016-08-06T12:34:41Z</time>
      </trkpt>
      <trkpt lat="40.413867" lon="-5.337050">
        <ele>1793.0</ele>
        <time>2016-08-06T12:34:43Z</time>
      </trkpt>
      <trkpt lat="40.413950" lon="-5.337017">
        <ele>1787.0</ele>
        <time>2016-08-06T12:34:45Z</time>
      </trkpt>
      <trkpt lat="40.414067" lon="-5.337000">
        <ele>1784.0</ele>
        <time>2016-08-06T12:34:47Z</time>
      </trkpt>
      <trkpt lat="40.414133" lon="-5.337050">
        <ele>1783.0</ele>
        <time>2016-08-06T12:34:49Z</time>
      </trkpt>
      <trkpt lat="40.414200" lon="-5.337117">
        <ele>1783.0</ele>
        <time>2016-08-06T12:34:51Z</time>
      </trkpt>
      <trkpt lat="40.414300" lon="-5.337183">
        <ele>1780.0</ele>
        <time>2016-08-06T12:34:53Z</time>
      </trkpt>
      <trkpt lat="40.414417" lon="-5.337217">
        <ele>1779.0</ele>
        <time>2016-08-06T12:34:55Z</time>
      </trkpt>
      <trkpt lat="40.414517" lon="-5.337200">
        <ele>1777.0</ele>
        <time>2016-08-06T12:34:57Z</time>
      </trkpt>
      <trkpt lat="40.414633" lon="-5.337200">
        <ele>1773.0</ele>
        <time>2016-08-06T12:34:59Z</time>
      </trkpt>
      <trkpt lat="40.414750" lon="-5.337250">
        <ele>1770.0</ele>
        <time>2016-08-06T12:35:01Z</time>
      </trkpt>
      <trkpt lat="40.414867" lon="-5.337283">
        <ele>1771.0</ele>
        <time>2016-08-06T12:35:03Z</time>
      </trkpt>
      <trkpt lat="40.414983" lon="-5.337333">
        <ele>1771.0</ele>
        <time>2016-08-06T12:35:05Z</time>
      </trkpt>
      <trkpt lat="40.415100" lon="-5.337367">
        <ele>1768.0</ele>
        <time>2016-08-06T12:35:07Z</time>
      </trkpt>
      <trkpt lat="40.415217" lon="-5.337417">
        <ele>1767.0</ele>
        <time>2016-08-06T12:35:09Z</time>
      </trkpt>
      <trkpt lat="40.415300" lon="-5.337450">
        <ele>1765.0</ele>
        <time>2016-08-06T12:35:11Z</time>
      </trkpt>
      <trkpt lat="40.415433" lon="-5.337500">
        <ele>1761.0</ele>
        <time>2016-08-06T12:35:13Z</time>
      </trkpt>
      <trkpt lat="40.415550" lon="-5.337550">
        <ele>1759.0</ele>
        <time>2016-08-06T12:35:15Z</time>
      </trkpt>
      <trkpt lat="40.415650" lon="-5.337600">
        <ele>1757.0</ele>
        <time>2016-08-06T12:35:17Z</time>
      </trkpt>
      <trkpt lat="40.415767" lon="-5.337650">
        <ele>1752.0</ele>
        <time>2016-08-06T12:35:19Z</time>
      </trkpt>
      <trkpt lat="40.415900" lon="-5.337700">
        <ele>1748.0</ele>
        <time>2016-08-06T12:35:21Z</time>
      </trkpt>
      <trkpt lat="40.416017" lon="-5.337767">
        <ele>1746.0</ele>
        <time>2016-08-06T12:35:23Z</time>
      </trkpt>
      <trkpt lat="40.416117" lon="-5.337833">
        <ele>1742.0</ele>
        <time>2016-08-06T12:35:25Z</time>
      </trkpt>
      <trkpt lat="40.416233" lon="-5.337900">
        <ele>1737.0</ele>
        <time>2016-08-06T12:35:27Z</time>
      </trkpt>
      <trkpt lat="40.416350" lon="-5.338017">
        <ele>1732.0</ele>
        <time>2016-08-06T12:35:29Z</time>
      </trkpt>
      <trkpt lat="40.416450" lon="-5.338117">
        <ele>1729.0</ele>
        <time>2016-08-06T12:35:31Z</time>
      </trkpt>
      <trkpt lat="40.416567" lon="-5.338217">
        <ele>1724.0</ele>
        <time>2016-08-06T12:35:33Z</time>
      </trkpt>
      <trkpt lat="40.416683" lon="-5.338333">
        <ele>1719.0</ele>
        <time>2016-08-06T12:35:35Z</time>
      </trkpt>
      <trkpt lat="40.416800" lon="-5.338467">
        <ele>1714.0</ele>
        <time>2016-08-06T12:35:37Z</time>
      </trkpt>
      <trkpt lat="40.416933" lon="-5.338567">
        <ele>1710.0</ele>
        <time>2016-08-06T12:35:39Z</time>
      </trkpt>
      <trkpt lat="40.417050" lon="-5.338667">
        <ele>1704.0</ele>
        <time>2016-08-06T12:35:41Z</time>
      </trkpt>
      <trkpt lat="40.417200" lon="-5.338783">
        <ele>1699.0</ele>
        <time>2016-08-06T12:35:43Z</time>
      </trkpt>
      <trkpt lat="40.417333" lon="-5.338850">
        <ele>1695.0</ele>
        <time>2016-08-06T12:35:45Z</time>
      </trkpt>
      <trkpt lat="40.417467" lon="-5.338933">
        <ele>1691.0</ele>
        <time>2016-08-06T12:35:47Z</time>
      </trkpt>
      <trkpt lat="40.417617" lon="-5.339017">
        <ele>1687.0</ele>
        <time>2016-08-06T12:35:49Z</time>
      </trkpt>
      <trkpt lat="40.417750" lon="-5.339067">
        <ele>1686.0</ele>
        <time>2016-08-06T12:35:51Z</time>
      </trkpt>
      <trkpt lat="40.417867" lon="-5.339100">
        <ele>1682.0</ele>
        <time>2016-08-06T12:35:53Z</time>
      </trkpt>
      <trkpt lat="40.418000" lon="-5.339150">
        <ele>1677.0</ele>
        <time>2016-08-06T12:35:55Z</time>
      </trkpt>
      <trkpt lat="40.418150" lon="-5.339150">
        <ele>1672.0</ele>
        <time>2016-08-06T12:35:57Z</time>
      </trkpt>
      <trkpt lat="40.418300" lon="-5.339183">
        <ele>1668.0</ele>
        <time>2016-08-06T12:35:59Z</time>
      </trkpt>
      <trkpt lat="40.418467" lon="-5.339183">
        <ele>1665.0</ele>
        <time>2016-08-06T12:36:01Z</time>
      </trkpt>
      <trkpt lat="40.418633" lon="-5.339183">
        <ele>1666.0</ele>
        <time>2016-08-06T12:36:03Z</time>
      </trkpt>
      <trkpt lat="40.418733" lon="-5.339233">
        <ele>1670.0</ele>
        <time>2016-08-06T12:36:05Z</time>
      </trkpt>
      <trkpt lat="40.418833" lon="-5.339217">
        <ele>1668.0</ele>
        <time>2016-08-06T12:36:07Z</time>
      </trkpt>
      <trkpt lat="40.418950" lon="-5.339183">
        <ele>1667.0</ele>
        <time>2016-08-06T12:36:09Z</time>
      </trkpt>
      <trkpt lat="40.419050" lon="-5.339150">
        <ele>1669.0</ele>
        <time>2016-08-06T12:36:11Z</time>
      </trkpt>
      <trkpt lat="40.419117" lon="-5.339167">
        <ele>1668.0</ele>
        <time>2016-08-06T12:36:13Z</time>
      </trkpt>
      <trkpt lat="40.419233" lon="-5.339233">
        <ele>1665.0</ele>
        <time>2016-08-06T12:36:15Z</time>
      </trkpt>
      <trkpt lat="40.419350" lon="-5.339383">
        <ele>1662.0</ele>
        <time>2016-08-06T12:36:17Z</time>
      </trkpt>
      <trkpt lat="40.419450" lon="-5.339550">
        <ele>1659.0</ele>
        <time>2016-08-06T12:36:19Z</time>
      </trkpt>
      <trkpt lat="40.419583" lon="-5.339700">
        <ele>1653.0</ele>
        <time>2016-08-06T12:36:21Z</time>
      </trkpt>
      <trkpt lat="40.419733" lon="-5.339850">
        <ele>1650.0</ele>
        <time>2016-08-06T12:36:23Z</time>
      </trkpt>
      <trkpt lat="40.419883" lon="-5.339950">
        <ele>1647.0</ele>
        <time>2016-08-06T12:36:25Z</time>
      </trkpt>
      <trkpt lat="40.420033" lon="-5.340017">
        <ele>1645.0</ele>
        <time>2016-08-06T12:36:27Z</time>
      </trkpt>
      <trkpt lat="40.420183" lon="-5.340100">
        <ele>1645.0</ele>
        <time>2016-08-06T12:36:29Z</time>
      </trkpt>
      <trkpt lat="40.420317" lon="-5.340183">
        <ele>1641.0</ele>
        <time>2016-08-06T12:36:31Z</time>
      </trkpt>
      <trkpt lat="40.420467" lon="-5.340267">
        <ele>1638.0</ele>
        <time>2016-08-06T12:36:33Z</time>
      </trkpt>
      <trkpt lat="40.420617" lon="-5.340333">
        <ele>1639.0</ele>
        <time>2016-08-06T12:36:35Z</time>
      </trkpt>
      <trkpt lat="40.420733" lon="-5.340417">
        <ele>1639.0</ele>
        <time>2016-08-06T12:36:37Z</time>
      </trkpt>
      <trkpt lat="40.420850" lon="-5.340483">
        <ele>1637.0</ele>
        <time>2016-08-06T12:36:39Z</time>
      </trkpt>
      <trkpt lat="40.421000" lon="-5.340567">
        <ele>1636.0</ele>
        <time>2016-08-06T12:36:41Z</time>
      </trkpt>
      <trkpt lat="40.421133" lon="-5.340667">
        <ele>1636.0</ele>
        <time>2016-08-06T12:36:43Z</time>
      </trkpt>
      <trkpt lat="40.421267" lon="-5.340767">
        <ele>1632.0</ele>
        <time>2016-08-06T12:36:45Z</time>
      </trkpt>
      <trkpt lat="40.421417" lon="-5.340917">
        <ele>1629.0</ele>
        <time>2016-08-06T12:36:47Z</time>
      </trkpt>
      <trkpt lat="40.421533" lon="-5.341050">
        <ele>1628.0</ele>
        <time>2016-08-06T12:36:49Z</time>
      </trkpt>
      <trkpt lat="40.421650" lon="-5.341150">
        <ele>1625.0</ele>
        <time>2016-08-06T12:36:51Z</time>
      </trkpt>
      <trkpt lat="40.421800" lon="-5.341267">
        <ele>1622.0</ele>
        <time>2016-08-06T12:36:53Z</time>
      </trkpt>
      <trkpt lat="40.421950" lon="-5.341383">
        <ele>1623.0</ele>
        <time>2016-08-06T12:36:55Z</time>
      </trkpt>
      <trkpt lat="40.422067" lon="-5.341500">
        <ele>1623.0</ele>
        <time>2016-08-06T12:36:57Z</time>
      </trkpt>
      <trkpt lat="40.422200" lon="-5.341583">
        <ele>1622.0</ele>
        <time>2016-08-06T12:36:59Z</time>
      </trkpt>
      <trkpt lat="40.422350" lon="-5.341633">
        <ele>1623.0</ele>
        <time>2016-08-06T12:37:01Z</time>
      </trkpt>
      <trkpt lat="40.422467" lon="-5.341683">
        <ele>1627.0</ele>
        <time>2016-08-06T12:37:03Z</time>
      </trkpt>
      <trkpt lat="40.422583" lon="-5.341683">
        <ele>1630.0</ele>
        <time>2016-08-06T12:37:05Z</time>
      </trkpt>
      <trkpt lat="40.422633" lon="-5.341583">
        <ele>1632.0</ele>
        <time>2016-08-06T12:37:07Z</time>
      </trkpt>
      <trkpt lat="40.422633" lon="-5.341483">
        <ele>1636.0</ele>
        <time>2016-08-06T12:37:09Z</time>
      </trkpt>
      <trkpt lat="40.422567" lon="-5.341333">
        <ele>1635.0</ele>
        <time>2016-08-06T12:37:11Z</time>
      </trkpt>
      <trkpt lat="40.422383" lon="-5.341200">
        <ele>1634.0</ele>
        <time>2016-08-06T12:37:13Z</time>
      </trkpt>
      <trkpt lat="40.422133" lon="-5.341200">
        <ele>1637.0</ele>
        <time>2016-08-06T12:37:15Z</time>
      </trkpt>
      <trkpt lat="40.421917" lon="-5.341317">
        <ele>1641.0</ele>
        <time>2016-08-06T12:37:17Z</time>
      </trkpt>
      <trkpt lat="40.421750" lon="-5.341533">
        <ele>1640.0</ele>
        <time>2016-08-06T12:37:19Z</time>
      </trkpt>
      <trkpt lat="40.421667" lon="-5.341850">
        <ele>1638.0</ele>
        <time>2016-08-06T12:37:21Z</time>
      </trkpt>
      <trkpt lat="40.421683" lon="-5.342167">
        <ele>1639.0</ele>
        <time>2016-08-06T12:37:23Z</time>
      </trkpt>
      <trkpt lat="40.421733" lon="-5.342400">
        <ele>1640.0</ele>
        <time>2016-08-06T12:37:25Z</time>
      </trkpt>
      <trkpt lat="40.421817" lon="-5.342633">
        <ele>1639.0</ele>
        <time>2016-08-06T12:37:27Z</time>
      </trkpt>
      <trkpt lat="40.421933" lon="-5.342817">
        <ele>1642.0</ele>
        <time>2016-08-06T12:37:29Z</time>
      </trkpt>
      <trkpt lat="40.422050" lon="-5.342933">
        <ele>1646.0</ele>
        <time>2016-08-06T12:37:31Z</time>
      </trkpt>
      <trkpt lat="40.422167" lon="-5.342983">
        <ele>1648.0</ele>
        <time>2016-08-06T12:37:33Z</time>
      </trkpt>
      <trkpt lat="40.422317" lon="-5.342967">
        <ele>1649.0</ele>
        <time>2016-08-06T12:37:35Z</time>
      </trkpt>
      <trkpt lat="40.422433" lon="-5.342867">
        <ele>1654.0</ele>
        <time>2016-08-06T12:37:37Z</time>
      </trkpt>
      <trkpt lat="40.422517" lon="-5.342767">
        <ele>1661.0</ele>
        <time>2016-08-06T12:37:39Z</time>
      </trkpt>
      <trkpt lat="40.422583" lon="-5.342600">
        <ele>1664.0</ele>
        <time>2016-08-06T12:37:41Z</time>
      </trkpt>
      <trkpt lat="40.422517" lon="-5.342383">
        <ele>1668.0</ele>
        <time>2016-08-06T12:37:43Z</time>
      </trkpt>
      <trkpt lat="40.422367" lon="-5.342233">
        <ele>1672.0</ele>
        <time>2016-08-06T12:37:45Z</time>
      </trkpt>
      <trkpt lat="40.422150" lon="-5.342167">
        <ele>1673.0</ele>
        <time>2016-08-06T12:37:47Z</time>
      </trkpt>
      <trkpt lat="40.421883" lon="-5.342233">
        <ele>1674.0</ele>
        <time>2016-08-06T12:37:49Z</time>
      </trkpt>
      <trkpt lat="40.421717" lon="-5.342483">
        <ele>1677.0</ele>
        <time>2016-08-06T12:37:51Z</time>
      </trkpt>
      <trkpt lat="40.421650" lon="-5.342750">
        <ele>1680.0</ele>
        <time>2016-08-06T12:37:53Z</time>
      </trkpt>
      <trkpt lat="40.421650" lon="-5.343000">
        <ele>1683.0</ele>
        <time>2016-08-06T12:37:55Z</time>
      </trkpt>
      <trkpt lat="40.421700" lon="-5.343217">
        <ele>1684.0</ele>
        <time>2016-08-06T12:37:57Z</time>
      </trkpt>
      <trkpt lat="40.421817" lon="-5.343383">
        <ele>1688.0</ele>
        <time>2016-08-06T12:37:59Z</time>
      </trkpt>
      <trkpt lat="40.421967" lon="-5.343467">
        <ele>1694.0</ele>
        <time>2016-08-06T12:38:01Z</time>
      </trkpt>
      <trkpt lat="40.422117" lon="-5.343500">
        <ele>1701.0</ele>
        <time>2016-08-06T12:38:03Z</time>
      </trkpt>
      <trkpt lat="40.422250" lon="-5.343467">
        <ele>1710.0</ele>
        <time>2016-08-06T12:38:05Z</time>
      </trkpt>
      <trkpt lat="40.422383" lon="-5.343417">
        <ele>1716.0</ele>
        <time>2016-08-06T12:38:07Z</time>
      </trkpt>
      <trkpt lat="40.422483" lon="-5.343283">
        <ele>1719.0</ele>
        <time>2016-08-06T12:38:09Z</time>
      </trkpt>
      <trkpt lat="40.422483" lon="-5.343067">
        <ele>1724.0</ele>
        <time>2016-08-06T12:38:11Z</time>
      </trkpt>
      <trkpt lat="40.422383" lon="-5.342900">
        <ele>1729.0</ele>
        <time>2016-08-06T12:38:13Z</time>
      </trkpt>
      <trkpt lat="40.422217" lon="-5.342783">
        <ele>1736.0</ele>
        <time>2016-08-06T12:38:15Z</time>
      </trkpt>
      <trkpt lat="40.422017" lon="-5.342767">
        <ele>1742.0</ele>
        <time>2016-08-06T12:38:17Z</time>
      </trkpt>
      <trkpt lat="40.421833" lon="-5.342917">
        <ele>1746.0</ele>
        <time>2016-08-06T12:38:19Z</time>
      </trkpt>
      <trkpt lat="40.421717" lon="-5.343150">
        <ele>1752.0</ele>
        <time>2016-08-06T12:38:21Z</time>
      </trkpt>
      <trkpt lat="40.421683" lon="-5.343383">
        <ele>1761.0</ele>
        <time>2016-08-06T12:38:23Z</time>
      </trkpt>
      <trkpt lat="40.421700" lon="-5.343600">
        <ele>1769.0</ele>
        <time>2016-08-06T12:38:25Z</time>
      </trkpt>
      <trkpt lat="40.421783" lon="-5.343750">
        <ele>1777.0</ele>
        <time>2016-08-06T12:38:27Z</time>
      </trkpt>
      <trkpt lat="40.421883" lon="-5.343817">
        <ele>1784.0</ele>
        <time>2016-08-06T12:38:29Z</time>
      </trkpt>
      <trkpt lat="40.421967" lon="-5.343783">
        <ele>1786.0</ele>
        <time>2016-08-06T12:38:31Z</time>
      </trkpt>
      <trkpt lat="40.422067" lon="-5.343617">
        <ele>1786.0</ele>
        <time>2016-08-06T12:38:33Z</time>
      </trkpt>
      <trkpt lat="40.422033" lon="-5.343383">
        <ele>1790.0</ele>
        <time>2016-08-06T12:38:35Z</time>
      </trkpt>
      <trkpt lat="40.421917" lon="-5.343250">
        <ele>1796.0</ele>
        <time>2016-08-06T12:38:37Z</time>
      </trkpt>
      <trkpt lat="40.421800" lon="-5.343117">
        <ele>1801.0</ele>
        <time>2016-08-06T12:38:39Z</time>
      </trkpt>
      <trkpt lat="40.421633" lon="-5.342983">
        <ele>1808.0</ele>
        <time>2016-08-06T12:38:41Z</time>
      </trkpt>
      <trkpt lat="40.421433" lon="-5.342933">
        <ele>1813.0</ele>
        <time>2016-08-06T12:38:43Z</time>
      </trkpt>
      <trkpt lat="40.421183" lon="-5.343000">
        <ele>1817.0</ele>
        <time>2016-08-06T12:38:45Z</time>
      </trkpt>
      <trkpt lat="40.421000" lon="-5.343200">
        <ele>1821.0</ele>
        <time>2016-08-06T12:38:47Z</time>
      </trkpt>
      <trkpt lat="40.420917" lon="-5.343450">
        <ele>1825.0</ele>
        <time>2016-08-06T12:38:49Z</time>
      </trkpt>
      <trkpt lat="40.420900" lon="-5.343700">
        <ele>1831.0</ele>
        <time>2016-08-06T12:38:51Z</time>
      </trkpt>
      <trkpt lat="40.420933" lon="-5.343933">
        <ele>1837.0</ele>
        <time>2016-08-06T12:38:53Z</time>
      </trkpt>
      <trkpt lat="40.421033" lon="-5.344083">
        <ele>1846.0</ele>
        <time>2016-08-06T12:38:55Z</time>
      </trkpt>
      <trkpt lat="40.421133" lon="-5.344150">
        <ele>1854.0</ele>
        <time>2016-08-06T12:38:57Z</time>
      </trkpt>
      <trkpt lat="40.421233" lon="-5.344150">
        <ele>1856.0</ele>
        <time>2016-08-06T12:38:59Z</time>
      </trkpt>
      <trkpt lat="40.421333" lon="-5.344000">
        <ele>1855.0</ele>
        <time>2016-08-06T12:39:01Z</time>
      </trkpt>
      <trkpt lat="40.421317" lon="-5.343750">
        <ele>1862.0</ele>
        <time>2016-08-06T12:39:03Z</time>
      </trkpt>
      <trkpt lat="40.421250" lon="-5.343600">
        <ele>1872.0</ele>
        <time>2016-08-06T12:39:05Z</time>
      </trkpt>
      <trkpt lat="40.421167" lon="-5.343433">
        <ele>1877.0</ele>
        <time>2016-08-06T12:39:07Z</time>
      </trkpt>
      <trkpt lat="40.420983" lon="-5.343267">
        <ele>1884.0</ele>
        <time>2016-08-06T12:39:09Z</time>
      </trkpt>
      <trkpt lat="40.420767" lon="-5.343283">
        <ele>1892.0</ele>
        <time>2016-08-06T12:39:11Z</time>
      </trkpt>
      <trkpt lat="40.420550" lon="-5.343417">
        <ele>1895.0</ele>
        <time>2016-08-06T12:39:13Z</time>
      </trkpt>
      <trkpt lat="40.420400" lon="-5.343683">
        <ele>1899.0</ele>
        <time>2016-08-06T12:39:15Z</time>
      </trkpt>
      <trkpt lat="40.420383" lon="-5.343950">
        <ele>1904.0</ele>
        <time>2016-08-06T12:39:17Z</time>
      </trkpt>
      <trkpt lat="40.420450" lon="-5.344150">
        <ele>1913.0</ele>
        <time>2016-08-06T12:39:19Z</time>
      </trkpt>
      <trkpt lat="40.420550" lon="-5.344217">
        <ele>1919.0</ele>
        <time>2016-08-06T12:39:21Z</time>
      </trkpt>
      <trkpt lat="40.420683" lon="-5.344183">
        <ele>1922.0</ele>
        <time>2016-08-06T12:39:23Z</time>
      </trkpt>
      <trkpt lat="40.420783" lon="-5.344050">
        <ele>1928.0</ele>
        <time>2016-08-06T12:39:25Z</time>
      </trkpt>
      <trkpt lat="40.420783" lon="-5.343883">
        <ele>1936.0</ele>
        <time>2016-08-06T12:39:27Z</time>
      </trkpt>
      <trkpt lat="40.420750" lon="-5.343733">
        <ele>1943.0</ele>
        <time>2016-08-06T12:39:29Z</time>
      </trkpt>
      <trkpt lat="40.420600" lon="-5.343617">
        <ele>1947.0</ele>
        <time>2016-08-06T12:39:31Z</time>
      </trkpt>
      <trkpt lat="40.420400" lon="-5.343567">
        <ele>1952.0</ele>
        <time>2016-08-06T12:39:33Z</time>
      </trkpt>
      <trkpt lat="40.420183" lon="-5.343667">
        <ele>1956.0</ele>
        <time>2016-08-06T12:39:35Z</time>
      </trkpt>
      <trkpt lat="40.420017" lon="-5.343917">
        <ele>1960.0</ele>
        <time>2016-08-06T12:39:37Z</time>
      </trkpt>
      <trkpt lat="40.419950" lon="-5.344200">
        <ele>1967.0</ele>
        <time>2016-08-06T12:39:39Z</time>
      </trkpt>
      <trkpt lat="40.419950" lon="-5.344417">
        <ele>1974.0</ele>
        <time>2016-08-06T12:39:41Z</time>
      </trkpt>
      <trkpt lat="40.420000" lon="-5.344583">
        <ele>1977.0</ele>
        <time>2016-08-06T12:39:43Z</time>
      </trkpt>
      <trkpt lat="40.420117" lon="-5.344650">
        <ele>1978.0</ele>
        <time>2016-08-06T12:39:45Z</time>
      </trkpt>
      <trkpt lat="40.420233" lon="-5.344600">
        <ele>1979.0</ele>
        <time>2016-08-06T12:39:47Z</time>
      </trkpt>
      <trkpt lat="40.420350" lon="-5.344467">
        <ele>1981.0</ele>
        <time>2016-08-06T12:39:49Z</time>
      </trkpt>
      <trkpt lat="40.420433" lon="-5.344350">
        <ele>1987.0</ele>
        <time>2016-08-06T12:39:51Z</time>
      </trkpt>
      <trkpt lat="40.420467" lon="-5.344217">
        <ele>1991.0</ele>
        <time>2016-08-06T12:39:53Z</time>
      </trkpt>
      <trkpt lat="40.420467" lon="-5.344050">
        <ele>1996.0</ele>
        <time>2016-08-06T12:39:55Z</time>
      </trkpt>
      <trkpt lat="40.420383" lon="-5.343900">
        <ele>2001.0</ele>
        <time>2016-08-06T12:39:57Z</time>
      </trkpt>
      <trkpt lat="40.420233" lon="-5.343817">
        <ele>2002.0</ele>
        <time>2016-08-06T12:39:59Z</time>
      </trkpt>
      <trkpt lat="40.420017" lon="-5.343733">
        <ele>2006.0</ele>
        <time>2016-08-06T12:40:01Z</time>
      </trkpt>
      <trkpt lat="40.419767" lon="-5.343800">
        <ele>2012.0</ele>
        <time>2016-08-06T12:40:03Z</time>
      </trkpt>
      <trkpt lat="40.419583" lon="-5.343983">
        <ele>2018.0</ele>
        <time>2016-08-06T12:40:05Z</time>
      </trkpt>
      <trkpt lat="40.419450" lon="-5.344217">
        <ele>2023.0</ele>
        <time>2016-08-06T12:40:07Z</time>
      </trkpt>
      <trkpt lat="40.419400" lon="-5.344500">
        <ele>2026.0</ele>
        <time>2016-08-06T12:40:09Z</time>
      </trkpt>
      <trkpt lat="40.419433" lon="-5.344700">
        <ele>2033.0</ele>
        <time>2016-08-06T12:40:11Z</time>
      </trkpt>
      <trkpt lat="40.419483" lon="-5.344850">
        <ele>2036.0</ele>
        <time>2016-08-06T12:40:13Z</time>
      </trkpt>
      <trkpt lat="40.419600" lon="-5.344967">
        <ele>2035.0</ele>
        <time>2016-08-06T12:40:15Z</time>
      </trkpt>
      <trkpt lat="40.419750" lon="-5.345017">
        <ele>2038.0</ele>
        <time>2016-08-06T12:40:17Z</time>
      </trkpt>
      <trkpt lat="40.419867" lon="-5.345017">
        <ele>2042.0</ele>
        <time>2016-08-06T12:40:19Z</time>
      </trkpt>
      <trkpt lat="40.419967" lon="-5.344967">
        <ele>2044.0</ele>
        <time>2016-08-06T12:40:21Z</time>
      </trkpt>
      <trkpt lat="40.420067" lon="-5.344850">
        <ele>2047.0</ele>
        <time>2016-08-06T12:40:23Z</time>
      </trkpt>
      <trkpt lat="40.420117" lon="-5.344683">
        <ele>2054.0</ele>
        <time>2016-08-06T12:40:25Z</time>
      </trkpt>
      <trkpt lat="40.420100" lon="-5.344533">
        <ele>2058.0</ele>
        <time>2016-08-06T12:40:27Z</time>
      </trkpt>
      <trkpt lat="40.420000" lon="-5.344383">
        <ele>2061.0</ele>
        <time>2016-08-06T12:40:29Z</time>
      </trkpt>
      <trkpt lat="40.419817" lon="-5.344300">
        <ele>2064.0</ele>
        <time>2016-08-06T12:40:31Z</time>
      </trkpt>
      <trkpt lat="40.419600" lon="-5.344333">
        <ele>2067.0</ele>
        <time>2016-08-06T12:40:33Z</time>
      </trkpt>
      <trkpt lat="40.419417" lon="-5.344500">
        <ele>2072.0</ele>
        <time>2016-08-06T12:40:35Z</time>
      </trkpt>
      <trkpt lat="40.419283" lon="-5.344717">
        <ele>2077.0</ele>
        <time>2016-08-06T12:40:37Z</time>
      </trkpt>
      <trkpt lat="40.419233" lon="-5.344983">
        <ele>2082.0</ele>
        <time>2016-08-06T12:40:39Z</time>
      </trkpt>
      <trkpt lat="40.419250" lon="-5.345217">
        <ele>2085.0</ele>
        <time>2016-08-06T12:40:41Z</time>
      </trkpt>
      <trkpt lat="40.419350" lon="-5.345433">
        <ele>2089.0</ele>
        <time>2016-08-06T12:40:43Z</time>
      </trkpt>
      <trkpt lat="40.419467" lon="-5.345533">
        <ele>2092.0</ele>
        <time>2016-08-06T12:40:45Z</time>
      </trkpt>
      <trkpt lat="40.419600" lon="-5.345533">
        <ele>2096.0</ele>
        <time>2016-08-06T12:40:47Z</time>
      </trkpt>
      <trkpt lat="40.419717" lon="-5.345467">
        <ele>2102.0</ele>
        <time>2016-08-06T12:40:49Z</time>
      </trkpt>
      <trkpt lat="40.419783" lon="-5.345383">
        <ele>2108.0</ele>
        <time>2016-08-06T12:40:51Z</time>
      </trkpt>
      <trkpt lat="40.419817" lon="-5.345283">
        <ele>2109.0</ele>
        <time>2016-08-06T12:40:53Z</time>
      </trkpt>
      <trkpt lat="40.419800" lon="-5.345083">
        <ele>2110.0</ele>
        <time>2016-08-06T12:40:55Z</time>
      </trkpt>
      <trkpt lat="40.419700" lon="-5.344900">
        <ele>2116.0</ele>
        <time>2016-08-06T12:40:57Z</time>
      </trkpt>
      <trkpt lat="40.419550" lon="-5.344783">
        <ele>2121.0</ele>
        <time>2016-08-06T12:40:59Z</time>
      </trkpt>
      <trkpt lat="40.419350" lon="-5.344767">
        <ele>2121.0</ele>
        <time>2016-08-06T12:41:01Z</time>
      </trkpt>
      <trkpt lat="40.419117" lon="-5.344850">
        <ele>2121.0</ele>
        <time>2016-08-06T12:41:03Z</time>
      </trkpt>
      <trkpt lat="40.418933" lon="-5.345083">
        <ele>2125.0</ele>
        <time>2016-08-06T12:41:05Z</time>
      </trkpt>
      <trkpt lat="40.418800" lon="-5.345333">
        <ele>2132.0</ele>
        <time>2016-08-06T12:41:07Z</time>
      </trkpt>
      <trkpt lat="40.418717" lon="-5.345617">
        <ele>2136.0</ele>
        <time>2016-08-06T12:41:09Z</time>
      </trkpt>
      <trkpt lat="40.418700" lon="-5.345917">
        <ele>2138.0</ele>
        <time>2016-08-06T12:41:11Z</time>
      </trkpt>
      <trkpt lat="40.418733" lon="-5.346183">
        <ele>2143.0</ele>
        <time>2016-08-06T12:41:13Z</time>
      </trkpt>
      <trkpt lat="40.418800" lon="-5.346367">
        <ele>2147.0</ele>
        <time>2016-08-06T12:41:15Z</time>
      </trkpt>
      <trkpt lat="40.418900" lon="-5.346517">
        <ele>2148.0</ele>
        <time>2016-08-06T12:41:17Z</time>
      </trkpt>
      <trkpt lat="40.419050" lon="-5.346600">
        <ele>2152.0</ele>
        <time>2016-08-06T12:41:19Z</time>
      </trkpt>
      <trkpt lat="40.419150" lon="-5.346567">
        <ele>2154.0</ele>
        <time>2016-08-06T12:41:21Z</time>
      </trkpt>
      <trkpt lat="40.419217" lon="-5.346433">
        <ele>2154.0</ele>
        <time>2016-08-06T12:41:23Z</time>
      </trkpt>
      <trkpt lat="40.419233" lon="-5.346233">
        <ele>2157.0</ele>
        <time>2016-08-06T12:41:25Z</time>
      </trkpt>
      <trkpt lat="40.419200" lon="-5.346067">
        <ele>2162.0</ele>
        <time>2016-08-06T12:41:27Z</time>
      </trkpt>
      <trkpt lat="40.419117" lon="-5.345933">
        <ele>2166.0</ele>
        <time>2016-08-06T12:41:29Z</time>
      </trkpt>
      <trkpt lat="40.418967" lon="-5.345817">
        <ele>2166.0</ele>
        <time>2016-08-06T12:41:31Z</time>
      </trkpt>
      <trkpt lat="40.418767" lon="-5.345817">
        <ele>2169.0</ele>
        <time>2016-08-06T12:41:33Z</time>
      </trkpt>
      <trkpt lat="40.418583" lon="-5.345950">
        <ele>2171.0</ele>
        <time>2016-08-06T12:41:35Z</time>
      </trkpt>
      <trkpt lat="40.418417" lon="-5.346100">
        <ele>2174.0</ele>
        <time>2016-08-06T12:41:37Z</time>
      </trkpt>
      <trkpt lat="40.418300" lon="-5.346333">
        <ele>2175.0</ele>
        <time>2016-08-06T12:41:39Z</time>
      </trkpt>
      <trkpt lat="40.418233" lon="-5.346617">
        <ele>2178.0</ele>
        <time>2016-08-06T12:41:41Z</time>
      </trkpt>
      <trkpt lat="40.418217" lon="-5.346917">
        <ele>2182.0</ele>
        <time>2016-08-06T12:41:43Z</time>
      </trkpt>
      <trkpt lat="40.418233" lon="-5.347167">
        <ele>2186.0</ele>
        <time>2016-08-06T12:41:45Z</time>
      </trkpt>
      <trkpt lat="40.418283" lon="-5.347367">
        <ele>2187.0</ele>
        <time>2016-08-06T12:41:47Z</time>
      </trkpt>
      <trkpt lat="40.418400" lon="-5.347450">
        <ele>2183.0</ele>
        <time>2016-08-06T12:41:49Z</time>
      </trkpt>
      <trkpt lat="40.418517" lon="-5.347400">
        <ele>2182.0</ele>
        <time>2016-08-06T12:41:51Z</time>
      </trkpt>
      <trkpt lat="40.418583" lon="-5.347267">
        <ele>2181.0</ele>
        <time>2016-08-06T12:41:53Z</time>
      </trkpt>
      <trkpt lat="40.418633" lon="-5.347117">
        <ele>2182.0</ele>
        <time>2016-08-06T12:41:55Z</time>
      </trkpt>
      <trkpt lat="40.418617" lon="-5.346933">
        <ele>2185.0</ele>
        <time>2016-08-06T12:41:57Z</time>
      </trkpt>
      <trkpt lat="40.418567" lon="-5.346783">
        <ele>2188.0</ele>
        <time>2016-08-06T12:41:59Z</time>
      </trkpt>
      <trkpt lat="40.418467" lon="-5.346650">
        <ele>2189.0</ele>
        <time>2016-08-06T12:42:01Z</time>
      </trkpt>
      <trkpt lat="40.418283" lon="-5.346583">
        <ele>2188.0</ele>
        <time>2016-08-06T12:42:03Z</time>
      </trkpt>
      <trkpt lat="40.418067" lon="-5.346650">
        <ele>2189.0</ele>
        <time>2016-08-06T12:42:05Z</time>
      </trkpt>
      <trkpt lat="40.417883" lon="-5.346783">
        <ele>2192.0</ele>
        <time>2016-08-06T12:42:07Z</time>
      </trkpt>
      <trkpt lat="40.417717" lon="-5.346967">
        <ele>2192.0</ele>
        <time>2016-08-06T12:42:09Z</time>
      </trkpt>
      <trkpt lat="40.417567" lon="-5.347217">
        <ele>2193.0</ele>
        <time>2016-08-06T12:42:11Z</time>
      </trkpt>
      <trkpt lat="40.417467" lon="-5.347500">
        <ele>2195.0</ele>
        <time>2016-08-06T12:42:13Z</time>
      </trkpt>
      <trkpt lat="40.417417" lon="-5.347750">
        <ele>2196.0</ele>
        <time>2016-08-06T12:42:15Z</time>
      </trkpt>
      <trkpt lat="40.417417" lon="-5.348000">
        <ele>2197.0</ele>
        <time>2016-08-06T12:42:17Z</time>
      </trkpt>
      <trkpt lat="40.417450" lon="-5.348233">
        <ele>2195.0</ele>
        <time>2016-08-06T12:42:19Z</time>
      </trkpt>
      <trkpt lat="40.417533" lon="-5.348433">
        <ele>2192.0</ele>
        <time>2016-08-06T12:42:21Z</time>
      </trkpt>
      <trkpt lat="40.417617" lon="-5.348650">
        <ele>2188.0</ele>
        <time>2016-08-06T12:42:23Z</time>
      </trkpt>
      <trkpt lat="40.417683" lon="-5.348867">
        <ele>2183.0</ele>
        <time>2016-08-06T12:42:25Z</time>
      </trkpt>
      <trkpt lat="40.417750" lon="-5.349133">
        <ele>2176.0</ele>
        <time>2016-08-06T12:42:27Z</time>
      </trkpt>
      <trkpt lat="40.417800" lon="-5.349433">
        <ele>2172.0</ele>
        <time>2016-08-06T12:42:29Z</time>
      </trkpt>
      <trkpt lat="40.417833" lon="-5.349667">
        <ele>2170.0</ele>
        <time>2016-08-06T12:42:31Z</time>
      </trkpt>
      <trkpt lat="40.417800" lon="-5.349900">
        <ele>2163.0</ele>
        <time>2016-08-06T12:42:33Z</time>
      </trkpt>
      <trkpt lat="40.417750" lon="-5.350217">
        <ele>2156.0</ele>
        <time>2016-08-06T12:42:35Z</time>
      </trkpt>
      <trkpt lat="40.417667" lon="-5.350500">
        <ele>2155.0</ele>
        <time>2016-08-06T12:42:37Z</time>
      </trkpt>
      <trkpt lat="40.417567" lon="-5.350767">
        <ele>2152.0</ele>
        <time>2016-08-06T12:42:39Z</time>
      </trkpt>
      <trkpt lat="40.417433" lon="-5.351100">
        <ele>2147.0</ele>
        <time>2016-08-06T12:42:41Z</time>
      </trkpt>
      <trkpt lat="40.417333" lon="-5.351500">
        <ele>2135.0</ele>
        <time>2016-08-06T12:42:43Z</time>
      </trkpt>
      <trkpt lat="40.417250" lon="-5.351833">
        <ele>2114.0</ele>
        <time>2016-08-06T12:42:45Z</time>
      </trkpt>
      <trkpt lat="40.417150" lon="-5.352167">
        <ele>2100.0</ele>
        <time>2016-08-06T12:42:47Z</time>
      </trkpt>
      <trkpt lat="40.416983" lon="-5.352417">
        <ele>2093.0</ele>
        <time>2016-08-06T12:42:49Z</time>
      </trkpt>
      <trkpt lat="40.416867" lon="-5.352633">
        <ele>2089.0</ele>
        <time>2016-08-06T12:42:51Z</time>
      </trkpt>
      <trkpt lat="40.416750" lon="-5.352883">
        <ele>2085.0</ele>
        <time>2016-08-06T12:42:53Z</time>
      </trkpt>
      <trkpt lat="40.416617" lon="-5.353117">
        <ele>2083.0</ele>
        <time>2016-08-06T12:42:55Z</time>
      </trkpt>
      <trkpt lat="40.416500" lon="-5.353333">
        <ele>2085.0</ele>
        <time>2016-08-06T12:42:57Z</time>
      </trkpt>
      <trkpt lat="40.416383" lon="-5.353533">
        <ele>2086.0</ele>
        <time>2016-08-06T12:42:59Z</time>
      </trkpt>
      <trkpt lat="40.416267" lon="-5.353717">
        <ele>2089.0</ele>
        <time>2016-08-06T12:43:01Z</time>
      </trkpt>
      <trkpt lat="40.416133" lon="-5.353967">
        <ele>2089.0</ele>
        <time>2016-08-06T12:43:03Z</time>
      </trkpt>
      <trkpt lat="40.415983" lon="-5.354200">
        <ele>2090.0</ele>
        <time>2016-08-06T12:43:05Z</time>
      </trkpt>
      <trkpt lat="40.415833" lon="-5.354400">
        <ele>2088.0</ele>
        <time>2016-08-06T12:43:07Z</time>
      </trkpt>
      <trkpt lat="40.415683" lon="-5.354650">
        <ele>2084.0</ele>
        <time>2016-08-06T12:43:09Z</time>
      </trkpt>
      <trkpt lat="40.415517" lon="-5.354900">
        <ele>2082.0</ele>
        <time>2016-08-06T12:43:11Z</time>
      </trkpt>
      <trkpt lat="40.415383" lon="-5.355117">
        <ele>2080.0</ele>
        <time>2016-08-06T12:43:13Z</time>
      </trkpt>
      <trkpt lat="40.415267" lon="-5.355367">
        <ele>2075.0</ele>
        <time>2016-08-06T12:43:15Z</time>
      </trkpt>
      <trkpt lat="40.415167" lon="-5.355617">
        <ele>2072.0</ele>
        <time>2016-08-06T12:43:17Z</time>
      </trkpt>
      <trkpt lat="40.415050" lon="-5.355883">
        <ele>2068.0</ele>
        <time>2016-08-06T12:43:19Z</time>
      </trkpt>
      <trkpt lat="40.414950" lon="-5.356167">
        <ele>2064.0</ele>
        <time>2016-08-06T12:43:21Z</time>
      </trkpt>
      <trkpt lat="40.414850" lon="-5.356450">
        <ele>2062.0</ele>
        <time>2016-08-06T12:43:23Z</time>
      </trkpt>
      <trkpt lat="40.414750" lon="-5.356717">
        <ele>2060.0</ele>
        <time>2016-08-06T12:43:25Z</time>
      </trkpt>
      <trkpt lat="40.414650" lon="-5.356983">
        <ele>2056.0</ele>
        <time>2016-08-06T12:43:27Z</time>
      </trkpt>
      <trkpt lat="40.414550" lon="-5.357283">
        <ele>2051.0</ele>
        <time>2016-08-06T12:43:29Z</time>
      </trkpt>
      <trkpt lat="40.414467" lon="-5.357567">
        <ele>2049.0</ele>
        <time>2016-08-06T12:43:31Z</time>
      </trkpt>
      <trkpt lat="40.414383" lon="-5.357850">
        <ele>2045.0</ele>
        <time>2016-08-06T12:43:33Z</time>
      </trkpt>
      <trkpt lat="40.414283" lon="-5.358133">
        <ele>2041.0</ele>
        <time>2016-08-06T12:43:35Z</time>
      </trkpt>
      <trkpt lat="40.414183" lon="-5.358433">
        <ele>2039.0</ele>
        <time>2016-08-06T12:43:37Z</time>
      </trkpt>
      <trkpt lat="40.414117" lon="-5.358683">
        <ele>2037.0</ele>
        <time>2016-08-06T12:43:39Z</time>
      </trkpt>
      <trkpt lat="40.414033" lon="-5.358950">
        <ele>2033.0</ele>
        <time>2016-08-06T12:43:41Z</time>
      </trkpt>
      <trkpt lat="40.413950" lon="-5.359250">
        <ele>2029.0</ele>
        <time>2016-08-06T12:43:43Z</time>
      </trkpt>
      <trkpt lat="40.413883" lon="-5.359533">
        <ele>2026.0</ele>
        <time>2016-08-06T12:43:45Z</time>
      </trkpt>
      <trkpt lat="40.413800" lon="-5.359833">
        <ele>2023.0</ele>
        <time>2016-08-06T12:43:47Z</time>
      </trkpt>
      <trkpt lat="40.413733" lon="-5.360133">
        <ele>2020.0</ele>
        <time>2016-08-06T12:43:49Z</time>
      </trkpt>
      <trkpt lat="40.413667" lon="-5.360417">
        <ele>2017.0</ele>
        <time>2016-08-06T12:43:51Z</time>
      </trkpt>
      <trkpt lat="40.413583" lon="-5.360733">
        <ele>2013.0</ele>
        <time>2016-08-06T12:43:53Z</time>
      </trkpt>
      <trkpt lat="40.413517" lon="-5.361033">
        <ele>2010.0</ele>
        <time>2016-08-06T12:43:55Z</time>
      </trkpt>
      <trkpt lat="40.413467" lon="-5.361333">
        <ele>2006.0</ele>
        <time>2016-08-06T12:43:57Z</time>
      </trkpt>
      <trkpt lat="40.413417" lon="-5.361650">
        <ele>2000.0</ele>
        <time>2016-08-06T12:43:59Z</time>
      </trkpt>
      <trkpt lat="40.413367" lon="-5.361983">
        <ele>1999.0</ele>
        <time>2016-08-06T12:44:01Z</time>
      </trkpt>
      <trkpt lat="40.413317" lon="-5.362283">
        <ele>1998.0</ele>
        <time>2016-08-06T12:44:03Z</time>
      </trkpt>
      <trkpt lat="40.413233" lon="-5.362567">
        <ele>1995.0</ele>
        <time>2016-08-06T12:44:05Z</time>
      </trkpt>
      <trkpt lat="40.413150" lon="-5.362883">
        <ele>1991.0</ele>
        <time>2016-08-06T12:44:07Z</time>
      </trkpt>
      <trkpt lat="40.413083" lon="-5.363200">
        <ele>1988.0</ele>
        <time>2016-08-06T12:44:09Z</time>
      </trkpt>
      <trkpt lat="40.413033" lon="-5.363517">
        <ele>1985.0</ele>
        <time>2016-08-06T12:44:11Z</time>
      </trkpt>
      <trkpt lat="40.412967" lon="-5.363800">
        <ele>1983.0</ele>
        <time>2016-08-06T12:44:13Z</time>
      </trkpt>
      <trkpt lat="40.412917" lon="-5.364067">
        <ele>1979.0</ele>
        <time>2016-08-06T12:44:15Z</time>
      </trkpt>
      <trkpt lat="40.412883" lon="-5.364367">
        <ele>1973.0</ele>
        <time>2016-08-06T12:44:17Z</time>
      </trkpt>
      <trkpt lat="40.412817" lon="-5.364683">
        <ele>1968.0</ele>
        <time>2016-08-06T12:44:19Z</time>
      </trkpt>
      <trkpt lat="40.412733" lon="-5.365000">
        <ele>1965.0</ele>
        <time>2016-08-06T12:44:21Z</time>
      </trkpt>
      <trkpt lat="40.412667" lon="-5.365317">
        <ele>1960.0</ele>
        <time>2016-08-06T12:44:23Z</time>
      </trkpt>
      <trkpt lat="40.412617" lon="-5.365633">
        <ele>1957.0</ele>
        <time>2016-08-06T12:44:25Z</time>
      </trkpt>
      <trkpt lat="40.412550" lon="-5.365917">
        <ele>1955.0</ele>
        <time>2016-08-06T12:44:27Z</time>
      </trkpt>
      <trkpt lat="40.412483" lon="-5.366217">
        <ele>1952.0</ele>
        <time>2016-08-06T12:44:29Z</time>
      </trkpt>
      <trkpt lat="40.412433" lon="-5.366533">
        <ele>1948.0</ele>
        <time>2016-08-06T12:44:31Z</time>
      </trkpt>
      <trkpt lat="40.412383" lon="-5.366833">
        <ele>1946.0</ele>
        <time>2016-08-06T12:44:33Z</time>
      </trkpt>
      <trkpt lat="40.412350" lon="-5.367100">
        <ele>1943.0</ele>
        <time>2016-08-06T12:44:35Z</time>
      </trkpt>
      <trkpt lat="40.412333" lon="-5.367383">
        <ele>1938.0</ele>
        <time>2016-08-06T12:44:37Z</time>
      </trkpt>
      <trkpt lat="40.412283" lon="-5.367667">
        <ele>1933.0</ele>
        <time>2016-08-06T12:44:39Z</time>
      </trkpt>
      <trkpt lat="40.412233" lon="-5.367967">
        <ele>1928.0</ele>
        <time>2016-08-06T12:44:41Z</time>
      </trkpt>
      <trkpt lat="40.412183" lon="-5.368250">
        <ele>1924.0</ele>
        <time>2016-08-06T12:44:43Z</time>
      </trkpt>
      <trkpt lat="40.412117" lon="-5.368533">
        <ele>1921.0</ele>
        <time>2016-08-06T12:44:45Z</time>
      </trkpt>
      <trkpt lat="40.412067" lon="-5.368817">
        <ele>1916.0</ele>
        <time>2016-08-06T12:44:47Z</time>
      </trkpt>
      <trkpt lat="40.412033" lon="-5.369117">
        <ele>1909.0</ele>
        <time>2016-08-06T12:44:49Z</time>
      </trkpt>
      <trkpt lat="40.411983" lon="-5.369433">
        <ele>1906.0</ele>
        <time>2016-08-06T12:44:51Z</time>
      </trkpt>
      <trkpt lat="40.411917" lon="-5.369717">
        <ele>1906.0</ele>
        <time>2016-08-06T12:44:53Z</time>
      </trkpt>
      <trkpt lat="40.411900" lon="-5.369983">
        <ele>1902.0</ele>
        <time>2016-08-06T12:44:55Z</time>
      </trkpt>
      <trkpt lat="40.411867" lon="-5.370300">
        <ele>1895.0</ele>
        <time>2016-08-06T12:44:57Z</time>
      </trkpt>
      <trkpt lat="40.411833" lon="-5.370600">
        <ele>1893.0</ele>
        <time>2016-08-06T12:44:59Z</time>
      </trkpt>
      <trkpt lat="40.411800" lon="-5.370867">
        <ele>1891.0</ele>
        <time>2016-08-06T12:45:01Z</time>
      </trkpt>
      <trkpt lat="40.411767" lon="-5.371150">
        <ele>1887.0</ele>
        <time>2016-08-06T12:45:03Z</time>
      </trkpt>
      <trkpt lat="40.411733" lon="-5.371450">
        <ele>1885.0</ele>
        <time>2016-08-06T12:45:05Z</time>
      </trkpt>
      <trkpt lat="40.411700" lon="-5.371733">
        <ele>1883.0</ele>
        <time>2016-08-06T12:45:07Z</time>
      </trkpt>
      <trkpt lat="40.411667" lon="-5.372033">
        <ele>1881.0</ele>
        <time>2016-08-06T12:45:09Z</time>
      </trkpt>
      <trkpt lat="40.411633" lon="-5.372317">
        <ele>1879.0</ele>
        <time>2016-08-06T12:45:11Z</time>
      </trkpt>
      <trkpt lat="40.411617" lon="-5.372567">
        <ele>1877.0</ele>
        <time>2016-08-06T12:45:13Z</time>
      </trkpt>
      <trkpt lat="40.411583" lon="-5.372833">
        <ele>1873.0</ele>
        <time>2016-08-06T12:45:15Z</time>
      </trkpt>
      <trkpt lat="40.411567" lon="-5.373117">
        <ele>1870.0</ele>
        <time>2016-08-06T12:45:17Z</time>
      </trkpt>
      <trkpt lat="40.411567" lon="-5.373383">
        <ele>1868.0</ele>
        <time>2016-08-06T12:45:19Z</time>
      </trkpt>
      <trkpt lat="40.411550" lon="-5.373667">
        <ele>1864.0</ele>
        <time>2016-08-06T12:45:21Z</time>
      </trkpt>
      <trkpt lat="40.411583" lon="-5.373967">
        <ele>1862.0</ele>
        <time>2016-08-06T12:45:23Z</time>
      </trkpt>
      <trkpt lat="40.411600" lon="-5.374233">
        <ele>1862.0</ele>
        <time>2016-08-06T12:45:25Z</time>
      </trkpt>
      <trkpt lat="40.411650" lon="-5.374467">
        <ele>1862.0</ele>
        <time>2016-08-06T12:45:27Z</time>
      </trkpt>
      <trkpt lat="40.411683" lon="-5.374700">
        <ele>1861.0</ele>
        <time>2016-08-06T12:45:29Z</time>
      </trkpt>
      <trkpt lat="40.411783" lon="-5.374950">
        <ele>1860.0</ele>
        <time>2016-08-06T12:45:31Z</time>
      </trkpt>
      <trkpt lat="40.411850" lon="-5.375183">
        <ele>1862.0</ele>
        <time>2016-08-06T12:45:33Z</time>
      </trkpt>
      <trkpt lat="40.411883" lon="-5.375400">
        <ele>1861.0</ele>
        <time>2016-08-06T12:45:35Z</time>
      </trkpt>
      <trkpt lat="40.411933" lon="-5.375633">
        <ele>1858.0</ele>
        <time>2016-08-06T12:45:37Z</time>
      </trkpt>
      <trkpt lat="40.412000" lon="-5.375850">
        <ele>1858.0</ele>
        <time>2016-08-06T12:45:39Z</time>
      </trkpt>
      <trkpt lat="40.412050" lon="-5.376050">
        <ele>1857.0</ele>
        <time>2016-08-06T12:45:41Z</time>
      </trkpt>
      <trkpt lat="40.412133" lon="-5.376267">
        <ele>1855.0</ele>
        <time>2016-08-06T12:45:43Z</time>
      </trkpt>
      <trkpt lat="40.412200" lon="-5.376467">
        <ele>1856.0</ele>
        <time>2016-08-06T12:45:45Z</time>
      </trkpt>
      <trkpt lat="40.412250" lon="-5.376633">
        <ele>1855.0</ele>
        <time>2016-08-06T12:45:47Z</time>
      </trkpt>
      <trkpt lat="40.412317" lon="-5.376800">
        <ele>1850.0</ele>
        <time>2016-08-06T12:45:49Z</time>
      </trkpt>
      <trkpt lat="40.412417" lon="-5.377000">
        <ele>1845.0</ele>
        <time>2016-08-06T12:45:51Z</time>
      </trkpt>
      <trkpt lat="40.412500" lon="-5.377183">
        <ele>1842.0</ele>
        <time>2016-08-06T12:45:53Z</time>
      </trkpt>
      <trkpt lat="40.412567" lon="-5.377400">
        <ele>1838.0</ele>
        <time>2016-08-06T12:45:55Z</time>
      </trkpt>
      <trkpt lat="40.412617" lon="-5.377600">
        <ele>1833.0</ele>
        <time>2016-08-06T12:45:57Z</time>
      </trkpt>
      <trkpt lat="40.412683" lon="-5.377833">
        <ele>1829.0</ele>
        <time>2016-08-06T12:45:59Z</time>
      </trkpt>
      <trkpt lat="40.412767" lon="-5.378050">
        <ele>1829.0</ele>
        <time>2016-08-06T12:46:01Z</time>
      </trkpt>
      <trkpt lat="40.412833" lon="-5.378233">
        <ele>1829.0</ele>
        <time>2016-08-06T12:46:03Z</time>
      </trkpt>
      <trkpt lat="40.412867" lon="-5.378417">
        <ele>1827.0</ele>
        <time>2016-08-06T12:46:05Z</time>
      </trkpt>
      <trkpt lat="40.412950" lon="-5.378633">
        <ele>1823.0</ele>
        <time>2016-08-06T12:46:07Z</time>
      </trkpt>
      <trkpt lat="40.413033" lon="-5.378833">
        <ele>1823.0</ele>
        <time>2016-08-06T12:46:09Z</time>
      </trkpt>
      <trkpt lat="40.413083" lon="-5.379017">
        <ele>1822.0</ele>
        <time>2016-08-06T12:46:11Z</time>
      </trkpt>
      <trkpt lat="40.413150" lon="-5.379233">
        <ele>1821.0</ele>
        <time>2016-08-06T12:46:13Z</time>
      </trkpt>
      <trkpt lat="40.413217" lon="-5.379417">
        <ele>1821.0</ele>
        <time>2016-08-06T12:46:15Z</time>
      </trkpt>
      <trkpt lat="40.413283" lon="-5.379583">
        <ele>1821.0</ele>
        <time>2016-08-06T12:46:17Z</time>
      </trkpt>
      <trkpt lat="40.413367" lon="-5.379750">
        <ele>1820.0</ele>
        <time>2016-08-06T12:46:19Z</time>
      </trkpt>
      <trkpt lat="40.413467" lon="-5.379850">
        <ele>1821.0</ele>
        <time>2016-08-06T12:46:21Z</time>
      </trkpt>
      <trkpt lat="40.413550" lon="-5.379917">
        <ele>1822.0</ele>
        <time>2016-08-06T12:46:23Z</time>
      </trkpt>
      <trkpt lat="40.413683" lon="-5.379967">
        <ele>1820.0</ele>
        <time>2016-08-06T12:46:25Z</time>
      </trkpt>
      <trkpt lat="40.413800" lon="-5.380000">
        <ele>1820.0</ele>
        <time>2016-08-06T12:46:27Z</time>
      </trkpt>
      <trkpt lat="40.413917" lon="-5.380050">
        <ele>1822.0</ele>
        <time>2016-08-06T12:46:29Z</time>
      </trkpt>
      <trkpt lat="40.414017" lon="-5.380100">
        <ele>1823.0</ele>
        <time>2016-08-06T12:46:31Z</time>
      </trkpt>
      <trkpt lat="40.414133" lon="-5.380117">
        <ele>1826.0</ele>
        <time>2016-08-06T12:46:33Z</time>
      </trkpt>
      <trkpt lat="40.414217" lon="-5.380133">
        <ele>1828.0</ele>
        <time>2016-08-06T12:46:35Z</time>
      </trkpt>
      <trkpt lat="40.414283" lon="-5.380100">
        <ele>1827.0</ele>
        <time>2016-08-06T12:46:37Z</time>
      </trkpt>
      <trkpt lat="40.414350" lon="-5.380000">
        <ele>1826.0</ele>
        <time>2016-08-06T12:46:39Z</time>
      </trkpt>
      <trkpt lat="40.414367" lon="-5.379867">
        <ele>1828.0</ele>
        <time>2016-08-06T12:46:41Z</time>
      </trkpt>
      <trkpt lat="40.414400" lon="-5.379783">
        <ele>1830.0</ele>
        <time>2016-08-06T12:46:43Z</time>
      </trkpt>
      <trkpt lat="40.414450" lon="-5.379717">
        <ele>1831.0</ele>
        <time>2016-08-06T12:46:45Z</time>
      </trkpt>
      <trkpt lat="40.414517" lon="-5.379683">
        <ele>1831.0</ele>
        <time>2016-08-06T12:46:47Z</time>
      </trkpt>
      <trkpt lat="40.414600" lon="-5.379717">
        <ele>1830.0</ele>
        <time>2016-08-06T12:46:49Z</time>
      </trkpt>
      <trkpt lat="40.414683" lon="-5.379767">
        <ele>1829.0</ele>
        <time>2016-08-06T12:46:51Z</time>
      </trkpt>
      <trkpt lat="40.414783" lon="-5.379783">
        <ele>1830.0</ele>
        <time>2016-08-06T12:46:53Z</time>
      </trkpt>
      <trkpt lat="40.414850" lon="-5.379767">
        <ele>1832.0</ele>
        <time>2016-08-06T12:46:55Z</time>
      </trkpt>
      <trkpt lat="40.414900" lon="-5.379733">
        <ele>1833.0</ele>
        <time>2016-08-06T12:46:57Z</time>
      </trkpt>
      <trkpt lat="40.414950" lon="-5.379650">
        <ele>1831.0</ele>
        <time>2016-08-06T12:46:59Z</time>
      </trkpt>
      <trkpt lat="40.414983" lon="-5.379517">
        <ele>1829.0</ele>
        <time>2016-08-06T12:47:01Z</time>
      </trkpt>
      <trkpt lat="40.414967" lon="-5.379367">
        <ele>1829.0</ele>
        <time>2016-08-06T12:47:03Z</time>
      </trkpt>
      <trkpt lat="40.414917" lon="-5.379200">
        <ele>1826.0</ele>
        <time>2016-08-06T12:47:05Z</time>
      </trkpt>
      <trkpt lat="40.414783" lon="-5.378983">
        <ele>1823.0</ele>
        <time>2016-08-06T12:47:07Z</time>
      </trkpt>
      <trkpt lat="40.414617" lon="-5.378800">
        <ele>1823.0</ele>
        <time>2016-08-06T12:47:09Z</time>
      </trkpt>
      <trkpt lat="40.414433" lon="-5.378683">
        <ele>1824.0</ele>
        <time>2016-08-06T12:47:11Z</time>
      </trkpt>
      <trkpt lat="40.414267" lon="-5.378583">
        <ele>1821.0</ele>
        <time>2016-08-06T12:47:13Z</time>
      </trkpt>
      <trkpt lat="40.414067" lon="-5.378500">
        <ele>1816.0</ele>
        <time>2016-08-06T12:47:15Z</time>
      </trkpt>
      <trkpt lat="40.413833" lon="-5.378433">
        <ele>1813.0</ele>
        <time>2016-08-06T12:47:17Z</time>
      </trkpt>
      <trkpt lat="40.413617" lon="-5.378400">
        <ele>1812.0</ele>
        <time>2016-08-06T12:47:19Z</time>
      </trkpt>
      <trkpt lat="40.413400" lon="-5.378400">
        <ele>1809.0</ele>
        <time>2016-08-06T12:47:21Z</time>
      </trkpt>
      <trkpt lat="40.413133" lon="-5.378417">
        <ele>1803.0</ele>
        <time>2016-08-06T12:47:23Z</time>
      </trkpt>
      <trkpt lat="40.412883" lon="-5.378433">
        <ele>1804.0</ele>
        <time>2016-08-06T12:47:25Z</time>
      </trkpt>
      <trkpt lat="40.412650" lon="-5.378467">
        <ele>1802.0</ele>
        <time>2016-08-06T12:47:27Z</time>
      </trkpt>
      <trkpt lat="40.412417" lon="-5.378500">
        <ele>1799.0</ele>
        <time>2016-08-06T12:47:29Z</time>
      </trkpt>
      <trkpt lat="40.412150" lon="-5.378583">
        <ele>1796.0</ele>
        <time>2016-08-06T12:47:31Z</time>
      </trkpt>
      <trkpt lat="40.411900" lon="-5.378733">
        <ele>1796.0</ele>
        <time>2016-08-06T12:47:33Z</time>
      </trkpt>
      <trkpt lat="40.411667" lon="-5.378867">
        <ele>1798.0</ele>
        <time>2016-08-06T12:47:35Z</time>
      </trkpt>
      <trkpt lat="40.411467" lon="-5.379050">
        <ele>1796.0</ele>
        <time>2016-08-06T12:47:37Z</time>
      </trkpt>
      <trkpt lat="40.411267" lon="-5.379300">
        <ele>1793.0</ele>
        <time>2016-08-06T12:47:39Z</time>
      </trkpt>
      <trkpt lat="40.411083" lon="-5.379533">
        <ele>1792.0</ele>
        <time>2016-08-06T12:47:41Z</time>
      </trkpt>
      <trkpt lat="40.410917" lon="-5.379783">
        <ele>1789.0</ele>
        <time>2016-08-06T12:47:43Z</time>
      </trkpt>
      <trkpt lat="40.410750" lon="-5.380033">
        <ele>1786.0</ele>
        <time>2016-08-06T12:47:45Z</time>
      </trkpt>
      <trkpt lat="40.410617" lon="-5.380300">
        <ele>1781.0</ele>
        <time>2016-08-06T12:47:47Z</time>
      </trkpt>
      <trkpt lat="40.410500" lon="-5.380533">
        <ele>1778.0</ele>
        <time>2016-08-06T12:47:49Z</time>
      </trkpt>
      <trkpt lat="40.410417" lon="-5.380783">
        <ele>1774.0</ele>
        <time>2016-08-06T12:47:51Z</time>
      </trkpt>
      <trkpt lat="40.410383" lon="-5.381050">
        <ele>1769.0</ele>
        <time>2016-08-06T12:47:53Z</time>
      </trkpt>
      <trkpt lat="40.410400" lon="-5.381317">
        <ele>1768.0</ele>
        <time>2016-08-06T12:47:55Z</time>
      </trkpt>
      <trkpt lat="40.410383" lon="-5.381550">
        <ele>1768.0</ele>
        <time>2016-08-06T12:47:57Z</time>
      </trkpt>
      <trkpt lat="40.410383" lon="-5.381783">
        <ele>1762.0</ele>
        <time>2016-08-06T12:47:59Z</time>
      </trkpt>
      <trkpt lat="40.410417" lon="-5.382067">
        <ele>1756.0</ele>
        <time>2016-08-06T12:48:01Z</time>
      </trkpt>
      <trkpt lat="40.410467" lon="-5.382333">
        <ele>1756.0</ele>
        <time>2016-08-06T12:48:03Z</time>
      </trkpt>
      <trkpt lat="40.410483" lon="-5.382567">
        <ele>1754.0</ele>
        <time>2016-08-06T12:48:05Z</time>
      </trkpt>
      <trkpt lat="40.410533" lon="-5.382817">
        <ele>1749.0</ele>
        <time>2016-08-06T12:48:07Z</time>
      </trkpt>
      <trkpt lat="40.410600" lon="-5.383067">
        <ele>1747.0</ele>
        <time>2016-08-06T12:48:09Z</time>
      </trkpt>
      <trkpt lat="40.410667" lon="-5.383300">
        <ele>1748.0</ele>
        <time>2016-08-06T12:48:11Z</time>
      </trkpt>
      <trkpt lat="40.410733" lon="-5.383483">
        <ele>1748.0</ele>
        <time>2016-08-06T12:48:13Z</time>
      </trkpt>
      <trkpt lat="40.410850" lon="-5.383617">
        <ele>1745.0</ele>
        <time>2016-08-06T12:48:15Z</time>
      </trkpt>
      <trkpt lat="40.411000" lon="-5.383717">
        <ele>1743.0</ele>
        <time>2016-08-06T12:48:17Z</time>
      </trkpt>
      <trkpt lat="40.411117" lon="-5.383800">
        <ele>1741.0</ele>
        <time>2016-08-06T12:48:19Z</time>
      </trkpt>
      <trkpt lat="40.411250" lon="-5.383883">
        <ele>1739.0</ele>
        <time>2016-08-06T12:48:21Z</time>
      </trkpt>
      <trkpt lat="40.411383" lon="-5.383950">
        <ele>1740.0</ele>
        <time>2016-08-06T12:48:23Z</time>
      </trkpt>
      <trkpt lat="40.411467" lon="-5.384017">
        <ele>1741.0</ele>
        <time>2016-08-06T12:48:25Z</time>
      </trkpt>
      <trkpt lat="40.411567" lon="-5.384067">
        <ele>1740.0</ele>
        <time>2016-08-06T12:48:27Z</time>
      </trkpt>
      <trkpt lat="40.411700" lon="-5.384133">
        <ele>1741.0</ele>
        <time>2016-08-06T12:48:29Z</time>
      </trkpt>
      <trkpt lat="40.411800" lon="-5.384167">
        <ele>1742.0</ele>
        <time>2016-08-06T12:48:31Z</time>
      </trkpt>
      <trkpt lat="40.411917" lon="-5.384233">
        <ele>1740.0</ele>
        <time>2016-08-06T12:48:33Z</time>
      </trkpt>
      <trkpt lat="40.412050" lon="-5.384283">
        <ele>1741.0</ele>
        <time>2016-08-06T12:48:35Z</time>
      </trkpt>
      <trkpt lat="40.412150" lon="-5.384300">
        <ele>1741.0</ele>
        <time>2016-08-06T12:48:37Z</time>
      </trkpt>
      <trkpt lat="40.412283" lon="-5.384300">
        <ele>1739.0</ele>
        <time>2016-08-06T12:48:39Z</time>
      </trkpt>
      <trkpt lat="40.412433" lon="-5.384283">
        <ele>1742.0</ele>
        <time>2016-08-06T12:48:41Z</time>
      </trkpt>
      <trkpt lat="40.412517" lon="-5.384283">
        <ele>1749.0</ele>
        <time>2016-08-06T12:48:43Z</time>
      </trkpt>
      <trkpt lat="40.412600" lon="-5.384317">
        <ele>1749.0</ele>
        <time>2016-08-06T12:48:45Z</time>
      </trkpt>
      <trkpt lat="40.412683" lon="-5.384300">
        <ele>1748.0</ele>
        <time>2016-08-06T12:48:47Z</time>
      </trkpt>
      <trkpt lat="40.412733" lon="-5.384183">
        <ele>1751.0</ele>
        <time>2016-08-06T12:48:49Z</time>
      </trkpt>
      <trkpt lat="40.412733" lon="-5.384050">
        <ele>1754.0</ele>
        <time>2016-08-06T12:48:51Z</time>
      </trkpt>
      <trkpt lat="40.412700" lon="-5.383917">
        <ele>1754.0</ele>
        <time>2016-08-06T12:48:53Z</time>
      </trkpt>
      <trkpt lat="40.412617" lon="-5.383733">
        <ele>1754.0</ele>
        <time>2016-08-06T12:48:55Z</time>
      </trkpt>
      <trkpt lat="40.412450" lon="-5.383583">
        <ele>1756.0</ele>
        <time>2016-08-06T12:48:57Z</time>
      </trkpt>
      <trkpt lat="40.412233" lon="-5.383517">
        <ele>1758.0</ele>
        <time>2016-08-06T12:48:59Z</time>
      </trkpt>
      <trkpt lat="40.412000" lon="-5.383533">
        <ele>1760.0</ele>
        <time>2016-08-06T12:49:01Z</time>
      </trkpt>
      <trkpt lat="40.411767" lon="-5.383633">
        <ele>1762.0</ele>
        <time>2016-08-06T12:49:03Z</time>
      </trkpt>
      <trkpt lat="40.411583" lon="-5.383833">
        <ele>1763.0</ele>
        <time>2016-08-06T12:49:05Z</time>
      </trkpt>
      <trkpt lat="40.411450" lon="-5.384083">
        <ele>1764.0</ele>
        <time>2016-08-06T12:49:07Z</time>
      </trkpt>
      <trkpt lat="40.411367" lon="-5.384333">
        <ele>1767.0</ele>
        <time>2016-08-06T12:49:09Z</time>
      </trkpt>
      <trkpt lat="40.411300" lon="-5.384567">
        <ele>1768.0</ele>
        <time>2016-08-06T12:49:11Z</time>
      </trkpt>
      <trkpt lat="40.411267" lon="-5.384817">
        <ele>1768.0</ele>
        <time>2016-08-06T12:49:13Z</time>
      </trkpt>
      <trkpt lat="40.411250" lon="-5.385050">
        <ele>1768.0</ele>
        <time>2016-08-06T12:49:15Z</time>
      </trkpt>
      <trkpt lat="40.411267" lon="-5.385250">
        <ele>1767.0</ele>
        <time>2016-08-06T12:49:17Z</time>
      </trkpt>
      <trkpt lat="40.411350" lon="-5.385417">
        <ele>1768.0</ele>
        <time>2016-08-06T12:49:19Z</time>
      </trkpt>
      <trkpt lat="40.411433" lon="-5.385583">
        <ele>1772.0</ele>
        <time>2016-08-06T12:49:21Z</time>
      </trkpt>
      <trkpt lat="40.411500" lon="-5.385717">
        <ele>1777.0</ele>
        <time>2016-08-06T12:49:23Z</time>
      </trkpt>
      <trkpt lat="40.411567" lon="-5.385800">
        <ele>1778.0</ele>
        <time>2016-08-06T12:49:25Z</time>
      </trkpt>
      <trkpt lat="40.411683" lon="-5.385900">
        <ele>1779.0</ele>
        <time>2016-08-06T12:49:27Z</time>
      </trkpt>
      <trkpt lat="40.411783" lon="-5.385983">
        <ele>1784.0</ele>
        <time>2016-08-06T12:49:29Z</time>
      </trkpt>
      <trkpt lat="40.411867" lon="-5.386050">
        <ele>1789.0</ele>
        <time>2016-08-06T12:49:31Z</time>
      </trkpt>
      <trkpt lat="40.411983" lon="-5.386067">
        <ele>1791.0</ele>
        <time>2016-08-06T12:49:33Z</time>
      </trkpt>
      <trkpt lat="40.412067" lon="-5.385950">
        <ele>1795.0</ele>
        <time>2016-08-06T12:49:35Z</time>
      </trkpt>
      <trkpt lat="40.412050" lon="-5.385800">
        <ele>1799.0</ele>
        <time>2016-08-06T12:49:37Z</time>
      </trkpt>
      <trkpt lat="40.412000" lon="-5.385633">
        <ele>1801.0</ele>
        <time>2016-08-06T12:49:39Z</time>
      </trkpt>
      <trkpt lat="40.411867" lon="-5.385483">
        <ele>1805.0</ele>
        <time>2016-08-06T12:49:41Z</time>
      </trkpt>
      <trkpt lat="40.411683" lon="-5.385383">
        <ele>1810.0</ele>
        <time>2016-08-06T12:49:43Z</time>
      </trkpt>
      <trkpt lat="40.411517" lon="-5.385317">
        <ele>1814.0</ele>
        <time>2016-08-06T12:49:45Z</time>
      </trkpt>
      <trkpt lat="40.411283" lon="-5.385300">
        <ele>1814.0</ele>
        <time>2016-08-06T12:49:47Z</time>
      </trkpt>
      <trkpt lat="40.411017" lon="-5.385367">
        <ele>1818.0</ele>
        <time>2016-08-06T12:49:49Z</time>
      </trkpt>
      <trkpt lat="40.410800" lon="-5.385500">
        <ele>1823.0</ele>
        <time>2016-08-06T12:49:51Z</time>
      </trkpt>
      <trkpt lat="40.410633" lon="-5.385683">
        <ele>1825.0</ele>
        <time>2016-08-06T12:49:53Z</time>
      </trkpt>
      <trkpt lat="40.410483" lon="-5.385950">
        <ele>1826.0</ele>
        <time>2016-08-06T12:49:55Z</time>
      </trkpt>
      <trkpt lat="40.410433" lon="-5.386233">
        <ele>1830.0</ele>
        <time>2016-08-06T12:49:57Z</time>
      </trkpt>
      <trkpt lat="40.410417" lon="-5.386450">
        <ele>1835.0</ele>
        <time>2016-08-06T12:49:59Z</time>
      </trkpt>
      <trkpt lat="40.410433" lon="-5.386667">
        <ele>1836.0</ele>
        <time>2016-08-06T12:50:01Z</time>
      </trkpt>
      <trkpt lat="40.410517" lon="-5.386783">
        <ele>1834.0</ele>
        <time>2016-08-06T12:50:03Z</time>
      </trkpt>
      <trkpt lat="40.410667" lon="-5.386833">
        <ele>1834.0</ele>
        <time>2016-08-06T12:50:05Z</time>
      </trkpt>
      <trkpt lat="40.410783" lon="-5.386900">
        <ele>1840.0</ele>
        <time>2016-08-06T12:50:07Z</time>
      </trkpt>
      <trkpt lat="40.410900" lon="-5.386917">
        <ele>1844.0</ele>
        <time>2016-08-06T12:50:09Z</time>
      </trkpt>
      <trkpt lat="40.411017" lon="-5.386883">
        <ele>1847.0</ele>
        <time>2016-08-06T12:50:11Z</time>
      </trkpt>
      <trkpt lat="40.411117" lon="-5.386833">
        <ele>1851.0</ele>
        <time>2016-08-06T12:50:13Z</time>
      </trkpt>
      <trkpt lat="40.411167" lon="-5.386733">
        <ele>1853.0</ele>
        <time>2016-08-06T12:50:15Z</time>
      </trkpt>
      <trkpt lat="40.411167" lon="-5.386550">
        <ele>1853.0</ele>
        <time>2016-08-06T12:50:17Z</time>
      </trkpt>
      <trkpt lat="40.411083" lon="-5.386350">
        <ele>1856.0</ele>
        <time>2016-08-06T12:50:19Z</time>
      </trkpt>
      <trkpt lat="40.410950" lon="-5.386217">
        <ele>1859.0</ele>
        <time>2016-08-06T12:50:21Z</time>
      </trkpt>
      <trkpt lat="40.410750" lon="-5.386150">
        <ele>1862.0</ele>
        <time>2016-08-06T12:50:23Z</time>
      </trkpt>
      <trkpt lat="40.410517" lon="-5.386133">
        <ele>1865.0</ele>
        <time>2016-08-06T12:50:25Z</time>
      </trkpt>
      <trkpt lat="40.410300" lon="-5.386183">
        <ele>1869.0</ele>
        <time>2016-08-06T12:50:27Z</time>
      </trkpt>
      <trkpt lat="40.410100" lon="-5.386333">
        <ele>1871.0</ele>
        <time>2016-08-06T12:50:29Z</time>
      </trkpt>
      <trkpt lat="40.409917" lon="-5.386550">
        <ele>1872.0</ele>
        <time>2016-08-06T12:50:31Z</time>
      </trkpt>
      <trkpt lat="40.409750" lon="-5.386800">
        <ele>1875.0</ele>
        <time>2016-08-06T12:50:33Z</time>
      </trkpt>
      <trkpt lat="40.409617" lon="-5.387033">
        <ele>1880.0</ele>
        <time>2016-08-06T12:50:35Z</time>
      </trkpt>
      <trkpt lat="40.409500" lon="-5.387250">
        <ele>1885.0</ele>
        <time>2016-08-06T12:50:37Z</time>
      </trkpt>
      <trkpt lat="40.409450" lon="-5.387483">
        <ele>1886.0</ele>
        <time>2016-08-06T12:50:39Z</time>
      </trkpt>
      <trkpt lat="40.409417" lon="-5.387733">
        <ele>1888.0</ele>
        <time>2016-08-06T12:50:41Z</time>
      </trkpt>
      <trkpt lat="40.409417" lon="-5.387950">
        <ele>1891.0</ele>
        <time>2016-08-06T12:50:43Z</time>
      </trkpt>
      <trkpt lat="40.409483" lon="-5.388183">
        <ele>1892.0</ele>
        <time>2016-08-06T12:50:45Z</time>
      </trkpt>
      <trkpt lat="40.409617" lon="-5.388267">
        <ele>1891.0</ele>
        <time>2016-08-06T12:50:47Z</time>
      </trkpt>
      <trkpt lat="40.409750" lon="-5.388267">
        <ele>1893.0</ele>
        <time>2016-08-06T12:50:49Z</time>
      </trkpt>
      <trkpt lat="40.409900" lon="-5.388300">
        <ele>1896.0</ele>
        <time>2016-08-06T12:50:51Z</time>
      </trkpt>
      <trkpt lat="40.410033" lon="-5.388283">
        <ele>1897.0</ele>
        <time>2016-08-06T12:50:53Z</time>
      </trkpt>
      <trkpt lat="40.410183" lon="-5.388200">
        <ele>1901.0</ele>
        <time>2016-08-06T12:50:55Z</time>
      </trkpt>
      <trkpt lat="40.410250" lon="-5.388067">
        <ele>1905.0</ele>
        <time>2016-08-06T12:50:57Z</time>
      </trkpt>
      <trkpt lat="40.410283" lon="-5.387867">
        <ele>1908.0</ele>
        <time>2016-08-06T12:50:59Z</time>
      </trkpt>
      <trkpt lat="40.410233" lon="-5.387683">
        <ele>1911.0</ele>
        <time>2016-08-06T12:51:01Z</time>
      </trkpt>
      <trkpt lat="40.410133" lon="-5.387567">
        <ele>1911.0</ele>
        <time>2016-08-06T12:51:03Z</time>
      </trkpt>
      <trkpt lat="40.409933" lon="-5.387500">
        <ele>1908.0</ele>
        <time>2016-08-06T12:51:05Z</time>
      </trkpt>
      <trkpt lat="40.409717" lon="-5.387550">
        <ele>1907.0</ele>
        <time>2016-08-06T12:51:07Z</time>
      </trkpt>
      <trkpt lat="40.409500" lon="-5.387717">
        <ele>1909.0</ele>
        <time>2016-08-06T12:51:09Z</time>
      </trkpt>
      <trkpt lat="40.409350" lon="-5.387933">
        <ele>1914.0</ele>
        <time>2016-08-06T12:51:11Z</time>
      </trkpt>
      <trkpt lat="40.409250" lon="-5.388167">
        <ele>1919.0</ele>
        <time>2016-08-06T12:51:13Z</time>
      </trkpt>
      <trkpt lat="40.409200" lon="-5.388417">
        <ele>1922.0</ele>
        <time>2016-08-06T12:51:15Z</time>
      </trkpt>
      <trkpt lat="40.409233" lon="-5.388650">
        <ele>1925.0</ele>
        <time>2016-08-06T12:51:17Z</time>
      </trkpt>
      <trkpt lat="40.409333" lon="-5.388817">
        <ele>1927.0</ele>
        <time>2016-08-06T12:51:19Z</time>
      </trkpt>
      <trkpt lat="40.409467" lon="-5.388917">
        <ele>1928.0</ele>
        <time>2016-08-06T12:51:21Z</time>
      </trkpt>
      <trkpt lat="40.409633" lon="-5.388933">
        <ele>1932.0</ele>
        <time>2016-08-06T12:51:23Z</time>
      </trkpt>
      <trkpt lat="40.409767" lon="-5.388967">
        <ele>1938.0</ele>
        <time>2016-08-06T12:51:25Z</time>
      </trkpt>
      <trkpt lat="40.409883" lon="-5.388917">
        <ele>1941.0</ele>
        <time>2016-08-06T12:51:27Z</time>
      </trkpt>
      <trkpt lat="40.409967" lon="-5.388750">
        <ele>1941.0</ele>
        <time>2016-08-06T12:51:29Z</time>
      </trkpt>
      <trkpt lat="40.409967" lon="-5.388533">
        <ele>1944.0</ele>
        <time>2016-08-06T12:51:31Z</time>
      </trkpt>
      <trkpt lat="40.409900" lon="-5.388350">
        <ele>1946.0</ele>
        <time>2016-08-06T12:51:33Z</time>
      </trkpt>
      <trkpt lat="40.409783" lon="-5.388200">
        <ele>1947.0</ele>
        <time>2016-08-06T12:51:35Z</time>
      </trkpt>
      <trkpt lat="40.409600" lon="-5.388117">
        <ele>1945.0</ele>
        <time>2016-08-06T12:51:37Z</time>
      </trkpt>
      <trkpt lat="40.409383" lon="-5.388133">
        <ele>1944.0</ele>
        <time>2016-08-06T12:51:39Z</time>
      </trkpt>
      <trkpt lat="40.409167" lon="-5.388250">
        <ele>1944.0</ele>
        <time>2016-08-06T12:51:41Z</time>
      </trkpt>
      <trkpt lat="40.408983" lon="-5.388450">
        <ele>1945.0</ele>
        <time>2016-08-06T12:51:43Z</time>
      </trkpt>
      <trkpt lat="40.408850" lon="-5.388700">
        <ele>1946.0</ele>
        <time>2016-08-06T12:51:45Z</time>
      </trkpt>
      <trkpt lat="40.408800" lon="-5.388967">
        <ele>1946.0</ele>
        <time>2016-08-06T12:51:47Z</time>
      </trkpt>
      <trkpt lat="40.408783" lon="-5.389250">
        <ele>1948.0</ele>
        <time>2016-08-06T12:51:49Z</time>
      </trkpt>
      <trkpt lat="40.408783" lon="-5.389483">
        <ele>1952.0</ele>
        <time>2016-08-06T12:51:51Z</time>
      </trkpt>
      <trkpt lat="40.408833" lon="-5.389717">
        <ele>1952.0</ele>
        <time>2016-08-06T12:51:53Z</time>
      </trkpt>
      <trkpt lat="40.408933" lon="-5.389933">
        <ele>1952.0</ele>
        <time>2016-08-06T12:51:55Z</time>
      </trkpt>
      <trkpt lat="40.409033" lon="-5.390083">
        <ele>1952.0</ele>
        <time>2016-08-06T12:51:57Z</time>
      </trkpt>
      <trkpt lat="40.409167" lon="-5.390200">
        <ele>1952.0</ele>
        <time>2016-08-06T12:51:59Z</time>
      </trkpt>
      <trkpt lat="40.409300" lon="-5.390317">
        <ele>1955.0</ele>
        <time>2016-08-06T12:52:01Z</time>
      </trkpt>
      <trkpt lat="40.409400" lon="-5.390400">
        <ele>1958.0</ele>
        <time>2016-08-06T12:52:03Z</time>
      </trkpt>
      <trkpt lat="40.409533" lon="-5.390450">
        <ele>1958.0</ele>
        <time>2016-08-06T12:52:05Z</time>
      </trkpt>
      <trkpt lat="40.409683" lon="-5.390450">
        <ele>1958.0</ele>
        <time>2016-08-06T12:52:07Z</time>
      </trkpt>
      <trkpt lat="40.409800" lon="-5.390367">
        <ele>1959.0</ele>
        <time>2016-08-06T12:52:09Z</time>
      </trkpt>
      <trkpt lat="40.409867" lon="-5.390233">
        <ele>1958.0</ele>
        <time>2016-08-06T12:52:11Z</time>
      </trkpt>
      <trkpt lat="40.409950" lon="-5.390050">
        <ele>1956.0</ele>
        <time>2016-08-06T12:52:13Z</time>
      </trkpt>
      <trkpt lat="40.410033" lon="-5.389850">
        <ele>1957.0</ele>
        <time>2016-08-06T12:52:15Z</time>
      </trkpt>
      <trkpt lat="40.410083" lon="-5.389683">
        <ele>1960.0</ele>
        <time>2016-08-06T12:52:17Z</time>
      </trkpt>
      <trkpt lat="40.410133" lon="-5.389550">
        <ele>1960.0</ele>
        <time>2016-08-06T12:52:19Z</time>
      </trkpt>
      <trkpt lat="40.410167" lon="-5.389367">
        <ele>1956.0</ele>
        <time>2016-08-06T12:52:21Z</time>
      </trkpt>
      <trkpt lat="40.410150" lon="-5.389133">
        <ele>1954.0</ele>
        <time>2016-08-06T12:52:23Z</time>
      </trkpt>
      <trkpt lat="40.410083" lon="-5.388967">
        <ele>1953.0</ele>
        <time>2016-08-06T12:52:25Z</time>
      </trkpt>
      <trkpt lat="40.409950" lon="-5.388833">
        <ele>1948.0</ele>
        <time>2016-08-06T12:52:27Z</time>
      </trkpt>
      <trkpt lat="40.409733" lon="-5.388733">
        <ele>1942.0</ele>
        <time>2016-08-06T12:52:29Z</time>
      </trkpt>
      <trkpt lat="40.409500" lon="-5.388767">
        <ele>1940.0</ele>
        <time>2016-08-06T12:52:31Z</time>
      </trkpt>
      <trkpt lat="40.409283" lon="-5.388867">
        <ele>1938.0</ele>
        <time>2016-08-06T12:52:33Z</time>
      </trkpt>
      <trkpt lat="40.409083" lon="-5.389017">
        <ele>1936.0</ele>
        <time>2016-08-06T12:52:35Z</time>
      </trkpt>
      <trkpt lat="40.408900" lon="-5.389233">
        <ele>1935.0</ele>
        <time>2016-08-06T12:52:37Z</time>
      </trkpt>
      <trkpt lat="40.408700" lon="-5.389467">
        <ele>1939.0</ele>
        <time>2016-08-06T12:52:39Z</time>
      </trkpt>
      <trkpt lat="40.408517" lon="-5.389683">
        <ele>1943.0</ele>
        <time>2016-08-06T12:52:41Z</time>
      </trkpt>
      <trkpt lat="40.408350" lon="-5.389917">
        <ele>1946.0</ele>
        <time>2016-08-06T12:52:43Z</time>
      </trkpt>
      <trkpt lat="40.408217" lon="-5.390167">
        <ele>1947.0</ele>
        <time>2016-08-06T12:52:45Z</time>
      </trkpt>
      <trkpt lat="40.408167" lon="-5.390467">
        <ele>1946.0</ele>
        <time>2016-08-06T12:52:47Z</time>
      </trkpt>
      <trkpt lat="40.408117" lon="-5.390767">
        <ele>1949.0</ele>
        <time>2016-08-06T12:52:49Z</time>
      </trkpt>
      <trkpt lat="40.408117" lon="-5.391000">
        <ele>1953.0</ele>
        <time>2016-08-06T12:52:51Z</time>
      </trkpt>
      <trkpt lat="40.408133" lon="-5.391217">
        <ele>1953.0</ele>
        <time>2016-08-06T12:52:53Z</time>
      </trkpt>
      <trkpt lat="40.408217" lon="-5.391400">
        <ele>1953.0</ele>
        <time>2016-08-06T12:52:55Z</time>
      </trkpt>
      <trkpt lat="40.408317" lon="-5.391533">
        <ele>1955.0</ele>
        <time>2016-08-06T12:52:57Z</time>
      </trkpt>
      <trkpt lat="40.408417" lon="-5.391650">
        <ele>1956.0</ele>
        <time>2016-08-06T12:52:59Z</time>
      </trkpt>
      <trkpt lat="40.408567" lon="-5.391717">
        <ele>1956.0</ele>
        <time>2016-08-06T12:53:01Z</time>
      </trkpt>
      <trkpt lat="40.408717" lon="-5.391733">
        <ele>1959.0</ele>
        <time>2016-08-06T12:53:03Z</time>
      </trkpt>
      <trkpt lat="40.408817" lon="-5.391700">
        <ele>1959.0</ele>
        <time>2016-08-06T12:53:05Z</time>
      </trkpt>
      <trkpt lat="40.408950" lon="-5.391567">
        <ele>1956.0</ele>
        <time>2016-08-06T12:53:07Z</time>
      </trkpt>
      <trkpt lat="40.409033" lon="-5.391350">
        <ele>1955.0</ele>
        <time>2016-08-06T12:53:09Z</time>
      </trkpt>
      <trkpt lat="40.409033" lon="-5.391133">
        <ele>1955.0</ele>
        <time>2016-08-06T12:53:11Z</time>
      </trkpt>
      <trkpt lat="40.408967" lon="-5.390917">
        <ele>1954.0</ele>
        <time>2016-08-06T12:53:13Z</time>
      </trkpt>
      <trkpt lat="40.408850" lon="-5.390750">
        <ele>1952.0</ele>
        <time>2016-08-06T12:53:15Z</time>
      </trkpt>
      <trkpt lat="40.408700" lon="-5.390633">
        <ele>1950.0</ele>
        <time>2016-08-06T12:53:17Z</time>
      </trkpt>
      <trkpt lat="40.408517" lon="-5.390550">
        <ele>1945.0</ele>
        <time>2016-08-06T12:53:19Z</time>
      </trkpt>
      <trkpt lat="40.408267" lon="-5.390533">
        <ele>1942.0</ele>
        <time>2016-08-06T12:53:21Z</time>
      </trkpt>
      <trkpt lat="40.408050" lon="-5.390633">
        <ele>1941.0</ele>
        <time>2016-08-06T12:53:23Z</time>
      </trkpt>
      <trkpt lat="40.407817" lon="-5.390717">
        <ele>1940.0</ele>
        <time>2016-08-06T12:53:25Z</time>
      </trkpt>
      <trkpt lat="40.407600" lon="-5.390883">
        <ele>1942.0</ele>
        <time>2016-08-06T12:53:27Z</time>
      </trkpt>
      <trkpt lat="40.407433" lon="-5.391133">
        <ele>1944.0</ele>
        <time>2016-08-06T12:53:29Z</time>
      </trkpt>
      <trkpt lat="40.407300" lon="-5.391383">
        <ele>1949.0</ele>
        <time>2016-08-06T12:53:31Z</time>
      </trkpt>
      <trkpt lat="40.407233" lon="-5.391633">
        <ele>1953.0</ele>
        <time>2016-08-06T12:53:33Z</time>
      </trkpt>
      <trkpt lat="40.407217" lon="-5.391900">
        <ele>1956.0</ele>
        <time>2016-08-06T12:53:35Z</time>
      </trkpt>
      <trkpt lat="40.407267" lon="-5.392183">
        <ele>1959.0</ele>
        <time>2016-08-06T12:53:37Z</time>
      </trkpt>
      <trkpt lat="40.407350" lon="-5.392417">
        <ele>1963.0</ele>
        <time>2016-08-06T12:53:39Z</time>
      </trkpt>
      <trkpt lat="40.407450" lon="-5.392600">
        <ele>1965.0</ele>
        <time>2016-08-06T12:53:41Z</time>
      </trkpt>
      <trkpt lat="40.407567" lon="-5.392700">
        <ele>1961.0</ele>
        <time>2016-08-06T12:53:43Z</time>
      </trkpt>
      <trkpt lat="40.407717" lon="-5.392667">
        <ele>1957.0</ele>
        <time>2016-08-06T12:53:45Z</time>
      </trkpt>
      <trkpt lat="40.407817" lon="-5.392517">
        <ele>1955.0</ele>
        <time>2016-08-06T12:53:47Z</time>
      </trkpt>
      <trkpt lat="40.407817" lon="-5.392350">
        <ele>1957.0</ele>
        <time>2016-08-06T12:53:49Z</time>
      </trkpt>
      <trkpt lat="40.407767" lon="-5.392200">
        <ele>1956.0</ele>
        <time>2016-08-06T12:53:51Z</time>
      </trkpt>
      <trkpt lat="40.407633" lon="-5.392100">
        <ele>1953.0</ele>
        <time>2016-08-06T12:53:53Z</time>
      </trkpt>
      <trkpt lat="40.407433" lon="-5.392083">
        <ele>1951.0</ele>
        <time>2016-08-06T12:53:55Z</time>
      </trkpt>
      <trkpt lat="40.407217" lon="-5.392233">
        <ele>1950.0</ele>
        <time>2016-08-06T12:53:57Z</time>
      </trkpt>
      <trkpt lat="40.407083" lon="-5.392483">
        <ele>1953.0</ele>
        <time>2016-08-06T12:53:59Z</time>
      </trkpt>
      <trkpt lat="40.407000" lon="-5.392783">
        <ele>1955.0</ele>
        <time>2016-08-06T12:54:01Z</time>
      </trkpt>
      <trkpt lat="40.406950" lon="-5.393083">
        <ele>1956.0</ele>
        <time>2016-08-06T12:54:03Z</time>
      </trkpt>
      <trkpt lat="40.406950" lon="-5.393383">
        <ele>1960.0</ele>
        <time>2016-08-06T12:54:05Z</time>
      </trkpt>
      <trkpt lat="40.406950" lon="-5.393650">
        <ele>1962.0</ele>
        <time>2016-08-06T12:54:07Z</time>
      </trkpt>
      <trkpt lat="40.406967" lon="-5.393950">
        <ele>1961.0</ele>
        <time>2016-08-06T12:54:09Z</time>
      </trkpt>
      <trkpt lat="40.407050" lon="-5.394217">
        <ele>1963.0</ele>
        <time>2016-08-06T12:54:11Z</time>
      </trkpt>
      <trkpt lat="40.407167" lon="-5.394467">
        <ele>1964.0</ele>
        <time>2016-08-06T12:54:13Z</time>
      </trkpt>
      <trkpt lat="40.407267" lon="-5.394700">
        <ele>1966.0</ele>
        <time>2016-08-06T12:54:15Z</time>
      </trkpt>
      <trkpt lat="40.407383" lon="-5.394933">
        <ele>1967.0</ele>
        <time>2016-08-06T12:54:17Z</time>
      </trkpt>
      <trkpt lat="40.407483" lon="-5.395117">
        <ele>1966.0</ele>
        <time>2016-08-06T12:54:19Z</time>
      </trkpt>
      <trkpt lat="40.407600" lon="-5.395267">
        <ele>1963.0</ele>
        <time>2016-08-06T12:54:21Z</time>
      </trkpt>
      <trkpt lat="40.407717" lon="-5.395367">
        <ele>1960.0</ele>
        <time>2016-08-06T12:54:23Z</time>
      </trkpt>
      <trkpt lat="40.407867" lon="-5.395383">
        <ele>1955.0</ele>
        <time>2016-08-06T12:54:25Z</time>
      </trkpt>
      <trkpt lat="40.407983" lon="-5.395317">
        <ele>1951.0</ele>
        <time>2016-08-06T12:54:27Z</time>
      </trkpt>
      <trkpt lat="40.408017" lon="-5.395183">
        <ele>1947.0</ele>
        <time>2016-08-06T12:54:29Z</time>
      </trkpt>
      <trkpt lat="40.407950" lon="-5.394983">
        <ele>1941.0</ele>
        <time>2016-08-06T12:54:31Z</time>
      </trkpt>
      <trkpt lat="40.407800" lon="-5.394817">
        <ele>1938.0</ele>
        <time>2016-08-06T12:54:33Z</time>
      </trkpt>
      <trkpt lat="40.407583" lon="-5.394800">
        <ele>1935.0</ele>
        <time>2016-08-06T12:54:35Z</time>
      </trkpt>
      <trkpt lat="40.407400" lon="-5.394867">
        <ele>1932.0</ele>
        <time>2016-08-06T12:54:37Z</time>
      </trkpt>
      <trkpt lat="40.407217" lon="-5.394983">
        <ele>1930.0</ele>
        <time>2016-08-06T12:54:39Z</time>
      </trkpt>
      <trkpt lat="40.407017" lon="-5.395133">
        <ele>1928.0</ele>
        <time>2016-08-06T12:54:41Z</time>
      </trkpt>
      <trkpt lat="40.406833" lon="-5.395367">
        <ele>1927.0</ele>
        <time>2016-08-06T12:54:43Z</time>
      </trkpt>
      <trkpt lat="40.406717" lon="-5.395633">
        <ele>1928.0</ele>
        <time>2016-08-06T12:54:45Z</time>
      </trkpt>
      <trkpt lat="40.406650" lon="-5.395950">
        <ele>1929.0</ele>
        <time>2016-08-06T12:54:47Z</time>
      </trkpt>
      <trkpt lat="40.406617" lon="-5.396300">
        <ele>1930.0</ele>
        <time>2016-08-06T12:54:49Z</time>
      </trkpt>
      <trkpt lat="40.406583" lon="-5.396650">
        <ele>1933.0</ele>
        <time>2016-08-06T12:54:51Z</time>
      </trkpt>
      <trkpt lat="40.406533" lon="-5.397000">
        <ele>1939.0</ele>
        <time>2016-08-06T12:54:53Z</time>
      </trkpt>
      <trkpt lat="40.406500" lon="-5.397300">
        <ele>1944.0</ele>
        <time>2016-08-06T12:54:55Z</time>
      </trkpt>
      <trkpt lat="40.406500" lon="-5.397600">
        <ele>1946.0</ele>
        <time>2016-08-06T12:54:57Z</time>
      </trkpt>
      <trkpt lat="40.406550" lon="-5.397950">
        <ele>1947.0</ele>
        <time>2016-08-06T12:54:59Z</time>
      </trkpt>
      <trkpt lat="40.406617" lon="-5.398233">
        <ele>1953.0</ele>
        <time>2016-08-06T12:55:01Z</time>
      </trkpt>
      <trkpt lat="40.406700" lon="-5.398450">
        <ele>1955.0</ele>
        <time>2016-08-06T12:55:03Z</time>
      </trkpt>
      <trkpt lat="40.406817" lon="-5.398617">
        <ele>1956.0</ele>
        <time>2016-08-06T12:55:05Z</time>
      </trkpt>
      <trkpt lat="40.406950" lon="-5.398700">
        <ele>1959.0</ele>
        <time>2016-08-06T12:55:07Z</time>
      </trkpt>
      <trkpt lat="40.407033" lon="-5.398683">
        <ele>1959.0</ele>
        <time>2016-08-06T12:55:09Z</time>
      </trkpt>
      <trkpt lat="40.407117" lon="-5.398567">
        <ele>1957.0</ele>
        <time>2016-08-06T12:55:11Z</time>
      </trkpt>
      <trkpt lat="40.407183" lon="-5.398350">
        <ele>1956.0</ele>
        <time>2016-08-06T12:55:13Z</time>
      </trkpt>
      <trkpt lat="40.407233" lon="-5.398200">
        <ele>1958.0</ele>
        <time>2016-08-06T12:55:15Z</time>
      </trkpt>
      <trkpt lat="40.407300" lon="-5.398050">
        <ele>1956.0</ele>
        <time>2016-08-06T12:55:17Z</time>
      </trkpt>
      <trkpt lat="40.407317" lon="-5.397850">
        <ele>1954.0</ele>
        <time>2016-08-06T12:55:19Z</time>
      </trkpt>
      <trkpt lat="40.407217" lon="-5.397700">
        <ele>1953.0</ele>
        <time>2016-08-06T12:55:21Z</time>
      </trkpt>
      <trkpt lat="40.407067" lon="-5.397617">
        <ele>1952.0</ele>
        <time>2016-08-06T12:55:23Z</time>
      </trkpt>
      <trkpt lat="40.406883" lon="-5.397600">
        <ele>1950.0</ele>
        <time>2016-08-06T12:55:25Z</time>
      </trkpt>
      <trkpt lat="40.406667" lon="-5.397667">
        <ele>1947.0</ele>
        <time>2016-08-06T12:55:27Z</time>
      </trkpt>
      <trkpt lat="40.406500" lon="-5.397850">
        <ele>1948.0</ele>
        <time>2016-08-06T12:55:29Z</time>
      </trkpt>
      <trkpt lat="40.406367" lon="-5.398083">
        <ele>1948.0</ele>
        <time>2016-08-06T12:55:31Z</time>
      </trkpt>
      <trkpt lat="40.406267" lon="-5.398350">
        <ele>1947.0</ele>
        <time>2016-08-06T12:55:33Z</time>
      </trkpt>
      <trkpt lat="40.406167" lon="-5.398633">
        <ele>1949.0</ele>
        <time>2016-08-06T12:55:35Z</time>
      </trkpt>
      <trkpt lat="40.406117" lon="-5.398883">
        <ele>1952.0</ele>
        <time>2016-08-06T12:55:37Z</time>
      </trkpt>
      <trkpt lat="40.406083" lon="-5.399167">
        <ele>1952.0</ele>
        <time>2016-08-06T12:55:39Z</time>
      </trkpt>
      <trkpt lat="40.406050" lon="-5.399450">
        <ele>1954.0</ele>
        <time>2016-08-06T12:55:41Z</time>
      </trkpt>
      <trkpt lat="40.406033" lon="-5.399733">
        <ele>1954.0</ele>
        <time>2016-08-06T12:55:43Z</time>
      </trkpt>
      <trkpt lat="40.406017" lon="-5.400033">
        <ele>1956.0</ele>
        <time>2016-08-06T12:55:45Z</time>
      </trkpt>
      <trkpt lat="40.406033" lon="-5.400317">
        <ele>1958.0</ele>
        <time>2016-08-06T12:55:47Z</time>
      </trkpt>
      <trkpt lat="40.406067" lon="-5.400600">
        <ele>1960.0</ele>
        <time>2016-08-06T12:55:49Z</time>
      </trkpt>
      <trkpt lat="40.406067" lon="-5.400833">
        <ele>1964.0</ele>
        <time>2016-08-06T12:55:51Z</time>
      </trkpt>
      <trkpt lat="40.406083" lon="-5.401033">
        <ele>1966.0</ele>
        <time>2016-08-06T12:55:53Z</time>
      </trkpt>
      <trkpt lat="40.406133" lon="-5.401233">
        <ele>1965.0</ele>
        <time>2016-08-06T12:55:55Z</time>
      </trkpt>
      <trkpt lat="40.406183" lon="-5.401467">
        <ele>1967.0</ele>
        <time>2016-08-06T12:55:57Z</time>
      </trkpt>
      <trkpt lat="40.406250" lon="-5.401650">
        <ele>1971.0</ele>
        <time>2016-08-06T12:55:59Z</time>
      </trkpt>
      <trkpt lat="40.406317" lon="-5.401833">
        <ele>1973.0</ele>
        <time>2016-08-06T12:56:01Z</time>
      </trkpt>
      <trkpt lat="40.406433" lon="-5.401917">
        <ele>1975.0</ele>
        <time>2016-08-06T12:56:03Z</time>
      </trkpt>
      <trkpt lat="40.406533" lon="-5.401833">
        <ele>1978.0</ele>
        <time>2016-08-06T12:56:05Z</time>
      </trkpt>
      <trkpt lat="40.406600" lon="-5.401733">
        <ele>1983.0</ele>
        <time>2016-08-06T12:56:07Z</time>
      </trkpt>
      <trkpt lat="40.406600" lon="-5.401633">
        <ele>1984.0</ele>
        <time>2016-08-06T12:56:09Z</time>
      </trkpt>
      <trkpt lat="40.406567" lon="-5.401450">
        <ele>1982.0</ele>
        <time>2016-08-06T12:56:11Z</time>
      </trkpt>
      <trkpt lat="40.406450" lon="-5.401233">
        <ele>1982.0</ele>
        <time>2016-08-06T12:56:13Z</time>
      </trkpt>
      <trkpt lat="40.406283" lon="-5.401067">
        <ele>1982.0</ele>
        <time>2016-08-06T12:56:15Z</time>
      </trkpt>
      <trkpt lat="40.406067" lon="-5.400933">
        <ele>1982.0</ele>
        <time>2016-08-06T12:56:17Z</time>
      </trkpt>
      <trkpt lat="40.405817" lon="-5.400900">
        <ele>1984.0</ele>
        <time>2016-08-06T12:56:19Z</time>
      </trkpt>
      <trkpt lat="40.405583" lon="-5.400983">
        <ele>1986.0</ele>
        <time>2016-08-06T12:56:21Z</time>
      </trkpt>
      <trkpt lat="40.405400" lon="-5.401167">
        <ele>1988.0</ele>
        <time>2016-08-06T12:56:23Z</time>
      </trkpt>
      <trkpt lat="40.405250" lon="-5.401417">
        <ele>1987.0</ele>
        <time>2016-08-06T12:56:25Z</time>
      </trkpt>
      <trkpt lat="40.405167" lon="-5.401700">
        <ele>1988.0</ele>
        <time>2016-08-06T12:56:27Z</time>
      </trkpt>
      <trkpt lat="40.405167" lon="-5.401950">
        <ele>1989.0</ele>
        <time>2016-08-06T12:56:29Z</time>
      </trkpt>
      <trkpt lat="40.405200" lon="-5.402167">
        <ele>1990.0</ele>
        <time>2016-08-06T12:56:31Z</time>
      </trkpt>
      <trkpt lat="40.405250" lon="-5.402350">
        <ele>1991.0</ele>
        <time>2016-08-06T12:56:33Z</time>
      </trkpt>
      <trkpt lat="40.405300" lon="-5.402500">
        <ele>1991.0</ele>
        <time>2016-08-06T12:56:35Z</time>
      </trkpt>
      <trkpt lat="40.405367" lon="-5.402683">
        <ele>1989.0</ele>
        <time>2016-08-06T12:56:37Z</time>
      </trkpt>
      <trkpt lat="40.405433" lon="-5.402867">
        <ele>1990.0</ele>
        <time>2016-08-06T12:56:39Z</time>
      </trkpt>
      <trkpt lat="40.405467" lon="-5.403050">
        <ele>1992.0</ele>
        <time>2016-08-06T12:56:41Z</time>
      </trkpt>
      <trkpt lat="40.405483" lon="-5.403250">
        <ele>1994.0</ele>
        <time>2016-08-06T12:56:43Z</time>
      </trkpt>
      <trkpt lat="40.405533" lon="-5.403467">
        <ele>1997.0</ele>
        <time>2016-08-06T12:56:45Z</time>
      </trkpt>
      <trkpt lat="40.405567" lon="-5.403683">
        <ele>2001.0</ele>
        <time>2016-08-06T12:56:47Z</time>
      </trkpt>
      <trkpt lat="40.405583" lon="-5.403883">
        <ele>2004.0</ele>
        <time>2016-08-06T12:56:49Z</time>
      </trkpt>
      <trkpt lat="40.405683" lon="-5.404017">
        <ele>2004.0</ele>
        <time>2016-08-06T12:56:51Z</time>
      </trkpt>
      <trkpt lat="40.405817" lon="-5.404050">
        <ele>2006.0</ele>
        <time>2016-08-06T12:56:53Z</time>
      </trkpt>
      <trkpt lat="40.405900" lon="-5.404000">
        <ele>2012.0</ele>
        <time>2016-08-06T12:56:55Z</time>
      </trkpt>
      <trkpt lat="40.405933" lon="-5.403917">
        <ele>2016.0</ele>
        <time>2016-08-06T12:56:57Z</time>
      </trkpt>
      <trkpt lat="40.405917" lon="-5.403750">
        <ele>2015.0</ele>
        <time>2016-08-06T12:56:59Z</time>
      </trkpt>
      <trkpt lat="40.405833" lon="-5.403533">
        <ele>2017.0</ele>
        <time>2016-08-06T12:57:01Z</time>
      </trkpt>
      <trkpt lat="40.405683" lon="-5.403383">
        <ele>2024.0</ele>
        <time>2016-08-06T12:57:03Z</time>
      </trkpt>
      <trkpt lat="40.405500" lon="-5.403267">
        <ele>2029.0</ele>
        <time>2016-08-06T12:57:05Z</time>
      </trkpt>
      <trkpt lat="40.405250" lon="-5.403233">
        <ele>2031.0</ele>
        <time>2016-08-06T12:57:07Z</time>
      </trkpt>
      <trkpt lat="40.404967" lon="-5.403300">
        <ele>2036.0</ele>
        <time>2016-08-06T12:57:09Z</time>
      </trkpt>
      <trkpt lat="40.404767" lon="-5.403450">
        <ele>2042.0</ele>
        <time>2016-08-06T12:57:11Z</time>
      </trkpt>
      <trkpt lat="40.404617" lon="-5.403650">
        <ele>2046.0</ele>
        <time>2016-08-06T12:57:13Z</time>
      </trkpt>
      <trkpt lat="40.404517" lon="-5.403917">
        <ele>2048.0</ele>
        <time>2016-08-06T12:57:15Z</time>
      </trkpt>
      <trkpt lat="40.404533" lon="-5.404150">
        <ele>2051.0</ele>
        <time>2016-08-06T12:57:17Z</time>
      </trkpt>
      <trkpt lat="40.404600" lon="-5.404350">
        <ele>2054.0</ele>
        <time>2016-08-06T12:57:19Z</time>
      </trkpt>
      <trkpt lat="40.404683" lon="-5.404450">
        <ele>2057.0</ele>
        <time>2016-08-06T12:57:21Z</time>
      </trkpt>
      <trkpt lat="40.404800" lon="-5.404483">
        <ele>2059.0</ele>
        <time>2016-08-06T12:57:23Z</time>
      </trkpt>
      <trkpt lat="40.404883" lon="-5.404417">
        <ele>2060.0</ele>
        <time>2016-08-06T12:57:25Z</time>
      </trkpt>
      <trkpt lat="40.404917" lon="-5.404250">
        <ele>2064.0</ele>
        <time>2016-08-06T12:57:27Z</time>
      </trkpt>
      <trkpt lat="40.404867" lon="-5.404083">
        <ele>2068.0</ele>
        <time>2016-08-06T12:57:29Z</time>
      </trkpt>
      <trkpt lat="40.404767" lon="-5.403933">
        <ele>2072.0</ele>
        <time>2016-08-06T12:57:31Z</time>
      </trkpt>
      <trkpt lat="40.404633" lon="-5.403783">
        <ele>2076.0</ele>
        <time>2016-08-06T12:57:33Z</time>
      </trkpt>
      <trkpt lat="40.404433" lon="-5.403717">
        <ele>2079.0</ele>
        <time>2016-08-06T12:57:35Z</time>
      </trkpt>
      <trkpt lat="40.404200" lon="-5.403750">
        <ele>2083.0</ele>
        <time>2016-08-06T12:57:37Z</time>
      </trkpt>
      <trkpt lat="40.403983" lon="-5.403867">
        <ele>2085.0</ele>
        <time>2016-08-06T12:57:39Z</time>
      </trkpt>
      <trkpt lat="40.403817" lon="-5.404083">
        <ele>2089.0</ele>
        <time>2016-08-06T12:57:41Z</time>
      </trkpt>
      <trkpt lat="40.403700" lon="-5.404300">
        <ele>2094.0</ele>
        <time>2016-08-06T12:57:43Z</time>
      </trkpt>
      <trkpt lat="40.403633" lon="-5.404533">
        <ele>2096.0</ele>
        <time>2016-08-06T12:57:45Z</time>
      </trkpt>
      <trkpt lat="40.403633" lon="-5.404783">
        <ele>2097.0</ele>
        <time>2016-08-06T12:57:47Z</time>
      </trkpt>
      <trkpt lat="40.403717" lon="-5.404967">
        <ele>2100.0</ele>
        <time>2016-08-06T12:57:49Z</time>
      </trkpt>
      <trkpt lat="40.403817" lon="-5.405083">
        <ele>2103.0</ele>
        <time>2016-08-06T12:57:51Z</time>
      </trkpt>
      <trkpt lat="40.403917" lon="-5.405133">
        <ele>2105.0</ele>
        <time>2016-08-06T12:57:53Z</time>
      </trkpt>
      <trkpt lat="40.404033" lon="-5.405117">
        <ele>2107.0</ele>
        <time>2016-08-06T12:57:55Z</time>
      </trkpt>
      <trkpt lat="40.404100" lon="-5.405000">
        <ele>2111.0</ele>
        <time>2016-08-06T12:57:57Z</time>
      </trkpt>
      <trkpt lat="40.404133" lon="-5.404850">
        <ele>2116.0</ele>
        <time>2016-08-06T12:57:59Z</time>
      </trkpt>
      <trkpt lat="40.404133" lon="-5.404700">
        <ele>2121.0</ele>
        <time>2016-08-06T12:58:01Z</time>
      </trkpt>
      <trkpt lat="40.404067" lon="-5.404550">
        <ele>2126.0</ele>
        <time>2016-08-06T12:58:03Z</time>
      </trkpt>
      <trkpt lat="40.403967" lon="-5.404417">
        <ele>2130.0</ele>
        <time>2016-08-06T12:58:05Z</time>
      </trkpt>
      <trkpt lat="40.403800" lon="-5.404300">
        <ele>2132.0</ele>
        <time>2016-08-06T12:58:07Z</time>
      </trkpt>
      <trkpt lat="40.403600" lon="-5.404267">
        <ele>2138.0</ele>
        <time>2016-08-06T12:58:09Z</time>
      </trkpt>
      <trkpt lat="40.403383" lon="-5.404300">
        <ele>2140.0</ele>
        <time>2016-08-06T12:58:11Z</time>
      </trkpt>
      <trkpt lat="40.403150" lon="-5.404400">
        <ele>2141.0</ele>
        <time>2016-08-06T12:58:13Z</time>
      </trkpt>
      <trkpt lat="40.402967" lon="-5.404617">
        <ele>2144.0</ele>
        <time>2016-08-06T12:58:15Z</time>
      </trkpt>
      <trkpt lat="40.402833" lon="-5.404850">
        <ele>2149.0</ele>
        <time>2016-08-06T12:58:17Z</time>
      </trkpt>
      <trkpt lat="40.402750" lon="-5.405083">
        <ele>2153.0</ele>
        <time>2016-08-06T12:58:19Z</time>
      </trkpt>
      <trkpt lat="40.402733" lon="-5.405300">
        <ele>2154.0</ele>
        <time>2016-08-06T12:58:21Z</time>
      </trkpt>
      <trkpt lat="40.402767" lon="-5.405533">
        <ele>2155.0</ele>
        <time>2016-08-06T12:58:23Z</time>
      </trkpt>
      <trkpt lat="40.402867" lon="-5.405700">
        <ele>2157.0</ele>
        <time>2016-08-06T12:58:25Z</time>
      </trkpt>
      <trkpt lat="40.402983" lon="-5.405783">
        <ele>2158.0</ele>
        <time>2016-08-06T12:58:27Z</time>
      </trkpt>
      <trkpt lat="40.403100" lon="-5.405767">
        <ele>2160.0</ele>
        <time>2016-08-06T12:58:29Z</time>
      </trkpt>
      <trkpt lat="40.403217" lon="-5.405700">
        <ele>2163.0</ele>
        <time>2016-08-06T12:58:31Z</time>
      </trkpt>
      <trkpt lat="40.403300" lon="-5.405600">
        <ele>2167.0</ele>
        <time>2016-08-06T12:58:33Z</time>
      </trkpt>
      <trkpt lat="40.403333" lon="-5.405467">
        <ele>2172.0</ele>
        <time>2016-08-06T12:58:35Z</time>
      </trkpt>
      <trkpt lat="40.403317" lon="-5.405333">
        <ele>2176.0</ele>
        <time>2016-08-06T12:58:37Z</time>
      </trkpt>
      <trkpt lat="40.403233" lon="-5.405167">
        <ele>2177.0</ele>
        <time>2016-08-06T12:58:39Z</time>
      </trkpt>
      <trkpt lat="40.403033" lon="-5.404983">
        <ele>2178.0</ele>
        <time>2016-08-06T12:58:41Z</time>
      </trkpt>
      <trkpt lat="40.402850" lon="-5.404900">
        <ele>2186.0</ele>
        <time>2016-08-06T12:58:43Z</time>
      </trkpt>
      <trkpt lat="40.402667" lon="-5.404883">
        <ele>2190.0</ele>
        <time>2016-08-06T12:58:45Z</time>
      </trkpt>
      <trkpt lat="40.402450" lon="-5.404933">
        <ele>2192.0</ele>
        <time>2016-08-06T12:58:47Z</time>
      </trkpt>
      <trkpt lat="40.402250" lon="-5.405100">
        <ele>2195.0</ele>
        <time>2016-08-06T12:58:49Z</time>
      </trkpt>
      <trkpt lat="40.402100" lon="-5.405300">
        <ele>2199.0</ele>
        <time>2016-08-06T12:58:51Z</time>
      </trkpt>
      <trkpt lat="40.402033" lon="-5.405533">
        <ele>2202.0</ele>
        <time>2016-08-06T12:58:53Z</time>
      </trkpt>
      <trkpt lat="40.402017" lon="-5.405783">
        <ele>2203.0</ele>
        <time>2016-08-06T12:58:55Z</time>
      </trkpt>
      <trkpt lat="40.402067" lon="-5.406033">
        <ele>2205.0</ele>
        <time>2016-08-06T12:58:57Z</time>
      </trkpt>
      <trkpt lat="40.402167" lon="-5.406200">
        <ele>2209.0</ele>
        <time>2016-08-06T12:58:59Z</time>
      </trkpt>
      <trkpt lat="40.402283" lon="-5.406283">
        <ele>2210.0</ele>
        <time>2016-08-06T12:59:01Z</time>
      </trkpt>
      <trkpt lat="40.402433" lon="-5.406300">
        <ele>2211.0</ele>
        <time>2016-08-06T12:59:03Z</time>
      </trkpt>
      <trkpt lat="40.402550" lon="-5.406217">
        <ele>2213.0</ele>
        <time>2016-08-06T12:59:05Z</time>
      </trkpt>
      <trkpt lat="40.402600" lon="-5.406083">
        <ele>2216.0</ele>
        <time>2016-08-06T12:59:07Z</time>
      </trkpt>
      <trkpt lat="40.402600" lon="-5.405917">
        <ele>2217.0</ele>
        <time>2016-08-06T12:59:09Z</time>
      </trkpt>
      <trkpt lat="40.402533" lon="-5.405700">
        <ele>2218.0</ele>
        <time>2016-08-06T12:59:11Z</time>
      </trkpt>
      <trkpt lat="40.402450" lon="-5.405500">
        <ele>2222.0</ele>
        <time>2016-08-06T12:59:13Z</time>
      </trkpt>
      <trkpt lat="40.402283" lon="-5.405350">
        <ele>2225.0</ele>
        <time>2016-08-06T12:59:15Z</time>
      </trkpt>
      <trkpt lat="40.402067" lon="-5.405300">
        <ele>2227.0</ele>
        <time>2016-08-06T12:59:17Z</time>
      </trkpt>
      <trkpt lat="40.401833" lon="-5.405350">
        <ele>2231.0</ele>
        <time>2016-08-06T12:59:19Z</time>
      </trkpt>
      <trkpt lat="40.401650" lon="-5.405517">
        <ele>2235.0</ele>
        <time>2016-08-06T12:59:21Z</time>
      </trkpt>
      <trkpt lat="40.401517" lon="-5.405733">
        <ele>2238.0</ele>
        <time>2016-08-06T12:59:23Z</time>
      </trkpt>
      <trkpt lat="40.401433" lon="-5.406000">
        <ele>2240.0</ele>
        <time>2016-08-06T12:59:25Z</time>
      </trkpt>
      <trkpt lat="40.401417" lon="-5.406267">
        <ele>2242.0</ele>
        <time>2016-08-06T12:59:27Z</time>
      </trkpt>
      <trkpt lat="40.401450" lon="-5.406517">
        <ele>2244.0</ele>
        <time>2016-08-06T12:59:29Z</time>
      </trkpt>
      <trkpt lat="40.401533" lon="-5.406717">
        <ele>2246.0</ele>
        <time>2016-08-06T12:59:31Z</time>
      </trkpt>
      <trkpt lat="40.401667" lon="-5.406833">
        <ele>2245.0</ele>
        <time>2016-08-06T12:59:33Z</time>
      </trkpt>
      <trkpt lat="40.401800" lon="-5.406817">
        <ele>2247.0</ele>
        <time>2016-08-06T12:59:35Z</time>
      </trkpt>
      <trkpt lat="40.401883" lon="-5.406733">
        <ele>2248.0</ele>
        <time>2016-08-06T12:59:37Z</time>
      </trkpt>
      <trkpt lat="40.401933" lon="-5.406550">
        <ele>2246.0</ele>
        <time>2016-08-06T12:59:39Z</time>
      </trkpt>
      <trkpt lat="40.401883" lon="-5.406333">
        <ele>2248.0</ele>
        <time>2016-08-06T12:59:41Z</time>
      </trkpt>
      <trkpt lat="40.401783" lon="-5.406167">
        <ele>2254.0</ele>
        <time>2016-08-06T12:59:43Z</time>
      </trkpt>
      <trkpt lat="40.401667" lon="-5.406050">
        <ele>2256.0</ele>
        <time>2016-08-06T12:59:45Z</time>
      </trkpt>
      <trkpt lat="40.401500" lon="-5.405950">
        <ele>2257.0</ele>
        <time>2016-08-06T12:59:47Z</time>
      </trkpt>
      <trkpt lat="40.401300" lon="-5.405950">
        <ele>2259.0</ele>
        <time>2016-08-06T12:59:49Z</time>
      </trkpt>
      <trkpt lat="40.401117" lon="-5.406033">
        <ele>2258.0</ele>
        <time>2016-08-06T12:59:51Z</time>
      </trkpt>
      <trkpt lat="40.400917" lon="-5.406167">
        <ele>2256.0</ele>
        <time>2016-08-06T12:59:53Z</time>
      </trkpt>
      <trkpt lat="40.400750" lon="-5.406400">
        <ele>2256.0</ele>
        <time>2016-08-06T12:59:55Z</time>
      </trkpt>
      <trkpt lat="40.400633" lon="-5.406633">
        <ele>2259.0</ele>
        <time>2016-08-06T12:59:57Z</time>
      </trkpt>
      <trkpt lat="40.400550" lon="-5.406867">
        <ele>2261.0</ele>
        <time>2016-08-06T12:59:59Z</time>
      </trkpt>
      <trkpt lat="40.400517" lon="-5.407133">
        <ele>2260.0</ele>
        <time>2016-08-06T13:00:01Z</time>
      </trkpt>
      <trkpt lat="40.400550" lon="-5.407417">
        <ele>2259.0</ele>
        <time>2016-08-06T13:00:03Z</time>
      </trkpt>
      <trkpt lat="40.400617" lon="-5.407667">
        <ele>2260.0</ele>
        <time>2016-08-06T13:00:05Z</time>
      </trkpt>
      <trkpt lat="40.400650" lon="-5.407933">
        <ele>2261.0</ele>
        <time>2016-08-06T13:00:07Z</time>
      </trkpt>
      <trkpt lat="40.400700" lon="-5.408117">
        <ele>2262.0</ele>
        <time>2016-08-06T13:00:09Z</time>
      </trkpt>
      <trkpt lat="40.400783" lon="-5.408250">
        <ele>2261.0</ele>
        <time>2016-08-06T13:00:11Z</time>
      </trkpt>
      <trkpt lat="40.400850" lon="-5.408383">
        <ele>2258.0</ele>
        <time>2016-08-06T13:00:13Z</time>
      </trkpt>
      <trkpt lat="40.400950" lon="-5.408483">
        <ele>2256.0</ele>
        <time>2016-08-06T13:00:15Z</time>
      </trkpt>
      <trkpt lat="40.401067" lon="-5.408500">
        <ele>2256.0</ele>
        <time>2016-08-06T13:00:17Z</time>
      </trkpt>
      <trkpt lat="40.401150" lon="-5.408450">
        <ele>2259.0</ele>
        <time>2016-08-06T13:00:19Z</time>
      </trkpt>
      <trkpt lat="40.401233" lon="-5.408417">
        <ele>2261.0</ele>
        <time>2016-08-06T13:00:21Z</time>
      </trkpt>
      <trkpt lat="40.401300" lon="-5.408350">
        <ele>2262.0</ele>
        <time>2016-08-06T13:00:23Z</time>
      </trkpt>
      <trkpt lat="40.401300" lon="-5.408217">
        <ele>2263.0</ele>
        <time>2016-08-06T13:00:25Z</time>
      </trkpt>
      <trkpt lat="40.401250" lon="-5.408050">
        <ele>2263.0</ele>
        <time>2016-08-06T13:00:27Z</time>
      </trkpt>
      <trkpt lat="40.401100" lon="-5.407900">
        <ele>2265.0</ele>
        <time>2016-08-06T13:00:29Z</time>
      </trkpt>
      <trkpt lat="40.400917" lon="-5.407833">
        <ele>2267.0</ele>
        <time>2016-08-06T13:00:31Z</time>
      </trkpt>
      <trkpt lat="40.400700" lon="-5.407817">
        <ele>2267.0</ele>
        <time>2016-08-06T13:00:33Z</time>
      </trkpt>
      <trkpt lat="40.400450" lon="-5.407917">
        <ele>2266.0</ele>
        <time>2016-08-06T13:00:35Z</time>
      </trkpt>
      <trkpt lat="40.400267" lon="-5.408117">
        <ele>2267.0</ele>
        <time>2016-08-06T13:00:37Z</time>
      </trkpt>
      <trkpt lat="40.400167" lon="-5.408317">
        <ele>2265.0</ele>
        <time>2016-08-06T13:00:39Z</time>
      </trkpt>
      <trkpt lat="40.400100" lon="-5.408550">
        <ele>2260.0</ele>
        <time>2016-08-06T13:00:41Z</time>
      </trkpt>
      <trkpt lat="40.400083" lon="-5.408833">
        <ele>2254.0</ele>
        <time>2016-08-06T13:00:43Z</time>
      </trkpt>
      <trkpt lat="40.400067" lon="-5.409150">
        <ele>2253.0</ele>
        <time>2016-08-06T13:00:45Z</time>
      </trkpt>
      <trkpt lat="40.400017" lon="-5.409433">
        <ele>2254.0</ele>
        <time>2016-08-06T13:00:47Z</time>
      </trkpt>
      <trkpt lat="40.399983" lon="-5.409717">
        <ele>2254.0</ele>
        <time>2016-08-06T13:00:49Z</time>
      </trkpt>
      <trkpt lat="40.399983" lon="-5.410017">
        <ele>2255.0</ele>
        <time>2016-08-06T13:00:51Z</time>
      </trkpt>
      <trkpt lat="40.400000" lon="-5.410283">
        <ele>2256.0</ele>
        <time>2016-08-06T13:00:53Z</time>
      </trkpt>
      <trkpt lat="40.400000" lon="-5.410583">
        <ele>2256.0</ele>
        <time>2016-08-06T13:00:55Z</time>
      </trkpt>
      <trkpt lat="40.400033" lon="-5.410900">
        <ele>2259.0</ele>
        <time>2016-08-06T13:00:57Z</time>
      </trkpt>
      <trkpt lat="40.400067" lon="-5.411150">
        <ele>2265.0</ele>
        <time>2016-08-06T13:00:59Z</time>
      </trkpt>
      <trkpt lat="40.400067" lon="-5.411367">
        <ele>2266.0</ele>
        <time>2016-08-06T13:01:01Z</time>
      </trkpt>
      <trkpt lat="40.400100" lon="-5.411550">
        <ele>2267.0</ele>
        <time>2016-08-06T13:01:03Z</time>
      </trkpt>
      <trkpt lat="40.400200" lon="-5.411667">
        <ele>2268.0</ele>
        <time>2016-08-06T13:01:05Z</time>
      </trkpt>
      <trkpt lat="40.400300" lon="-5.411700">
        <ele>2270.0</ele>
        <time>2016-08-06T13:01:07Z</time>
      </trkpt>
      <trkpt lat="40.400367" lon="-5.411633">
        <ele>2273.0</ele>
        <time>2016-08-06T13:01:09Z</time>
      </trkpt>
      <trkpt lat="40.400350" lon="-5.411517">
        <ele>2276.0</ele>
        <time>2016-08-06T13:01:11Z</time>
      </trkpt>
      <trkpt lat="40.400300" lon="-5.411383">
        <ele>2279.0</ele>
        <time>2016-08-06T13:01:13Z</time>
      </trkpt>
      <trkpt lat="40.400183" lon="-5.411250">
        <ele>2279.0</ele>
        <time>2016-08-06T13:01:15Z</time>
      </trkpt>
      <trkpt lat="40.400017" lon="-5.411117">
        <ele>2281.0</ele>
        <time>2016-08-06T13:01:17Z</time>
      </trkpt>
      <trkpt lat="40.399817" lon="-5.411083">
        <ele>2283.0</ele>
        <time>2016-08-06T13:01:19Z</time>
      </trkpt>
      <trkpt lat="40.399600" lon="-5.411133">
        <ele>2282.0</ele>
        <time>2016-08-06T13:01:21Z</time>
      </trkpt>
      <trkpt lat="40.399367" lon="-5.411283">
        <ele>2280.0</ele>
        <time>2016-08-06T13:01:23Z</time>
      </trkpt>
      <trkpt lat="40.399183" lon="-5.411533">
        <ele>2279.0</ele>
        <time>2016-08-06T13:01:25Z</time>
      </trkpt>
      <trkpt lat="40.399050" lon="-5.411800">
        <ele>2281.0</ele>
        <time>2016-08-06T13:01:27Z</time>
      </trkpt>
      <trkpt lat="40.399000" lon="-5.412050">
        <ele>2280.0</ele>
        <time>2016-08-06T13:01:29Z</time>
      </trkpt>
      <trkpt lat="40.398983" lon="-5.412367">
        <ele>2278.0</ele>
        <time>2016-08-06T13:01:31Z</time>
      </trkpt>
      <trkpt lat="40.398983" lon="-5.412667">
        <ele>2279.0</ele>
        <time>2016-08-06T13:01:33Z</time>
      </trkpt>
      <trkpt lat="40.398983" lon="-5.412933">
        <ele>2282.0</ele>
        <time>2016-08-06T13:01:35Z</time>
      </trkpt>
      <trkpt lat="40.399000" lon="-5.413200">
        <ele>2281.0</ele>
        <time>2016-08-06T13:01:37Z</time>
      </trkpt>
      <trkpt lat="40.399050" lon="-5.413450">
        <ele>2281.0</ele>
        <time>2016-08-06T13:01:39Z</time>
      </trkpt>
      <trkpt lat="40.399067" lon="-5.413700">
        <ele>2280.0</ele>
        <time>2016-08-06T13:01:41Z</time>
      </trkpt>
      <trkpt lat="40.399067" lon="-5.413967">
        <ele>2275.0</ele>
        <time>2016-08-06T13:01:43Z</time>
      </trkpt>
      <trkpt lat="40.399100" lon="-5.414250">
        <ele>2271.0</ele>
        <time>2016-08-06T13:01:45Z</time>
      </trkpt>
      <trkpt lat="40.399150" lon="-5.414533">
        <ele>2270.0</ele>
        <time>2016-08-06T13:01:47Z</time>
      </trkpt>
      <trkpt lat="40.399150" lon="-5.414800">
        <ele>2269.0</ele>
        <time>2016-08-06T13:01:49Z</time>
      </trkpt>
      <trkpt lat="40.399167" lon="-5.415067">
        <ele>2264.0</ele>
        <time>2016-08-06T13:01:51Z</time>
      </trkpt>
      <trkpt lat="40.399167" lon="-5.415383">
        <ele>2259.0</ele>
        <time>2016-08-06T13:01:53Z</time>
      </trkpt>
      <trkpt lat="40.399183" lon="-5.415683">
        <ele>2257.0</ele>
        <time>2016-08-06T13:01:55Z</time>
      </trkpt>
      <trkpt lat="40.399183" lon="-5.415950">
        <ele>2253.0</ele>
        <time>2016-08-06T13:01:57Z</time>
      </trkpt>
      <trkpt lat="40.399183" lon="-5.416283">
        <ele>2247.0</ele>
        <time>2016-08-06T13:01:59Z</time>
      </trkpt>
      <trkpt lat="40.399217" lon="-5.416583">
        <ele>2245.0</ele>
        <time>2016-08-06T13:02:01Z</time>
      </trkpt>
      <trkpt lat="40.399250" lon="-5.416850">
        <ele>2243.0</ele>
        <time>2016-08-06T13:02:03Z</time>
      </trkpt>
      <trkpt lat="40.399283" lon="-5.417133">
        <ele>2238.0</ele>
        <time>2016-08-06T13:02:05Z</time>
      </trkpt>
      <trkpt lat="40.399317" lon="-5.417467">
        <ele>2234.0</ele>
        <time>2016-08-06T13:02:07Z</time>
      </trkpt>
      <trkpt lat="40.399367" lon="-5.417750">
        <ele>2233.0</ele>
        <time>2016-08-06T13:02:09Z</time>
      </trkpt>
      <trkpt lat="40.399400" lon="-5.417983">
        <ele>2231.0</ele>
        <time>2016-08-06T13:02:11Z</time>
      </trkpt>
      <trkpt lat="40.399467" lon="-5.418250">
        <ele>2224.0</ele>
        <time>2016-08-06T13:02:13Z</time>
      </trkpt>
      <trkpt lat="40.399550" lon="-5.418500">
        <ele>2218.0</ele>
        <time>2016-08-06T13:02:15Z</time>
      </trkpt>
      <trkpt lat="40.399617" lon="-5.418733">
        <ele>2215.0</ele>
        <time>2016-08-06T13:02:17Z</time>
      </trkpt>
      <trkpt lat="40.399650" lon="-5.418967">
        <ele>2211.0</ele>
        <time>2016-08-06T13:02:19Z</time>
      </trkpt>
      <trkpt lat="40.399717" lon="-5.419233">
        <ele>2206.0</ele>
        <time>2016-08-06T13:02:21Z</time>
      </trkpt>
      <trkpt lat="40.399783" lon="-5.419500">
        <ele>2201.0</ele>
        <time>2016-08-06T13:02:23Z</time>
      </trkpt>
      <trkpt lat="40.399850" lon="-5.419750">
        <ele>2199.0</ele>
        <time>2016-08-06T13:02:25Z</time>
      </trkpt>
      <trkpt lat="40.399917" lon="-5.420000">
        <ele>2194.0</ele>
        <time>2016-08-06T13:02:27Z</time>
      </trkpt>
      <trkpt lat="40.400000" lon="-5.420283">
        <ele>2188.0</ele>
        <time>2016-08-06T13:02:29Z</time>
      </trkpt>
      <trkpt lat="40.400083" lon="-5.420583">
        <ele>2186.0</ele>
        <time>2016-08-06T13:02:31Z</time>
      </trkpt>
      <trkpt lat="40.400150" lon="-5.420850">
        <ele>2183.0</ele>
        <time>2016-08-06T13:02:33Z</time>
      </trkpt>
      <trkpt lat="40.400233" lon="-5.421100">
        <ele>2178.0</ele>
        <time>2016-08-06T13:02:35Z</time>
      </trkpt>
      <trkpt lat="40.400333" lon="-5.421383">
        <ele>2173.0</ele>
        <time>2016-08-06T13:02:37Z</time>
      </trkpt>
      <trkpt lat="40.400433" lon="-5.421650">
        <ele>2170.0</ele>
        <time>2016-08-06T13:02:39Z</time>
      </trkpt>
      <trkpt lat="40.400550" lon="-5.421867">
        <ele>2169.0</ele>
        <time>2016-08-06T13:02:41Z</time>
      </trkpt>
      <trkpt lat="40.400650" lon="-5.422083">
        <ele>2166.0</ele>
        <time>2016-08-06T13:02:43Z</time>
      </trkpt>
      <trkpt lat="40.400767" lon="-5.422283">
        <ele>2161.0</ele>
        <time>2016-08-06T13:02:45Z</time>
      </trkpt>
      <trkpt lat="40.400867" lon="-5.422500">
        <ele>2158.0</ele>
        <time>2016-08-06T13:02:47Z</time>
      </trkpt>
      <trkpt lat="40.400933" lon="-5.422717">
        <ele>2155.0</ele>
        <time>2016-08-06T13:02:49Z</time>
      </trkpt>
      <trkpt lat="40.401017" lon="-5.422933">
        <ele>2149.0</ele>
        <time>2016-08-06T13:02:51Z</time>
      </trkpt>
      <trkpt lat="40.401133" lon="-5.423150">
        <ele>2147.0</ele>
        <time>2016-08-06T13:02:53Z</time>
      </trkpt>
      <trkpt lat="40.401217" lon="-5.423350">
        <ele>2145.0</ele>
        <time>2016-08-06T13:02:55Z</time>
      </trkpt>
      <trkpt lat="40.401283" lon="-5.423533">
        <ele>2141.0</ele>
        <time>2016-08-06T13:02:57Z</time>
      </trkpt>
      <trkpt lat="40.401383" lon="-5.423717">
        <ele>2137.0</ele>
        <time>2016-08-06T13:02:59Z</time>
      </trkpt>
      <trkpt lat="40.401483" lon="-5.423883">
        <ele>2136.0</ele>
        <time>2016-08-06T13:03:01Z</time>
      </trkpt>
      <trkpt lat="40.401583" lon="-5.424033">
        <ele>2133.0</ele>
        <time>2016-08-06T13:03:03Z</time>
      </trkpt>
      <trkpt lat="40.401667" lon="-5.424217">
        <ele>2128.0</ele>
        <time>2016-08-06T13:03:05Z</time>
      </trkpt>
      <trkpt lat="40.401750" lon="-5.424400">
        <ele>2125.0</ele>
        <time>2016-08-06T13:03:07Z</time>
      </trkpt>
      <trkpt lat="40.401833" lon="-5.424583">
        <ele>2121.0</ele>
        <time>2016-08-06T13:03:09Z</time>
      </trkpt>
      <trkpt lat="40.401917" lon="-5.424783">
        <ele>2117.0</ele>
        <time>2016-08-06T13:03:11Z</time>
      </trkpt>
      <trkpt lat="40.402000" lon="-5.424950">
        <ele>2113.0</ele>
        <time>2016-08-06T13:03:13Z</time>
      </trkpt>
      <trkpt lat="40.402067" lon="-5.425150">
        <ele>2107.0</ele>
        <time>2016-08-06T13:03:15Z</time>
      </trkpt>
      <trkpt lat="40.402117" lon="-5.425417">
        <ele>2099.0</ele>
        <time>2016-08-06T13:03:17Z</time>
      </trkpt>
      <trkpt lat="40.402200" lon="-5.425683">
        <ele>2093.0</ele>
        <time>2016-08-06T13:03:19Z</time>
      </trkpt>
      <trkpt lat="40.402300" lon="-5.425933">
        <ele>2089.0</ele>
        <time>2016-08-06T13:03:21Z</time>
      </trkpt>
      <trkpt lat="40.402367" lon="-5.426183">
        <ele>2083.0</ele>
        <time>2016-08-06T13:03:23Z</time>
      </trkpt>
      <trkpt lat="40.402467" lon="-5.426417">
        <ele>2076.0</ele>
        <time>2016-08-06T13:03:25Z</time>
      </trkpt>
      <trkpt lat="40.402567" lon="-5.426667">
        <ele>2068.0</ele>
        <time>2016-08-06T13:03:27Z</time>
      </trkpt>
      <trkpt lat="40.402667" lon="-5.426933">
        <ele>2062.0</ele>
        <time>2016-08-06T13:03:29Z</time>
      </trkpt>
      <trkpt lat="40.402750" lon="-5.427183">
        <ele>2058.0</ele>
        <time>2016-08-06T13:03:31Z</time>
      </trkpt>
      <trkpt lat="40.402817" lon="-5.427450">
        <ele>2053.0</ele>
        <time>2016-08-06T13:03:33Z</time>
      </trkpt>
      <trkpt lat="40.402883" lon="-5.427717">
        <ele>2047.0</ele>
        <time>2016-08-06T13:03:35Z</time>
      </trkpt>
      <trkpt lat="40.402950" lon="-5.428000">
        <ele>2042.0</ele>
        <time>2016-08-06T13:03:37Z</time>
      </trkpt>
      <trkpt lat="40.403050" lon="-5.428267">
        <ele>2037.0</ele>
        <time>2016-08-06T13:03:39Z</time>
      </trkpt>
      <trkpt lat="40.403133" lon="-5.428550">
        <ele>2034.0</ele>
        <time>2016-08-06T13:03:41Z</time>
      </trkpt>
      <trkpt lat="40.403200" lon="-5.428833">
        <ele>2030.0</ele>
        <time>2016-08-06T13:03:43Z</time>
      </trkpt>
      <trkpt lat="40.403283" lon="-5.429100">
        <ele>2027.0</ele>
        <time>2016-08-06T13:03:45Z</time>
      </trkpt>
      <trkpt lat="40.403350" lon="-5.429367">
        <ele>2026.0</ele>
        <time>2016-08-06T13:03:47Z</time>
      </trkpt>
      <trkpt lat="40.403417" lon="-5.429633">
        <ele>2022.0</ele>
        <time>2016-08-06T13:03:49Z</time>
      </trkpt>
      <trkpt lat="40.403483" lon="-5.429917">
        <ele>2016.0</ele>
        <time>2016-08-06T13:03:51Z</time>
      </trkpt>
      <trkpt lat="40.403550" lon="-5.430217">
        <ele>2013.0</ele>
        <time>2016-08-06T13:03:53Z</time>
      </trkpt>
      <trkpt lat="40.403617" lon="-5.430500">
        <ele>2010.0</ele>
        <time>2016-08-06T13:03:55Z</time>
      </trkpt>
      <trkpt lat="40.403700" lon="-5.430767">
        <ele>2008.0</ele>
        <time>2016-08-06T13:03:57Z</time>
      </trkpt>
      <trkpt lat="40.403783" lon="-5.431033">
        <ele>2006.0</ele>
        <time>2016-08-06T13:03:59Z</time>
      </trkpt>
      <trkpt lat="40.403883" lon="-5.431283">
        <ele>2005.0</ele>
        <time>2016-08-06T13:04:01Z</time>
      </trkpt>
      <trkpt lat="40.403967" lon="-5.431533">
        <ele>2002.0</ele>
        <time>2016-08-06T13:04:03Z</time>
      </trkpt>
      <trkpt lat="40.404067" lon="-5.431800">
        <ele>1998.0</ele>
        <time>2016-08-06T13:04:05Z</time>
      </trkpt>
      <trkpt lat="40.404167" lon="-5.432083">
        <ele>1997.0</ele>
        <time>2016-08-06T13:04:07Z</time>
      </trkpt>
      <trkpt lat="40.404233" lon="-5.432333">
        <ele>1997.0</ele>
        <time>2016-08-06T13:04:09Z</time>
      </trkpt>
      <trkpt lat="40.404317" lon="-5.432600">
        <ele>1993.0</ele>
        <time>2016-08-06T13:04:11Z</time>
      </trkpt>
      <trkpt lat="40.404417" lon="-5.432850">
        <ele>1991.0</ele>
        <time>2016-08-06T13:04:13Z</time>
      </trkpt>
      <trkpt lat="40.404483" lon="-5.433083">
        <ele>1990.0</ele>
        <time>2016-08-06T13:04:15Z</time>
      </trkpt>
      <trkpt lat="40.404550" lon="-5.433317">
        <ele>1988.0</ele>
        <time>2016-08-06T13:04:17Z</time>
      </trkpt>
      <trkpt lat="40.404633" lon="-5.433533">
        <ele>1986.0</ele>
        <time>2016-08-06T13:04:19Z</time>
      </trkpt>
      <trkpt lat="40.404717" lon="-5.433750">
        <ele>1986.0</ele>
        <time>2016-08-06T13:04:21Z</time>
      </trkpt>
      <trkpt lat="40.404783" lon="-5.433950">
        <ele>1985.0</ele>
        <time>2016-08-06T13:04:23Z</time>
      </trkpt>
      <trkpt lat="40.404867" lon="-5.434183">
        <ele>1983.0</ele>
        <time>2016-08-06T13:04:25Z</time>
      </trkpt>
      <trkpt lat="40.404950" lon="-5.434383">
        <ele>1984.0</ele>
        <time>2016-08-06T13:04:27Z</time>
      </trkpt>
      <trkpt lat="40.405017" lon="-5.434567">
        <ele>1984.0</ele>
        <time>2016-08-06T13:04:29Z</time>
      </trkpt>
      <trkpt lat="40.405100" lon="-5.434750">
        <ele>1983.0</ele>
        <time>2016-08-06T13:04:31Z</time>
      </trkpt>
      <trkpt lat="40.405150" lon="-5.434950">
        <ele>1982.0</ele>
        <time>2016-08-06T13:04:33Z</time>
      </trkpt>
      <trkpt lat="40.405183" lon="-5.435100">
        <ele>1980.0</ele>
        <time>2016-08-06T13:04:35Z</time>
      </trkpt>
      <trkpt lat="40.405217" lon="-5.435200">
        <ele>1974.0</ele>
        <time>2016-08-06T13:04:37Z</time>
      </trkpt>
      <trkpt lat="40.405250" lon="-5.435350">
        <ele>1967.0</ele>
        <time>2016-08-06T13:04:39Z</time>
      </trkpt>
      <trkpt lat="40.405300" lon="-5.435483">
        <ele>1963.0</ele>
        <time>2016-08-06T13:04:41Z</time>
      </trkpt>
      <trkpt lat="40.405333" lon="-5.435600">
        <ele>1959.0</ele>
        <time>2016-08-06T13:04:43Z</time>
      </trkpt>
      <trkpt lat="40.405367" lon="-5.435750">
        <ele>1954.0</ele>
        <time>2016-08-06T13:04:45Z</time>
      </trkpt>
      <trkpt lat="40.405433" lon="-5.435917">
        <ele>1950.0</ele>
        <time>2016-08-06T13:04:47Z</time>
      </trkpt>
      <trkpt lat="40.405467" lon="-5.436067">
        <ele>1953.0</ele>
        <time>2016-08-06T13:04:49Z</time>
      </trkpt>
      <trkpt lat="40.405500" lon="-5.436217">
        <ele>1953.0</ele>
        <time>2016-08-06T13:04:51Z</time>
      </trkpt>
      <trkpt lat="40.405583" lon="-5.436350">
        <ele>1950.0</ele>
        <time>2016-08-06T13:04:53Z</time>
      </trkpt>
      <trkpt lat="40.405667" lon="-5.436500">
        <ele>1950.0</ele>
        <time>2016-08-06T13:04:55Z</time>
      </trkpt>
      <trkpt lat="40.405733" lon="-5.436600">
        <ele>1949.0</ele>
        <time>2016-08-06T13:04:57Z</time>
      </trkpt>
      <trkpt lat="40.405800" lon="-5.436683">
        <ele>1946.0</ele>
        <time>2016-08-06T13:04:59Z</time>
      </trkpt>
      <trkpt lat="40.405883" lon="-5.436833">
        <ele>1941.0</ele>
        <time>2016-08-06T13:05:01Z</time>
      </trkpt>
      <trkpt lat="40.405983" lon="-5.436933">
        <ele>1940.0</ele>
        <time>2016-08-06T13:05:03Z</time>
      </trkpt>
      <trkpt lat="40.406067" lon="-5.437017">
        <ele>1941.0</ele>
        <time>2016-08-06T13:05:05Z</time>
      </trkpt>
      <trkpt lat="40.406133" lon="-5.437100">
        <ele>1945.0</ele>
        <time>2016-08-06T13:05:07Z</time>
      </trkpt>
      <trkpt lat="40.406200" lon="-5.437117">
        <ele>1947.0</ele>
        <time>2016-08-06T13:05:09Z</time>
      </trkpt>
      <trkpt lat="40.406250" lon="-5.437050">
        <ele>1949.0</ele>
        <time>2016-08-06T13:05:11Z</time>
      </trkpt>
      <trkpt lat="40.406300" lon="-5.436917">
        <ele>1951.0</ele>
        <time>2016-08-06T13:05:13Z</time>
      </trkpt>
      <trkpt lat="40.406317" lon="-5.436700">
        <ele>1955.0</ele>
        <time>2016-08-06T13:05:15Z</time>
      </trkpt>
      <trkpt lat="40.406300" lon="-5.436467">
        <ele>1960.0</ele>
        <time>2016-08-06T13:05:17Z</time>
      </trkpt>
      <trkpt lat="40.406217" lon="-5.436233">
        <ele>1966.0</ele>
        <time>2016-08-06T13:05:19Z</time>
      </trkpt>
      <trkpt lat="40.406050" lon="-5.436000">
        <ele>1971.0</ele>
        <time>2016-08-06T13:05:21Z</time>
      </trkpt>
      <trkpt lat="40.405817" lon="-5.435833">
        <ele>1976.0</ele>
        <time>2016-08-06T13:05:23Z</time>
      </trkpt>
      <trkpt lat="40.405533" lon="-5.435817">
        <ele>1980.0</ele>
        <time>2016-08-06T13:05:25Z</time>
      </trkpt>
      <trkpt lat="40.405300" lon="-5.435933">
        <ele>1984.0</ele>
        <time>2016-08-06T13:05:27Z</time>
      </trkpt>
      <trkpt lat="40.405183" lon="-5.436117">
        <ele>1987.0</ele>
        <time>2016-08-06T13:05:29Z</time>
      </trkpt>
      <trkpt lat="40.405083" lon="-5.436300">
        <ele>1991.0</ele>
        <time>2016-08-06T13:05:31Z</time>
      </trkpt>
      <trkpt lat="40.405050" lon="-5.436433">
        <ele>1995.0</ele>
        <time>2016-08-06T13:05:33Z</time>
      </trkpt>
      <trkpt lat="40.405083" lon="-5.436517">
        <ele>1996.0</ele>
        <time>2016-08-06T13:05:35Z</time>
      </trkpt>
      <trkpt lat="40.405150" lon="-5.436533">
        <ele>1998.0</ele>
        <time>2016-08-06T13:05:37Z</time>
      </trkpt>
      <trkpt lat="40.405217" lon="-5.436467">
        <ele>2002.0</ele>
        <time>2016-08-06T13:05:39Z</time>
      </trkpt>
      <trkpt lat="40.405283" lon="-5.436350">
        <ele>2003.0</ele>
        <time>2016-08-06T13:05:41Z</time>
      </trkpt>
      <trkpt lat="40.405333" lon="-5.436167">
        <ele>2006.0</ele>
        <time>2016-08-06T13:05:43Z</time>
      </trkpt>
      <trkpt lat="40.405350" lon="-5.435950">
        <ele>2011.0</ele>
        <time>2016-08-06T13:05:45Z</time>
      </trkpt>
      <trkpt lat="40.405333" lon="-5.435733">
        <ele>2015.0</ele>
        <time>2016-08-06T13:05:47Z</time>
      </trkpt>
      <trkpt lat="40.405283" lon="-5.435467">
        <ele>2016.0</ele>
        <time>2016-08-06T13:05:49Z</time>
      </trkpt>
      <trkpt lat="40.405133" lon="-5.435150">
        <ele>2022.0</ele>
        <time>2016-08-06T13:05:51Z</time>
      </trkpt>
      <trkpt lat="40.404933" lon="-5.434933">
        <ele>2025.0</ele>
        <time>2016-08-06T13:05:53Z</time>
      </trkpt>
      <trkpt lat="40.404717" lon="-5.434750">
        <ele>2026.0</ele>
        <time>2016-08-06T13:05:55Z</time>
      </trkpt>
      <trkpt lat="40.404450" lon="-5.434667">
        <ele>2025.0</ele>
        <time>2016-08-06T13:05:57Z</time>
      </trkpt>
      <trkpt lat="40.404200" lon="-5.434717">
        <ele>2029.0</ele>
        <time>2016-08-06T13:05:59Z</time>
      </trkpt>
      <trkpt lat="40.404000" lon="-5.434783">
        <ele>2035.0</ele>
        <time>2016-08-06T13:06:01Z</time>
      </trkpt>
      <trkpt lat="40.403817" lon="-5.434883">
        <ele>2038.0</ele>
        <time>2016-08-06T13:06:03Z</time>
      </trkpt>
      <trkpt lat="40.403700" lon="-5.435100">
        <ele>2039.0</ele>
        <time>2016-08-06T13:06:05Z</time>
      </trkpt>
      <trkpt lat="40.403650" lon="-5.435317">
        <ele>2043.0</ele>
        <time>2016-08-06T13:06:07Z</time>
      </trkpt>
      <trkpt lat="40.403650" lon="-5.435450">
        <ele>2047.0</ele>
        <time>2016-08-06T13:06:09Z</time>
      </trkpt>
      <trkpt lat="40.403717" lon="-5.435567">
        <ele>2049.0</ele>
        <time>2016-08-06T13:06:11Z</time>
      </trkpt>
      <trkpt lat="40.403817" lon="-5.435617">
        <ele>2054.0</ele>
        <time>2016-08-06T13:06:13Z</time>
      </trkpt>
      <trkpt lat="40.403883" lon="-5.435600">
        <ele>2059.0</ele>
        <time>2016-08-06T13:06:15Z</time>
      </trkpt>
      <trkpt lat="40.403967" lon="-5.435517">
        <ele>2060.0</ele>
        <time>2016-08-06T13:06:17Z</time>
      </trkpt>
      <trkpt lat="40.404067" lon="-5.435300">
        <ele>2063.0</ele>
        <time>2016-08-06T13:06:19Z</time>
      </trkpt>
      <trkpt lat="40.404050" lon="-5.435067">
        <ele>2068.0</ele>
        <time>2016-08-06T13:06:21Z</time>
      </trkpt>
      <trkpt lat="40.403950" lon="-5.434833">
        <ele>2070.0</ele>
        <time>2016-08-06T13:06:23Z</time>
      </trkpt>
      <trkpt lat="40.403783" lon="-5.434617">
        <ele>2069.0</ele>
        <time>2016-08-06T13:06:25Z</time>
      </trkpt>
      <trkpt lat="40.403517" lon="-5.434517">
        <ele>2068.0</ele>
        <time>2016-08-06T13:06:27Z</time>
      </trkpt>
      <trkpt lat="40.403250" lon="-5.434450">
        <ele>2071.0</ele>
        <time>2016-08-06T13:06:29Z</time>
      </trkpt>
      <trkpt lat="40.403017" lon="-5.434500">
        <ele>2073.0</ele>
        <time>2016-08-06T13:06:31Z</time>
      </trkpt>
      <trkpt lat="40.402850" lon="-5.434683">
        <ele>2075.0</ele>
        <time>2016-08-06T13:06:33Z</time>
      </trkpt>
      <trkpt lat="40.402767" lon="-5.434867">
        <ele>2082.0</ele>
        <time>2016-08-06T13:06:35Z</time>
      </trkpt>
      <trkpt lat="40.402733" lon="-5.435033">
        <ele>2087.0</ele>
        <time>2016-08-06T13:06:37Z</time>
      </trkpt>
      <trkpt lat="40.402767" lon="-5.435183">
        <ele>2089.0</ele>
        <time>2016-08-06T13:06:39Z</time>
      </trkpt>
      <trkpt lat="40.402850" lon="-5.435267">
        <ele>2096.0</ele>
        <time>2016-08-06T13:06:41Z</time>
      </trkpt>
      <trkpt lat="40.402917" lon="-5.435233">
        <ele>2103.0</ele>
        <time>2016-08-06T13:06:43Z</time>
      </trkpt>
      <trkpt lat="40.402967" lon="-5.435150">
        <ele>2106.0</ele>
        <time>2016-08-06T13:06:45Z</time>
      </trkpt>
      <trkpt lat="40.403017" lon="-5.434983">
        <ele>2106.0</ele>
        <time>2016-08-06T13:06:47Z</time>
      </trkpt>
      <trkpt lat="40.403000" lon="-5.434750">
        <ele>2108.0</ele>
        <time>2016-08-06T13:06:49Z</time>
      </trkpt>
      <trkpt lat="40.402933" lon="-5.434533">
        <ele>2111.0</ele>
        <time>2016-08-06T13:06:51Z</time>
      </trkpt>
      <trkpt lat="40.402767" lon="-5.434333">
        <ele>2111.0</ele>
        <time>2016-08-06T13:06:53Z</time>
      </trkpt>
      <trkpt lat="40.402617" lon="-5.434117">
        <ele>2112.0</ele>
        <time>2016-08-06T13:06:55Z</time>
      </trkpt>
      <trkpt lat="40.402467" lon="-5.433867">
        <ele>2112.0</ele>
        <time>2016-08-06T13:06:57Z</time>
      </trkpt>
      <trkpt lat="40.402233" lon="-5.433700">
        <ele>2113.0</ele>
        <time>2016-08-06T13:06:59Z</time>
      </trkpt>
      <trkpt lat="40.401983" lon="-5.433717">
        <ele>2114.0</ele>
        <time>2016-08-06T13:07:01Z</time>
      </trkpt>
      <trkpt lat="40.401817" lon="-5.433867">
        <ele>2114.0</ele>
        <time>2016-08-06T13:07:03Z</time>
      </trkpt>
      <trkpt lat="40.401750" lon="-5.434067">
        <ele>2115.0</ele>
        <time>2016-08-06T13:07:05Z</time>
      </trkpt>
      <trkpt lat="40.401750" lon="-5.434250">
        <ele>2116.0</ele>
        <time>2016-08-06T13:07:07Z</time>
      </trkpt>
      <trkpt lat="40.401833" lon="-5.434367">
        <ele>2118.0</ele>
        <time>2016-08-06T13:07:09Z</time>
      </trkpt>
      <trkpt lat="40.401950" lon="-5.434450">
        <ele>2122.0</ele>
        <time>2016-08-06T13:07:11Z</time>
      </trkpt>
      <trkpt lat="40.402033" lon="-5.434550">
        <ele>2129.0</ele>
        <time>2016-08-06T13:07:13Z</time>
      </trkpt>
      <trkpt lat="40.402083" lon="-5.434600">
        <ele>2132.0</ele>
        <time>2016-08-06T13:07:15Z</time>
      </trkpt>
      <trkpt lat="40.402167" lon="-5.434600">
        <ele>2131.0</ele>
        <time>2016-08-06T13:07:17Z</time>
      </trkpt>
      <trkpt lat="40.402267" lon="-5.434500">
        <ele>2133.0</ele>
        <time>2016-08-06T13:07:19Z</time>
      </trkpt>
      <trkpt lat="40.402300" lon="-5.434300">
        <ele>2137.0</ele>
        <time>2016-08-06T13:07:21Z</time>
      </trkpt>
      <trkpt lat="40.402267" lon="-5.434083">
        <ele>2138.0</ele>
        <time>2016-08-06T13:07:23Z</time>
      </trkpt>
      <trkpt lat="40.402133" lon="-5.433833">
        <ele>2138.0</ele>
        <time>2016-08-06T13:07:25Z</time>
      </trkpt>
      <trkpt lat="40.401950" lon="-5.433667">
        <ele>2142.0</ele>
        <time>2016-08-06T13:07:27Z</time>
      </trkpt>
      <trkpt lat="40.401767" lon="-5.433617">
        <ele>2144.0</ele>
        <time>2016-08-06T13:07:29Z</time>
      </trkpt>
      <trkpt lat="40.401567" lon="-5.433700">
        <ele>2143.0</ele>
        <time>2016-08-06T13:07:31Z</time>
      </trkpt>
      <trkpt lat="40.401417" lon="-5.433867">
        <ele>2146.0</ele>
        <time>2016-08-06T13:07:33Z</time>
      </trkpt>
      <trkpt lat="40.401350" lon="-5.434033">
        <ele>2153.0</ele>
        <time>2016-08-06T13:07:35Z</time>
      </trkpt>
      <trkpt lat="40.401317" lon="-5.434183">
        <ele>2156.0</ele>
        <time>2016-08-06T13:07:37Z</time>
      </trkpt>
      <trkpt lat="40.401333" lon="-5.434350">
        <ele>2157.0</ele>
        <time>2016-08-06T13:07:39Z</time>
      </trkpt>
      <trkpt lat="40.401400" lon="-5.434467">
        <ele>2157.0</ele>
        <time>2016-08-06T13:07:41Z</time>
      </trkpt>
      <trkpt lat="40.401500" lon="-5.434500">
        <ele>2159.0</ele>
        <time>2016-08-06T13:07:43Z</time>
      </trkpt>
      <trkpt lat="40.401600" lon="-5.434433">
        <ele>2160.0</ele>
        <time>2016-08-06T13:07:45Z</time>
      </trkpt>
      <trkpt lat="40.401717" lon="-5.434300">
        <ele>2162.0</ele>
        <time>2016-08-06T13:07:47Z</time>
      </trkpt>
      <trkpt lat="40.401783" lon="-5.434150">
        <ele>2166.0</ele>
        <time>2016-08-06T13:07:49Z</time>
      </trkpt>
      <trkpt lat="40.401767" lon="-5.433967">
        <ele>2167.0</ele>
        <time>2016-08-06T13:07:51Z</time>
      </trkpt>
      <trkpt lat="40.401733" lon="-5.433717">
        <ele>2164.0</ele>
        <time>2016-08-06T13:07:53Z</time>
      </trkpt>
      <trkpt lat="40.401633" lon="-5.433450">
        <ele>2166.0</ele>
        <time>2016-08-06T13:07:55Z</time>
      </trkpt>
      <trkpt lat="40.401517" lon="-5.433283">
        <ele>2171.0</ele>
        <time>2016-08-06T13:07:57Z</time>
      </trkpt>
      <trkpt lat="40.401367" lon="-5.433183">
        <ele>2170.0</ele>
        <time>2016-08-06T13:07:59Z</time>
      </trkpt>
      <trkpt lat="40.401133" lon="-5.433117">
        <ele>2166.0</ele>
        <time>2016-08-06T13:08:01Z</time>
      </trkpt>
      <trkpt lat="40.400933" lon="-5.433233">
        <ele>2168.0</ele>
        <time>2016-08-06T13:08:03Z</time>
      </trkpt>
      <trkpt lat="40.400883" lon="-5.433417">
        <ele>2172.0</ele>
        <time>2016-08-06T13:08:05Z</time>
      </trkpt>
      <trkpt lat="40.400867" lon="-5.433583">
        <ele>2174.0</ele>
        <time>2016-08-06T13:08:07Z</time>
      </trkpt>
      <trkpt lat="40.400900" lon="-5.433800">
        <ele>2173.0</ele>
        <time>2016-08-06T13:08:09Z</time>
      </trkpt>
      <trkpt lat="40.400983" lon="-5.433983">
        <ele>2176.0</ele>
        <time>2016-08-06T13:08:11Z</time>
      </trkpt>
      <trkpt lat="40.401017" lon="-5.434167">
        <ele>2180.0</ele>
        <time>2016-08-06T13:08:13Z</time>
      </trkpt>
      <trkpt lat="40.401067" lon="-5.434317">
        <ele>2182.0</ele>
        <time>2016-08-06T13:08:15Z</time>
      </trkpt>
      <trkpt lat="40.401183" lon="-5.434400">
        <ele>2185.0</ele>
        <time>2016-08-06T13:08:17Z</time>
      </trkpt>
      <trkpt lat="40.401283" lon="-5.434350">
        <ele>2187.0</ele>
        <time>2016-08-06T13:08:19Z</time>
      </trkpt>
      <trkpt lat="40.401383" lon="-5.434217">
        <ele>2188.0</ele>
        <time>2016-08-06T13:08:21Z</time>
      </trkpt>
      <trkpt lat="40.401417" lon="-5.434000">
        <ele>2190.0</ele>
        <time>2016-08-06T13:08:23Z</time>
      </trkpt>
      <trkpt lat="40.401350" lon="-5.433767">
        <ele>2192.0</ele>
        <time>2016-08-06T13:08:25Z</time>
      </trkpt>
      <trkpt lat="40.401217" lon="-5.433583">
        <ele>2193.0</ele>
        <time>2016-08-06T13:08:27Z</time>
      </trkpt>
      <trkpt lat="40.401033" lon="-5.433450">
        <ele>2193.0</ele>
        <time>2016-08-06T13:08:29Z</time>
      </trkpt>
      <trkpt lat="40.400817" lon="-5.433417">
        <ele>2193.0</ele>
        <time>2016-08-06T13:08:31Z</time>
      </trkpt>
      <trkpt lat="40.400617" lon="-5.433500">
        <ele>2195.0</ele>
        <time>2016-08-06T13:08:33Z</time>
      </trkpt>
      <trkpt lat="40.400467" lon="-5.433650">
        <ele>2197.0</ele>
        <time>2016-08-06T13:08:35Z</time>
      </trkpt>
      <trkpt lat="40.400400" lon="-5.433850">
        <ele>2201.0</ele>
        <time>2016-08-06T13:08:37Z</time>
      </trkpt>
      <trkpt lat="40.400400" lon="-5.434033">
        <ele>2202.0</ele>
        <time>2016-08-06T13:08:39Z</time>
      </trkpt>
      <trkpt lat="40.400450" lon="-5.434217">
        <ele>2203.0</ele>
        <time>2016-08-06T13:08:41Z</time>
      </trkpt>
      <trkpt lat="40.400533" lon="-5.434333">
        <ele>2206.0</ele>
        <time>2016-08-06T13:08:43Z</time>
      </trkpt>
      <trkpt lat="40.400617" lon="-5.434400">
        <ele>2207.0</ele>
        <time>2016-08-06T13:08:45Z</time>
      </trkpt>
      <trkpt lat="40.400733" lon="-5.434467">
        <ele>2205.0</ele>
        <time>2016-08-06T13:08:47Z</time>
      </trkpt>
      <trkpt lat="40.400850" lon="-5.434533">
        <ele>2205.0</ele>
        <time>2016-08-06T13:08:49Z</time>
      </trkpt>
      <trkpt lat="40.400983" lon="-5.434567">
        <ele>2205.0</ele>
        <time>2016-08-06T13:08:51Z</time>
      </trkpt>
      <trkpt lat="40.401100" lon="-5.434483">
        <ele>2204.0</ele>
        <time>2016-08-06T13:08:53Z</time>
      </trkpt>
      <trkpt lat="40.401233" lon="-5.434333">
        <ele>2202.0</ele>
        <time>2016-08-06T13:08:55Z</time>
      </trkpt>
      <trkpt lat="40.401333" lon="-5.434150">
        <ele>2201.0</ele>
        <time>2016-08-06T13:08:57Z</time>
      </trkpt>
      <trkpt lat="40.401400" lon="-5.433933">
        <ele>2201.0</ele>
        <time>2016-08-06T13:08:59Z</time>
      </trkpt>
      <trkpt lat="40.401483" lon="-5.433733">
        <ele>2203.0</ele>
        <time>2016-08-06T13:09:01Z</time>
      </trkpt>
      <trkpt lat="40.401517" lon="-5.433550">
        <ele>2203.0</ele>
        <time>2016-08-06T13:09:03Z</time>
      </trkpt>
      <trkpt lat="40.401500" lon="-5.433350">
        <ele>2200.0</ele>
        <time>2016-08-06T13:09:05Z</time>
      </trkpt>
      <trkpt lat="40.401417" lon="-5.433150">
        <ele>2197.0</ele>
        <time>2016-08-06T13:09:07Z</time>
      </trkpt>
      <trkpt lat="40.401283" lon="-5.432983">
        <ele>2193.0</ele>
        <time>2016-08-06T13:09:09Z</time>
      </trkpt>
      <trkpt lat="40.401100" lon="-5.432900">
        <ele>2190.0</ele>
        <time>2016-08-06T13:09:11Z</time>
      </trkpt>
      <trkpt lat="40.400900" lon="-5.432917">
        <ele>2188.0</ele>
        <time>2016-08-06T13:09:13Z</time>
      </trkpt>
      <trkpt lat="40.400733" lon="-5.433050">
        <ele>2187.0</ele>
        <time>2016-08-06T13:09:15Z</time>
      </trkpt>
      <trkpt lat="40.400650" lon="-5.433250">
        <ele>2186.0</ele>
        <time>2016-08-06T13:09:17Z</time>
      </trkpt>
      <trkpt lat="40.400650" lon="-5.433467">
        <ele>2184.0</ele>
        <time>2016-08-06T13:09:19Z</time>
      </trkpt>
      <trkpt lat="40.400700" lon="-5.433717">
        <ele>2181.0</ele>
        <time>2016-08-06T13:09:21Z</time>
      </trkpt>
      <trkpt lat="40.400783" lon="-5.433933">
        <ele>2181.0</ele>
        <time>2016-08-06T13:09:23Z</time>
      </trkpt>
      <trkpt lat="40.400883" lon="-5.434083">
        <ele>2181.0</ele>
        <time>2016-08-06T13:09:25Z</time>
      </trkpt>
      <trkpt lat="40.401000" lon="-5.434233">
        <ele>2176.0</ele>
        <time>2016-08-06T13:09:27Z</time>
      </trkpt>
      <trkpt lat="40.401117" lon="-5.434417">
        <ele>2174.0</ele>
        <time>2016-08-06T13:09:29Z</time>
      </trkpt>
      <trkpt lat="40.401217" lon="-5.434567">
        <ele>2175.0</ele>
        <time>2016-08-06T13:09:31Z</time>
      </trkpt>
      <trkpt lat="40.401300" lon="-5.434700">
        <ele>2172.0</ele>
        <time>2016-08-06T13:09:33Z</time>
      </trkpt>
      <trkpt lat="40.401417" lon="-5.434850">
        <ele>2169.0</ele>
        <time>2016-08-06T13:09:35Z</time>
      </trkpt>
      <trkpt lat="40.401517" lon="-5.434983">
        <ele>2167.0</ele>
        <time>2016-08-06T13:09:37Z</time>
      </trkpt>
      <trkpt lat="40.401617" lon="-5.435100">
        <ele>2165.0</ele>
        <time>2016-08-06T13:09:39Z</time>
      </trkpt>
      <trkpt lat="40.401717" lon="-5.435200">
        <ele>2164.0</ele>
        <time>2016-08-06T13:09:41Z</time>
      </trkpt>
      <trkpt lat="40.401817" lon="-5.435317">
        <ele>2159.0</ele>
        <time>2016-08-06T13:09:43Z</time>
      </trkpt>
      <trkpt lat="40.401950" lon="-5.435450">
        <ele>2153.0</ele>
        <time>2016-08-06T13:09:45Z</time>
      </trkpt>
      <trkpt lat="40.402067" lon="-5.435583">
        <ele>2151.0</ele>
        <time>2016-08-06T13:09:47Z</time>
      </trkpt>
      <trkpt lat="40.402183" lon="-5.435683">
        <ele>2149.0</ele>
        <time>2016-08-06T13:09:49Z</time>
      </trkpt>
      <trkpt lat="40.402283" lon="-5.435817">
        <ele>2144.0</ele>
        <time>2016-08-06T13:09:51Z</time>
      </trkpt>
      <trkpt lat="40.402417" lon="-5.435950">
        <ele>2138.0</ele>
        <time>2016-08-06T13:09:53Z</time>
      </trkpt>
      <trkpt lat="40.402550" lon="-5.436083">
        <ele>2133.0</ele>
        <time>2016-08-06T13:09:55Z</time>
      </trkpt>
      <trkpt lat="40.402650" lon="-5.436233">
        <ele>2128.0</ele>
        <time>2016-08-06T13:09:57Z</time>
      </trkpt>
      <trkpt lat="40.402750" lon="-5.436400">
        <ele>2121.0</ele>
        <time>2016-08-06T13:09:59Z</time>
      </trkpt>
      <trkpt lat="40.402867" lon="-5.436583">
        <ele>2117.0</ele>
        <time>2016-08-06T13:10:01Z</time>
      </trkpt>
      <trkpt lat="40.402933" lon="-5.436783">
        <ele>2114.0</ele>
        <time>2016-08-06T13:10:03Z</time>
      </trkpt>
      <trkpt lat="40.403000" lon="-5.436983">
        <ele>2108.0</ele>
        <time>2016-08-06T13:10:05Z</time>
      </trkpt>
      <trkpt lat="40.403083" lon="-5.437200">
        <ele>2099.0</ele>
        <time>2016-08-06T13:10:07Z</time>
      </trkpt>
      <trkpt lat="40.403183" lon="-5.437417">
        <ele>2092.0</ele>
        <time>2016-08-06T13:10:09Z</time>
      </trkpt>
      <trkpt lat="40.403283" lon="-5.437617">
        <ele>2086.0</ele>
        <time>2016-08-06T13:10:11Z</time>
      </trkpt>
      <trkpt lat="40.403383" lon="-5.437783">
        <ele>2077.0</ele>
        <time>2016-08-06T13:10:13Z</time>
      </trkpt>
      <trkpt lat="40.403517" lon="-5.437967">
        <ele>2067.0</ele>
        <time>2016-08-06T13:10:15Z</time>
      </trkpt>
      <trkpt lat="40.403650" lon="-5.438167">
        <ele>2058.0</ele>
        <time>2016-08-06T13:10:17Z</time>
      </trkpt>
      <trkpt lat="40.403800" lon="-5.438333">
        <ele>2051.0</ele>
        <time>2016-08-06T13:10:19Z</time>
      </trkpt>
      <trkpt lat="40.403983" lon="-5.438467">
        <ele>2045.0</ele>
        <time>2016-08-06T13:10:21Z</time>
      </trkpt>
      <trkpt lat="40.404133" lon="-5.438583">
        <ele>2040.0</ele>
        <time>2016-08-06T13:10:23Z</time>
      </trkpt>
      <trkpt lat="40.404283" lon="-5.438683">
        <ele>2034.0</ele>
        <time>2016-08-06T13:10:25Z</time>
      </trkpt>
      <trkpt lat="40.404450" lon="-5.438800">
        <ele>2028.0</ele>
        <time>2016-08-06T13:10:27Z</time>
      </trkpt>
      <trkpt lat="40.404600" lon="-5.438917">
        <ele>2024.0</ele>
        <time>2016-08-06T13:10:29Z</time>
      </trkpt>
      <trkpt lat="40.404750" lon="-5.439033">
        <ele>2019.0</ele>
        <time>2016-08-06T13:10:31Z</time>
      </trkpt>
      <trkpt lat="40.404883" lon="-5.439133">
        <ele>2015.0</ele>
        <time>2016-08-06T13:10:33Z</time>
      </trkpt>
      <trkpt lat="40.405033" lon="-5.439250">
        <ele>2011.0</ele>
        <time>2016-08-06T13:10:35Z</time>
      </trkpt>
      <trkpt lat="40.405183" lon="-5.439383">
        <ele>2009.0</ele>
        <time>2016-08-06T13:10:37Z</time>
      </trkpt>
      <trkpt lat="40.405317" lon="-5.439483">
        <ele>2008.0</ele>
        <time>2016-08-06T13:10:39Z</time>
      </trkpt>
      <trkpt lat="40.405467" lon="-5.439583">
        <ele>2006.0</ele>
        <time>2016-08-06T13:10:41Z</time>
      </trkpt>
      <trkpt lat="40.405617" lon="-5.439717">
        <ele>2004.0</ele>
        <time>2016-08-06T13:10:43Z</time>
      </trkpt>
      <trkpt lat="40.405750" lon="-5.439850">
        <ele>2004.0</ele>
        <time>2016-08-06T13:10:45Z</time>
      </trkpt>
      <trkpt lat="40.405883" lon="-5.439983">
        <ele>2002.0</ele>
        <time>2016-08-06T13:10:47Z</time>
      </trkpt>
      <trkpt lat="40.406017" lon="-5.440117">
        <ele>1999.0</ele>
        <time>2016-08-06T13:10:49Z</time>
      </trkpt>
      <trkpt lat="40.406150" lon="-5.440217">
        <ele>1998.0</ele>
        <time>2016-08-06T13:10:51Z</time>
      </trkpt>
      <trkpt lat="40.406267" lon="-5.440300">
        <ele>1999.0</ele>
        <time>2016-08-06T13:10:53Z</time>
      </trkpt>
      <trkpt lat="40.406350" lon="-5.440400">
        <ele>1998.0</ele>
        <time>2016-08-06T13:10:55Z</time>
      </trkpt>
      <trkpt lat="40.406450" lon="-5.440500">
        <ele>1997.0</ele>
        <time>2016-08-06T13:10:57Z</time>
      </trkpt>
      <trkpt lat="40.406550" lon="-5.440583">
        <ele>1997.0</ele>
        <time>2016-08-06T13:10:59Z</time>
      </trkpt>
      <trkpt lat="40.406633" lon="-5.440700">
        <ele>1995.0</ele>
        <time>2016-08-06T13:11:01Z</time>
      </trkpt>
      <trkpt lat="40.406733" lon="-5.440817">
        <ele>1992.0</ele>
        <time>2016-08-06T13:11:03Z</time>
      </trkpt>
      <trkpt lat="40.406867" lon="-5.440900">
        <ele>1990.0</ele>
        <time>2016-08-06T13:11:05Z</time>
      </trkpt>
      <trkpt lat="40.407000" lon="-5.440983">
        <ele>1989.0</ele>
        <time>2016-08-06T13:11:07Z</time>
      </trkpt>
      <trkpt lat="40.407133" lon="-5.441067">
        <ele>1988.0</ele>
        <time>2016-08-06T13:11:09Z</time>
      </trkpt>
      <trkpt lat="40.407267" lon="-5.441167">
        <ele>1986.0</ele>
        <time>2016-08-06T13:11:11Z</time>
      </trkpt>
      <trkpt lat="40.407400" lon="-5.441250">
        <ele>1985.0</ele>
        <time>2016-08-06T13:11:13Z</time>
      </trkpt>
      <trkpt lat="40.407517" lon="-5.441300">
        <ele>1983.0</ele>
        <time>2016-08-06T13:11:15Z</time>
      </trkpt>
      <trkpt lat="40.407650" lon="-5.441400">
        <ele>1979.0</ele>
        <time>2016-08-06T13:11:17Z</time>
      </trkpt>
      <trkpt lat="40.407783" lon="-5.441500">
        <ele>1976.0</ele>
        <time>2016-08-06T13:11:19Z</time>
      </trkpt>
      <trkpt lat="40.407883" lon="-5.441617">
        <ele>1973.0</ele>
        <time>2016-08-06T13:11:21Z</time>
      </trkpt>
      <trkpt lat="40.407983" lon="-5.441783">
        <ele>1970.0</ele>
        <time>2016-08-06T13:11:23Z</time>
      </trkpt>
      <trkpt lat="40.408083" lon="-5.441967">
        <ele>1968.0</ele>
        <time>2016-08-06T13:11:25Z</time>
      </trkpt>
      <trkpt lat="40.408183" lon="-5.442133">
        <ele>1966.0</ele>
        <time>2016-08-06T13:11:27Z</time>
      </trkpt>
      <trkpt lat="40.408283" lon="-5.442300">
        <ele>1963.0</ele>
        <time>2016-08-06T13:11:29Z</time>
      </trkpt>
      <trkpt lat="40.408367" lon="-5.442483">
        <ele>1961.0</ele>
        <time>2016-08-06T13:11:31Z</time>
      </trkpt>
      <trkpt lat="40.408450" lon="-5.442667">
        <ele>1959.0</ele>
        <time>2016-08-06T13:11:33Z</time>
      </trkpt>
      <trkpt lat="40.408550" lon="-5.442850">
        <ele>1957.0</ele>
        <time>2016-08-06T13:11:35Z</time>
      </trkpt>
      <trkpt lat="40.408667" lon="-5.443050">
        <ele>1955.0</ele>
        <time>2016-08-06T13:11:37Z</time>
      </trkpt>
      <trkpt lat="40.408800" lon="-5.443233">
        <ele>1952.0</ele>
        <time>2016-08-06T13:11:39Z</time>
      </trkpt>
      <trkpt lat="40.408933" lon="-5.443367">
        <ele>1950.0</ele>
        <time>2016-08-06T13:11:41Z</time>
      </trkpt>
      <trkpt lat="40.409050" lon="-5.443483">
        <ele>1946.0</ele>
        <time>2016-08-06T13:11:43Z</time>
      </trkpt>
      <trkpt lat="40.409183" lon="-5.443600">
        <ele>1939.0</ele>
        <time>2016-08-06T13:11:45Z</time>
      </trkpt>
      <trkpt lat="40.409317" lon="-5.443750">
        <ele>1934.0</ele>
        <time>2016-08-06T13:11:47Z</time>
      </trkpt>
      <trkpt lat="40.409417" lon="-5.443917">
        <ele>1930.0</ele>
        <time>2016-08-06T13:11:49Z</time>
      </trkpt>
      <trkpt lat="40.409517" lon="-5.444100">
        <ele>1926.0</ele>
        <time>2016-08-06T13:11:51Z</time>
      </trkpt>
      <trkpt lat="40.409600" lon="-5.444317">
        <ele>1920.0</ele>
        <time>2016-08-06T13:11:53Z</time>
      </trkpt>
      <trkpt lat="40.409683" lon="-5.444550">
        <ele>1917.0</ele>
        <time>2016-08-06T13:11:55Z</time>
      </trkpt>
      <trkpt lat="40.409767" lon="-5.444733">
        <ele>1916.0</ele>
        <time>2016-08-06T13:11:57Z</time>
      </trkpt>
      <trkpt lat="40.409850" lon="-5.444900">
        <ele>1913.0</ele>
        <time>2016-08-06T13:11:59Z</time>
      </trkpt>
      <trkpt lat="40.409933" lon="-5.445100">
        <ele>1907.0</ele>
        <time>2016-08-06T13:12:01Z</time>
      </trkpt>
      <trkpt lat="40.410033" lon="-5.445283">
        <ele>1904.0</ele>
        <time>2016-08-06T13:12:03Z</time>
      </trkpt>
      <trkpt lat="40.410117" lon="-5.445450">
        <ele>1901.0</ele>
        <time>2016-08-06T13:12:05Z</time>
      </trkpt>
      <trkpt lat="40.410200" lon="-5.445600">
        <ele>1897.0</ele>
        <time>2016-08-06T13:12:07Z</time>
      </trkpt>
      <trkpt lat="40.410300" lon="-5.445800">
        <ele>1892.0</ele>
        <time>2016-08-06T13:12:09Z</time>
      </trkpt>
      <trkpt lat="40.410367" lon="-5.445983">
        <ele>1889.0</ele>
        <time>2016-08-06T13:12:11Z</time>
      </trkpt>
      <trkpt lat="40.410433" lon="-5.446183">
        <ele>1886.0</ele>
        <time>2016-08-06T13:12:13Z</time>
      </trkpt>
      <trkpt lat="40.410483" lon="-5.446367">
        <ele>1882.0</ele>
        <time>2016-08-06T13:12:15Z</time>
      </trkpt>
      <trkpt lat="40.410550" lon="-5.446567">
        <ele>1877.0</ele>
        <time>2016-08-06T13:12:17Z</time>
      </trkpt>
      <trkpt lat="40.410600" lon="-5.446800">
        <ele>1873.0</ele>
        <time>2016-08-06T13:12:19Z</time>
      </trkpt>
      <trkpt lat="40.410667" lon="-5.447017">
        <ele>1870.0</ele>
        <time>2016-08-06T13:12:21Z</time>
      </trkpt>
      <trkpt lat="40.410717" lon="-5.447217">
        <ele>1866.0</ele>
        <time>2016-08-06T13:12:23Z</time>
      </trkpt>
      <trkpt lat="40.410783" lon="-5.447417">
        <ele>1861.0</ele>
        <time>2016-08-06T13:12:25Z</time>
      </trkpt>
      <trkpt lat="40.410850" lon="-5.447617">
        <ele>1857.0</ele>
        <time>2016-08-06T13:12:27Z</time>
      </trkpt>
      <trkpt lat="40.410883" lon="-5.447833">
        <ele>1851.0</ele>
        <time>2016-08-06T13:12:29Z</time>
      </trkpt>
      <trkpt lat="40.410917" lon="-5.448067">
        <ele>1845.0</ele>
        <time>2016-08-06T13:12:31Z</time>
      </trkpt>
      <trkpt lat="40.410950" lon="-5.448250">
        <ele>1843.0</ele>
        <time>2016-08-06T13:12:33Z</time>
      </trkpt>
      <trkpt lat="40.410967" lon="-5.448417">
        <ele>1838.0</ele>
        <time>2016-08-06T13:12:35Z</time>
      </trkpt>
      <trkpt lat="40.411017" lon="-5.448600">
        <ele>1833.0</ele>
        <time>2016-08-06T13:12:37Z</time>
      </trkpt>
      <trkpt lat="40.411067" lon="-5.448800">
        <ele>1830.0</ele>
        <time>2016-08-06T13:12:39Z</time>
      </trkpt>
      <trkpt lat="40.411083" lon="-5.449000">
        <ele>1828.0</ele>
        <time>2016-08-06T13:12:41Z</time>
      </trkpt>
      <trkpt lat="40.411117" lon="-5.449183">
        <ele>1825.0</ele>
        <time>2016-08-06T13:12:43Z</time>
      </trkpt>
      <trkpt lat="40.411150" lon="-5.449400">
        <ele>1821.0</ele>
        <time>2016-08-06T13:12:45Z</time>
      </trkpt>
      <trkpt lat="40.411167" lon="-5.449583">
        <ele>1819.0</ele>
        <time>2016-08-06T13:12:47Z</time>
      </trkpt>
      <trkpt lat="40.411183" lon="-5.449767">
        <ele>1816.0</ele>
        <time>2016-08-06T13:12:49Z</time>
      </trkpt>
      <trkpt lat="40.411233" lon="-5.449933">
        <ele>1812.0</ele>
        <time>2016-08-06T13:12:51Z</time>
      </trkpt>
      <trkpt lat="40.411267" lon="-5.450100">
        <ele>1811.0</ele>
        <time>2016-08-06T13:12:53Z</time>
      </trkpt>
      <trkpt lat="40.411250" lon="-5.450283">
        <ele>1811.0</ele>
        <time>2016-08-06T13:12:55Z</time>
      </trkpt>
      <trkpt lat="40.411250" lon="-5.450467">
        <ele>1813.0</ele>
        <time>2016-08-06T13:12:57Z</time>
      </trkpt>
      <trkpt lat="40.411317" lon="-5.450517">
        <ele>1816.0</ele>
        <time>2016-08-06T13:12:59Z</time>
      </trkpt>
      <trkpt lat="40.411383" lon="-5.450533">
        <ele>1818.0</ele>
        <time>2016-08-06T13:13:01Z</time>
      </trkpt>
      <trkpt lat="40.411450" lon="-5.450517">
        <ele>1818.0</ele>
        <time>2016-08-06T13:13:03Z</time>
      </trkpt>
      <trkpt lat="40.411533" lon="-5.450383">
        <ele>1817.0</ele>
        <time>2016-08-06T13:13:05Z</time>
      </trkpt>
      <trkpt lat="40.411600" lon="-5.450217">
        <ele>1820.0</ele>
        <time>2016-08-06T13:13:07Z</time>
      </trkpt>
      <trkpt lat="40.411617" lon="-5.450050">
        <ele>1824.0</ele>
        <time>2016-08-06T13:13:09Z</time>
      </trkpt>
      <trkpt lat="40.411600" lon="-5.449883">
        <ele>1824.0</ele>
        <time>2016-08-06T13:13:11Z</time>
      </trkpt>
      <trkpt lat="40.411533" lon="-5.449683">
        <ele>1822.0</ele>
        <time>2016-08-06T13:13:13Z</time>
      </trkpt>
      <trkpt lat="40.411383" lon="-5.449450">
        <ele>1818.0</ele>
        <time>2016-08-06T13:13:15Z</time>
      </trkpt>
      <trkpt lat="40.411167" lon="-5.449317">
        <ele>1816.0</ele>
        <time>2016-08-06T13:13:17Z</time>
      </trkpt>
      <trkpt lat="40.410917" lon="-5.449333">
        <ele>1815.0</ele>
        <time>2016-08-06T13:13:19Z</time>
      </trkpt>
      <trkpt lat="40.410700" lon="-5.449450">
        <ele>1812.0</ele>
        <time>2016-08-06T13:13:21Z</time>
      </trkpt>
      <trkpt lat="40.410567" lon="-5.449667">
        <ele>1809.0</ele>
        <time>2016-08-06T13:13:23Z</time>
      </trkpt>
      <trkpt lat="40.410517" lon="-5.449883">
        <ele>1808.0</ele>
        <time>2016-08-06T13:13:25Z</time>
      </trkpt>
      <trkpt lat="40.410517" lon="-5.450083">
        <ele>1807.0</ele>
        <time>2016-08-06T13:13:27Z</time>
      </trkpt>
      <trkpt lat="40.410517" lon="-5.450300">
        <ele>1807.0</ele>
        <time>2016-08-06T13:13:29Z</time>
      </trkpt>
      <trkpt lat="40.410517" lon="-5.450467">
        <ele>1813.0</ele>
        <time>2016-08-06T13:13:31Z</time>
      </trkpt>
      <trkpt lat="40.410500" lon="-5.450600">
        <ele>1817.0</ele>
        <time>2016-08-06T13:13:33Z</time>
      </trkpt>
      <trkpt lat="40.410500" lon="-5.450733">
        <ele>1819.0</ele>
        <time>2016-08-06T13:13:35Z</time>
      </trkpt>
      <trkpt lat="40.410550" lon="-5.450783">
        <ele>1818.0</ele>
        <time>2016-08-06T13:13:37Z</time>
      </trkpt>
      <trkpt lat="40.410633" lon="-5.450683">
        <ele>1815.0</ele>
        <time>2016-08-06T13:13:39Z</time>
      </trkpt>
      <trkpt lat="40.410683" lon="-5.450500">
        <ele>1814.0</ele>
        <time>2016-08-06T13:13:41Z</time>
      </trkpt>
      <trkpt lat="40.410667" lon="-5.450283">
        <ele>1813.0</ele>
        <time>2016-08-06T13:13:43Z</time>
      </trkpt>
      <trkpt lat="40.410583" lon="-5.450050">
        <ele>1812.0</ele>
        <time>2016-08-06T13:13:45Z</time>
      </trkpt>
      <trkpt lat="40.410417" lon="-5.449883">
        <ele>1813.0</ele>
        <time>2016-08-06T13:13:47Z</time>
      </trkpt>
      <trkpt lat="40.410233" lon="-5.449783">
        <ele>1814.0</ele>
        <time>2016-08-06T13:13:49Z</time>
      </trkpt>
      <trkpt lat="40.410017" lon="-5.449717">
        <ele>1813.0</ele>
        <time>2016-08-06T13:13:51Z</time>
      </trkpt>
      <trkpt lat="40.409767" lon="-5.449750">
        <ele>1812.0</ele>
        <time>2016-08-06T13:13:53Z</time>
      </trkpt>
      <trkpt lat="40.409550" lon="-5.449867">
        <ele>1816.0</ele>
        <time>2016-08-06T13:13:55Z</time>
      </trkpt>
      <trkpt lat="40.409383" lon="-5.449967">
        <ele>1820.0</ele>
        <time>2016-08-06T13:13:57Z</time>
      </trkpt>
      <trkpt lat="40.409267" lon="-5.450100">
        <ele>1818.0</ele>
        <time>2016-08-06T13:13:59Z</time>
      </trkpt>
      <trkpt lat="40.409200" lon="-5.450283">
        <ele>1816.0</ele>
        <time>2016-08-06T13:14:01Z</time>
      </trkpt>
      <trkpt lat="40.409167" lon="-5.450467">
        <ele>1818.0</ele>
        <time>2016-08-06T13:14:03Z</time>
      </trkpt>
      <trkpt lat="40.409183" lon="-5.450600">
        <ele>1820.0</ele>
        <time>2016-08-06T13:14:05Z</time>
      </trkpt>
      <trkpt lat="40.409217" lon="-5.450667">
        <ele>1820.0</ele>
        <time>2016-08-06T13:14:07Z</time>
      </trkpt>
      <trkpt lat="40.409250" lon="-5.450733">
        <ele>1819.0</ele>
        <time>2016-08-06T13:14:09Z</time>
      </trkpt>
      <trkpt lat="40.409317" lon="-5.450783">
        <ele>1816.0</ele>
        <time>2016-08-06T13:14:11Z</time>
      </trkpt>
      <trkpt lat="40.409417" lon="-5.450833">
        <ele>1814.0</ele>
        <time>2016-08-06T13:14:13Z</time>
      </trkpt>
      <trkpt lat="40.409500" lon="-5.450900">
        <ele>1813.0</ele>
        <time>2016-08-06T13:14:15Z</time>
      </trkpt>
      <trkpt lat="40.409567" lon="-5.450950">
        <ele>1811.0</ele>
        <time>2016-08-06T13:14:17Z</time>
      </trkpt>
      <trkpt lat="40.409667" lon="-5.451033">
        <ele>1808.0</ele>
        <time>2016-08-06T13:14:19Z</time>
      </trkpt>
      <trkpt lat="40.409733" lon="-5.451133">
        <ele>1808.0</ele>
        <time>2016-08-06T13:14:21Z</time>
      </trkpt>
      <trkpt lat="40.409767" lon="-5.451250">
        <ele>1806.0</ele>
        <time>2016-08-06T13:14:23Z</time>
      </trkpt>
      <trkpt lat="40.409817" lon="-5.451367">
        <ele>1800.0</ele>
        <time>2016-08-06T13:14:25Z</time>
      </trkpt>
      <trkpt lat="40.409867" lon="-5.451500">
        <ele>1793.0</ele>
        <time>2016-08-06T13:14:27Z</time>
      </trkpt>
      <trkpt lat="40.409917" lon="-5.451633">
        <ele>1788.0</ele>
        <time>2016-08-06T13:14:29Z</time>
      </trkpt>
      <trkpt lat="40.409967" lon="-5.451750">
        <ele>1783.0</ele>
        <time>2016-08-06T13:14:31Z</time>
      </trkpt>
      <trkpt lat="40.410017" lon="-5.451867">
        <ele>1779.0</ele>
        <time>2016-08-06T13:14:33Z</time>
      </trkpt>
      <trkpt lat="40.410050" lon="-5.451967">
        <ele>1774.0</ele>
        <time>2016-08-06T13:14:35Z</time>
      </trkpt>
      <trkpt lat="40.410117" lon="-5.452083">
        <ele>1768.0</ele>
        <time>2016-08-06T13:14:37Z</time>
      </trkpt>
      <trkpt lat="40.410150" lon="-5.452250">
        <ele>1765.0</ele>
        <time>2016-08-06T13:14:39Z</time>
      </trkpt>
      <trkpt lat="40.410167" lon="-5.452367">
        <ele>1763.0</ele>
        <time>2016-08-06T13:14:41Z</time>
      </trkpt>
      <trkpt lat="40.410200" lon="-5.452467">
        <ele>1757.0</ele>
        <time>2016-08-06T13:14:43Z</time>
      </trkpt>
      <trkpt lat="40.410267" lon="-5.452567">
        <ele>1753.0</ele>
        <time>2016-08-06T13:14:45Z</time>
      </trkpt>
      <trkpt lat="40.410317" lon="-5.452617">
        <ele>1751.0</ele>
        <time>2016-08-06T13:14:47Z</time>
      </trkpt>
      <trkpt lat="40.410367" lon="-5.452683">
        <ele>1751.0</ele>
        <time>2016-08-06T13:14:49Z</time>
      </trkpt>
      <trkpt lat="40.410417" lon="-5.452750">
        <ele>1752.0</ele>
        <time>2016-08-06T13:14:51Z</time>
      </trkpt>
      <trkpt lat="40.410450" lon="-5.452717">
        <ele>1751.0</ele>
        <time>2016-08-06T13:14:53Z</time>
      </trkpt>
      <trkpt lat="40.410517" lon="-5.452683">
        <ele>1750.0</ele>
        <time>2016-08-06T13:14:55Z</time>
      </trkpt>
      <trkpt lat="40.410583" lon="-5.452633">
        <ele>1750.0</ele>
        <time>2016-08-06T13:14:57Z</time>
      </trkpt>
      <trkpt lat="40.410650" lon="-5.452567">
        <ele>1751.0</ele>
        <time>2016-08-06T13:14:59Z</time>
      </trkpt>
      <trkpt lat="40.410717" lon="-5.452450">
        <ele>1751.0</ele>
        <time>2016-08-06T13:15:01Z</time>
      </trkpt>
      <trkpt lat="40.410750" lon="-5.452283">
        <ele>1753.0</ele>
        <time>2016-08-06T13:15:03Z</time>
      </trkpt>
      <trkpt lat="40.410767" lon="-5.452150">
        <ele>1753.0</ele>
        <time>2016-08-06T13:15:05Z</time>
      </trkpt>
      <trkpt lat="40.410767" lon="-5.452000">
        <ele>1751.0</ele>
        <time>2016-08-06T13:15:07Z</time>
      </trkpt>
      <trkpt lat="40.410750" lon="-5.451800">
        <ele>1746.0</ele>
        <time>2016-08-06T13:15:09Z</time>
      </trkpt>
      <trkpt lat="40.410733" lon="-5.451633">
        <ele>1740.0</ele>
        <time>2016-08-06T13:15:11Z</time>
      </trkpt>
      <trkpt lat="40.410800" lon="-5.451500">
        <ele>1733.0</ele>
        <time>2016-08-06T13:15:13Z</time>
      </trkpt>
      <trkpt lat="40.410900" lon="-5.451383">
        <ele>1728.0</ele>
        <time>2016-08-06T13:15:15Z</time>
      </trkpt>
      <trkpt lat="40.411000" lon="-5.451367">
        <ele>1725.0</ele>
        <time>2016-08-06T13:15:17Z</time>
      </trkpt>
      <trkpt lat="40.411117" lon="-5.451400">
        <ele>1721.0</ele>
        <time>2016-08-06T13:15:19Z</time>
      </trkpt>
      <trkpt lat="40.411250" lon="-5.451450">
        <ele>1717.0</ele>
        <time>2016-08-06T13:15:21Z</time>
      </trkpt>
      <trkpt lat="40.411367" lon="-5.451550">
        <ele>1712.0</ele>
        <time>2016-08-06T13:15:23Z</time>
      </trkpt>
      <trkpt lat="40.411500" lon="-5.451667">
        <ele>1708.0</ele>
        <time>2016-08-06T13:15:25Z</time>
      </trkpt>
      <trkpt lat="40.411600" lon="-5.451767">
        <ele>1707.0</ele>
        <time>2016-08-06T13:15:27Z</time>
      </trkpt>
      <trkpt lat="40.411667" lon="-5.451867">
        <ele>1705.0</ele>
        <time>2016-08-06T13:15:29Z</time>
      </trkpt>
      <trkpt lat="40.411733" lon="-5.452000">
        <ele>1702.0</ele>
        <time>2016-08-06T13:15:31Z</time>
      </trkpt>
      <trkpt lat="40.411817" lon="-5.452133">
        <ele>1697.0</ele>
        <time>2016-08-06T13:15:33Z</time>
      </trkpt>
      <trkpt lat="40.411917" lon="-5.452250">
        <ele>1695.0</ele>
        <time>2016-08-06T13:15:35Z</time>
      </trkpt>
      <trkpt lat="40.412033" lon="-5.452367">
        <ele>1697.0</ele>
        <time>2016-08-06T13:15:37Z</time>
      </trkpt>
      <trkpt lat="40.412100" lon="-5.452467">
        <ele>1695.0</ele>
        <time>2016-08-06T13:15:39Z</time>
      </trkpt>
      <trkpt lat="40.412167" lon="-5.452567">
        <ele>1690.0</ele>
        <time>2016-08-06T13:15:41Z</time>
      </trkpt>
      <trkpt lat="40.412283" lon="-5.452667">
        <ele>1682.0</ele>
        <time>2016-08-06T13:15:43Z</time>
      </trkpt>
      <trkpt lat="40.412417" lon="-5.452767">
        <ele>1678.0</ele>
        <time>2016-08-06T13:15:45Z</time>
      </trkpt>
      <trkpt lat="40.412550" lon="-5.452867">
        <ele>1675.0</ele>
        <time>2016-08-06T13:15:47Z</time>
      </trkpt>
      <trkpt lat="40.412667" lon="-5.452950">
        <ele>1669.0</ele>
        <time>2016-08-06T13:15:49Z</time>
      </trkpt>
      <trkpt lat="40.412817" lon="-5.453033">
        <ele>1662.0</ele>
        <time>2016-08-06T13:15:51Z</time>
      </trkpt>
      <trkpt lat="40.412950" lon="-5.453133">
        <ele>1661.0</ele>
        <time>2016-08-06T13:15:53Z</time>
      </trkpt>
      <trkpt lat="40.413050" lon="-5.453233">
        <ele>1658.0</ele>
        <time>2016-08-06T13:15:55Z</time>
      </trkpt>
      <trkpt lat="40.413167" lon="-5.453317">
        <ele>1649.0</ele>
        <time>2016-08-06T13:15:57Z</time>
      </trkpt>
      <trkpt lat="40.413300" lon="-5.453417">
        <ele>1642.0</ele>
        <time>2016-08-06T13:15:59Z</time>
      </trkpt>
      <trkpt lat="40.413417" lon="-5.453500">
        <ele>1637.0</ele>
        <time>2016-08-06T13:16:01Z</time>
      </trkpt>
      <trkpt lat="40.413567" lon="-5.453617">
        <ele>1631.0</ele>
        <time>2016-08-06T13:16:03Z</time>
      </trkpt>
      <trkpt lat="40.413717" lon="-5.453750">
        <ele>1627.0</ele>
        <time>2016-08-06T13:16:05Z</time>
      </trkpt>
      <trkpt lat="40.413850" lon="-5.453850">
        <ele>1627.0</ele>
        <time>2016-08-06T13:16:07Z</time>
      </trkpt>
      <trkpt lat="40.413933" lon="-5.453917">
        <ele>1625.0</ele>
        <time>2016-08-06T13:16:09Z</time>
      </trkpt>
      <trkpt lat="40.414033" lon="-5.453983">
        <ele>1617.0</ele>
        <time>2016-08-06T13:16:11Z</time>
      </trkpt>
      <trkpt lat="40.414167" lon="-5.454050">
        <ele>1609.0</ele>
        <time>2016-08-06T13:16:13Z</time>
      </trkpt>
      <trkpt lat="40.414300" lon="-5.454133">
        <ele>1607.0</ele>
        <time>2016-08-06T13:16:15Z</time>
      </trkpt>
      <trkpt lat="40.414400" lon="-5.454183">
        <ele>1603.0</ele>
        <time>2016-08-06T13:16:17Z</time>
      </trkpt>
      <trkpt lat="40.414533" lon="-5.454250">
        <ele>1595.0</ele>
        <time>2016-08-06T13:16:19Z</time>
      </trkpt>
      <trkpt lat="40.414700" lon="-5.454350">
        <ele>1592.0</ele>
        <time>2016-08-06T13:16:21Z</time>
      </trkpt>
      <trkpt lat="40.414833" lon="-5.454417">
        <ele>1600.0</ele>
        <time>2016-08-06T13:16:23Z</time>
      </trkpt>
      <trkpt lat="40.414900" lon="-5.454433">
        <ele>1604.0</ele>
        <time>2016-08-06T13:16:25Z</time>
      </trkpt>
      <trkpt lat="40.415000" lon="-5.454467">
        <ele>1602.0</ele>
        <time>2016-08-06T13:16:27Z</time>
      </trkpt>
      <trkpt lat="40.415117" lon="-5.454517">
        <ele>1601.0</ele>
        <time>2016-08-06T13:16:29Z</time>
      </trkpt>
      <trkpt lat="40.415250" lon="-5.454567">
        <ele>1600.0</ele>
        <time>2016-08-06T13:16:31Z</time>
      </trkpt>
      <trkpt lat="40.415400" lon="-5.454550">
        <ele>1603.0</ele>
        <time>2016-08-06T13:16:33Z</time>
      </trkpt>
      <trkpt lat="40.415483" lon="-5.454533">
        <ele>1611.0</ele>
        <time>2016-08-06T13:16:35Z</time>
      </trkpt>
      <trkpt lat="40.415550" lon="-5.454500">
        <ele>1615.0</ele>
        <time>2016-08-06T13:16:37Z</time>
      </trkpt>
      <trkpt lat="40.415650" lon="-5.454400">
        <ele>1619.0</ele>
        <time>2016-08-06T13:16:39Z</time>
      </trkpt>
      <trkpt lat="40.415650" lon="-5.454200">
        <ele>1625.0</ele>
        <time>2016-08-06T13:16:41Z</time>
      </trkpt>
      <trkpt lat="40.415533" lon="-5.453933">
        <ele>1631.0</ele>
        <time>2016-08-06T13:16:43Z</time>
      </trkpt>
      <trkpt lat="40.415333" lon="-5.453767">
        <ele>1639.0</ele>
        <time>2016-08-06T13:16:45Z</time>
      </trkpt>
      <trkpt lat="40.415083" lon="-5.453683">
        <ele>1643.0</ele>
        <time>2016-08-06T13:16:47Z</time>
      </trkpt>
      <trkpt lat="40.414833" lon="-5.453783">
        <ele>1647.0</ele>
        <time>2016-08-06T13:16:49Z</time>
      </trkpt>
      <trkpt lat="40.414683" lon="-5.453933">
        <ele>1655.0</ele>
        <time>2016-08-06T13:16:51Z</time>
      </trkpt>
      <trkpt lat="40.414617" lon="-5.454083">
        <ele>1659.0</ele>
        <time>2016-08-06T13:16:53Z</time>
      </trkpt>
      <trkpt lat="40.414633" lon="-5.454200">
        <ele>1662.0</ele>
        <time>2016-08-06T13:16:55Z</time>
      </trkpt>
      <trkpt lat="40.414700" lon="-5.454300">
        <ele>1667.0</ele>
        <time>2016-08-06T13:16:57Z</time>
      </trkpt>
      <trkpt lat="40.414767" lon="-5.454300">
        <ele>1674.0</ele>
        <time>2016-08-06T13:16:59Z</time>
      </trkpt>
      <trkpt lat="40.414750" lon="-5.454100">
        <ele>1677.0</ele>
        <time>2016-08-06T13:17:01Z</time>
      </trkpt>
      <trkpt lat="40.414683" lon="-5.453867">
        <ele>1681.0</ele>
        <time>2016-08-06T13:17:03Z</time>
      </trkpt>
      <trkpt lat="40.414517" lon="-5.453633">
        <ele>1685.0</ele>
        <time>2016-08-06T13:17:05Z</time>
      </trkpt>
      <trkpt lat="40.414267" lon="-5.453517">
        <ele>1688.0</ele>
        <time>2016-08-06T13:17:07Z</time>
      </trkpt>
      <trkpt lat="40.414017" lon="-5.453550">
        <ele>1692.0</ele>
        <time>2016-08-06T13:17:09Z</time>
      </trkpt>
      <trkpt lat="40.413867" lon="-5.453700">
        <ele>1696.0</ele>
        <time>2016-08-06T13:17:11Z</time>
      </trkpt>
      <trkpt lat="40.413783" lon="-5.453850">
        <ele>1699.0</ele>
        <time>2016-08-06T13:17:13Z</time>
      </trkpt>
      <trkpt lat="40.413800" lon="-5.453983">
        <ele>1700.0</ele>
        <time>2016-08-06T13:17:15Z</time>
      </trkpt>
      <trkpt lat="40.413850" lon="-5.454100">
        <ele>1703.0</ele>
        <time>2016-08-06T13:17:17Z</time>
      </trkpt>
      <trkpt lat="40.413950" lon="-5.454150">
        <ele>1708.0</ele>
        <time>2016-08-06T13:17:19Z</time>
      </trkpt>
      <trkpt lat="40.414033" lon="-5.454117">
        <ele>1713.0</ele>
        <time>2016-08-06T13:17:21Z</time>
      </trkpt>
      <trkpt lat="40.414100" lon="-5.454050">
        <ele>1718.0</ele>
        <time>2016-08-06T13:17:23Z</time>
      </trkpt>
      <trkpt lat="40.414167" lon="-5.453933">
        <ele>1724.0</ele>
        <time>2016-08-06T13:17:25Z</time>
      </trkpt>
      <trkpt lat="40.414133" lon="-5.453767">
        <ele>1729.0</ele>
        <time>2016-08-06T13:17:27Z</time>
      </trkpt>
      <trkpt lat="40.414033" lon="-5.453567">
        <ele>1732.0</ele>
        <time>2016-08-06T13:17:29Z</time>
      </trkpt>
      <trkpt lat="40.413883" lon="-5.453350">
        <ele>1735.0</ele>
        <time>2016-08-06T13:17:31Z</time>
      </trkpt>
      <trkpt lat="40.413617" lon="-5.453250">
        <ele>1739.0</ele>
        <time>2016-08-06T13:17:33Z</time>
      </trkpt>
      <trkpt lat="40.413383" lon="-5.453317">
        <ele>1746.0</ele>
        <time>2016-08-06T13:17:35Z</time>
      </trkpt>
      <trkpt lat="40.413250" lon="-5.453483">
        <ele>1751.0</ele>
        <time>2016-08-06T13:17:37Z</time>
      </trkpt>
      <trkpt lat="40.413183" lon="-5.453650">
        <ele>1757.0</ele>
        <time>2016-08-06T13:17:39Z</time>
      </trkpt>
      <trkpt lat="40.413233" lon="-5.453750">
        <ele>1762.0</ele>
        <time>2016-08-06T13:17:41Z</time>
      </trkpt>
      <trkpt lat="40.413267" lon="-5.453717">
        <ele>1765.0</ele>
        <time>2016-08-06T13:17:43Z</time>
      </trkpt>
      <trkpt lat="40.413300" lon="-5.453617">
        <ele>1768.0</ele>
        <time>2016-08-06T13:17:45Z</time>
      </trkpt>
      <trkpt lat="40.413283" lon="-5.453450">
        <ele>1770.0</ele>
        <time>2016-08-06T13:17:47Z</time>
      </trkpt>
      <trkpt lat="40.413167" lon="-5.453200">
        <ele>1773.0</ele>
        <time>2016-08-06T13:17:49Z</time>
      </trkpt>
      <trkpt lat="40.412983" lon="-5.453017">
        <ele>1778.0</ele>
        <time>2016-08-06T13:17:51Z</time>
      </trkpt>
      <trkpt lat="40.412733" lon="-5.452900">
        <ele>1782.0</ele>
        <time>2016-08-06T13:17:53Z</time>
      </trkpt>
      <trkpt lat="40.412483" lon="-5.452900">
        <ele>1788.0</ele>
        <time>2016-08-06T13:17:55Z</time>
      </trkpt>
      <trkpt lat="40.412283" lon="-5.452967">
        <ele>1797.0</ele>
        <time>2016-08-06T13:17:57Z</time>
      </trkpt>
      <trkpt lat="40.412167" lon="-5.453133">
        <ele>1804.0</ele>
        <time>2016-08-06T13:17:59Z</time>
      </trkpt>
      <trkpt lat="40.412133" lon="-5.453333">
        <ele>1811.0</ele>
        <time>2016-08-06T13:18:01Z</time>
      </trkpt>
      <trkpt lat="40.412183" lon="-5.453400">
        <ele>1818.0</ele>
        <time>2016-08-06T13:18:03Z</time>
      </trkpt>
      <trkpt lat="40.412233" lon="-5.453367">
        <ele>1823.0</ele>
        <time>2016-08-06T13:18:05Z</time>
      </trkpt>
      <trkpt lat="40.412283" lon="-5.453333">
        <ele>1826.0</ele>
        <time>2016-08-06T13:18:07Z</time>
      </trkpt>
      <trkpt lat="40.412317" lon="-5.453217">
        <ele>1828.0</ele>
        <time>2016-08-06T13:18:09Z</time>
      </trkpt>
      <trkpt lat="40.412300" lon="-5.453000">
        <ele>1832.0</ele>
        <time>2016-08-06T13:18:11Z</time>
      </trkpt>
      <trkpt lat="40.412167" lon="-5.452783">
        <ele>1836.0</ele>
        <time>2016-08-06T13:18:13Z</time>
      </trkpt>
      <trkpt lat="40.411983" lon="-5.452617">
        <ele>1839.0</ele>
        <time>2016-08-06T13:18:15Z</time>
      </trkpt>
      <trkpt lat="40.411733" lon="-5.452517">
        <ele>1841.0</ele>
        <time>2016-08-06T13:18:17Z</time>
      </trkpt>
      <trkpt lat="40.411483" lon="-5.452617">
        <ele>1845.0</ele>
        <time>2016-08-06T13:18:19Z</time>
      </trkpt>
      <trkpt lat="40.411317" lon="-5.452817">
        <ele>1852.0</ele>
        <time>2016-08-06T13:18:21Z</time>
      </trkpt>
      <trkpt lat="40.411233" lon="-5.452950">
        <ele>1858.0</ele>
        <time>2016-08-06T13:18:23Z</time>
      </trkpt>
      <trkpt lat="40.411200" lon="-5.453083">
        <ele>1858.0</ele>
        <time>2016-08-06T13:18:25Z</time>
      </trkpt>
      <trkpt lat="40.411250" lon="-5.453200">
        <ele>1857.0</ele>
        <time>2016-08-06T13:18:27Z</time>
      </trkpt>
      <trkpt lat="40.411350" lon="-5.453217">
        <ele>1862.0</ele>
        <time>2016-08-06T13:18:29Z</time>
      </trkpt>
      <trkpt lat="40.411400" lon="-5.453217">
        <ele>1868.0</ele>
        <time>2016-08-06T13:18:31Z</time>
      </trkpt>
      <trkpt lat="40.411433" lon="-5.453167">
        <ele>1870.0</ele>
        <time>2016-08-06T13:18:33Z</time>
      </trkpt>
      <trkpt lat="40.411450" lon="-5.453017">
        <ele>1868.0</ele>
        <time>2016-08-06T13:18:35Z</time>
      </trkpt>
      <trkpt lat="40.411367" lon="-5.452750">
        <ele>1869.0</ele>
        <time>2016-08-06T13:18:37Z</time>
      </trkpt>
      <trkpt lat="40.411250" lon="-5.452550">
        <ele>1874.0</ele>
        <time>2016-08-06T13:18:39Z</time>
      </trkpt>
      <trkpt lat="40.411067" lon="-5.452400">
        <ele>1875.0</ele>
        <time>2016-08-06T13:18:41Z</time>
      </trkpt>
      <trkpt lat="40.410800" lon="-5.452267">
        <ele>1874.0</ele>
        <time>2016-08-06T13:18:43Z</time>
      </trkpt>
      <trkpt lat="40.410517" lon="-5.452283">
        <ele>1879.0</ele>
        <time>2016-08-06T13:18:45Z</time>
      </trkpt>
      <trkpt lat="40.410283" lon="-5.452383">
        <ele>1886.0</ele>
        <time>2016-08-06T13:18:47Z</time>
      </trkpt>
      <trkpt lat="40.410100" lon="-5.452517">
        <ele>1891.0</ele>
        <time>2016-08-06T13:18:49Z</time>
      </trkpt>
      <trkpt lat="40.409983" lon="-5.452700">
        <ele>1892.0</ele>
        <time>2016-08-06T13:18:51Z</time>
      </trkpt>
      <trkpt lat="40.409883" lon="-5.452900">
        <ele>1893.0</ele>
        <time>2016-08-06T13:18:53Z</time>
      </trkpt>
      <trkpt lat="40.409867" lon="-5.453100">
        <ele>1895.0</ele>
        <time>2016-08-06T13:18:55Z</time>
      </trkpt>
      <trkpt lat="40.409900" lon="-5.453200">
        <ele>1899.0</ele>
        <time>2016-08-06T13:18:57Z</time>
      </trkpt>
      <trkpt lat="40.409950" lon="-5.453250">
        <ele>1903.0</ele>
        <time>2016-08-06T13:18:59Z</time>
      </trkpt>
      <trkpt lat="40.410017" lon="-5.453250">
        <ele>1905.0</ele>
        <time>2016-08-06T13:19:01Z</time>
      </trkpt>
      <trkpt lat="40.410050" lon="-5.453117">
        <ele>1904.0</ele>
        <time>2016-08-06T13:19:03Z</time>
      </trkpt>
      <trkpt lat="40.410033" lon="-5.452933">
        <ele>1909.0</ele>
        <time>2016-08-06T13:19:05Z</time>
      </trkpt>
      <trkpt lat="40.409933" lon="-5.452750">
        <ele>1912.0</ele>
        <time>2016-08-06T13:19:07Z</time>
      </trkpt>
      <trkpt lat="40.409750" lon="-5.452550">
        <ele>1913.0</ele>
        <time>2016-08-06T13:19:09Z</time>
      </trkpt>
      <trkpt lat="40.409517" lon="-5.452417">
        <ele>1917.0</ele>
        <time>2016-08-06T13:19:11Z</time>
      </trkpt>
      <trkpt lat="40.409267" lon="-5.452417">
        <ele>1920.0</ele>
        <time>2016-08-06T13:19:13Z</time>
      </trkpt>
      <trkpt lat="40.409067" lon="-5.452533">
        <ele>1922.0</ele>
        <time>2016-08-06T13:19:15Z</time>
      </trkpt>
      <trkpt lat="40.408933" lon="-5.452700">
        <ele>1922.0</ele>
        <time>2016-08-06T13:19:17Z</time>
      </trkpt>
      <trkpt lat="40.408817" lon="-5.452917">
        <ele>1925.0</ele>
        <time>2016-08-06T13:19:19Z</time>
      </trkpt>
      <trkpt lat="40.408750" lon="-5.453133">
        <ele>1927.0</ele>
        <time>2016-08-06T13:19:21Z</time>
      </trkpt>
      <trkpt lat="40.408750" lon="-5.453300">
        <ele>1928.0</ele>
        <time>2016-08-06T13:19:23Z</time>
      </trkpt>
      <trkpt lat="40.408783" lon="-5.453433">
        <ele>1930.0</ele>
        <time>2016-08-06T13:19:25Z</time>
      </trkpt>
      <trkpt lat="40.408833" lon="-5.453483">
        <ele>1929.0</ele>
        <time>2016-08-06T13:19:27Z</time>
      </trkpt>
      <trkpt lat="40.408917" lon="-5.453433">
        <ele>1927.0</ele>
        <time>2016-08-06T13:19:29Z</time>
      </trkpt>
      <trkpt lat="40.408967" lon="-5.453283">
        <ele>1927.0</ele>
        <time>2016-08-06T13:19:31Z</time>
      </trkpt>
      <trkpt lat="40.408967" lon="-5.453100">
        <ele>1931.0</ele>
        <time>2016-08-06T13:19:33Z</time>
      </trkpt>
      <trkpt lat="40.408900" lon="-5.452917">
        <ele>1933.0</ele>
        <time>2016-08-06T13:19:35Z</time>
      </trkpt>
      <trkpt lat="40.408750" lon="-5.452733">
        <ele>1934.0</ele>
        <time>2016-08-06T13:19:37Z</time>
      </trkpt>
      <trkpt lat="40.408533" lon="-5.452583">
        <ele>1933.0</ele>
        <time>2016-08-06T13:19:39Z</time>
      </trkpt>
      <trkpt lat="40.408250" lon="-5.452517">
        <ele>1933.0</ele>
        <time>2016-08-06T13:19:41Z</time>
      </trkpt>
      <trkpt lat="40.407967" lon="-5.452583">
        <ele>1935.0</ele>
        <time>2016-08-06T13:19:43Z</time>
      </trkpt>
      <trkpt lat="40.407750" lon="-5.452733">
        <ele>1934.0</ele>
        <time>2016-08-06T13:19:45Z</time>
      </trkpt>
      <trkpt lat="40.407550" lon="-5.452933">
        <ele>1934.0</ele>
        <time>2016-08-06T13:19:47Z</time>
      </trkpt>
      <trkpt lat="40.407400" lon="-5.453133">
        <ele>1937.0</ele>
        <time>2016-08-06T13:19:49Z</time>
      </trkpt>
      <trkpt lat="40.407333" lon="-5.453333">
        <ele>1937.0</ele>
        <time>2016-08-06T13:19:51Z</time>
      </trkpt>
      <trkpt lat="40.407350" lon="-5.453550">
        <ele>1937.0</ele>
        <time>2016-08-06T13:19:53Z</time>
      </trkpt>
      <trkpt lat="40.407367" lon="-5.453700">
        <ele>1939.0</ele>
        <time>2016-08-06T13:19:55Z</time>
      </trkpt>
      <trkpt lat="40.407400" lon="-5.453833">
        <ele>1939.0</ele>
        <time>2016-08-06T13:19:57Z</time>
      </trkpt>
      <trkpt lat="40.407467" lon="-5.453967">
        <ele>1936.0</ele>
        <time>2016-08-06T13:19:59Z</time>
      </trkpt>
      <trkpt lat="40.407550" lon="-5.454100">
        <ele>1937.0</ele>
        <time>2016-08-06T13:20:01Z</time>
      </trkpt>
      <trkpt lat="40.407583" lon="-5.454183">
        <ele>1938.0</ele>
        <time>2016-08-06T13:20:03Z</time>
      </trkpt>
      <trkpt lat="40.407650" lon="-5.454250">
        <ele>1937.0</ele>
        <time>2016-08-06T13:20:05Z</time>
      </trkpt>
      <trkpt lat="40.407733" lon="-5.454283">
        <ele>1935.0</ele>
        <time>2016-08-06T13:20:07Z</time>
      </trkpt>
      <trkpt lat="40.407817" lon="-5.454317">
        <ele>1936.0</ele>
        <time>2016-08-06T13:20:09Z</time>
      </trkpt>
      <trkpt lat="40.407883" lon="-5.454333">
        <ele>1936.0</ele>
        <time>2016-08-06T13:20:11Z</time>
      </trkpt>
      <trkpt lat="40.407967" lon="-5.454367">
        <ele>1935.0</ele>
        <time>2016-08-06T13:20:13Z</time>
      </trkpt>
      <trkpt lat="40.408017" lon="-5.454417">
        <ele>1935.0</ele>
        <time>2016-08-06T13:20:15Z</time>
      </trkpt>
      <trkpt lat="40.408067" lon="-5.454500">
        <ele>1934.0</ele>
        <time>2016-08-06T13:20:17Z</time>
      </trkpt>
      <trkpt lat="40.408133" lon="-5.454583">
        <ele>1931.0</ele>
        <time>2016-08-06T13:20:19Z</time>
      </trkpt>
      <trkpt lat="40.408183" lon="-5.454683">
        <ele>1931.0</ele>
        <time>2016-08-06T13:20:21Z</time>
      </trkpt>
      <trkpt lat="40.408217" lon="-5.454783">
        <ele>1931.0</ele>
        <time>2016-08-06T13:20:23Z</time>
      </trkpt>
      <trkpt lat="40.408250" lon="-5.454883">
        <ele>1928.0</ele>
        <time>2016-08-06T13:20:25Z</time>
      </trkpt>
      <trkpt lat="40.408300" lon="-5.455017">
        <ele>1926.0</ele>
        <time>2016-08-06T13:20:27Z</time>
      </trkpt>
      <trkpt lat="40.408317" lon="-5.455150">
        <ele>1926.0</ele>
        <time>2016-08-06T13:20:29Z</time>
      </trkpt>
      <trkpt lat="40.408350" lon="-5.455267">
        <ele>1924.0</ele>
        <time>2016-08-06T13:20:31Z</time>
      </trkpt>
      <trkpt lat="40.408383" lon="-5.455417">
        <ele>1921.0</ele>
        <time>2016-08-06T13:20:33Z</time>
      </trkpt>
      <trkpt lat="40.408433" lon="-5.455567">
        <ele>1919.0</ele>
        <time>2016-08-06T13:20:35Z</time>
      </trkpt>
      <trkpt lat="40.408500" lon="-5.455683">
        <ele>1917.0</ele>
        <time>2016-08-06T13:20:37Z</time>
      </trkpt>
      <trkpt lat="40.408550" lon="-5.455800">
        <ele>1915.0</ele>
        <time>2016-08-06T13:20:39Z</time>
      </trkpt>
      <trkpt lat="40.408633" lon="-5.455900">
        <ele>1912.0</ele>
        <time>2016-08-06T13:20:41Z</time>
      </trkpt>
      <trkpt lat="40.408700" lon="-5.456017">
        <ele>1909.0</ele>
        <time>2016-08-06T13:20:43Z</time>
      </trkpt>
      <trkpt lat="40.408750" lon="-5.456133">
        <ele>1906.0</ele>
        <time>2016-08-06T13:20:45Z</time>
      </trkpt>
      <trkpt lat="40.408817" lon="-5.456267">
        <ele>1902.0</ele>
        <time>2016-08-06T13:20:47Z</time>
      </trkpt>
      <trkpt lat="40.408867" lon="-5.456417">
        <ele>1898.0</ele>
        <time>2016-08-06T13:20:49Z</time>
      </trkpt>
      <trkpt lat="40.408900" lon="-5.456583">
        <ele>1895.0</ele>
        <time>2016-08-06T13:20:51Z</time>
      </trkpt>
      <trkpt lat="40.408917" lon="-5.456733">
        <ele>1891.0</ele>
        <time>2016-08-06T13:20:53Z</time>
      </trkpt>
      <trkpt lat="40.408950" lon="-5.456900">
        <ele>1885.0</ele>
        <time>2016-08-06T13:20:55Z</time>
      </trkpt>
      <trkpt lat="40.409000" lon="-5.457067">
        <ele>1881.0</ele>
        <time>2016-08-06T13:20:57Z</time>
      </trkpt>
      <trkpt lat="40.409017" lon="-5.457250">
        <ele>1879.0</ele>
        <time>2016-08-06T13:20:59Z</time>
      </trkpt>
      <trkpt lat="40.409033" lon="-5.457417">
        <ele>1877.0</ele>
        <time>2016-08-06T13:21:01Z</time>
      </trkpt>
      <trkpt lat="40.409067" lon="-5.457583">
        <ele>1880.0</ele>
        <time>2016-08-06T13:21:03Z</time>
      </trkpt>
      <trkpt lat="40.409067" lon="-5.457733">
        <ele>1886.0</ele>
        <time>2016-08-06T13:21:05Z</time>
      </trkpt>
      <trkpt lat="40.409033" lon="-5.457900">
        <ele>1889.0</ele>
        <time>2016-08-06T13:21:07Z</time>
      </trkpt>
      <trkpt lat="40.408983" lon="-5.458133">
        <ele>1893.0</ele>
        <time>2016-08-06T13:21:09Z</time>
      </trkpt>
      <trkpt lat="40.408900" lon="-5.458367">
        <ele>1898.0</ele>
        <time>2016-08-06T13:21:11Z</time>
      </trkpt>
      <trkpt lat="40.408817" lon="-5.458600">
        <ele>1903.0</ele>
        <time>2016-08-06T13:21:13Z</time>
      </trkpt>
      <trkpt lat="40.408717" lon="-5.458833">
        <ele>1908.0</ele>
        <time>2016-08-06T13:21:15Z</time>
      </trkpt>
      <trkpt lat="40.408633" lon="-5.459050">
        <ele>1911.0</ele>
        <time>2016-08-06T13:21:17Z</time>
      </trkpt>
      <trkpt lat="40.408617" lon="-5.459200">
        <ele>1910.0</ele>
        <time>2016-08-06T13:21:19Z</time>
      </trkpt>
      <trkpt lat="40.408667" lon="-5.459333">
        <ele>1909.0</ele>
        <time>2016-08-06T13:21:21Z</time>
      </trkpt>
      <trkpt lat="40.408733" lon="-5.459367">
        <ele>1909.0</ele>
        <time>2016-08-06T13:21:23Z</time>
      </trkpt>
      <trkpt lat="40.408783" lon="-5.459300">
        <ele>1910.0</ele>
        <time>2016-08-06T13:21:25Z</time>
      </trkpt>
      <trkpt lat="40.408817" lon="-5.459183">
        <ele>1912.0</ele>
        <time>2016-08-06T13:21:27Z</time>
      </trkpt>
      <trkpt lat="40.408800" lon="-5.459000">
        <ele>1913.0</ele>
        <time>2016-08-06T13:21:29Z</time>
      </trkpt>
      <trkpt lat="40.408733" lon="-5.458800">
        <ele>1917.0</ele>
        <time>2016-08-06T13:21:31Z</time>
      </trkpt>
      <trkpt lat="40.408583" lon="-5.458617">
        <ele>1923.0</ele>
        <time>2016-08-06T13:21:33Z</time>
      </trkpt>
      <trkpt lat="40.408400" lon="-5.458483">
        <ele>1927.0</ele>
        <time>2016-08-06T13:21:35Z</time>
      </trkpt>
      <trkpt lat="40.408117" lon="-5.458417">
        <ele>1928.0</ele>
        <time>2016-08-06T13:21:37Z</time>
      </trkpt>
      <trkpt lat="40.407817" lon="-5.458483">
        <ele>1931.0</ele>
        <time>2016-08-06T13:21:39Z</time>
      </trkpt>
      <trkpt lat="40.407567" lon="-5.458633">
        <ele>1937.0</ele>
        <time>2016-08-06T13:21:41Z</time>
      </trkpt>
      <trkpt lat="40.407400" lon="-5.458850">
        <ele>1940.0</ele>
        <time>2016-08-06T13:21:43Z</time>
      </trkpt>
      <trkpt lat="40.407283" lon="-5.459117">
        <ele>1942.0</ele>
        <time>2016-08-06T13:21:45Z</time>
      </trkpt>
      <trkpt lat="40.407233" lon="-5.459317">
        <ele>1946.0</ele>
        <time>2016-08-06T13:21:47Z</time>
      </trkpt>
      <trkpt lat="40.407217" lon="-5.459500">
        <ele>1946.0</ele>
        <time>2016-08-06T13:21:49Z</time>
      </trkpt>
      <trkpt lat="40.407217" lon="-5.459700">
        <ele>1946.0</ele>
        <time>2016-08-06T13:21:51Z</time>
      </trkpt>
      <trkpt lat="40.407250" lon="-5.459850">
        <ele>1947.0</ele>
        <time>2016-08-06T13:21:53Z</time>
      </trkpt>
      <trkpt lat="40.407283" lon="-5.459950">
        <ele>1948.0</ele>
        <time>2016-08-06T13:21:55Z</time>
      </trkpt>
      <trkpt lat="40.407350" lon="-5.460033">
        <ele>1949.0</ele>
        <time>2016-08-06T13:21:57Z</time>
      </trkpt>
      <trkpt lat="40.407417" lon="-5.460067">
        <ele>1951.0</ele>
        <time>2016-08-06T13:21:59Z</time>
      </trkpt>
      <trkpt lat="40.407467" lon="-5.460050">
        <ele>1952.0</ele>
        <time>2016-08-06T13:22:01Z</time>
      </trkpt>
      <trkpt lat="40.407483" lon="-5.459900">
        <ele>1950.0</ele>
        <time>2016-08-06T13:22:03Z</time>
      </trkpt>
      <trkpt lat="40.407467" lon="-5.459700">
        <ele>1953.0</ele>
        <time>2016-08-06T13:22:05Z</time>
      </trkpt>
      <trkpt lat="40.407383" lon="-5.459517">
        <ele>1957.0</ele>
        <time>2016-08-06T13:22:07Z</time>
      </trkpt>
      <trkpt lat="40.407217" lon="-5.459350">
        <ele>1957.0</ele>
        <time>2016-08-06T13:22:09Z</time>
      </trkpt>
      <trkpt lat="40.406950" lon="-5.459267">
        <ele>1957.0</ele>
        <time>2016-08-06T13:22:11Z</time>
      </trkpt>
      <trkpt lat="40.406667" lon="-5.459300">
        <ele>1959.0</ele>
        <time>2016-08-06T13:22:13Z</time>
      </trkpt>
      <trkpt lat="40.406433" lon="-5.459467">
        <ele>1960.0</ele>
        <time>2016-08-06T13:22:15Z</time>
      </trkpt>
      <trkpt lat="40.406267" lon="-5.459683">
        <ele>1959.0</ele>
        <time>2016-08-06T13:22:17Z</time>
      </trkpt>
      <trkpt lat="40.406167" lon="-5.459917">
        <ele>1958.0</ele>
        <time>2016-08-06T13:22:19Z</time>
      </trkpt>
      <trkpt lat="40.406100" lon="-5.460200">
        <ele>1958.0</ele>
        <time>2016-08-06T13:22:21Z</time>
      </trkpt>
      <trkpt lat="40.406050" lon="-5.460467">
        <ele>1962.0</ele>
        <time>2016-08-06T13:22:23Z</time>
      </trkpt>
      <trkpt lat="40.406000" lon="-5.460700">
        <ele>1964.0</ele>
        <time>2016-08-06T13:22:25Z</time>
      </trkpt>
      <trkpt lat="40.405983" lon="-5.460933">
        <ele>1964.0</ele>
        <time>2016-08-06T13:22:27Z</time>
      </trkpt>
      <trkpt lat="40.405983" lon="-5.461183">
        <ele>1966.0</ele>
        <time>2016-08-06T13:22:29Z</time>
      </trkpt>
      <trkpt lat="40.405967" lon="-5.461400">
        <ele>1967.0</ele>
        <time>2016-08-06T13:22:31Z</time>
      </trkpt>
      <trkpt lat="40.406000" lon="-5.461633">
        <ele>1967.0</ele>
        <time>2016-08-06T13:22:33Z</time>
      </trkpt>
      <trkpt lat="40.406017" lon="-5.461850">
        <ele>1968.0</ele>
        <time>2016-08-06T13:22:35Z</time>
      </trkpt>
      <trkpt lat="40.406033" lon="-5.462050">
        <ele>1968.0</ele>
        <time>2016-08-06T13:22:37Z</time>
      </trkpt>
      <trkpt lat="40.406067" lon="-5.462250">
        <ele>1968.0</ele>
        <time>2016-08-06T13:22:39Z</time>
      </trkpt>
      <trkpt lat="40.406083" lon="-5.462450">
        <ele>1967.0</ele>
        <time>2016-08-06T13:22:41Z</time>
      </trkpt>
      <trkpt lat="40.406100" lon="-5.462633">
        <ele>1963.0</ele>
        <time>2016-08-06T13:22:43Z</time>
      </trkpt>
      <trkpt lat="40.406150" lon="-5.462850">
        <ele>1958.0</ele>
        <time>2016-08-06T13:22:45Z</time>
      </trkpt>
      <trkpt lat="40.406183" lon="-5.463067">
        <ele>1955.0</ele>
        <time>2016-08-06T13:22:47Z</time>
      </trkpt>
      <trkpt lat="40.406217" lon="-5.463267">
        <ele>1953.0</ele>
        <time>2016-08-06T13:22:49Z</time>
      </trkpt>
      <trkpt lat="40.406233" lon="-5.463467">
        <ele>1949.0</ele>
        <time>2016-08-06T13:22:51Z</time>
      </trkpt>
      <trkpt lat="40.406283" lon="-5.463667">
        <ele>1944.0</ele>
        <time>2016-08-06T13:22:53Z</time>
      </trkpt>
      <trkpt lat="40.406350" lon="-5.463867">
        <ele>1939.0</ele>
        <time>2016-08-06T13:22:55Z</time>
      </trkpt>
      <trkpt lat="40.406400" lon="-5.464083">
        <ele>1935.0</ele>
        <time>2016-08-06T13:22:57Z</time>
      </trkpt>
      <trkpt lat="40.406450" lon="-5.464267">
        <ele>1931.0</ele>
        <time>2016-08-06T13:22:59Z</time>
      </trkpt>
      <trkpt lat="40.406517" lon="-5.464450">
        <ele>1924.0</ele>
        <time>2016-08-06T13:23:01Z</time>
      </trkpt>
      <trkpt lat="40.406600" lon="-5.464667">
        <ele>1918.0</ele>
        <time>2016-08-06T13:23:03Z</time>
      </trkpt>
      <trkpt lat="40.406667" lon="-5.464850">
        <ele>1915.0</ele>
        <time>2016-08-06T13:23:05Z</time>
      </trkpt>
      <trkpt lat="40.406717" lon="-5.465017">
        <ele>1909.0</ele>
        <time>2016-08-06T13:23:07Z</time>
      </trkpt>
      <trkpt lat="40.406800" lon="-5.465217">
        <ele>1905.0</ele>
        <time>2016-08-06T13:23:09Z</time>
      </trkpt>
      <trkpt lat="40.406867" lon="-5.465367">
        <ele>1901.0</ele>
        <time>2016-08-06T13:23:11Z</time>
      </trkpt>
      <trkpt lat="40.406950" lon="-5.465500">
        <ele>1897.0</ele>
        <time>2016-08-06T13:23:13Z</time>
      </trkpt>
      <trkpt lat="40.407017" lon="-5.465650">
        <ele>1890.0</ele>
        <time>2016-08-06T13:23:15Z</time>
      </trkpt>
      <trkpt lat="40.407100" lon="-5.465817">
        <ele>1885.0</ele>
        <time>2016-08-06T13:23:17Z</time>
      </trkpt>
      <trkpt lat="40.407183" lon="-5.465933">
        <ele>1882.0</ele>
        <time>2016-08-06T13:23:19Z</time>
      </trkpt>
      <trkpt lat="40.407233" lon="-5.466100">
        <ele>1876.0</ele>
        <time>2016-08-06T13:23:21Z</time>
      </trkpt>
      <trkpt lat="40.407317" lon="-5.466250">
        <ele>1870.0</ele>
        <time>2016-08-06T13:23:23Z</time>
      </trkpt>
      <trkpt lat="40.407383" lon="-5.466400">
        <ele>1864.0</ele>
        <time>2016-08-06T13:23:25Z</time>
      </trkpt>
      <trkpt lat="40.407450" lon="-5.466583">
        <ele>1858.0</ele>
        <time>2016-08-06T13:23:27Z</time>
      </trkpt>
      <trkpt lat="40.407533" lon="-5.466733">
        <ele>1855.0</ele>
        <time>2016-08-06T13:23:29Z</time>
      </trkpt>
      <trkpt lat="40.407583" lon="-5.466883">
        <ele>1850.0</ele>
        <time>2016-08-06T13:23:31Z</time>
      </trkpt>
      <trkpt lat="40.407633" lon="-5.467067">
        <ele>1846.0</ele>
        <time>2016-08-06T13:23:33Z</time>
      </trkpt>
      <trkpt lat="40.407683" lon="-5.467183">
        <ele>1840.0</ele>
        <time>2016-08-06T13:23:35Z</time>
      </trkpt>
      <trkpt lat="40.407750" lon="-5.467317">
        <ele>1830.0</ele>
        <time>2016-08-06T13:23:37Z</time>
      </trkpt>
      <trkpt lat="40.407817" lon="-5.467533">
        <ele>1820.0</ele>
        <time>2016-08-06T13:23:39Z</time>
      </trkpt>
      <trkpt lat="40.407883" lon="-5.467750">
        <ele>1816.0</ele>
        <time>2016-08-06T13:23:41Z</time>
      </trkpt>
      <trkpt lat="40.407933" lon="-5.467900">
        <ele>1810.0</ele>
        <time>2016-08-06T13:23:43Z</time>
      </trkpt>
      <trkpt lat="40.408000" lon="-5.468100">
        <ele>1800.0</ele>
        <time>2016-08-06T13:23:45Z</time>
      </trkpt>
      <trkpt lat="40.408067" lon="-5.468300">
        <ele>1794.0</ele>
        <time>2016-08-06T13:23:47Z</time>
      </trkpt>
      <trkpt lat="40.408117" lon="-5.468483">
        <ele>1790.0</ele>
        <time>2016-08-06T13:23:49Z</time>
      </trkpt>
      <trkpt lat="40.408167" lon="-5.468683">
        <ele>1783.0</ele>
        <time>2016-08-06T13:23:51Z</time>
      </trkpt>
      <trkpt lat="40.408233" lon="-5.468883">
        <ele>1778.0</ele>
        <time>2016-08-06T13:23:53Z</time>
      </trkpt>
      <trkpt lat="40.408300" lon="-5.469083">
        <ele>1775.0</ele>
        <time>2016-08-06T13:23:55Z</time>
      </trkpt>
      <trkpt lat="40.408333" lon="-5.469283">
        <ele>1772.0</ele>
        <time>2016-08-06T13:23:57Z</time>
      </trkpt>
      <trkpt lat="40.408350" lon="-5.469500">
        <ele>1768.0</ele>
        <time>2016-08-06T13:23:59Z</time>
      </trkpt>
      <trkpt lat="40.408417" lon="-5.469700">
        <ele>1765.0</ele>
        <time>2016-08-06T13:24:01Z</time>
      </trkpt>
      <trkpt lat="40.408467" lon="-5.469883">
        <ele>1762.0</ele>
        <time>2016-08-06T13:24:03Z</time>
      </trkpt>
      <trkpt lat="40.408550" lon="-5.470067">
        <ele>1760.0</ele>
        <time>2016-08-06T13:24:05Z</time>
      </trkpt>
      <trkpt lat="40.408633" lon="-5.470250">
        <ele>1758.0</ele>
        <time>2016-08-06T13:24:07Z</time>
      </trkpt>
      <trkpt lat="40.408733" lon="-5.470450">
        <ele>1756.0</ele>
        <time>2016-08-06T13:24:09Z</time>
      </trkpt>
      <trkpt lat="40.408833" lon="-5.470650">
        <ele>1756.0</ele>
        <time>2016-08-06T13:24:11Z</time>
      </trkpt>
      <trkpt lat="40.408917" lon="-5.470867">
        <ele>1757.0</ele>
        <time>2016-08-06T13:24:13Z</time>
      </trkpt>
      <trkpt lat="40.409033" lon="-5.471033">
        <ele>1762.0</ele>
        <time>2016-08-06T13:24:15Z</time>
      </trkpt>
      <trkpt lat="40.409133" lon="-5.471183">
        <ele>1768.0</ele>
        <time>2016-08-06T13:24:17Z</time>
      </trkpt>
      <trkpt lat="40.409200" lon="-5.471317">
        <ele>1772.0</ele>
        <time>2016-08-06T13:24:19Z</time>
      </trkpt>
      <trkpt lat="40.409333" lon="-5.471417">
        <ele>1774.0</ele>
        <time>2016-08-06T13:24:21Z</time>
      </trkpt>
      <trkpt lat="40.409467" lon="-5.471400">
        <ele>1780.0</ele>
        <time>2016-08-06T13:24:23Z</time>
      </trkpt>
      <trkpt lat="40.409550" lon="-5.471333">
        <ele>1784.0</ele>
        <time>2016-08-06T13:24:25Z</time>
      </trkpt>
      <trkpt lat="40.409617" lon="-5.471167">
        <ele>1785.0</ele>
        <time>2016-08-06T13:24:27Z</time>
      </trkpt>
      <trkpt lat="40.409583" lon="-5.470950">
        <ele>1786.0</ele>
        <time>2016-08-06T13:24:29Z</time>
      </trkpt>
      <trkpt lat="40.409417" lon="-5.470767">
        <ele>1784.0</ele>
        <time>2016-08-06T13:24:31Z</time>
      </trkpt>
      <trkpt lat="40.409200" lon="-5.470683">
        <ele>1784.0</ele>
        <time>2016-08-06T13:24:33Z</time>
      </trkpt>
      <trkpt lat="40.408967" lon="-5.470717">
        <ele>1786.0</ele>
        <time>2016-08-06T13:24:35Z</time>
      </trkpt>
      <trkpt lat="40.408817" lon="-5.470900">
        <ele>1786.0</ele>
        <time>2016-08-06T13:24:37Z</time>
      </trkpt>
      <trkpt lat="40.408733" lon="-5.471150">
        <ele>1788.0</ele>
        <time>2016-08-06T13:24:39Z</time>
      </trkpt>
      <trkpt lat="40.408717" lon="-5.471400">
        <ele>1790.0</ele>
        <time>2016-08-06T13:24:41Z</time>
      </trkpt>
      <trkpt lat="40.408733" lon="-5.471650">
        <ele>1793.0</ele>
        <time>2016-08-06T13:24:43Z</time>
      </trkpt>
      <trkpt lat="40.408767" lon="-5.471883">
        <ele>1798.0</ele>
        <time>2016-08-06T13:24:45Z</time>
      </trkpt>
      <trkpt lat="40.408800" lon="-5.472117">
        <ele>1803.0</ele>
        <time>2016-08-06T13:24:47Z</time>
      </trkpt>
      <trkpt lat="40.408833" lon="-5.472333">
        <ele>1808.0</ele>
        <time>2016-08-06T13:24:49Z</time>
      </trkpt>
      <trkpt lat="40.408900" lon="-5.472517">
        <ele>1812.0</ele>
        <time>2016-08-06T13:24:51Z</time>
      </trkpt>
      <trkpt lat="40.409000" lon="-5.472650">
        <ele>1815.0</ele>
        <time>2016-08-06T13:24:53Z</time>
      </trkpt>
      <trkpt lat="40.409150" lon="-5.472600">
        <ele>1816.0</ele>
        <time>2016-08-06T13:24:55Z</time>
      </trkpt>
      <trkpt lat="40.409250" lon="-5.472417">
        <ele>1817.0</ele>
        <time>2016-08-06T13:24:57Z</time>
      </trkpt>
      <trkpt lat="40.409233" lon="-5.472233">
        <ele>1822.0</ele>
        <time>2016-08-06T13:24:59Z</time>
      </trkpt>
      <trkpt lat="40.409150" lon="-5.472083">
        <ele>1821.0</ele>
        <time>2016-08-06T13:25:01Z</time>
      </trkpt>
      <trkpt lat="40.409050" lon="-5.471900">
        <ele>1820.0</ele>
        <time>2016-08-06T13:25:03Z</time>
      </trkpt>
      <trkpt lat="40.408867" lon="-5.471800">
        <ele>1822.0</ele>
        <time>2016-08-06T13:25:05Z</time>
      </trkpt>
      <trkpt lat="40.408650" lon="-5.471900">
        <ele>1822.0</ele>
        <time>2016-08-06T13:25:07Z</time>
      </trkpt>
      <trkpt lat="40.408500" lon="-5.472083">
        <ele>1826.0</ele>
        <time>2016-08-06T13:25:09Z</time>
      </trkpt>
      <trkpt lat="40.408450" lon="-5.472333">
        <ele>1831.0</ele>
        <time>2016-08-06T13:25:11Z</time>
      </trkpt>
      <trkpt lat="40.408450" lon="-5.472533">
        <ele>1834.0</ele>
        <time>2016-08-06T13:25:13Z</time>
      </trkpt>
      <trkpt lat="40.408467" lon="-5.472733">
        <ele>1836.0</ele>
        <time>2016-08-06T13:25:15Z</time>
      </trkpt>
      <trkpt lat="40.408533" lon="-5.472900">
        <ele>1838.0</ele>
        <time>2016-08-06T13:25:17Z</time>
      </trkpt>
      <trkpt lat="40.408617" lon="-5.473083">
        <ele>1839.0</ele>
        <time>2016-08-06T13:25:19Z</time>
      </trkpt>
      <trkpt lat="40.408733" lon="-5.473200">
        <ele>1841.0</ele>
        <time>2016-08-06T13:25:21Z</time>
      </trkpt>
      <trkpt lat="40.408833" lon="-5.473250">
        <ele>1842.0</ele>
        <time>2016-08-06T13:25:23Z</time>
      </trkpt>
      <trkpt lat="40.408967" lon="-5.473267">
        <ele>1842.0</ele>
        <time>2016-08-06T13:25:25Z</time>
      </trkpt>
      <trkpt lat="40.409117" lon="-5.473183">
        <ele>1840.0</ele>
        <time>2016-08-06T13:25:27Z</time>
      </trkpt>
      <trkpt lat="40.409250" lon="-5.473033">
        <ele>1841.0</ele>
        <time>2016-08-06T13:25:29Z</time>
      </trkpt>
      <trkpt lat="40.409350" lon="-5.472933">
        <ele>1841.0</ele>
        <time>2016-08-06T13:25:31Z</time>
      </trkpt>
      <trkpt lat="40.409433" lon="-5.472767">
        <ele>1838.0</ele>
        <time>2016-08-06T13:25:33Z</time>
      </trkpt>
      <trkpt lat="40.409433" lon="-5.472567">
        <ele>1834.0</ele>
        <time>2016-08-06T13:25:35Z</time>
      </trkpt>
      <trkpt lat="40.409333" lon="-5.472400">
        <ele>1828.0</ele>
        <time>2016-08-06T13:25:37Z</time>
      </trkpt>
      <trkpt lat="40.409150" lon="-5.472350">
        <ele>1819.0</ele>
        <time>2016-08-06T13:25:39Z</time>
      </trkpt>
      <trkpt lat="40.408933" lon="-5.472483">
        <ele>1809.0</ele>
        <time>2016-08-06T13:25:41Z</time>
      </trkpt>
      <trkpt lat="40.408833" lon="-5.472733">
        <ele>1805.0</ele>
        <time>2016-08-06T13:25:43Z</time>
      </trkpt>
      <trkpt lat="40.408833" lon="-5.472967">
        <ele>1802.0</ele>
        <time>2016-08-06T13:25:45Z</time>
      </trkpt>
      <trkpt lat="40.408900" lon="-5.473200">
        <ele>1800.0</ele>
        <time>2016-08-06T13:25:47Z</time>
      </trkpt>
      <trkpt lat="40.408983" lon="-5.473433">
        <ele>1801.0</ele>
        <time>2016-08-06T13:25:49Z</time>
      </trkpt>
      <trkpt lat="40.409050" lon="-5.473633">
        <ele>1801.0</ele>
        <time>2016-08-06T13:25:51Z</time>
      </trkpt>
      <trkpt lat="40.409100" lon="-5.473817">
        <ele>1799.0</ele>
        <time>2016-08-06T13:25:53Z</time>
      </trkpt>
      <trkpt lat="40.409150" lon="-5.474017">
        <ele>1797.0</ele>
        <time>2016-08-06T13:25:55Z</time>
      </trkpt>
      <trkpt lat="40.409200" lon="-5.474217">
        <ele>1795.0</ele>
        <time>2016-08-06T13:25:57Z</time>
      </trkpt>
      <trkpt lat="40.409250" lon="-5.474417">
        <ele>1794.0</ele>
        <time>2016-08-06T13:25:59Z</time>
      </trkpt>
      <trkpt lat="40.409300" lon="-5.474600">
        <ele>1790.0</ele>
        <time>2016-08-06T13:26:01Z</time>
      </trkpt>
      <trkpt lat="40.409367" lon="-5.474783">
        <ele>1787.0</ele>
        <time>2016-08-06T13:26:03Z</time>
      </trkpt>
      <trkpt lat="40.409467" lon="-5.474917">
        <ele>1783.0</ele>
        <time>2016-08-06T13:26:05Z</time>
      </trkpt>
      <trkpt lat="40.409567" lon="-5.475067">
        <ele>1779.0</ele>
        <time>2016-08-06T13:26:07Z</time>
      </trkpt>
      <trkpt lat="40.409650" lon="-5.475217">
        <ele>1777.0</ele>
        <time>2016-08-06T13:26:09Z</time>
      </trkpt>
      <trkpt lat="40.409717" lon="-5.475367">
        <ele>1771.0</ele>
        <time>2016-08-06T13:26:11Z</time>
      </trkpt>
      <trkpt lat="40.409817" lon="-5.475533">
        <ele>1764.0</ele>
        <time>2016-08-06T13:26:13Z</time>
      </trkpt>
      <trkpt lat="40.409933" lon="-5.475683">
        <ele>1759.0</ele>
        <time>2016-08-06T13:26:15Z</time>
      </trkpt>
      <trkpt lat="40.410000" lon="-5.475867">
        <ele>1755.0</ele>
        <time>2016-08-06T13:26:17Z</time>
      </trkpt>
      <trkpt lat="40.410083" lon="-5.476050">
        <ele>1751.0</ele>
        <time>2016-08-06T13:26:19Z</time>
      </trkpt>
      <trkpt lat="40.410150" lon="-5.476233">
        <ele>1746.0</ele>
        <time>2016-08-06T13:26:21Z</time>
      </trkpt>
      <trkpt lat="40.410217" lon="-5.476450">
        <ele>1740.0</ele>
        <time>2016-08-06T13:26:23Z</time>
      </trkpt>
      <trkpt lat="40.410317" lon="-5.476683">
        <ele>1735.0</ele>
        <time>2016-08-06T13:26:25Z</time>
      </trkpt>
      <trkpt lat="40.410417" lon="-5.476917">
        <ele>1732.0</ele>
        <time>2016-08-06T13:26:27Z</time>
      </trkpt>
      <trkpt lat="40.410517" lon="-5.477133">
        <ele>1732.0</ele>
        <time>2016-08-06T13:26:29Z</time>
      </trkpt>
      <trkpt lat="40.410617" lon="-5.477333">
        <ele>1729.0</ele>
        <time>2016-08-06T13:26:31Z</time>
      </trkpt>
      <trkpt lat="40.410733" lon="-5.477533">
        <ele>1726.0</ele>
        <time>2016-08-06T13:26:33Z</time>
      </trkpt>
      <trkpt lat="40.410833" lon="-5.477733">
        <ele>1724.0</ele>
        <time>2016-08-06T13:26:35Z</time>
      </trkpt>
      <trkpt lat="40.410950" lon="-5.477917">
        <ele>1721.0</ele>
        <time>2016-08-06T13:26:37Z</time>
      </trkpt>
      <trkpt lat="40.411067" lon="-5.478117">
        <ele>1718.0</ele>
        <time>2016-08-06T13:26:39Z</time>
      </trkpt>
      <trkpt lat="40.411183" lon="-5.478317">
        <ele>1717.0</ele>
        <time>2016-08-06T13:26:41Z</time>
      </trkpt>
      <trkpt lat="40.411283" lon="-5.478483">
        <ele>1717.0</ele>
        <time>2016-08-06T13:26:43Z</time>
      </trkpt>
      <trkpt lat="40.411367" lon="-5.478667">
        <ele>1715.0</ele>
        <time>2016-08-06T13:26:45Z</time>
      </trkpt>
      <trkpt lat="40.411483" lon="-5.478850">
        <ele>1715.0</ele>
        <time>2016-08-06T13:26:47Z</time>
      </trkpt>
      <trkpt lat="40.411567" lon="-5.479017">
        <ele>1715.0</ele>
        <time>2016-08-06T13:26:49Z</time>
      </trkpt>
      <trkpt lat="40.411650" lon="-5.479183">
        <ele>1714.0</ele>
        <time>2016-08-06T13:26:51Z</time>
      </trkpt>
      <trkpt lat="40.411733" lon="-5.479350">
        <ele>1711.0</ele>
        <time>2016-08-06T13:26:53Z</time>
      </trkpt>
      <trkpt lat="40.411833" lon="-5.479517">
        <ele>1707.0</ele>
        <time>2016-08-06T13:26:55Z</time>
      </trkpt>
      <trkpt lat="40.411933" lon="-5.479650">
        <ele>1704.0</ele>
        <time>2016-08-06T13:26:57Z</time>
      </trkpt>
      <trkpt lat="40.412033" lon="-5.479783">
        <ele>1701.0</ele>
        <time>2016-08-06T13:26:59Z</time>
      </trkpt>
      <trkpt lat="40.412117" lon="-5.479933">
        <ele>1697.0</ele>
        <time>2016-08-06T13:27:01Z</time>
      </trkpt>
      <trkpt lat="40.412217" lon="-5.480083">
        <ele>1694.0</ele>
        <time>2016-08-06T13:27:03Z</time>
      </trkpt>
      <trkpt lat="40.412317" lon="-5.480250">
        <ele>1692.0</ele>
        <time>2016-08-06T13:27:05Z</time>
      </trkpt>
      <trkpt lat="40.412400" lon="-5.480400">
        <ele>1690.0</ele>
        <time>2016-08-06T13:27:07Z</time>
      </trkpt>
      <trkpt lat="40.412483" lon="-5.480550">
        <ele>1687.0</ele>
        <time>2016-08-06T13:27:09Z</time>
      </trkpt>
      <trkpt lat="40.412583" lon="-5.480733">
        <ele>1682.0</ele>
        <time>2016-08-06T13:27:11Z</time>
      </trkpt>
      <trkpt lat="40.412667" lon="-5.480900">
        <ele>1679.0</ele>
        <time>2016-08-06T13:27:13Z</time>
      </trkpt>
      <trkpt lat="40.412767" lon="-5.481050">
        <ele>1676.0</ele>
        <time>2016-08-06T13:27:15Z</time>
      </trkpt>
      <trkpt lat="40.412850" lon="-5.481150">
        <ele>1674.0</ele>
        <time>2016-08-06T13:27:17Z</time>
      </trkpt>
      <trkpt lat="40.412933" lon="-5.481233">
        <ele>1673.0</ele>
        <time>2016-08-06T13:27:19Z</time>
      </trkpt>
      <trkpt lat="40.413017" lon="-5.481317">
        <ele>1671.0</ele>
        <time>2016-08-06T13:27:21Z</time>
      </trkpt>
      <trkpt lat="40.413100" lon="-5.481400">
        <ele>1669.0</ele>
        <time>2016-08-06T13:27:23Z</time>
      </trkpt>
      <trkpt lat="40.413167" lon="-5.481483">
        <ele>1669.0</ele>
        <time>2016-08-06T13:27:25Z</time>
      </trkpt>
      <trkpt lat="40.413217" lon="-5.481583">
        <ele>1668.0</ele>
        <time>2016-08-06T13:27:27Z</time>
      </trkpt>
      <trkpt lat="40.413283" lon="-5.481683">
        <ele>1665.0</ele>
        <time>2016-08-06T13:27:29Z</time>
      </trkpt>
      <trkpt lat="40.413350" lon="-5.481817">
        <ele>1663.0</ele>
        <time>2016-08-06T13:27:31Z</time>
      </trkpt>
      <trkpt lat="40.413433" lon="-5.481917">
        <ele>1660.0</ele>
        <time>2016-08-06T13:27:33Z</time>
      </trkpt>
      <trkpt lat="40.413533" lon="-5.482033">
        <ele>1656.0</ele>
        <time>2016-08-06T13:27:35Z</time>
      </trkpt>
      <trkpt lat="40.413633" lon="-5.482183">
        <ele>1654.0</ele>
        <time>2016-08-06T13:27:37Z</time>
      </trkpt>
      <trkpt lat="40.413733" lon="-5.482283">
        <ele>1653.0</ele>
        <time>2016-08-06T13:27:39Z</time>
      </trkpt>
      <trkpt lat="40.413850" lon="-5.482400">
        <ele>1652.0</ele>
        <time>2016-08-06T13:27:41Z</time>
      </trkpt>
      <trkpt lat="40.413950" lon="-5.482583">
        <ele>1649.0</ele>
        <time>2016-08-06T13:27:43Z</time>
      </trkpt>
      <trkpt lat="40.414083" lon="-5.482750">
        <ele>1648.0</ele>
        <time>2016-08-06T13:27:45Z</time>
      </trkpt>
      <trkpt lat="40.414217" lon="-5.482883">
        <ele>1647.0</ele>
        <time>2016-08-06T13:27:47Z</time>
      </trkpt>
      <trkpt lat="40.414400" lon="-5.483050">
        <ele>1644.0</ele>
        <time>2016-08-06T13:27:49Z</time>
      </trkpt>
      <trkpt lat="40.414567" lon="-5.483200">
        <ele>1649.0</ele>
        <time>2016-08-06T13:27:51Z</time>
      </trkpt>
      <trkpt lat="40.414650" lon="-5.483317">
        <ele>1655.0</ele>
        <time>2016-08-06T13:27:53Z</time>
      </trkpt>
      <trkpt lat="40.414733" lon="-5.483383">
        <ele>1656.0</ele>
        <time>2016-08-06T13:27:55Z</time>
      </trkpt>
      <trkpt lat="40.414817" lon="-5.483383">
        <ele>1654.0</ele>
        <time>2016-08-06T13:27:57Z</time>
      </trkpt>
      <trkpt lat="40.414933" lon="-5.483367">
        <ele>1655.0</ele>
        <time>2016-08-06T13:27:59Z</time>
      </trkpt>
      <trkpt lat="40.414983" lon="-5.483300">
        <ele>1658.0</ele>
        <time>2016-08-06T13:28:01Z</time>
      </trkpt>
      <trkpt lat="40.415033" lon="-5.483217">
        <ele>1656.0</ele>
        <time>2016-08-06T13:28:03Z</time>
      </trkpt>
      <trkpt lat="40.415083" lon="-5.483050">
        <ele>1655.0</ele>
        <time>2016-08-06T13:28:05Z</time>
      </trkpt>
      <trkpt lat="40.415050" lon="-5.482800">
        <ele>1660.0</ele>
        <time>2016-08-06T13:28:07Z</time>
      </trkpt>
      <trkpt lat="40.414917" lon="-5.482650">
        <ele>1667.0</ele>
        <time>2016-08-06T13:28:09Z</time>
      </trkpt>
      <trkpt lat="40.414750" lon="-5.482517">
        <ele>1668.0</ele>
        <time>2016-08-06T13:28:11Z</time>
      </trkpt>
      <trkpt lat="40.414550" lon="-5.482433">
        <ele>1670.0</ele>
        <time>2016-08-06T13:28:13Z</time>
      </trkpt>
      <trkpt lat="40.414350" lon="-5.482500">
        <ele>1670.0</ele>
        <time>2016-08-06T13:28:15Z</time>
      </trkpt>
      <trkpt lat="40.414200" lon="-5.482683">
        <ele>1671.0</ele>
        <time>2016-08-06T13:28:17Z</time>
      </trkpt>
      <trkpt lat="40.414100" lon="-5.482900">
        <ele>1671.0</ele>
        <time>2016-08-06T13:28:19Z</time>
      </trkpt>
      <trkpt lat="40.414067" lon="-5.483133">
        <ele>1672.0</ele>
        <time>2016-08-06T13:28:21Z</time>
      </trkpt>
      <trkpt lat="40.414033" lon="-5.483350">
        <ele>1675.0</ele>
        <time>2016-08-06T13:28:23Z</time>
      </trkpt>
      <trkpt lat="40.414000" lon="-5.483500">
        <ele>1676.0</ele>
        <time>2016-08-06T13:28:25Z</time>
      </trkpt>
      <trkpt lat="40.413967" lon="-5.483717">
        <ele>1674.0</ele>
        <time>2016-08-06T13:28:27Z</time>
      </trkpt>
      <trkpt lat="40.413933" lon="-5.483950">
        <ele>1675.0</ele>
        <time>2016-08-06T13:28:29Z</time>
      </trkpt>
      <trkpt lat="40.413933" lon="-5.484150">
        <ele>1678.0</ele>
        <time>2016-08-06T13:28:31Z</time>
      </trkpt>
      <trkpt lat="40.413933" lon="-5.484333">
        <ele>1681.0</ele>
        <time>2016-08-06T13:28:33Z</time>
      </trkpt>
      <trkpt lat="40.413967" lon="-5.484533">
        <ele>1683.0</ele>
        <time>2016-08-06T13:28:35Z</time>
      </trkpt>
      <trkpt lat="40.414017" lon="-5.484717">
        <ele>1686.0</ele>
        <time>2016-08-06T13:28:37Z</time>
      </trkpt>
      <trkpt lat="40.414067" lon="-5.484817">
        <ele>1686.0</ele>
        <time>2016-08-06T13:28:39Z</time>
      </trkpt>
      <trkpt lat="40.414183" lon="-5.484833">
        <ele>1683.0</ele>
        <time>2016-08-06T13:28:41Z</time>
      </trkpt>
      <trkpt lat="40.414317" lon="-5.484833">
        <ele>1687.0</ele>
        <time>2016-08-06T13:28:43Z</time>
      </trkpt>
      <trkpt lat="40.414350" lon="-5.484800">
        <ele>1690.0</ele>
        <time>2016-08-06T13:28:45Z</time>
      </trkpt>
      <trkpt lat="40.414400" lon="-5.484783">
        <ele>1688.0</ele>
        <time>2016-08-06T13:28:47Z</time>
      </trkpt>
      <trkpt lat="40.414500" lon="-5.484767">
        <ele>1690.0</ele>
        <time>2016-08-06T13:28:49Z</time>
      </trkpt>
      <trkpt lat="40.414567" lon="-5.484767">
        <ele>1698.0</ele>
        <time>2016-08-06T13:28:51Z</time>
      </trkpt>
      <trkpt lat="40.414600" lon="-5.484733">
        <ele>1700.0</ele>
        <time>2016-08-06T13:28:53Z</time>
      </trkpt>
      <trkpt lat="40.414633" lon="-5.484633">
        <ele>1700.0</ele>
        <time>2016-08-06T13:28:55Z</time>
      </trkpt>
      <trkpt lat="40.414600" lon="-5.484450">
        <ele>1700.0</ele>
        <time>2016-08-06T13:28:57Z</time>
      </trkpt>
      <trkpt lat="40.414467" lon="-5.484233">
        <ele>1703.0</ele>
        <time>2016-08-06T13:28:59Z</time>
      </trkpt>
      <trkpt lat="40.414283" lon="-5.484100">
        <ele>1709.0</ele>
        <time>2016-08-06T13:29:01Z</time>
      </trkpt>
      <trkpt lat="40.414067" lon="-5.484100">
        <ele>1715.0</ele>
        <time>2016-08-06T13:29:03Z</time>
      </trkpt>
      <trkpt lat="40.413850" lon="-5.484150">
        <ele>1718.0</ele>
        <time>2016-08-06T13:29:05Z</time>
      </trkpt>
      <trkpt lat="40.413650" lon="-5.484333">
        <ele>1720.0</ele>
        <time>2016-08-06T13:29:07Z</time>
      </trkpt>
      <trkpt lat="40.413533" lon="-5.484583">
        <ele>1723.0</ele>
        <time>2016-08-06T13:29:09Z</time>
      </trkpt>
      <trkpt lat="40.413533" lon="-5.484800">
        <ele>1727.0</ele>
        <time>2016-08-06T13:29:11Z</time>
      </trkpt>
      <trkpt lat="40.413517" lon="-5.484967">
        <ele>1732.0</ele>
        <time>2016-08-06T13:29:13Z</time>
      </trkpt>
      <trkpt lat="40.413550" lon="-5.485100">
        <ele>1734.0</ele>
        <time>2016-08-06T13:29:15Z</time>
      </trkpt>
      <trkpt lat="40.413633" lon="-5.485133">
        <ele>1733.0</ele>
        <time>2016-08-06T13:29:17Z</time>
      </trkpt>
      <trkpt lat="40.413700" lon="-5.485017">
        <ele>1737.0</ele>
        <time>2016-08-06T13:29:19Z</time>
      </trkpt>
      <trkpt lat="40.413667" lon="-5.484833">
        <ele>1742.0</ele>
        <time>2016-08-06T13:29:21Z</time>
      </trkpt>
      <trkpt lat="40.413550" lon="-5.484633">
        <ele>1745.0</ele>
        <time>2016-08-06T13:29:23Z</time>
      </trkpt>
      <trkpt lat="40.413367" lon="-5.484500">
        <ele>1750.0</ele>
        <time>2016-08-06T13:29:25Z</time>
      </trkpt>
      <trkpt lat="40.413133" lon="-5.484450">
        <ele>1755.0</ele>
        <time>2016-08-06T13:29:27Z</time>
      </trkpt>
      <trkpt lat="40.412933" lon="-5.484467">
        <ele>1757.0</ele>
        <time>2016-08-06T13:29:29Z</time>
      </trkpt>
      <trkpt lat="40.412700" lon="-5.484567">
        <ele>1757.0</ele>
        <time>2016-08-06T13:29:31Z</time>
      </trkpt>
      <trkpt lat="40.412500" lon="-5.484783">
        <ele>1759.0</ele>
        <time>2016-08-06T13:29:33Z</time>
      </trkpt>
      <trkpt lat="40.412367" lon="-5.485000">
        <ele>1765.0</ele>
        <time>2016-08-06T13:29:35Z</time>
      </trkpt>
      <trkpt lat="40.412317" lon="-5.485200">
        <ele>1767.0</ele>
        <time>2016-08-06T13:29:37Z</time>
      </trkpt>
      <trkpt lat="40.412317" lon="-5.485400">
        <ele>1768.0</ele>
        <time>2016-08-06T13:29:39Z</time>
      </trkpt>
      <trkpt lat="40.412383" lon="-5.485517">
        <ele>1772.0</ele>
        <time>2016-08-06T13:29:41Z</time>
      </trkpt>
      <trkpt lat="40.412467" lon="-5.485567">
        <ele>1774.0</ele>
        <time>2016-08-06T13:29:43Z</time>
      </trkpt>
      <trkpt lat="40.412550" lon="-5.485567">
        <ele>1777.0</ele>
        <time>2016-08-06T13:29:45Z</time>
      </trkpt>
      <trkpt lat="40.412633" lon="-5.485533">
        <ele>1781.0</ele>
        <time>2016-08-06T13:29:47Z</time>
      </trkpt>
      <trkpt lat="40.412683" lon="-5.485467">
        <ele>1785.0</ele>
        <time>2016-08-06T13:29:49Z</time>
      </trkpt>
      <trkpt lat="40.412683" lon="-5.485283">
        <ele>1787.0</ele>
        <time>2016-08-06T13:29:51Z</time>
      </trkpt>
      <trkpt lat="40.412583" lon="-5.485083">
        <ele>1790.0</ele>
        <time>2016-08-06T13:29:53Z</time>
      </trkpt>
      <trkpt lat="40.412383" lon="-5.485017">
        <ele>1791.0</ele>
        <time>2016-08-06T13:29:55Z</time>
      </trkpt>
      <trkpt lat="40.412167" lon="-5.485033">
        <ele>1792.0</ele>
        <time>2016-08-06T13:29:57Z</time>
      </trkpt>
      <trkpt lat="40.411917" lon="-5.485133">
        <ele>1793.0</ele>
        <time>2016-08-06T13:29:59Z</time>
      </trkpt>
      <trkpt lat="40.411750" lon="-5.485383">
        <ele>1796.0</ele>
        <time>2016-08-06T13:30:01Z</time>
      </trkpt>
      <trkpt lat="40.411683" lon="-5.485650">
        <ele>1801.0</ele>
        <time>2016-08-06T13:30:03Z</time>
      </trkpt>
      <trkpt lat="40.411650" lon="-5.485833">
        <ele>1805.0</ele>
        <time>2016-08-06T13:30:05Z</time>
      </trkpt>
      <trkpt lat="40.411650" lon="-5.486017">
        <ele>1807.0</ele>
        <time>2016-08-06T13:30:07Z</time>
      </trkpt>
      <trkpt lat="40.411700" lon="-5.486150">
        <ele>1808.0</ele>
        <time>2016-08-06T13:30:09Z</time>
      </trkpt>
      <trkpt lat="40.411733" lon="-5.486233">
        <ele>1810.0</ele>
        <time>2016-08-06T13:30:11Z</time>
      </trkpt>
      <trkpt lat="40.411783" lon="-5.486250">
        <ele>1811.0</ele>
        <time>2016-08-06T13:30:13Z</time>
      </trkpt>
      <trkpt lat="40.411867" lon="-5.486233">
        <ele>1811.0</ele>
        <time>2016-08-06T13:30:15Z</time>
      </trkpt>
      <trkpt lat="40.411933" lon="-5.486167">
        <ele>1812.0</ele>
        <time>2016-08-06T13:30:17Z</time>
      </trkpt>
      <trkpt lat="40.411933" lon="-5.486017">
        <ele>1812.0</ele>
        <time>2016-08-06T13:30:19Z</time>
      </trkpt>
      <trkpt lat="40.411850" lon="-5.485850">
        <ele>1813.0</ele>
        <time>2016-08-06T13:30:21Z</time>
      </trkpt>
      <trkpt lat="40.411683" lon="-5.485750">
        <ele>1812.0</ele>
        <time>2016-08-06T13:30:23Z</time>
      </trkpt>
      <trkpt lat="40.411433" lon="-5.485767">
        <ele>1813.0</ele>
        <time>2016-08-06T13:30:25Z</time>
      </trkpt>
      <trkpt lat="40.411183" lon="-5.485867">
        <ele>1818.0</ele>
        <time>2016-08-06T13:30:27Z</time>
      </trkpt>
      <trkpt lat="40.411000" lon="-5.486033">
        <ele>1825.0</ele>
        <time>2016-08-06T13:30:29Z</time>
      </trkpt>
      <trkpt lat="40.410883" lon="-5.486233">
        <ele>1827.0</ele>
        <time>2016-08-06T13:30:31Z</time>
      </trkpt>
      <trkpt lat="40.410833" lon="-5.486500">
        <ele>1828.0</ele>
        <time>2016-08-06T13:30:33Z</time>
      </trkpt>
      <trkpt lat="40.410833" lon="-5.486700">
        <ele>1830.0</ele>
        <time>2016-08-06T13:30:35Z</time>
      </trkpt>
      <trkpt lat="40.410850" lon="-5.486833">
        <ele>1832.0</ele>
        <time>2016-08-06T13:30:37Z</time>
      </trkpt>
      <trkpt lat="40.410900" lon="-5.486933">
        <ele>1831.0</ele>
        <time>2016-08-06T13:30:39Z</time>
      </trkpt>
      <trkpt lat="40.410983" lon="-5.486917">
        <ele>1829.0</ele>
        <time>2016-08-06T13:30:41Z</time>
      </trkpt>
      <trkpt lat="40.411017" lon="-5.486800">
        <ele>1831.0</ele>
        <time>2016-08-06T13:30:43Z</time>
      </trkpt>
      <trkpt lat="40.411000" lon="-5.486683">
        <ele>1832.0</ele>
        <time>2016-08-06T13:30:45Z</time>
      </trkpt>
      <trkpt lat="40.410933" lon="-5.486567">
        <ele>1831.0</ele>
        <time>2016-08-06T13:30:47Z</time>
      </trkpt>
      <trkpt lat="40.410767" lon="-5.486400">
        <ele>1828.0</ele>
        <time>2016-08-06T13:30:49Z</time>
      </trkpt>
      <trkpt lat="40.410533" lon="-5.486267">
        <ele>1830.0</ele>
        <time>2016-08-06T13:30:51Z</time>
      </trkpt>
      <trkpt lat="40.410317" lon="-5.486233">
        <ele>1838.0</ele>
        <time>2016-08-06T13:30:53Z</time>
      </trkpt>
      <trkpt lat="40.410117" lon="-5.486317">
        <ele>1842.0</ele>
        <time>2016-08-06T13:30:55Z</time>
      </trkpt>
      <trkpt lat="40.409917" lon="-5.486483">
        <ele>1845.0</ele>
        <time>2016-08-06T13:30:57Z</time>
      </trkpt>
      <trkpt lat="40.409817" lon="-5.486717">
        <ele>1848.0</ele>
        <time>2016-08-06T13:30:59Z</time>
      </trkpt>
      <trkpt lat="40.409800" lon="-5.486933">
        <ele>1852.0</ele>
        <time>2016-08-06T13:31:01Z</time>
      </trkpt>
      <trkpt lat="40.409817" lon="-5.487117">
        <ele>1855.0</ele>
        <time>2016-08-06T13:31:03Z</time>
      </trkpt>
      <trkpt lat="40.409883" lon="-5.487233">
        <ele>1856.0</ele>
        <time>2016-08-06T13:31:05Z</time>
      </trkpt>
      <trkpt lat="40.409967" lon="-5.487283">
        <ele>1858.0</ele>
        <time>2016-08-06T13:31:07Z</time>
      </trkpt>
      <trkpt lat="40.410000" lon="-5.487217">
        <ele>1859.0</ele>
        <time>2016-08-06T13:31:09Z</time>
      </trkpt>
      <trkpt lat="40.410000" lon="-5.487083">
        <ele>1857.0</ele>
        <time>2016-08-06T13:31:11Z</time>
      </trkpt>
      <trkpt lat="40.409933" lon="-5.486883">
        <ele>1856.0</ele>
        <time>2016-08-06T13:31:13Z</time>
      </trkpt>
      <trkpt lat="40.409750" lon="-5.486700">
        <ele>1858.0</ele>
        <time>2016-08-06T13:31:15Z</time>
      </trkpt>
      <trkpt lat="40.409517" lon="-5.486617">
        <ele>1864.0</ele>
        <time>2016-08-06T13:31:17Z</time>
      </trkpt>
      <trkpt lat="40.409300" lon="-5.486583">
        <ele>1868.0</ele>
        <time>2016-08-06T13:31:19Z</time>
      </trkpt>
      <trkpt lat="40.409067" lon="-5.486600">
        <ele>1870.0</ele>
        <time>2016-08-06T13:31:21Z</time>
      </trkpt>
      <trkpt lat="40.408833" lon="-5.486717">
        <ele>1872.0</ele>
        <time>2016-08-06T13:31:23Z</time>
      </trkpt>
      <trkpt lat="40.408700" lon="-5.486900">
        <ele>1874.0</ele>
        <time>2016-08-06T13:31:25Z</time>
      </trkpt>
      <trkpt lat="40.408633" lon="-5.487150">
        <ele>1875.0</ele>
        <time>2016-08-06T13:31:27Z</time>
      </trkpt>
      <trkpt lat="40.408633" lon="-5.487367">
        <ele>1878.0</ele>
        <time>2016-08-06T13:31:29Z</time>
      </trkpt>
      <trkpt lat="40.408650" lon="-5.487550">
        <ele>1883.0</ele>
        <time>2016-08-06T13:31:31Z</time>
      </trkpt>
      <trkpt lat="40.408683" lon="-5.487683">
        <ele>1885.0</ele>
        <time>2016-08-06T13:31:33Z</time>
      </trkpt>
      <trkpt lat="40.408783" lon="-5.487783">
        <ele>1885.0</ele>
        <time>2016-08-06T13:31:35Z</time>
      </trkpt>
      <trkpt lat="40.408850" lon="-5.487817">
        <ele>1887.0</ele>
        <time>2016-08-06T13:31:37Z</time>
      </trkpt>
      <trkpt lat="40.408900" lon="-5.487767">
        <ele>1886.0</ele>
        <time>2016-08-06T13:31:39Z</time>
      </trkpt>
      <trkpt lat="40.408917" lon="-5.487633">
        <ele>1887.0</ele>
        <time>2016-08-06T13:31:41Z</time>
      </trkpt>
      <trkpt lat="40.408767" lon="-5.487467">
        <ele>1887.0</ele>
        <time>2016-08-06T13:31:43Z</time>
      </trkpt>
      <trkpt lat="40.408517" lon="-5.487367">
        <ele>1891.0</ele>
        <time>2016-08-06T13:31:45Z</time>
      </trkpt>
      <trkpt lat="40.408267" lon="-5.487383">
        <ele>1896.0</ele>
        <time>2016-08-06T13:31:47Z</time>
      </trkpt>
      <trkpt lat="40.408033" lon="-5.487533">
        <ele>1898.0</ele>
        <time>2016-08-06T13:31:49Z</time>
      </trkpt>
      <trkpt lat="40.407850" lon="-5.487783">
        <ele>1900.0</ele>
        <time>2016-08-06T13:31:51Z</time>
      </trkpt>
      <trkpt lat="40.407750" lon="-5.488033">
        <ele>1903.0</ele>
        <time>2016-08-06T13:31:53Z</time>
      </trkpt>
      <trkpt lat="40.407733" lon="-5.488267">
        <ele>1905.0</ele>
        <time>2016-08-06T13:31:55Z</time>
      </trkpt>
      <trkpt lat="40.407767" lon="-5.488450">
        <ele>1905.0</ele>
        <time>2016-08-06T13:31:57Z</time>
      </trkpt>
      <trkpt lat="40.407833" lon="-5.488583">
        <ele>1904.0</ele>
        <time>2016-08-06T13:31:59Z</time>
      </trkpt>
      <trkpt lat="40.407917" lon="-5.488667">
        <ele>1904.0</ele>
        <time>2016-08-06T13:32:01Z</time>
      </trkpt>
      <trkpt lat="40.408000" lon="-5.488683">
        <ele>1903.0</ele>
        <time>2016-08-06T13:32:03Z</time>
      </trkpt>
      <trkpt lat="40.408050" lon="-5.488617">
        <ele>1899.0</ele>
        <time>2016-08-06T13:32:05Z</time>
      </trkpt>
      <trkpt lat="40.408017" lon="-5.488500">
        <ele>1895.0</ele>
        <time>2016-08-06T13:32:07Z</time>
      </trkpt>
      <trkpt lat="40.407917" lon="-5.488317">
        <ele>1889.0</ele>
        <time>2016-08-06T13:32:09Z</time>
      </trkpt>
      <trkpt lat="40.407700" lon="-5.488167">
        <ele>1882.0</ele>
        <time>2016-08-06T13:32:11Z</time>
      </trkpt>
      <trkpt lat="40.407417" lon="-5.488067">
        <ele>1882.0</ele>
        <time>2016-08-06T13:32:13Z</time>
      </trkpt>
      <trkpt lat="40.407150" lon="-5.488100">
        <ele>1886.0</ele>
        <time>2016-08-06T13:32:15Z</time>
      </trkpt>
      <trkpt lat="40.406917" lon="-5.488183">
        <ele>1888.0</ele>
        <time>2016-08-06T13:32:17Z</time>
      </trkpt>
      <trkpt lat="40.406700" lon="-5.488350">
        <ele>1888.0</ele>
        <time>2016-08-06T13:32:19Z</time>
      </trkpt>
      <trkpt lat="40.406533" lon="-5.488583">
        <ele>1888.0</ele>
        <time>2016-08-06T13:32:21Z</time>
      </trkpt>
      <trkpt lat="40.406417" lon="-5.488817">
        <ele>1889.0</ele>
        <time>2016-08-06T13:32:23Z</time>
      </trkpt>
      <trkpt lat="40.406300" lon="-5.489067">
        <ele>1890.0</ele>
        <time>2016-08-06T13:32:25Z</time>
      </trkpt>
      <trkpt lat="40.406283" lon="-5.489300">
        <ele>1892.0</ele>
        <time>2016-08-06T13:32:27Z</time>
      </trkpt>
      <trkpt lat="40.406317" lon="-5.489483">
        <ele>1893.0</ele>
        <time>2016-08-06T13:32:29Z</time>
      </trkpt>
      <trkpt lat="40.406367" lon="-5.489633">
        <ele>1893.0</ele>
        <time>2016-08-06T13:32:31Z</time>
      </trkpt>
      <trkpt lat="40.406450" lon="-5.489783">
        <ele>1893.0</ele>
        <time>2016-08-06T13:32:33Z</time>
      </trkpt>
      <trkpt lat="40.406550" lon="-5.489900">
        <ele>1894.0</ele>
        <time>2016-08-06T13:32:35Z</time>
      </trkpt>
      <trkpt lat="40.406617" lon="-5.490017">
        <ele>1898.0</ele>
        <time>2016-08-06T13:32:37Z</time>
      </trkpt>
      <trkpt lat="40.406667" lon="-5.490100">
        <ele>1896.0</ele>
        <time>2016-08-06T13:32:39Z</time>
      </trkpt>
      <trkpt lat="40.406767" lon="-5.490133">
        <ele>1891.0</ele>
        <time>2016-08-06T13:32:41Z</time>
      </trkpt>
      <trkpt lat="40.406933" lon="-5.490150">
        <ele>1887.0</ele>
        <time>2016-08-06T13:32:43Z</time>
      </trkpt>
      <trkpt lat="40.407067" lon="-5.490217">
        <ele>1890.0</ele>
        <time>2016-08-06T13:32:45Z</time>
      </trkpt>
      <trkpt lat="40.407167" lon="-5.490283">
        <ele>1891.0</ele>
        <time>2016-08-06T13:32:47Z</time>
      </trkpt>
      <trkpt lat="40.407300" lon="-5.490367">
        <ele>1887.0</ele>
        <time>2016-08-06T13:32:49Z</time>
      </trkpt>
      <trkpt lat="40.407433" lon="-5.490483">
        <ele>1888.0</ele>
        <time>2016-08-06T13:32:51Z</time>
      </trkpt>
      <trkpt lat="40.407533" lon="-5.490583">
        <ele>1890.0</ele>
        <time>2016-08-06T13:32:53Z</time>
      </trkpt>
      <trkpt lat="40.407617" lon="-5.490683">
        <ele>1887.0</ele>
        <time>2016-08-06T13:32:55Z</time>
      </trkpt>
      <trkpt lat="40.407750" lon="-5.490783">
        <ele>1887.0</ele>
        <time>2016-08-06T13:32:57Z</time>
      </trkpt>
      <trkpt lat="40.407867" lon="-5.490883">
        <ele>1887.0</ele>
        <time>2016-08-06T13:32:59Z</time>
      </trkpt>
      <trkpt lat="40.408000" lon="-5.490967">
        <ele>1887.0</ele>
        <time>2016-08-06T13:33:01Z</time>
      </trkpt>
      <trkpt lat="40.408133" lon="-5.491083">
        <ele>1888.0</ele>
        <time>2016-08-06T13:33:03Z</time>
      </trkpt>
      <trkpt lat="40.408233" lon="-5.491167">
        <ele>1892.0</ele>
        <time>2016-08-06T13:33:05Z</time>
      </trkpt>
      <trkpt lat="40.408333" lon="-5.491267">
        <ele>1892.0</ele>
        <time>2016-08-06T13:33:07Z</time>
      </trkpt>
      <trkpt lat="40.408433" lon="-5.491300">
        <ele>1891.0</ele>
        <time>2016-08-06T13:33:09Z</time>
      </trkpt>
      <trkpt lat="40.408500" lon="-5.491267">
        <ele>1893.0</ele>
        <time>2016-08-06T13:33:11Z</time>
      </trkpt>
      <trkpt lat="40.408483" lon="-5.491233">
        <ele>1894.0</ele>
        <time>2016-08-06T13:33:13Z</time>
      </trkpt>
      <trkpt lat="40.408467" lon="-5.491133">
        <ele>1892.0</ele>
        <time>2016-08-06T13:33:15Z</time>
      </trkpt>
      <trkpt lat="40.408417" lon="-5.490967">
        <ele>1892.0</ele>
        <time>2016-08-06T13:33:17Z</time>
      </trkpt>
      <trkpt lat="40.408300" lon="-5.490850">
        <ele>1893.0</ele>
        <time>2016-08-06T13:33:19Z</time>
      </trkpt>
      <trkpt lat="40.408100" lon="-5.490783">
        <ele>1893.0</ele>
        <time>2016-08-06T13:33:21Z</time>
      </trkpt>
      <trkpt lat="40.407850" lon="-5.490833">
        <ele>1892.0</ele>
        <time>2016-08-06T13:33:23Z</time>
      </trkpt>
      <trkpt lat="40.407617" lon="-5.490983">
        <ele>1893.0</ele>
        <time>2016-08-06T13:33:25Z</time>
      </trkpt>
      <trkpt lat="40.407467" lon="-5.491250">
        <ele>1895.0</ele>
        <time>2016-08-06T13:33:27Z</time>
      </trkpt>
      <trkpt lat="40.407417" lon="-5.491550">
        <ele>1895.0</ele>
        <time>2016-08-06T13:33:29Z</time>
      </trkpt>
      <trkpt lat="40.407483" lon="-5.491800">
        <ele>1896.0</ele>
        <time>2016-08-06T13:33:31Z</time>
      </trkpt>
      <trkpt lat="40.407550" lon="-5.492000">
        <ele>1897.0</ele>
        <time>2016-08-06T13:33:33Z</time>
      </trkpt>
      <trkpt lat="40.407633" lon="-5.492183">
        <ele>1897.0</ele>
        <time>2016-08-06T13:33:35Z</time>
      </trkpt>
      <trkpt lat="40.407717" lon="-5.492383">
        <ele>1899.0</ele>
        <time>2016-08-06T13:33:37Z</time>
      </trkpt>
      <trkpt lat="40.407767" lon="-5.492583">
        <ele>1900.0</ele>
        <time>2016-08-06T13:33:39Z</time>
      </trkpt>
      <trkpt lat="40.407833" lon="-5.492783">
        <ele>1897.0</ele>
        <time>2016-08-06T13:33:41Z</time>
      </trkpt>
      <trkpt lat="40.407917" lon="-5.493017">
        <ele>1895.0</ele>
        <time>2016-08-06T13:33:43Z</time>
      </trkpt>
      <trkpt lat="40.407967" lon="-5.493200">
        <ele>1895.0</ele>
        <time>2016-08-06T13:33:45Z</time>
      </trkpt>
      <trkpt lat="40.408050" lon="-5.493400">
        <ele>1892.0</ele>
        <time>2016-08-06T13:33:47Z</time>
      </trkpt>
      <trkpt lat="40.408133" lon="-5.493600">
        <ele>1890.0</ele>
        <time>2016-08-06T13:33:49Z</time>
      </trkpt>
      <trkpt lat="40.408200" lon="-5.493800">
        <ele>1892.0</ele>
        <time>2016-08-06T13:33:51Z</time>
      </trkpt>
      <trkpt lat="40.408233" lon="-5.494000">
        <ele>1892.0</ele>
        <time>2016-08-06T13:33:53Z</time>
      </trkpt>
      <trkpt lat="40.408250" lon="-5.494233">
        <ele>1889.0</ele>
        <time>2016-08-06T13:33:55Z</time>
      </trkpt>
      <trkpt lat="40.408317" lon="-5.494450">
        <ele>1887.0</ele>
        <time>2016-08-06T13:33:57Z</time>
      </trkpt>
      <trkpt lat="40.408400" lon="-5.494633">
        <ele>1887.0</ele>
        <time>2016-08-06T13:33:59Z</time>
      </trkpt>
      <trkpt lat="40.408450" lon="-5.494817">
        <ele>1891.0</ele>
        <time>2016-08-06T13:34:01Z</time>
      </trkpt>
      <trkpt lat="40.408500" lon="-5.494917">
        <ele>1896.0</ele>
        <time>2016-08-06T13:34:03Z</time>
      </trkpt>
      <trkpt lat="40.408550" lon="-5.494933">
        <ele>1896.0</ele>
        <time>2016-08-06T13:34:05Z</time>
      </trkpt>
      <trkpt lat="40.408583" lon="-5.494850">
        <ele>1892.0</ele>
        <time>2016-08-06T13:34:07Z</time>
      </trkpt>
      <trkpt lat="40.408600" lon="-5.494667">
        <ele>1890.0</ele>
        <time>2016-08-06T13:34:09Z</time>
      </trkpt>
      <trkpt lat="40.408533" lon="-5.494450">
        <ele>1892.0</ele>
        <time>2016-08-06T13:34:11Z</time>
      </trkpt>
      <trkpt lat="40.408417" lon="-5.494283">
        <ele>1891.0</ele>
        <time>2016-08-06T13:34:13Z</time>
      </trkpt>
      <trkpt lat="40.408200" lon="-5.494100">
        <ele>1890.0</ele>
        <time>2016-08-06T13:34:15Z</time>
      </trkpt>
      <trkpt lat="40.407950" lon="-5.494050">
        <ele>1890.0</ele>
        <time>2016-08-06T13:34:17Z</time>
      </trkpt>
      <trkpt lat="40.407700" lon="-5.494167">
        <ele>1888.0</ele>
        <time>2016-08-06T13:34:19Z</time>
      </trkpt>
      <trkpt lat="40.407567" lon="-5.494417">
        <ele>1885.0</ele>
        <time>2016-08-06T13:34:21Z</time>
      </trkpt>
      <trkpt lat="40.407517" lon="-5.494667">
        <ele>1885.0</ele>
        <time>2016-08-06T13:34:23Z</time>
      </trkpt>
      <trkpt lat="40.407517" lon="-5.494850">
        <ele>1886.0</ele>
        <time>2016-08-06T13:34:25Z</time>
      </trkpt>
      <trkpt lat="40.407550" lon="-5.495000">
        <ele>1886.0</ele>
        <time>2016-08-06T13:34:27Z</time>
      </trkpt>
      <trkpt lat="40.407583" lon="-5.495150">
        <ele>1885.0</ele>
        <time>2016-08-06T13:34:29Z</time>
      </trkpt>
      <trkpt lat="40.407633" lon="-5.495317">
        <ele>1884.0</ele>
        <time>2016-08-06T13:34:31Z</time>
      </trkpt>
      <trkpt lat="40.407700" lon="-5.495433">
        <ele>1885.0</ele>
        <time>2016-08-06T13:34:33Z</time>
      </trkpt>
      <trkpt lat="40.407750" lon="-5.495550">
        <ele>1885.0</ele>
        <time>2016-08-06T13:34:35Z</time>
      </trkpt>
      <trkpt lat="40.407783" lon="-5.495717">
        <ele>1884.0</ele>
        <time>2016-08-06T13:34:37Z</time>
      </trkpt>
      <trkpt lat="40.407850" lon="-5.495850">
        <ele>1883.0</ele>
        <time>2016-08-06T13:34:39Z</time>
      </trkpt>
      <trkpt lat="40.407917" lon="-5.495967">
        <ele>1884.0</ele>
        <time>2016-08-06T13:34:41Z</time>
      </trkpt>
      <trkpt lat="40.407983" lon="-5.496050">
        <ele>1883.0</ele>
        <time>2016-08-06T13:34:43Z</time>
      </trkpt>
      <trkpt lat="40.408050" lon="-5.496133">
        <ele>1881.0</ele>
        <time>2016-08-06T13:34:45Z</time>
      </trkpt>
      <trkpt lat="40.408100" lon="-5.496217">
        <ele>1879.0</ele>
        <time>2016-08-06T13:34:47Z</time>
      </trkpt>
      <trkpt lat="40.408150" lon="-5.496300">
        <ele>1876.0</ele>
        <time>2016-08-06T13:34:49Z</time>
      </trkpt>
      <trkpt lat="40.408233" lon="-5.496417">
        <ele>1871.0</ele>
        <time>2016-08-06T13:34:51Z</time>
      </trkpt>
      <trkpt lat="40.408317" lon="-5.496550">
        <ele>1868.0</ele>
        <time>2016-08-06T13:34:53Z</time>
      </trkpt>
      <trkpt lat="40.408383" lon="-5.496583">
        <ele>1867.0</ele>
        <time>2016-08-06T13:34:55Z</time>
      </trkpt>
      <trkpt lat="40.408467" lon="-5.496600">
        <ele>1863.0</ele>
        <time>2016-08-06T13:34:57Z</time>
      </trkpt>
      <trkpt lat="40.408567" lon="-5.496650">
        <ele>1860.0</ele>
        <time>2016-08-06T13:34:59Z</time>
      </trkpt>
      <trkpt lat="40.408650" lon="-5.496667">
        <ele>1860.0</ele>
        <time>2016-08-06T13:35:01Z</time>
      </trkpt>
      <trkpt lat="40.408683" lon="-5.496733">
        <ele>1857.0</ele>
        <time>2016-08-06T13:35:03Z</time>
      </trkpt>
      <trkpt lat="40.408733" lon="-5.496817">
        <ele>1848.0</ele>
        <time>2016-08-06T13:35:05Z</time>
      </trkpt>
      <trkpt lat="40.408833" lon="-5.496883">
        <ele>1837.0</ele>
        <time>2016-08-06T13:35:07Z</time>
      </trkpt>
      <trkpt lat="40.408933" lon="-5.497017">
        <ele>1828.0</ele>
        <time>2016-08-06T13:35:09Z</time>
      </trkpt>
      <trkpt lat="40.409033" lon="-5.497183">
        <ele>1821.0</ele>
        <time>2016-08-06T13:35:11Z</time>
      </trkpt>
      <trkpt lat="40.409133" lon="-5.497333">
        <ele>1813.0</ele>
        <time>2016-08-06T13:35:13Z</time>
      </trkpt>
      <trkpt lat="40.409233" lon="-5.497500">
        <ele>1806.0</ele>
        <time>2016-08-06T13:35:15Z</time>
      </trkpt>
      <trkpt lat="40.409350" lon="-5.497650">
        <ele>1802.0</ele>
        <time>2016-08-06T13:35:17Z</time>
      </trkpt>
      <trkpt lat="40.409450" lon="-5.497817">
        <ele>1798.0</ele>
        <time>2016-08-06T13:35:19Z</time>
      </trkpt>
      <trkpt lat="40.409567" lon="-5.497950">
        <ele>1791.0</ele>
        <time>2016-08-06T13:35:21Z</time>
      </trkpt>
      <trkpt lat="40.409700" lon="-5.498083">
        <ele>1785.0</ele>
        <time>2016-08-06T13:35:23Z</time>
      </trkpt>
      <trkpt lat="40.409833" lon="-5.498200">
        <ele>1782.0</ele>
        <time>2016-08-06T13:35:25Z</time>
      </trkpt>
      <trkpt lat="40.409950" lon="-5.498317">
        <ele>1779.0</ele>
        <time>2016-08-06T13:35:27Z</time>
      </trkpt>
      <trkpt lat="40.410100" lon="-5.498433">
        <ele>1778.0</ele>
        <time>2016-08-06T13:35:29Z</time>
      </trkpt>
      <trkpt lat="40.410200" lon="-5.498533">
        <ele>1781.0</ele>
        <time>2016-08-06T13:35:31Z</time>
      </trkpt>
      <trkpt lat="40.410267" lon="-5.498633">
        <ele>1780.0</ele>
        <time>2016-08-06T13:35:33Z</time>
      </trkpt>
      <trkpt lat="40.410383" lon="-5.498733">
        <ele>1778.0</ele>
        <time>2016-08-06T13:35:35Z</time>
      </trkpt>
      <trkpt lat="40.410483" lon="-5.498783">
        <ele>1780.0</ele>
        <time>2016-08-06T13:35:37Z</time>
      </trkpt>
      <trkpt lat="40.410600" lon="-5.498817">
        <ele>1779.0</ele>
        <time>2016-08-06T13:35:39Z</time>
      </trkpt>
      <trkpt lat="40.410733" lon="-5.498817">
        <ele>1781.0</ele>
        <time>2016-08-06T13:35:41Z</time>
      </trkpt>
      <trkpt lat="40.410850" lon="-5.498833">
        <ele>1782.0</ele>
        <time>2016-08-06T13:35:43Z</time>
      </trkpt>
      <trkpt lat="40.411000" lon="-5.498883">
        <ele>1783.0</ele>
        <time>2016-08-06T13:35:45Z</time>
      </trkpt>
      <trkpt lat="40.411133" lon="-5.498900">
        <ele>1786.0</ele>
        <time>2016-08-06T13:35:47Z</time>
      </trkpt>
      <trkpt lat="40.411250" lon="-5.498850">
        <ele>1787.0</ele>
        <time>2016-08-06T13:35:49Z</time>
      </trkpt>
      <trkpt lat="40.411333" lon="-5.498733">
        <ele>1786.0</ele>
        <time>2016-08-06T13:35:51Z</time>
      </trkpt>
      <trkpt lat="40.411400" lon="-5.498567">
        <ele>1784.0</ele>
        <time>2016-08-06T13:35:53Z</time>
      </trkpt>
      <trkpt lat="40.411483" lon="-5.498383">
        <ele>1782.0</ele>
        <time>2016-08-06T13:35:55Z</time>
      </trkpt>
      <trkpt lat="40.411600" lon="-5.498233">
        <ele>1780.0</ele>
        <time>2016-08-06T13:35:57Z</time>
      </trkpt>
      <trkpt lat="40.411717" lon="-5.498150">
        <ele>1776.0</ele>
        <time>2016-08-06T13:35:59Z</time>
      </trkpt>
      <trkpt lat="40.411867" lon="-5.498133">
        <ele>1773.0</ele>
        <time>2016-08-06T13:36:01Z</time>
      </trkpt>
      <trkpt lat="40.412017" lon="-5.498150">
        <ele>1774.0</ele>
        <time>2016-08-06T13:36:03Z</time>
      </trkpt>
      <trkpt lat="40.412117" lon="-5.498183">
        <ele>1774.0</ele>
        <time>2016-08-06T13:36:05Z</time>
      </trkpt>
      <trkpt lat="40.412233" lon="-5.498267">
        <ele>1769.0</ele>
        <time>2016-08-06T13:36:07Z</time>
      </trkpt>
      <trkpt lat="40.412350" lon="-5.498400">
        <ele>1764.0</ele>
        <time>2016-08-06T13:36:09Z</time>
      </trkpt>
      <trkpt lat="40.412467" lon="-5.498533">
        <ele>1759.0</ele>
        <time>2016-08-06T13:36:11Z</time>
      </trkpt>
      <trkpt lat="40.412567" lon="-5.498650">
        <ele>1754.0</ele>
        <time>2016-08-06T13:36:13Z</time>
      </trkpt>
      <trkpt lat="40.412700" lon="-5.498767">
        <ele>1754.0</ele>
        <time>2016-08-06T13:36:15Z</time>
      </trkpt>
      <trkpt lat="40.412783" lon="-5.498900">
        <ele>1755.0</ele>
        <time>2016-08-06T13:36:17Z</time>
      </trkpt>
      <trkpt lat="40.412883" lon="-5.499017">
        <ele>1755.0</ele>
        <time>2016-08-06T13:36:19Z</time>
      </trkpt>
      <trkpt lat="40.412983" lon="-5.499150">
        <ele>1755.0</ele>
        <time>2016-08-06T13:36:21Z</time>
      </trkpt>
      <trkpt lat="40.413050" lon="-5.499283">
        <ele>1755.0</ele>
        <time>2016-08-06T13:36:23Z</time>
      </trkpt>
      <trkpt lat="40.413117" lon="-5.499433">
        <ele>1752.0</ele>
        <time>2016-08-06T13:36:25Z</time>
      </trkpt>
      <trkpt lat="40.413183" lon="-5.499600">
        <ele>1750.0</ele>
        <time>2016-08-06T13:36:27Z</time>
      </trkpt>
      <trkpt lat="40.413250" lon="-5.499750">
        <ele>1747.0</ele>
        <time>2016-08-06T13:36:29Z</time>
      </trkpt>
      <trkpt lat="40.413333" lon="-5.499900">
        <ele>1744.0</ele>
        <time>2016-08-06T13:36:31Z</time>
      </trkpt>
      <trkpt lat="40.413417" lon="-5.500083">
        <ele>1741.0</ele>
        <time>2016-08-06T13:36:33Z</time>
      </trkpt>
      <trkpt lat="40.413500" lon="-5.500250">
        <ele>1739.0</ele>
        <time>2016-08-06T13:36:35Z</time>
      </trkpt>
      <trkpt lat="40.413567" lon="-5.500417">
        <ele>1737.0</ele>
        <time>2016-08-06T13:36:37Z</time>
      </trkpt>
      <trkpt lat="40.413667" lon="-5.500567">
        <ele>1734.0</ele>
        <time>2016-08-06T13:36:39Z</time>
      </trkpt>
      <trkpt lat="40.413750" lon="-5.500750">
        <ele>1731.0</ele>
        <time>2016-08-06T13:36:41Z</time>
      </trkpt>
      <trkpt lat="40.413817" lon="-5.500950">
        <ele>1728.0</ele>
        <time>2016-08-06T13:36:43Z</time>
      </trkpt>
      <trkpt lat="40.413883" lon="-5.501150">
        <ele>1724.0</ele>
        <time>2016-08-06T13:36:45Z</time>
      </trkpt>
      <trkpt lat="40.413950" lon="-5.501350">
        <ele>1721.0</ele>
        <time>2016-08-06T13:36:47Z</time>
      </trkpt>
      <trkpt lat="40.414017" lon="-5.501550">
        <ele>1718.0</ele>
        <time>2016-08-06T13:36:49Z</time>
      </trkpt>
      <trkpt lat="40.414067" lon="-5.501767">
        <ele>1715.0</ele>
        <time>2016-08-06T13:36:51Z</time>
      </trkpt>
      <trkpt lat="40.414133" lon="-5.501967">
        <ele>1710.0</ele>
        <time>2016-08-06T13:36:53Z</time>
      </trkpt>
      <trkpt lat="40.414200" lon="-5.502183">
        <ele>1705.0</ele>
        <time>2016-08-06T13:36:55Z</time>
      </trkpt>
      <trkpt lat="40.414283" lon="-5.502383">
        <ele>1702.0</ele>
        <time>2016-08-06T13:36:57Z</time>
      </trkpt>
      <trkpt lat="40.414367" lon="-5.502583">
        <ele>1697.0</ele>
        <time>2016-08-06T13:36:59Z</time>
      </trkpt>
      <trkpt lat="40.414450" lon="-5.502783">
        <ele>1691.0</ele>
        <time>2016-08-06T13:37:01Z</time>
      </trkpt>
      <trkpt lat="40.414550" lon="-5.503000">
        <ele>1686.0</ele>
        <time>2016-08-06T13:37:03Z</time>
      </trkpt>
      <trkpt lat="40.414600" lon="-5.503233">
        <ele>1681.0</ele>
        <time>2016-08-06T13:37:05Z</time>
      </trkpt>
      <trkpt lat="40.414617" lon="-5.503500">
        <ele>1675.0</ele>
        <time>2016-08-06T13:37:07Z</time>
      </trkpt>
      <trkpt lat="40.414633" lon="-5.503767">
        <ele>1670.0</ele>
        <time>2016-08-06T13:37:09Z</time>
      </trkpt>
      <trkpt lat="40.414633" lon="-5.504050">
        <ele>1666.0</ele>
        <time>2016-08-06T13:37:11Z</time>
      </trkpt>
      <trkpt lat="40.414617" lon="-5.504317">
        <ele>1664.0</ele>
        <time>2016-08-06T13:37:13Z</time>
      </trkpt>
      <trkpt lat="40.414617" lon="-5.504567">
        <ele>1660.0</ele>
        <time>2016-08-06T13:37:15Z</time>
      </trkpt>
      <trkpt lat="40.414650" lon="-5.504833">
        <ele>1655.0</ele>
        <time>2016-08-06T13:37:17Z</time>
      </trkpt>
      <trkpt lat="40.414633" lon="-5.505100">
        <ele>1652.0</ele>
        <time>2016-08-06T13:37:19Z</time>
      </trkpt>
      <trkpt lat="40.414600" lon="-5.505383">
        <ele>1648.0</ele>
        <time>2016-08-06T13:37:21Z</time>
      </trkpt>
      <trkpt lat="40.414550" lon="-5.505683">
        <ele>1642.0</ele>
        <time>2016-08-06T13:37:23Z</time>
      </trkpt>
      <trkpt lat="40.414517" lon="-5.505983">
        <ele>1639.0</ele>
        <time>2016-08-06T13:37:25Z</time>
      </trkpt>
      <trkpt lat="40.414483" lon="-5.506250">
        <ele>1636.0</ele>
        <time>2016-08-06T13:37:27Z</time>
      </trkpt>
      <trkpt lat="40.414467" lon="-5.506533">
        <ele>1632.0</ele>
        <time>2016-08-06T13:37:29Z</time>
      </trkpt>
      <trkpt lat="40.414450" lon="-5.506800">
        <ele>1629.0</ele>
        <time>2016-08-06T13:37:31Z</time>
      </trkpt>
      <trkpt lat="40.414433" lon="-5.507050">
        <ele>1626.0</ele>
        <time>2016-08-06T13:37:33Z</time>
      </trkpt>
      <trkpt lat="40.414417" lon="-5.507283">
        <ele>1623.0</ele>
        <time>2016-08-06T13:37:35Z</time>
      </trkpt>
      <trkpt lat="40.414383" lon="-5.507533">
        <ele>1619.0</ele>
        <time>2016-08-06T13:37:37Z</time>
      </trkpt>
      <trkpt lat="40.414367" lon="-5.507783">
        <ele>1618.0</ele>
        <time>2016-08-06T13:37:39Z</time>
      </trkpt>
      <trkpt lat="40.414333" lon="-5.508000">
        <ele>1617.0</ele>
        <time>2016-08-06T13:37:41Z</time>
      </trkpt>
      <trkpt lat="40.414283" lon="-5.508233">
        <ele>1614.0</ele>
        <time>2016-08-06T13:37:43Z</time>
      </trkpt>
      <trkpt lat="40.414250" lon="-5.508483">
        <ele>1609.0</ele>
        <time>2016-08-06T13:37:45Z</time>
      </trkpt>
      <trkpt lat="40.414233" lon="-5.508717">
        <ele>1606.0</ele>
        <time>2016-08-06T13:37:47Z</time>
      </trkpt>
      <trkpt lat="40.414183" lon="-5.508950">
        <ele>1602.0</ele>
        <time>2016-08-06T13:37:49Z</time>
      </trkpt>
      <trkpt lat="40.414150" lon="-5.509200">
        <ele>1597.0</ele>
        <time>2016-08-06T13:37:51Z</time>
      </trkpt>
      <trkpt lat="40.414100" lon="-5.509467">
        <ele>1593.0</ele>
        <time>2016-08-06T13:37:53Z</time>
      </trkpt>
      <trkpt lat="40.414067" lon="-5.509700">
        <ele>1589.0</ele>
        <time>2016-08-06T13:37:55Z</time>
      </trkpt>
      <trkpt lat="40.414033" lon="-5.509950">
        <ele>1583.0</ele>
        <time>2016-08-06T13:37:57Z</time>
      </trkpt>
      <trkpt lat="40.413983" lon="-5.510200">
        <ele>1579.0</ele>
        <time>2016-08-06T13:37:59Z</time>
      </trkpt>
      <trkpt lat="40.413933" lon="-5.510417">
        <ele>1574.0</ele>
        <time>2016-08-06T13:38:01Z</time>
      </trkpt>
      <trkpt lat="40.413900" lon="-5.510650">
        <ele>1565.0</ele>
        <time>2016-08-06T13:38:03Z</time>
      </trkpt>
      <trkpt lat="40.413867" lon="-5.510917">
        <ele>1557.0</ele>
        <time>2016-08-06T13:38:05Z</time>
      </trkpt>
      <trkpt lat="40.413850" lon="-5.511150">
        <ele>1553.0</ele>
        <time>2016-08-06T13:38:07Z</time>
      </trkpt>
      <trkpt lat="40.413817" lon="-5.511367">
        <ele>1546.0</ele>
        <time>2016-08-06T13:38:09Z</time>
      </trkpt>
      <trkpt lat="40.413800" lon="-5.511617">
        <ele>1539.0</ele>
        <time>2016-08-06T13:38:11Z</time>
      </trkpt>
      <trkpt lat="40.413783" lon="-5.511867">
        <ele>1535.0</ele>
        <time>2016-08-06T13:38:13Z</time>
      </trkpt>
      <trkpt lat="40.413767" lon="-5.512100">
        <ele>1531.0</ele>
        <time>2016-08-06T13:38:15Z</time>
      </trkpt>
      <trkpt lat="40.413750" lon="-5.512350">
        <ele>1526.0</ele>
        <time>2016-08-06T13:38:17Z</time>
      </trkpt>
      <trkpt lat="40.413717" lon="-5.512617">
        <ele>1521.0</ele>
        <time>2016-08-06T13:38:19Z</time>
      </trkpt>
      <trkpt lat="40.413683" lon="-5.512817">
        <ele>1518.0</ele>
        <time>2016-08-06T13:38:21Z</time>
      </trkpt>
      <trkpt lat="40.413633" lon="-5.513033">
        <ele>1511.0</ele>
        <time>2016-08-06T13:38:23Z</time>
      </trkpt>
      <trkpt lat="40.413583" lon="-5.513300">
        <ele>1503.0</ele>
        <time>2016-08-06T13:38:25Z</time>
      </trkpt>
      <trkpt lat="40.413550" lon="-5.513533">
        <ele>1498.0</ele>
        <time>2016-08-06T13:38:27Z</time>
      </trkpt>
      <trkpt lat="40.413517" lon="-5.513750">
        <ele>1491.0</ele>
        <time>2016-08-06T13:38:29Z</time>
      </trkpt>
      <trkpt lat="40.413467" lon="-5.514000">
        <ele>1484.0</ele>
        <time>2016-08-06T13:38:31Z</time>
      </trkpt>
      <trkpt lat="40.413417" lon="-5.514250">
        <ele>1480.0</ele>
        <time>2016-08-06T13:38:33Z</time>
      </trkpt>
      <trkpt lat="40.413383" lon="-5.514467">
        <ele>1476.0</ele>
        <time>2016-08-06T13:38:35Z</time>
      </trkpt>
      <trkpt lat="40.413317" lon="-5.514683">
        <ele>1470.0</ele>
        <time>2016-08-06T13:38:37Z</time>
      </trkpt>
      <trkpt lat="40.413250" lon="-5.514917">
        <ele>1465.0</ele>
        <time>2016-08-06T13:38:39Z</time>
      </trkpt>
      <trkpt lat="40.413183" lon="-5.515133">
        <ele>1459.0</ele>
        <time>2016-08-06T13:38:41Z</time>
      </trkpt>
      <trkpt lat="40.413117" lon="-5.515383">
        <ele>1454.0</ele>
        <time>2016-08-06T13:38:43Z</time>
      </trkpt>
      <trkpt lat="40.413033" lon="-5.515633">
        <ele>1448.0</ele>
        <time>2016-08-06T13:38:45Z</time>
      </trkpt>
      <trkpt lat="40.412950" lon="-5.515883">
        <ele>1443.0</ele>
        <time>2016-08-06T13:38:47Z</time>
      </trkpt>
      <trkpt lat="40.412850" lon="-5.516133">
        <ele>1438.0</ele>
        <time>2016-08-06T13:38:49Z</time>
      </trkpt>
      <trkpt lat="40.412767" lon="-5.516367">
        <ele>1432.0</ele>
        <time>2016-08-06T13:38:51Z</time>
      </trkpt>
      <trkpt lat="40.412683" lon="-5.516617">
        <ele>1428.0</ele>
        <time>2016-08-06T13:38:53Z</time>
      </trkpt>
      <trkpt lat="40.412567" lon="-5.516867">
        <ele>1424.0</ele>
        <time>2016-08-06T13:38:55Z</time>
      </trkpt>
      <trkpt lat="40.412483" lon="-5.517100">
        <ele>1420.0</ele>
        <time>2016-08-06T13:38:57Z</time>
      </trkpt>
      <trkpt lat="40.412367" lon="-5.517350">
        <ele>1417.0</ele>
        <time>2016-08-06T13:38:59Z</time>
      </trkpt>
      <trkpt lat="40.412283" lon="-5.517600">
        <ele>1413.0</ele>
        <time>2016-08-06T13:39:01Z</time>
      </trkpt>
      <trkpt lat="40.412167" lon="-5.517883">
        <ele>1408.0</ele>
        <time>2016-08-06T13:39:03Z</time>
      </trkpt>
      <trkpt lat="40.412033" lon="-5.518183">
        <ele>1406.0</ele>
        <time>2016-08-06T13:39:05Z</time>
      </trkpt>
      <trkpt lat="40.411900" lon="-5.518433">
        <ele>1405.0</ele>
        <time>2016-08-06T13:39:07Z</time>
      </trkpt>
      <trkpt lat="40.411783" lon="-5.518667">
        <ele>1401.0</ele>
        <time>2016-08-06T13:39:09Z</time>
      </trkpt>
      <trkpt lat="40.411650" lon="-5.518917">
        <ele>1395.0</ele>
        <time>2016-08-06T13:39:11Z</time>
      </trkpt>
      <trkpt lat="40.411517" lon="-5.519183">
        <ele>1389.0</ele>
        <time>2016-08-06T13:39:13Z</time>
      </trkpt>
      <trkpt lat="40.411367" lon="-5.519450">
        <ele>1387.0</ele>
        <time>2016-08-06T13:39:15Z</time>
      </trkpt>
      <trkpt lat="40.411233" lon="-5.519683">
        <ele>1384.0</ele>
        <time>2016-08-06T13:39:17Z</time>
      </trkpt>
      <trkpt lat="40.411100" lon="-5.519950">
        <ele>1381.0</ele>
        <time>2016-08-06T13:39:19Z</time>
      </trkpt>
      <trkpt lat="40.410967" lon="-5.520233">
        <ele>1379.0</ele>
        <time>2016-08-06T13:39:21Z</time>
      </trkpt>
      <trkpt lat="40.410817" lon="-5.520517">
        <ele>1382.0</ele>
        <time>2016-08-06T13:39:23Z</time>
      </trkpt>
      <trkpt lat="40.410683" lon="-5.520800">
        <ele>1387.0</ele>
        <time>2016-08-06T13:39:25Z</time>
      </trkpt>
      <trkpt lat="40.410633" lon="-5.521067">
        <ele>1389.0</ele>
        <time>2016-08-06T13:39:27Z</time>
      </trkpt>
      <trkpt lat="40.410667" lon="-5.521200">
        <ele>1389.0</ele>
        <time>2016-08-06T13:39:29Z</time>
      </trkpt>
      <trkpt lat="40.410733" lon="-5.521267">
        <ele>1389.0</ele>
        <time>2016-08-06T13:39:31Z</time>
      </trkpt>
      <trkpt lat="40.410833" lon="-5.521217">
        <ele>1388.0</ele>
        <time>2016-08-06T13:39:33Z</time>
      </trkpt>
      <trkpt lat="40.410883" lon="-5.521050">
        <ele>1387.0</ele>
        <time>2016-08-06T13:39:35Z</time>
      </trkpt>
      <trkpt lat="40.410867" lon="-5.520817">
        <ele>1386.0</ele>
        <time>2016-08-06T13:39:37Z</time>
      </trkpt>
      <trkpt lat="40.410783" lon="-5.520567">
        <ele>1389.0</ele>
        <time>2016-08-06T13:39:39Z</time>
      </trkpt>
      <trkpt lat="40.410633" lon="-5.520333">
        <ele>1394.0</ele>
        <time>2016-08-06T13:39:41Z</time>
      </trkpt>
      <trkpt lat="40.410500" lon="-5.520183">
        <ele>1398.0</ele>
        <time>2016-08-06T13:39:43Z</time>
      </trkpt>
      <trkpt lat="40.410300" lon="-5.520067">
        <ele>1397.0</ele>
        <time>2016-08-06T13:39:45Z</time>
      </trkpt>
      <trkpt lat="40.410050" lon="-5.520017">
        <ele>1395.0</ele>
        <time>2016-08-06T13:39:47Z</time>
      </trkpt>
      <trkpt lat="40.409767" lon="-5.520083">
        <ele>1392.0</ele>
        <time>2016-08-06T13:39:49Z</time>
      </trkpt>
      <trkpt lat="40.409533" lon="-5.520233">
        <ele>1390.0</ele>
        <time>2016-08-06T13:39:51Z</time>
      </trkpt>
      <trkpt lat="40.409333" lon="-5.520400">
        <ele>1390.0</ele>
        <time>2016-08-06T13:39:53Z</time>
      </trkpt>
      <trkpt lat="40.409150" lon="-5.520600">
        <ele>1389.0</ele>
        <time>2016-08-06T13:39:55Z</time>
      </trkpt>
      <trkpt lat="40.409050" lon="-5.520833">
        <ele>1389.0</ele>
        <time>2016-08-06T13:39:57Z</time>
      </trkpt>
      <trkpt lat="40.408983" lon="-5.521067">
        <ele>1392.0</ele>
        <time>2016-08-06T13:39:59Z</time>
      </trkpt>
      <trkpt lat="40.408933" lon="-5.521283">
        <ele>1398.0</ele>
        <time>2016-08-06T13:40:01Z</time>
      </trkpt>
      <trkpt lat="40.408917" lon="-5.521483">
        <ele>1402.0</ele>
        <time>2016-08-06T13:40:03Z</time>
      </trkpt>
      <trkpt lat="40.408917" lon="-5.521667">
        <ele>1407.0</ele>
        <time>2016-08-06T13:40:05Z</time>
      </trkpt>
      <trkpt lat="40.408950" lon="-5.521817">
        <ele>1411.0</ele>
        <time>2016-08-06T13:40:07Z</time>
      </trkpt>
      <trkpt lat="40.409033" lon="-5.521917">
        <ele>1415.0</ele>
        <time>2016-08-06T13:40:09Z</time>
      </trkpt>
      <trkpt lat="40.409117" lon="-5.521883">
        <ele>1419.0</ele>
        <time>2016-08-06T13:40:11Z</time>
      </trkpt>
      <trkpt lat="40.409167" lon="-5.521700">
        <ele>1424.0</ele>
        <time>2016-08-06T13:40:13Z</time>
      </trkpt>
      <trkpt lat="40.409100" lon="-5.521467">
        <ele>1430.0</ele>
        <time>2016-08-06T13:40:15Z</time>
      </trkpt>
      <trkpt lat="40.408917" lon="-5.521283">
        <ele>1436.0</ele>
        <time>2016-08-06T13:40:17Z</time>
      </trkpt>
      <trkpt lat="40.408700" lon="-5.521233">
        <ele>1441.0</ele>
        <time>2016-08-06T13:40:19Z</time>
      </trkpt>
      <trkpt lat="40.408483" lon="-5.521283">
        <ele>1447.0</ele>
        <time>2016-08-06T13:40:21Z</time>
      </trkpt>
      <trkpt lat="40.408300" lon="-5.521450">
        <ele>1450.0</ele>
        <time>2016-08-06T13:40:23Z</time>
      </trkpt>
      <trkpt lat="40.408217" lon="-5.521700">
        <ele>1454.0</ele>
        <time>2016-08-06T13:40:25Z</time>
      </trkpt>
      <trkpt lat="40.408183" lon="-5.521917">
        <ele>1460.0</ele>
        <time>2016-08-06T13:40:27Z</time>
      </trkpt>
      <trkpt lat="40.408233" lon="-5.522083">
        <ele>1465.0</ele>
        <time>2016-08-06T13:40:29Z</time>
      </trkpt>
      <trkpt lat="40.408350" lon="-5.522167">
        <ele>1467.0</ele>
        <time>2016-08-06T13:40:31Z</time>
      </trkpt>
      <trkpt lat="40.408500" lon="-5.522083">
        <ele>1470.0</ele>
        <time>2016-08-06T13:40:33Z</time>
      </trkpt>
      <trkpt lat="40.408600" lon="-5.521850">
        <ele>1478.0</ele>
        <time>2016-08-06T13:40:35Z</time>
      </trkpt>
      <trkpt lat="40.408600" lon="-5.521617">
        <ele>1489.0</ele>
        <time>2016-08-06T13:40:37Z</time>
      </trkpt>
      <trkpt lat="40.408550" lon="-5.521400">
        <ele>1495.0</ele>
        <time>2016-08-06T13:40:39Z</time>
      </trkpt>
      <trkpt lat="40.408367" lon="-5.521200">
        <ele>1497.0</ele>
        <time>2016-08-06T13:40:41Z</time>
      </trkpt>
      <trkpt lat="40.408117" lon="-5.521117">
        <ele>1501.0</ele>
        <time>2016-08-06T13:40:43Z</time>
      </trkpt>
      <trkpt lat="40.407867" lon="-5.521233">
        <ele>1508.0</ele>
        <time>2016-08-06T13:40:45Z</time>
      </trkpt>
      <trkpt lat="40.407700" lon="-5.521367">
        <ele>1517.0</ele>
        <time>2016-08-06T13:40:47Z</time>
      </trkpt>
      <trkpt lat="40.407550" lon="-5.521517">
        <ele>1522.0</ele>
        <time>2016-08-06T13:40:49Z</time>
      </trkpt>
      <trkpt lat="40.407517" lon="-5.521750">
        <ele>1523.0</ele>
        <time>2016-08-06T13:40:51Z</time>
      </trkpt>
      <trkpt lat="40.407600" lon="-5.521900">
        <ele>1528.0</ele>
        <time>2016-08-06T13:40:53Z</time>
      </trkpt>
      <trkpt lat="40.407717" lon="-5.521933">
        <ele>1535.0</ele>
        <time>2016-08-06T13:40:55Z</time>
      </trkpt>
      <trkpt lat="40.407833" lon="-5.521817">
        <ele>1541.0</ele>
        <time>2016-08-06T13:40:57Z</time>
      </trkpt>
      <trkpt lat="40.407933" lon="-5.521650">
        <ele>1551.0</ele>
        <time>2016-08-06T13:40:59Z</time>
      </trkpt>
      <trkpt lat="40.407950" lon="-5.521433">
        <ele>1561.0</ele>
        <time>2016-08-06T13:41:01Z</time>
      </trkpt>
      <trkpt lat="40.407900" lon="-5.521200">
        <ele>1566.0</ele>
        <time>2016-08-06T13:41:03Z</time>
      </trkpt>
      <trkpt lat="40.407750" lon="-5.520983">
        <ele>1572.0</ele>
        <time>2016-08-06T13:41:05Z</time>
      </trkpt>
      <trkpt lat="40.407500" lon="-5.520933">
        <ele>1575.0</ele>
        <time>2016-08-06T13:41:07Z</time>
      </trkpt>
      <trkpt lat="40.407283" lon="-5.521083">
        <ele>1579.0</ele>
        <time>2016-08-06T13:41:09Z</time>
      </trkpt>
      <trkpt lat="40.407167" lon="-5.521267">
        <ele>1589.0</ele>
        <time>2016-08-06T13:41:11Z</time>
      </trkpt>
      <trkpt lat="40.407083" lon="-5.521400">
        <ele>1600.0</ele>
        <time>2016-08-06T13:41:13Z</time>
      </trkpt>
      <trkpt lat="40.407067" lon="-5.521550">
        <ele>1605.0</ele>
        <time>2016-08-06T13:41:15Z</time>
      </trkpt>
      <trkpt lat="40.407183" lon="-5.521683">
        <ele>1613.0</ele>
        <time>2016-08-06T13:41:17Z</time>
      </trkpt>
      <trkpt lat="40.407267" lon="-5.521750">
        <ele>1628.0</ele>
        <time>2016-08-06T13:41:19Z</time>
      </trkpt>
      <trkpt lat="40.407350" lon="-5.521750">
        <ele>1635.0</ele>
        <time>2016-08-06T13:41:21Z</time>
      </trkpt>
      <trkpt lat="40.407467" lon="-5.521667">
        <ele>1638.0</ele>
        <time>2016-08-06T13:41:23Z</time>
      </trkpt>
      <trkpt lat="40.407533" lon="-5.521500">
        <ele>1642.0</ele>
        <time>2016-08-06T13:41:25Z</time>
      </trkpt>
      <trkpt lat="40.407500" lon="-5.521317">
        <ele>1647.0</ele>
        <time>2016-08-06T13:41:27Z</time>
      </trkpt>
      <trkpt lat="40.407433" lon="-5.521167">
        <ele>1648.0</ele>
        <time>2016-08-06T13:41:29Z</time>
      </trkpt>
      <trkpt lat="40.407283" lon="-5.521017">
        <ele>1645.0</ele>
        <time>2016-08-06T13:41:31Z</time>
      </trkpt>
      <trkpt lat="40.407033" lon="-5.520900">
        <ele>1644.0</ele>
        <time>2016-08-06T13:41:33Z</time>
      </trkpt>
      <trkpt lat="40.406783" lon="-5.520867">
        <ele>1651.0</ele>
        <time>2016-08-06T13:41:35Z</time>
      </trkpt>
      <trkpt lat="40.406533" lon="-5.520900">
        <ele>1656.0</ele>
        <time>2016-08-06T13:41:37Z</time>
      </trkpt>
      <trkpt lat="40.406267" lon="-5.521000">
        <ele>1658.0</ele>
        <time>2016-08-06T13:41:39Z</time>
      </trkpt>
      <trkpt lat="40.406117" lon="-5.521183">
        <ele>1668.0</ele>
        <time>2016-08-06T13:41:41Z</time>
      </trkpt>
      <trkpt lat="40.406067" lon="-5.521333">
        <ele>1678.0</ele>
        <time>2016-08-06T13:41:43Z</time>
      </trkpt>
      <trkpt lat="40.406033" lon="-5.521467">
        <ele>1684.0</ele>
        <time>2016-08-06T13:41:45Z</time>
      </trkpt>
      <trkpt lat="40.406067" lon="-5.521617">
        <ele>1690.0</ele>
        <time>2016-08-06T13:41:47Z</time>
      </trkpt>
      <trkpt lat="40.406183" lon="-5.521617">
        <ele>1695.0</ele>
        <time>2016-08-06T13:41:49Z</time>
      </trkpt>
      <trkpt lat="40.406283" lon="-5.521483">
        <ele>1702.0</ele>
        <time>2016-08-06T13:41:51Z</time>
      </trkpt>
      <trkpt lat="40.406300" lon="-5.521283">
        <ele>1712.0</ele>
        <time>2016-08-06T13:41:53Z</time>
      </trkpt>
      <trkpt lat="40.406267" lon="-5.521100">
        <ele>1720.0</ele>
        <time>2016-08-06T13:41:55Z</time>
      </trkpt>
      <trkpt lat="40.406117" lon="-5.520917">
        <ele>1723.0</ele>
        <time>2016-08-06T13:41:57Z</time>
      </trkpt>
      <trkpt lat="40.405900" lon="-5.520817">
        <ele>1725.0</ele>
        <time>2016-08-06T13:41:59Z</time>
      </trkpt>
      <trkpt lat="40.405617" lon="-5.520767">
        <ele>1730.0</ele>
        <time>2016-08-06T13:42:01Z</time>
      </trkpt>
      <trkpt lat="40.405383" lon="-5.520833">
        <ele>1735.0</ele>
        <time>2016-08-06T13:42:03Z</time>
      </trkpt>
      <trkpt lat="40.405233" lon="-5.521017">
        <ele>1741.0</ele>
        <time>2016-08-06T13:42:05Z</time>
      </trkpt>
      <trkpt lat="40.405183" lon="-5.521200">
        <ele>1747.0</ele>
        <time>2016-08-06T13:42:07Z</time>
      </trkpt>
      <trkpt lat="40.405200" lon="-5.521367">
        <ele>1752.0</ele>
        <time>2016-08-06T13:42:09Z</time>
      </trkpt>
      <trkpt lat="40.405283" lon="-5.521500">
        <ele>1757.0</ele>
        <time>2016-08-06T13:42:11Z</time>
      </trkpt>
      <trkpt lat="40.405417" lon="-5.521533">
        <ele>1766.0</ele>
        <time>2016-08-06T13:42:13Z</time>
      </trkpt>
      <trkpt lat="40.405517" lon="-5.521467">
        <ele>1774.0</ele>
        <time>2016-08-06T13:42:15Z</time>
      </trkpt>
      <trkpt lat="40.405583" lon="-5.521317">
        <ele>1782.0</ele>
        <time>2016-08-06T13:42:17Z</time>
      </trkpt>
      <trkpt lat="40.405533" lon="-5.521133">
        <ele>1787.0</ele>
        <time>2016-08-06T13:42:19Z</time>
      </trkpt>
      <trkpt lat="40.405383" lon="-5.520967">
        <ele>1787.0</ele>
        <time>2016-08-06T13:42:21Z</time>
      </trkpt>
      <trkpt lat="40.405167" lon="-5.520817">
        <ele>1788.0</ele>
        <time>2016-08-06T13:42:23Z</time>
      </trkpt>
      <trkpt lat="40.404900" lon="-5.520783">
        <ele>1793.0</ele>
        <time>2016-08-06T13:42:25Z</time>
      </trkpt>
      <trkpt lat="40.404683" lon="-5.520883">
        <ele>1800.0</ele>
        <time>2016-08-06T13:42:27Z</time>
      </trkpt>
      <trkpt lat="40.404533" lon="-5.521000">
        <ele>1805.0</ele>
        <time>2016-08-06T13:42:29Z</time>
      </trkpt>
      <trkpt lat="40.404450" lon="-5.521200">
        <ele>1806.0</ele>
        <time>2016-08-06T13:42:31Z</time>
      </trkpt>
      <trkpt lat="40.404417" lon="-5.521417">
        <ele>1810.0</ele>
        <time>2016-08-06T13:42:33Z</time>
      </trkpt>
      <trkpt lat="40.404483" lon="-5.521583">
        <ele>1819.0</ele>
        <time>2016-08-06T13:42:35Z</time>
      </trkpt>
      <trkpt lat="40.404567" lon="-5.521683">
        <ele>1831.0</ele>
        <time>2016-08-06T13:42:37Z</time>
      </trkpt>
      <trkpt lat="40.404683" lon="-5.521683">
        <ele>1839.0</ele>
        <time>2016-08-06T13:42:39Z</time>
      </trkpt>
      <trkpt lat="40.404817" lon="-5.521617">
        <ele>1846.0</ele>
        <time>2016-08-06T13:42:41Z</time>
      </trkpt>
      <trkpt lat="40.404883" lon="-5.521433">
        <ele>1851.0</ele>
        <time>2016-08-06T13:42:43Z</time>
      </trkpt>
      <trkpt lat="40.404850" lon="-5.521200">
        <ele>1855.0</ele>
        <time>2016-08-06T13:42:45Z</time>
      </trkpt>
      <trkpt lat="40.404717" lon="-5.520983">
        <ele>1858.0</ele>
        <time>2016-08-06T13:42:47Z</time>
      </trkpt>
      <trkpt lat="40.404517" lon="-5.520833">
        <ele>1862.0</ele>
        <time>2016-08-06T13:42:49Z</time>
      </trkpt>
      <trkpt lat="40.404300" lon="-5.520833">
        <ele>1865.0</ele>
        <time>2016-08-06T13:42:51Z</time>
      </trkpt>
      <trkpt lat="40.404100" lon="-5.520950">
        <ele>1869.0</ele>
        <time>2016-08-06T13:42:53Z</time>
      </trkpt>
      <trkpt lat="40.403967" lon="-5.521083">
        <ele>1880.0</ele>
        <time>2016-08-06T13:42:55Z</time>
      </trkpt>
      <trkpt lat="40.403883" lon="-5.521233">
        <ele>1891.0</ele>
        <time>2016-08-06T13:42:57Z</time>
      </trkpt>
      <trkpt lat="40.403833" lon="-5.521417">
        <ele>1902.0</ele>
        <time>2016-08-06T13:42:59Z</time>
      </trkpt>
      <trkpt lat="40.403800" lon="-5.521583">
        <ele>1913.0</ele>
        <time>2016-08-06T13:43:01Z</time>
      </trkpt>
      <trkpt lat="40.403850" lon="-5.521717">
        <ele>1923.0</ele>
        <time>2016-08-06T13:43:03Z</time>
      </trkpt>
      <trkpt lat="40.403967" lon="-5.521783">
        <ele>1933.0</ele>
        <time>2016-08-06T13:43:05Z</time>
      </trkpt>
      <trkpt lat="40.404083" lon="-5.521733">
        <ele>1941.0</ele>
        <time>2016-08-06T13:43:07Z</time>
      </trkpt>
      <trkpt lat="40.404100" lon="-5.521550">
        <ele>1945.0</ele>
        <time>2016-08-06T13:43:09Z</time>
      </trkpt>
      <trkpt lat="40.404050" lon="-5.521317">
        <ele>1948.0</ele>
        <time>2016-08-06T13:43:11Z</time>
      </trkpt>
      <trkpt lat="40.403883" lon="-5.521150">
        <ele>1952.0</ele>
        <time>2016-08-06T13:43:13Z</time>
      </trkpt>
      <trkpt lat="40.403667" lon="-5.521117">
        <ele>1955.0</ele>
        <time>2016-08-06T13:43:15Z</time>
      </trkpt>
      <trkpt lat="40.403417" lon="-5.521167">
        <ele>1961.0</ele>
        <time>2016-08-06T13:43:17Z</time>
      </trkpt>
      <trkpt lat="40.403183" lon="-5.521300">
        <ele>1973.0</ele>
        <time>2016-08-06T13:43:19Z</time>
      </trkpt>
      <trkpt lat="40.403067" lon="-5.521467">
        <ele>1983.0</ele>
        <time>2016-08-06T13:43:21Z</time>
      </trkpt>
      <trkpt lat="40.403000" lon="-5.521633">
        <ele>1988.0</ele>
        <time>2016-08-06T13:43:23Z</time>
      </trkpt>
      <trkpt lat="40.402950" lon="-5.521850">
        <ele>1990.0</ele>
        <time>2016-08-06T13:43:25Z</time>
      </trkpt>
      <trkpt lat="40.403000" lon="-5.522100">
        <ele>1995.0</ele>
        <time>2016-08-06T13:43:27Z</time>
      </trkpt>
      <trkpt lat="40.403100" lon="-5.522283">
        <ele>2010.0</ele>
        <time>2016-08-06T13:43:29Z</time>
      </trkpt>
      <trkpt lat="40.403133" lon="-5.522417">
        <ele>2022.0</ele>
        <time>2016-08-06T13:43:31Z</time>
      </trkpt>
      <trkpt lat="40.403167" lon="-5.522517">
        <ele>2027.0</ele>
        <time>2016-08-06T13:43:33Z</time>
      </trkpt>
      <trkpt lat="40.403283" lon="-5.522617">
        <ele>2028.0</ele>
        <time>2016-08-06T13:43:35Z</time>
      </trkpt>
      <trkpt lat="40.403383" lon="-5.522617">
        <ele>2032.0</ele>
        <time>2016-08-06T13:43:37Z</time>
      </trkpt>
      <trkpt lat="40.403483" lon="-5.522500">
        <ele>2034.0</ele>
        <time>2016-08-06T13:43:39Z</time>
      </trkpt>
      <trkpt lat="40.403567" lon="-5.522267">
        <ele>2035.0</ele>
        <time>2016-08-06T13:43:41Z</time>
      </trkpt>
      <trkpt lat="40.403500" lon="-5.521983">
        <ele>2038.0</ele>
        <time>2016-08-06T13:43:43Z</time>
      </trkpt>
      <trkpt lat="40.403333" lon="-5.521817">
        <ele>2043.0</ele>
        <time>2016-08-06T13:43:45Z</time>
      </trkpt>
      <trkpt lat="40.403150" lon="-5.521717">
        <ele>2045.0</ele>
        <time>2016-08-06T13:43:47Z</time>
      </trkpt>
      <trkpt lat="40.402933" lon="-5.521717">
        <ele>2044.0</ele>
        <time>2016-08-06T13:43:49Z</time>
      </trkpt>
      <trkpt lat="40.402683" lon="-5.521850">
        <ele>2047.0</ele>
        <time>2016-08-06T13:43:51Z</time>
      </trkpt>
      <trkpt lat="40.402517" lon="-5.522033">
        <ele>2055.0</ele>
        <time>2016-08-06T13:43:53Z</time>
      </trkpt>
      <trkpt lat="40.402417" lon="-5.522200">
        <ele>2062.0</ele>
        <time>2016-08-06T13:43:55Z</time>
      </trkpt>
      <trkpt lat="40.402383" lon="-5.522417">
        <ele>2064.0</ele>
        <time>2016-08-06T13:43:57Z</time>
      </trkpt>
      <trkpt lat="40.402433" lon="-5.522617">
        <ele>2069.0</ele>
        <time>2016-08-06T13:43:59Z</time>
      </trkpt>
      <trkpt lat="40.402500" lon="-5.522683">
        <ele>2075.0</ele>
        <time>2016-08-06T13:44:01Z</time>
      </trkpt>
      <trkpt lat="40.402567" lon="-5.522650">
        <ele>2076.0</ele>
        <time>2016-08-06T13:44:03Z</time>
      </trkpt>
      <trkpt lat="40.402667" lon="-5.522533">
        <ele>2074.0</ele>
        <time>2016-08-06T13:44:05Z</time>
      </trkpt>
      <trkpt lat="40.402683" lon="-5.522267">
        <ele>2075.0</ele>
        <time>2016-08-06T13:44:07Z</time>
      </trkpt>
      <trkpt lat="40.402567" lon="-5.522017">
        <ele>2078.0</ele>
        <time>2016-08-06T13:44:09Z</time>
      </trkpt>
      <trkpt lat="40.402367" lon="-5.521850">
        <ele>2081.0</ele>
        <time>2016-08-06T13:44:11Z</time>
      </trkpt>
      <trkpt lat="40.402133" lon="-5.521767">
        <ele>2083.0</ele>
        <time>2016-08-06T13:44:13Z</time>
      </trkpt>
      <trkpt lat="40.401883" lon="-5.521833">
        <ele>2086.0</ele>
        <time>2016-08-06T13:44:15Z</time>
      </trkpt>
      <trkpt lat="40.401717" lon="-5.522033">
        <ele>2092.0</ele>
        <time>2016-08-06T13:44:17Z</time>
      </trkpt>
      <trkpt lat="40.401650" lon="-5.522283">
        <ele>2098.0</ele>
        <time>2016-08-06T13:44:19Z</time>
      </trkpt>
      <trkpt lat="40.401650" lon="-5.522533">
        <ele>2103.0</ele>
        <time>2016-08-06T13:44:21Z</time>
      </trkpt>
      <trkpt lat="40.401667" lon="-5.522717">
        <ele>2108.0</ele>
        <time>2016-08-06T13:44:23Z</time>
      </trkpt>
      <trkpt lat="40.401750" lon="-5.522817">
        <ele>2110.0</ele>
        <time>2016-08-06T13:44:25Z</time>
      </trkpt>
      <trkpt lat="40.401833" lon="-5.522817">
        <ele>2112.0</ele>
        <time>2016-08-06T13:44:27Z</time>
      </trkpt>
      <trkpt lat="40.401883" lon="-5.522700">
        <ele>2113.0</ele>
        <time>2016-08-06T13:44:29Z</time>
      </trkpt>
      <trkpt lat="40.401900" lon="-5.522450">
        <ele>2115.0</ele>
        <time>2016-08-06T13:44:31Z</time>
      </trkpt>
      <trkpt lat="40.401783" lon="-5.522200">
        <ele>2117.0</ele>
        <time>2016-08-06T13:44:33Z</time>
      </trkpt>
      <trkpt lat="40.401567" lon="-5.522050">
        <ele>2120.0</ele>
        <time>2016-08-06T13:44:35Z</time>
      </trkpt>
      <trkpt lat="40.401317" lon="-5.522067">
        <ele>2122.0</ele>
        <time>2016-08-06T13:44:37Z</time>
      </trkpt>
      <trkpt lat="40.401117" lon="-5.522183">
        <ele>2126.0</ele>
        <time>2016-08-06T13:44:39Z</time>
      </trkpt>
      <trkpt lat="40.400967" lon="-5.522367">
        <ele>2129.0</ele>
        <time>2016-08-06T13:44:41Z</time>
      </trkpt>
      <trkpt lat="40.400883" lon="-5.522600">
        <ele>2133.0</ele>
        <time>2016-08-06T13:44:43Z</time>
      </trkpt>
      <trkpt lat="40.400850" lon="-5.522800">
        <ele>2137.0</ele>
        <time>2016-08-06T13:44:45Z</time>
      </trkpt>
      <trkpt lat="40.400867" lon="-5.522967">
        <ele>2139.0</ele>
        <time>2016-08-06T13:44:47Z</time>
      </trkpt>
      <trkpt lat="40.400917" lon="-5.523117">
        <ele>2143.0</ele>
        <time>2016-08-06T13:44:49Z</time>
      </trkpt>
      <trkpt lat="40.400967" lon="-5.523217">
        <ele>2148.0</ele>
        <time>2016-08-06T13:44:51Z</time>
      </trkpt>
      <trkpt lat="40.401017" lon="-5.523267">
        <ele>2150.0</ele>
        <time>2016-08-06T13:44:53Z</time>
      </trkpt>
      <trkpt lat="40.401100" lon="-5.523217">
        <ele>2149.0</ele>
        <time>2016-08-06T13:44:55Z</time>
      </trkpt>
      <trkpt lat="40.401183" lon="-5.523050">
        <ele>2149.0</ele>
        <time>2016-08-06T13:44:57Z</time>
      </trkpt>
      <trkpt lat="40.401183" lon="-5.522800">
        <ele>2149.0</ele>
        <time>2016-08-06T13:44:59Z</time>
      </trkpt>
      <trkpt lat="40.401050" lon="-5.522550">
        <ele>2149.0</ele>
        <time>2016-08-06T13:45:01Z</time>
      </trkpt>
      <trkpt lat="40.400767" lon="-5.522450">
        <ele>2151.0</ele>
        <time>2016-08-06T13:45:03Z</time>
      </trkpt>
      <trkpt lat="40.400467" lon="-5.522400">
        <ele>2161.0</ele>
        <time>2016-08-06T13:45:05Z</time>
      </trkpt>
      <trkpt lat="40.400250" lon="-5.522417">
        <ele>2171.0</ele>
        <time>2016-08-06T13:45:07Z</time>
      </trkpt>
      <trkpt lat="40.400050" lon="-5.522533">
        <ele>2172.0</ele>
        <time>2016-08-06T13:45:09Z</time>
      </trkpt>
      <trkpt lat="40.399850" lon="-5.522767">
        <ele>2174.0</ele>
        <time>2016-08-06T13:45:11Z</time>
      </trkpt>
      <trkpt lat="40.399750" lon="-5.523033">
        <ele>2179.0</ele>
        <time>2016-08-06T13:45:13Z</time>
      </trkpt>
      <trkpt lat="40.399717" lon="-5.523250">
        <ele>2184.0</ele>
        <time>2016-08-06T13:45:15Z</time>
      </trkpt>
      <trkpt lat="40.399717" lon="-5.523417">
        <ele>2186.0</ele>
        <time>2016-08-06T13:45:17Z</time>
      </trkpt>
      <trkpt lat="40.399783" lon="-5.523483">
        <ele>2184.0</ele>
        <time>2016-08-06T13:45:19Z</time>
      </trkpt>
      <trkpt lat="40.399850" lon="-5.523450">
        <ele>2186.0</ele>
        <time>2016-08-06T13:45:21Z</time>
      </trkpt>
      <trkpt lat="40.399883" lon="-5.523317">
        <ele>2193.0</ele>
        <time>2016-08-06T13:45:23Z</time>
      </trkpt>
      <trkpt lat="40.399833" lon="-5.523100">
        <ele>2196.0</ele>
        <time>2016-08-06T13:45:25Z</time>
      </trkpt>
      <trkpt lat="40.399733" lon="-5.522833">
        <ele>2202.0</ele>
        <time>2016-08-06T13:45:27Z</time>
      </trkpt>
      <trkpt lat="40.399550" lon="-5.522650">
        <ele>2206.0</ele>
        <time>2016-08-06T13:45:29Z</time>
      </trkpt>
      <trkpt lat="40.399283" lon="-5.522517">
        <ele>2211.0</ele>
        <time>2016-08-06T13:45:31Z</time>
      </trkpt>
      <trkpt lat="40.399017" lon="-5.522550">
        <ele>2215.0</ele>
        <time>2016-08-06T13:45:33Z</time>
      </trkpt>
      <trkpt lat="40.398817" lon="-5.522683">
        <ele>2218.0</ele>
        <time>2016-08-06T13:45:35Z</time>
      </trkpt>
      <trkpt lat="40.398700" lon="-5.522883">
        <ele>2219.0</ele>
        <time>2016-08-06T13:45:37Z</time>
      </trkpt>
      <trkpt lat="40.398633" lon="-5.523150">
        <ele>2217.0</ele>
        <time>2016-08-06T13:45:39Z</time>
      </trkpt>
      <trkpt lat="40.398617" lon="-5.523417">
        <ele>2219.0</ele>
        <time>2016-08-06T13:45:41Z</time>
      </trkpt>
      <trkpt lat="40.398633" lon="-5.523633">
        <ele>2224.0</ele>
        <time>2016-08-06T13:45:43Z</time>
      </trkpt>
      <trkpt lat="40.398633" lon="-5.523750">
        <ele>2230.0</ele>
        <time>2016-08-06T13:45:45Z</time>
      </trkpt>
      <trkpt lat="40.398650" lon="-5.523867">
        <ele>2232.0</ele>
        <time>2016-08-06T13:45:47Z</time>
      </trkpt>
      <trkpt lat="40.398717" lon="-5.523883">
        <ele>2233.0</ele>
        <time>2016-08-06T13:45:49Z</time>
      </trkpt>
      <trkpt lat="40.398800" lon="-5.523783">
        <ele>2235.0</ele>
        <time>2016-08-06T13:45:51Z</time>
      </trkpt>
      <trkpt lat="40.398817" lon="-5.523633">
        <ele>2242.0</ele>
        <time>2016-08-06T13:45:53Z</time>
      </trkpt>
      <trkpt lat="40.398717" lon="-5.523433">
        <ele>2246.0</ele>
        <time>2016-08-06T13:45:55Z</time>
      </trkpt>
      <trkpt lat="40.398550" lon="-5.523233">
        <ele>2250.0</ele>
        <time>2016-08-06T13:45:57Z</time>
      </trkpt>
      <trkpt lat="40.398300" lon="-5.523133">
        <ele>2253.0</ele>
        <time>2016-08-06T13:45:59Z</time>
      </trkpt>
      <trkpt lat="40.398067" lon="-5.523200">
        <ele>2256.0</ele>
        <time>2016-08-06T13:46:01Z</time>
      </trkpt>
      <trkpt lat="40.397867" lon="-5.523317">
        <ele>2257.0</ele>
        <time>2016-08-06T13:46:03Z</time>
      </trkpt>
      <trkpt lat="40.397700" lon="-5.523533">
        <ele>2253.0</ele>
        <time>2016-08-06T13:46:05Z</time>
      </trkpt>
      <trkpt lat="40.397617" lon="-5.523817">
        <ele>2252.0</ele>
        <time>2016-08-06T13:46:07Z</time>
      </trkpt>
      <trkpt lat="40.397567" lon="-5.524050">
        <ele>2259.0</ele>
        <time>2016-08-06T13:46:09Z</time>
      </trkpt>
      <trkpt lat="40.397500" lon="-5.524233">
        <ele>2260.0</ele>
        <time>2016-08-06T13:46:11Z</time>
      </trkpt>
      <trkpt lat="40.397450" lon="-5.524467">
        <ele>2255.0</ele>
        <time>2016-08-06T13:46:13Z</time>
      </trkpt>
      <trkpt lat="40.397417" lon="-5.524683">
        <ele>2255.0</ele>
        <time>2016-08-06T13:46:15Z</time>
      </trkpt>
      <trkpt lat="40.397400" lon="-5.524867">
        <ele>2254.0</ele>
        <time>2016-08-06T13:46:17Z</time>
      </trkpt>
      <trkpt lat="40.397417" lon="-5.525033">
        <ele>2252.0</ele>
        <time>2016-08-06T13:46:19Z</time>
      </trkpt>
      <trkpt lat="40.397417" lon="-5.525217">
        <ele>2248.0</ele>
        <time>2016-08-06T13:46:21Z</time>
      </trkpt>
      <trkpt lat="40.397400" lon="-5.525450">
        <ele>2245.0</ele>
        <time>2016-08-06T13:46:23Z</time>
      </trkpt>
      <trkpt lat="40.397383" lon="-5.525650">
        <ele>2245.0</ele>
        <time>2016-08-06T13:46:25Z</time>
      </trkpt>
      <trkpt lat="40.397350" lon="-5.525817">
        <ele>2243.0</ele>
        <time>2016-08-06T13:46:27Z</time>
      </trkpt>
      <trkpt lat="40.397350" lon="-5.526000">
        <ele>2239.0</ele>
        <time>2016-08-06T13:46:29Z</time>
      </trkpt>
      <trkpt lat="40.397383" lon="-5.526200">
        <ele>2236.0</ele>
        <time>2016-08-06T13:46:31Z</time>
      </trkpt>
      <trkpt lat="40.397417" lon="-5.526400">
        <ele>2234.0</ele>
        <time>2016-08-06T13:46:33Z</time>
      </trkpt>
      <trkpt lat="40.397450" lon="-5.526583">
        <ele>2232.0</ele>
        <time>2016-08-06T13:46:35Z</time>
      </trkpt>
      <trkpt lat="40.397517" lon="-5.526783">
        <ele>2228.0</ele>
        <time>2016-08-06T13:46:37Z</time>
      </trkpt>
      <trkpt lat="40.397583" lon="-5.526967">
        <ele>2224.0</ele>
        <time>2016-08-06T13:46:39Z</time>
      </trkpt>
      <trkpt lat="40.397650" lon="-5.527167">
        <ele>2219.0</ele>
        <time>2016-08-06T13:46:41Z</time>
      </trkpt>
      <trkpt lat="40.397667" lon="-5.527383">
        <ele>2214.0</ele>
        <time>2016-08-06T13:46:43Z</time>
      </trkpt>
      <trkpt lat="40.397717" lon="-5.527583">
        <ele>2209.0</ele>
        <time>2016-08-06T13:46:45Z</time>
      </trkpt>
      <trkpt lat="40.397767" lon="-5.527817">
        <ele>2205.0</ele>
        <time>2016-08-06T13:46:47Z</time>
      </trkpt>
      <trkpt lat="40.397800" lon="-5.528083">
        <ele>2202.0</ele>
        <time>2016-08-06T13:46:49Z</time>
      </trkpt>
      <trkpt lat="40.397833" lon="-5.528350">
        <ele>2200.0</ele>
        <time>2016-08-06T13:46:51Z</time>
      </trkpt>
      <trkpt lat="40.397850" lon="-5.528650">
        <ele>2198.0</ele>
        <time>2016-08-06T13:46:53Z</time>
      </trkpt>
      <trkpt lat="40.397833" lon="-5.528933">
        <ele>2196.0</ele>
        <time>2016-08-06T13:46:55Z</time>
      </trkpt>
      <trkpt lat="40.397850" lon="-5.529200">
        <ele>2191.0</ele>
        <time>2016-08-06T13:46:57Z</time>
      </trkpt>
      <trkpt lat="40.397883" lon="-5.529500">
        <ele>2186.0</ele>
        <time>2016-08-06T13:46:59Z</time>
      </trkpt>
      <trkpt lat="40.397933" lon="-5.529783">
        <ele>2183.0</ele>
        <time>2016-08-06T13:47:01Z</time>
      </trkpt>
      <trkpt lat="40.397967" lon="-5.530050">
        <ele>2178.0</ele>
        <time>2016-08-06T13:47:03Z</time>
      </trkpt>
      <trkpt lat="40.398050" lon="-5.530350">
        <ele>2171.0</ele>
        <time>2016-08-06T13:47:05Z</time>
      </trkpt>
      <trkpt lat="40.398117" lon="-5.530633">
        <ele>2168.0</ele>
        <time>2016-08-06T13:47:07Z</time>
      </trkpt>
      <trkpt lat="40.398200" lon="-5.530867">
        <ele>2163.0</ele>
        <time>2016-08-06T13:47:09Z</time>
      </trkpt>
      <trkpt lat="40.398283" lon="-5.531117">
        <ele>2156.0</ele>
        <time>2016-08-06T13:47:11Z</time>
      </trkpt>
      <trkpt lat="40.398350" lon="-5.531350">
        <ele>2149.0</ele>
        <time>2016-08-06T13:47:13Z</time>
      </trkpt>
      <trkpt lat="40.398433" lon="-5.531583">
        <ele>2141.0</ele>
        <time>2016-08-06T13:47:15Z</time>
      </trkpt>
      <trkpt lat="40.398533" lon="-5.531833">
        <ele>2133.0</ele>
        <time>2016-08-06T13:47:17Z</time>
      </trkpt>
      <trkpt lat="40.398600" lon="-5.532083">
        <ele>2126.0</ele>
        <time>2016-08-06T13:47:19Z</time>
      </trkpt>
      <trkpt lat="40.398667" lon="-5.532350">
        <ele>2120.0</ele>
        <time>2016-08-06T13:47:21Z</time>
      </trkpt>
      <trkpt lat="40.398750" lon="-5.532600">
        <ele>2114.0</ele>
        <time>2016-08-06T13:47:23Z</time>
      </trkpt>
      <trkpt lat="40.398817" lon="-5.532850">
        <ele>2109.0</ele>
        <time>2016-08-06T13:47:25Z</time>
      </trkpt>
      <trkpt lat="40.398900" lon="-5.533100">
        <ele>2104.0</ele>
        <time>2016-08-06T13:47:27Z</time>
      </trkpt>
      <trkpt lat="40.398967" lon="-5.533367">
        <ele>2101.0</ele>
        <time>2016-08-06T13:47:29Z</time>
      </trkpt>
      <trkpt lat="40.399033" lon="-5.533583">
        <ele>2100.0</ele>
        <time>2016-08-06T13:47:31Z</time>
      </trkpt>
      <trkpt lat="40.399083" lon="-5.533783">
        <ele>2098.0</ele>
        <time>2016-08-06T13:47:33Z</time>
      </trkpt>
      <trkpt lat="40.399150" lon="-5.534017">
        <ele>2096.0</ele>
        <time>2016-08-06T13:47:35Z</time>
      </trkpt>
      <trkpt lat="40.399200" lon="-5.534233">
        <ele>2095.0</ele>
        <time>2016-08-06T13:47:37Z</time>
      </trkpt>
      <trkpt lat="40.399267" lon="-5.534450">
        <ele>2094.0</ele>
        <time>2016-08-06T13:47:39Z</time>
      </trkpt>
      <trkpt lat="40.399317" lon="-5.534667">
        <ele>2094.0</ele>
        <time>2016-08-06T13:47:41Z</time>
      </trkpt>
      <trkpt lat="40.399367" lon="-5.534867">
        <ele>2094.0</ele>
        <time>2016-08-06T13:47:43Z</time>
      </trkpt>
      <trkpt lat="40.399433" lon="-5.535067">
        <ele>2093.0</ele>
        <time>2016-08-06T13:47:45Z</time>
      </trkpt>
      <trkpt lat="40.399517" lon="-5.535267">
        <ele>2092.0</ele>
        <time>2016-08-06T13:47:47Z</time>
      </trkpt>
      <trkpt lat="40.399567" lon="-5.535483">
        <ele>2091.0</ele>
        <time>2016-08-06T13:47:49Z</time>
      </trkpt>
      <trkpt lat="40.399633" lon="-5.535667">
        <ele>2090.0</ele>
        <time>2016-08-06T13:47:51Z</time>
      </trkpt>
      <trkpt lat="40.399683" lon="-5.535867">
        <ele>2089.0</ele>
        <time>2016-08-06T13:47:53Z</time>
      </trkpt>
      <trkpt lat="40.399767" lon="-5.536083">
        <ele>2087.0</ele>
        <time>2016-08-06T13:47:55Z</time>
      </trkpt>
      <trkpt lat="40.399833" lon="-5.536300">
        <ele>2087.0</ele>
        <time>2016-08-06T13:47:57Z</time>
      </trkpt>
      <trkpt lat="40.399917" lon="-5.536500">
        <ele>2086.0</ele>
        <time>2016-08-06T13:47:59Z</time>
      </trkpt>
      <trkpt lat="40.400000" lon="-5.536667">
        <ele>2084.0</ele>
        <time>2016-08-06T13:48:01Z</time>
      </trkpt>
      <trkpt lat="40.400117" lon="-5.536867">
        <ele>2080.0</ele>
        <time>2016-08-06T13:48:03Z</time>
      </trkpt>
      <trkpt lat="40.400217" lon="-5.537050">
        <ele>2079.0</ele>
        <time>2016-08-06T13:48:05Z</time>
      </trkpt>
      <trkpt lat="40.400333" lon="-5.537233">
        <ele>2077.0</ele>
        <time>2016-08-06T13:48:07Z</time>
      </trkpt>
      <trkpt lat="40.400433" lon="-5.537433">
        <ele>2074.0</ele>
        <time>2016-08-06T13:48:09Z</time>
      </trkpt>
      <trkpt lat="40.400550" lon="-5.537617">
        <ele>2072.0</ele>
        <time>2016-08-06T13:48:11Z</time>
      </trkpt>
      <trkpt lat="40.400650" lon="-5.537783">
        <ele>2069.0</ele>
        <time>2016-08-06T13:48:13Z</time>
      </trkpt>
      <trkpt lat="40.400750" lon="-5.537967">
        <ele>2066.0</ele>
        <time>2016-08-06T13:48:15Z</time>
      </trkpt>
      <trkpt lat="40.400850" lon="-5.538133">
        <ele>2063.0</ele>
        <time>2016-08-06T13:48:17Z</time>
      </trkpt>
      <trkpt lat="40.400950" lon="-5.538317">
        <ele>2060.0</ele>
        <time>2016-08-06T13:48:19Z</time>
      </trkpt>
      <trkpt lat="40.401050" lon="-5.538500">
        <ele>2055.0</ele>
        <time>2016-08-06T13:48:21Z</time>
      </trkpt>
      <trkpt lat="40.401150" lon="-5.538683">
        <ele>2052.0</ele>
        <time>2016-08-06T13:48:23Z</time>
      </trkpt>
      <trkpt lat="40.401233" lon="-5.538850">
        <ele>2049.0</ele>
        <time>2016-08-06T13:48:25Z</time>
      </trkpt>
      <trkpt lat="40.401333" lon="-5.539017">
        <ele>2046.0</ele>
        <time>2016-08-06T13:48:27Z</time>
      </trkpt>
      <trkpt lat="40.401400" lon="-5.539167">
        <ele>2046.0</ele>
        <time>2016-08-06T13:48:29Z</time>
      </trkpt>
      <trkpt lat="40.401450" lon="-5.539283">
        <ele>2042.0</ele>
        <time>2016-08-06T13:48:31Z</time>
      </trkpt>
      <trkpt lat="40.401517" lon="-5.539483">
        <ele>2037.0</ele>
        <time>2016-08-06T13:48:33Z</time>
      </trkpt>
      <trkpt lat="40.401600" lon="-5.539667">
        <ele>2037.0</ele>
        <time>2016-08-06T13:48:35Z</time>
      </trkpt>
      <trkpt lat="40.401650" lon="-5.539800">
        <ele>2037.0</ele>
        <time>2016-08-06T13:48:37Z</time>
      </trkpt>
      <trkpt lat="40.401700" lon="-5.539950">
        <ele>2036.0</ele>
        <time>2016-08-06T13:48:39Z</time>
      </trkpt>
      <trkpt lat="40.401733" lon="-5.540150">
        <ele>2039.0</ele>
        <time>2016-08-06T13:48:41Z</time>
      </trkpt>
      <trkpt lat="40.401717" lon="-5.540333">
        <ele>2042.0</ele>
        <time>2016-08-06T13:48:43Z</time>
      </trkpt>
      <trkpt lat="40.401750" lon="-5.540500">
        <ele>2042.0</ele>
        <time>2016-08-06T13:48:45Z</time>
      </trkpt>
      <trkpt lat="40.401833" lon="-5.540633">
        <ele>2044.0</ele>
        <time>2016-08-06T13:48:47Z</time>
      </trkpt>
      <trkpt lat="40.401933" lon="-5.540700">
        <ele>2047.0</ele>
        <time>2016-08-06T13:48:49Z</time>
      </trkpt>
      <trkpt lat="40.402033" lon="-5.540667">
        <ele>2048.0</ele>
        <time>2016-08-06T13:48:51Z</time>
      </trkpt>
      <trkpt lat="40.402100" lon="-5.540533">
        <ele>2052.0</ele>
        <time>2016-08-06T13:48:53Z</time>
      </trkpt>
      <trkpt lat="40.402133" lon="-5.540333">
        <ele>2056.0</ele>
        <time>2016-08-06T13:48:55Z</time>
      </trkpt>
      <trkpt lat="40.402117" lon="-5.540150">
        <ele>2058.0</ele>
        <time>2016-08-06T13:48:57Z</time>
      </trkpt>
      <trkpt lat="40.402017" lon="-5.539917">
        <ele>2058.0</ele>
        <time>2016-08-06T13:48:59Z</time>
      </trkpt>
      <trkpt lat="40.401867" lon="-5.539750">
        <ele>2060.0</ele>
        <time>2016-08-06T13:49:01Z</time>
      </trkpt>
      <trkpt lat="40.401667" lon="-5.539683">
        <ele>2061.0</ele>
        <time>2016-08-06T13:49:03Z</time>
      </trkpt>
      <trkpt lat="40.401450" lon="-5.539700">
        <ele>2060.0</ele>
        <time>2016-08-06T13:49:05Z</time>
      </trkpt>
      <trkpt lat="40.401250" lon="-5.539800">
        <ele>2059.0</ele>
        <time>2016-08-06T13:49:07Z</time>
      </trkpt>
      <trkpt lat="40.401067" lon="-5.540000">
        <ele>2060.0</ele>
        <time>2016-08-06T13:49:09Z</time>
      </trkpt>
      <trkpt lat="40.400933" lon="-5.540200">
        <ele>2061.0</ele>
        <time>2016-08-06T13:49:11Z</time>
      </trkpt>
      <trkpt lat="40.400833" lon="-5.540400">
        <ele>2062.0</ele>
        <time>2016-08-06T13:49:13Z</time>
      </trkpt>
      <trkpt lat="40.400800" lon="-5.540633">
        <ele>2061.0</ele>
        <time>2016-08-06T13:49:15Z</time>
      </trkpt>
      <trkpt lat="40.400800" lon="-5.540900">
        <ele>2063.0</ele>
        <time>2016-08-06T13:49:17Z</time>
      </trkpt>
      <trkpt lat="40.400783" lon="-5.541150">
        <ele>2067.0</ele>
        <time>2016-08-06T13:49:19Z</time>
      </trkpt>
      <trkpt lat="40.400800" lon="-5.541417">
        <ele>2068.0</ele>
        <time>2016-08-06T13:49:21Z</time>
      </trkpt>
      <trkpt lat="40.400883" lon="-5.541650">
        <ele>2072.0</ele>
        <time>2016-08-06T13:49:23Z</time>
      </trkpt>
      <trkpt lat="40.400983" lon="-5.541817">
        <ele>2080.0</ele>
        <time>2016-08-06T13:49:25Z</time>
      </trkpt>
      <trkpt lat="40.401033" lon="-5.541950">
        <ele>2087.0</ele>
        <time>2016-08-06T13:49:27Z</time>
      </trkpt>
      <trkpt lat="40.401133" lon="-5.542033">
        <ele>2090.0</ele>
        <time>2016-08-06T13:49:29Z</time>
      </trkpt>
      <trkpt lat="40.401233" lon="-5.542000">
        <ele>2094.0</ele>
        <time>2016-08-06T13:49:31Z</time>
      </trkpt>
      <trkpt lat="40.401267" lon="-5.541817">
        <ele>2099.0</ele>
        <time>2016-08-06T13:49:33Z</time>
      </trkpt>
      <trkpt lat="40.401167" lon="-5.541650">
        <ele>2103.0</ele>
        <time>2016-08-06T13:49:35Z</time>
      </trkpt>
      <trkpt lat="40.401017" lon="-5.541533">
        <ele>2107.0</ele>
        <time>2016-08-06T13:49:37Z</time>
      </trkpt>
      <trkpt lat="40.400800" lon="-5.541533">
        <ele>2108.0</ele>
        <time>2016-08-06T13:49:39Z</time>
      </trkpt>
      <trkpt lat="40.400583" lon="-5.541650">
        <ele>2111.0</ele>
        <time>2016-08-06T13:49:41Z</time>
      </trkpt>
      <trkpt lat="40.400450" lon="-5.541867">
        <ele>2116.0</ele>
        <time>2016-08-06T13:49:43Z</time>
      </trkpt>
      <trkpt lat="40.400400" lon="-5.542150">
        <ele>2119.0</ele>
        <time>2016-08-06T13:49:45Z</time>
      </trkpt>
      <trkpt lat="40.400383" lon="-5.542400">
        <ele>2124.0</ele>
        <time>2016-08-06T13:49:47Z</time>
      </trkpt>
      <trkpt lat="40.400417" lon="-5.542583">
        <ele>2127.0</ele>
        <time>2016-08-06T13:49:49Z</time>
      </trkpt>
      <trkpt lat="40.400550" lon="-5.542733">
        <ele>2129.0</ele>
        <time>2016-08-06T13:49:51Z</time>
      </trkpt>
      <trkpt lat="40.400700" lon="-5.542783">
        <ele>2137.0</ele>
        <time>2016-08-06T13:49:53Z</time>
      </trkpt>
      <trkpt lat="40.400783" lon="-5.542733">
        <ele>2142.0</ele>
        <time>2016-08-06T13:49:55Z</time>
      </trkpt>
      <trkpt lat="40.400850" lon="-5.542600">
        <ele>2144.0</ele>
        <time>2016-08-06T13:49:57Z</time>
      </trkpt>
      <trkpt lat="40.400867" lon="-5.542433">
        <ele>2146.0</ele>
        <time>2016-08-06T13:49:59Z</time>
      </trkpt>
      <trkpt lat="40.400750" lon="-5.542267">
        <ele>2147.0</ele>
        <time>2016-08-06T13:50:01Z</time>
      </trkpt>
      <trkpt lat="40.400550" lon="-5.542167">
        <ele>2148.0</ele>
        <time>2016-08-06T13:50:03Z</time>
      </trkpt>
      <trkpt lat="40.400317" lon="-5.542217">
        <ele>2150.0</ele>
        <time>2016-08-06T13:50:05Z</time>
      </trkpt>
      <trkpt lat="40.400117" lon="-5.542400">
        <ele>2152.0</ele>
        <time>2016-08-06T13:50:07Z</time>
      </trkpt>
      <trkpt lat="40.399983" lon="-5.542650">
        <ele>2152.0</ele>
        <time>2016-08-06T13:50:09Z</time>
      </trkpt>
      <trkpt lat="40.399950" lon="-5.542950">
        <ele>2154.0</ele>
        <time>2016-08-06T13:50:11Z</time>
      </trkpt>
      <trkpt lat="40.400000" lon="-5.543200">
        <ele>2158.0</ele>
        <time>2016-08-06T13:50:13Z</time>
      </trkpt>
      <trkpt lat="40.400017" lon="-5.543417">
        <ele>2164.0</ele>
        <time>2016-08-06T13:50:15Z</time>
      </trkpt>
      <trkpt lat="40.400050" lon="-5.543633">
        <ele>2167.0</ele>
        <time>2016-08-06T13:50:17Z</time>
      </trkpt>
      <trkpt lat="40.400067" lon="-5.543917">
        <ele>2169.0</ele>
        <time>2016-08-06T13:50:19Z</time>
      </trkpt>
      <trkpt lat="40.400033" lon="-5.544217">
        <ele>2173.0</ele>
        <time>2016-08-06T13:50:21Z</time>
      </trkpt>
      <trkpt lat="40.399967" lon="-5.544483">
        <ele>2179.0</ele>
        <time>2016-08-06T13:50:23Z</time>
      </trkpt>
      <trkpt lat="40.399867" lon="-5.544700">
        <ele>2181.0</ele>
        <time>2016-08-06T13:50:25Z</time>
      </trkpt>
      <trkpt lat="40.399683" lon="-5.544900">
        <ele>2180.0</ele>
        <time>2016-08-06T13:50:27Z</time>
      </trkpt>
      <trkpt lat="40.399500" lon="-5.545000">
        <ele>2180.0</ele>
        <time>2016-08-06T13:50:29Z</time>
      </trkpt>
      <trkpt lat="40.399317" lon="-5.544983">
        <ele>2177.0</ele>
        <time>2016-08-06T13:50:31Z</time>
      </trkpt>
      <trkpt lat="40.399117" lon="-5.544900">
        <ele>2173.0</ele>
        <time>2016-08-06T13:50:33Z</time>
      </trkpt>
      <trkpt lat="40.399017" lon="-5.544700">
        <ele>2172.0</ele>
        <time>2016-08-06T13:50:35Z</time>
      </trkpt>
      <trkpt lat="40.398967" lon="-5.544533">
        <ele>2173.0</ele>
        <time>2016-08-06T13:50:37Z</time>
      </trkpt>
      <trkpt lat="40.398933" lon="-5.544367">
        <ele>2174.0</ele>
        <time>2016-08-06T13:50:39Z</time>
      </trkpt>
      <trkpt lat="40.398950" lon="-5.544183">
        <ele>2176.0</ele>
        <time>2016-08-06T13:50:41Z</time>
      </trkpt>
      <trkpt lat="40.398983" lon="-5.544033">
        <ele>2181.0</ele>
        <time>2016-08-06T13:50:43Z</time>
      </trkpt>
      <trkpt lat="40.398983" lon="-5.543917">
        <ele>2183.0</ele>
        <time>2016-08-06T13:50:45Z</time>
      </trkpt>
      <trkpt lat="40.398983" lon="-5.543767">
        <ele>2183.0</ele>
        <time>2016-08-06T13:50:47Z</time>
      </trkpt>
      <trkpt lat="40.398950" lon="-5.543600">
        <ele>2186.0</ele>
        <time>2016-08-06T13:50:49Z</time>
      </trkpt>
      <trkpt lat="40.398800" lon="-5.543500">
        <ele>2186.0</ele>
        <time>2016-08-06T13:50:51Z</time>
      </trkpt>
      <trkpt lat="40.398583" lon="-5.543467">
        <ele>2187.0</ele>
        <time>2016-08-06T13:50:53Z</time>
      </trkpt>
      <trkpt lat="40.398350" lon="-5.543567">
        <ele>2189.0</ele>
        <time>2016-08-06T13:50:55Z</time>
      </trkpt>
      <trkpt lat="40.398183" lon="-5.543767">
        <ele>2189.0</ele>
        <time>2016-08-06T13:50:57Z</time>
      </trkpt>
      <trkpt lat="40.398067" lon="-5.544050">
        <ele>2187.0</ele>
        <time>2016-08-06T13:50:59Z</time>
      </trkpt>
      <trkpt lat="40.398000" lon="-5.544383">
        <ele>2188.0</ele>
        <time>2016-08-06T13:51:01Z</time>
      </trkpt>
      <trkpt lat="40.397967" lon="-5.544667">
        <ele>2190.0</ele>
        <time>2016-08-06T13:51:03Z</time>
      </trkpt>
      <trkpt lat="40.397983" lon="-5.544933">
        <ele>2190.0</ele>
        <time>2016-08-06T13:51:05Z</time>
      </trkpt>
      <trkpt lat="40.398017" lon="-5.545183">
        <ele>2190.0</ele>
        <time>2016-08-06T13:51:07Z</time>
      </trkpt>
      <trkpt lat="40.398050" lon="-5.545400">
        <ele>2188.0</ele>
        <time>2016-08-06T13:51:09Z</time>
      </trkpt>
      <trkpt lat="40.398100" lon="-5.545633">
        <ele>2184.0</ele>
        <time>2016-08-06T13:51:11Z</time>
      </trkpt>
      <trkpt lat="40.398150" lon="-5.545883">
        <ele>2180.0</ele>
        <time>2016-08-06T13:51:13Z</time>
      </trkpt>
      <trkpt lat="40.398217" lon="-5.546117">
        <ele>2174.0</ele>
        <time>2016-08-06T13:51:15Z</time>
      </trkpt>
      <trkpt lat="40.398283" lon="-5.546350">
        <ele>2167.0</ele>
        <time>2016-08-06T13:51:17Z</time>
      </trkpt>
      <trkpt lat="40.398350" lon="-5.546600">
        <ele>2160.0</ele>
        <time>2016-08-06T13:51:19Z</time>
      </trkpt>
      <trkpt lat="40.398417" lon="-5.546817">
        <ele>2154.0</ele>
        <time>2016-08-06T13:51:21Z</time>
      </trkpt>
      <trkpt lat="40.398483" lon="-5.547017">
        <ele>2149.0</ele>
        <time>2016-08-06T13:51:23Z</time>
      </trkpt>
      <trkpt lat="40.398533" lon="-5.547233">
        <ele>2143.0</ele>
        <time>2016-08-06T13:51:25Z</time>
      </trkpt>
      <trkpt lat="40.398600" lon="-5.547450">
        <ele>2137.0</ele>
        <time>2016-08-06T13:51:27Z</time>
      </trkpt>
      <trkpt lat="40.398683" lon="-5.547667">
        <ele>2132.0</ele>
        <time>2016-08-06T13:51:29Z</time>
      </trkpt>
      <trkpt lat="40.398733" lon="-5.547867">
        <ele>2128.0</ele>
        <time>2016-08-06T13:51:31Z</time>
      </trkpt>
      <trkpt lat="40.398800" lon="-5.548083">
        <ele>2123.0</ele>
        <time>2016-08-06T13:51:33Z</time>
      </trkpt>
      <trkpt lat="40.398850" lon="-5.548333">
        <ele>2118.0</ele>
        <time>2016-08-06T13:51:35Z</time>
      </trkpt>
      <trkpt lat="40.398883" lon="-5.548583">
        <ele>2114.0</ele>
        <time>2016-08-06T13:51:37Z</time>
      </trkpt>
      <trkpt lat="40.398933" lon="-5.548817">
        <ele>2109.0</ele>
        <time>2016-08-06T13:51:39Z</time>
      </trkpt>
      <trkpt lat="40.398983" lon="-5.549067">
        <ele>2104.0</ele>
        <time>2016-08-06T13:51:41Z</time>
      </trkpt>
      <trkpt lat="40.399017" lon="-5.549317">
        <ele>2101.0</ele>
        <time>2016-08-06T13:51:43Z</time>
      </trkpt>
      <trkpt lat="40.399050" lon="-5.549550">
        <ele>2100.0</ele>
        <time>2016-08-06T13:51:45Z</time>
      </trkpt>
      <trkpt lat="40.399067" lon="-5.549783">
        <ele>2098.0</ele>
        <time>2016-08-06T13:51:47Z</time>
      </trkpt>
      <trkpt lat="40.399083" lon="-5.550050">
        <ele>2096.0</ele>
        <time>2016-08-06T13:51:49Z</time>
      </trkpt>
      <trkpt lat="40.399100" lon="-5.550300">
        <ele>2096.0</ele>
        <time>2016-08-06T13:51:51Z</time>
      </trkpt>
      <trkpt lat="40.399100" lon="-5.550517">
        <ele>2095.0</ele>
        <time>2016-08-06T13:51:53Z</time>
      </trkpt>
      <trkpt lat="40.399117" lon="-5.550750">
        <ele>2092.0</ele>
        <time>2016-08-06T13:51:55Z</time>
      </trkpt>
      <trkpt lat="40.399150" lon="-5.551000">
        <ele>2091.0</ele>
        <time>2016-08-06T13:51:57Z</time>
      </trkpt>
      <trkpt lat="40.399167" lon="-5.551217">
        <ele>2090.0</ele>
        <time>2016-08-06T13:51:59Z</time>
      </trkpt>
      <trkpt lat="40.399200" lon="-5.551417">
        <ele>2087.0</ele>
        <time>2016-08-06T13:52:01Z</time>
      </trkpt>
      <trkpt lat="40.399267" lon="-5.551650">
        <ele>2086.0</ele>
        <time>2016-08-06T13:52:03Z</time>
      </trkpt>
      <trkpt lat="40.399317" lon="-5.551833">
        <ele>2086.0</ele>
        <time>2016-08-06T13:52:05Z</time>
      </trkpt>
      <trkpt lat="40.399367" lon="-5.552017">
        <ele>2085.0</ele>
        <time>2016-08-06T13:52:07Z</time>
      </trkpt>
      <trkpt lat="40.399417" lon="-5.552217">
        <ele>2083.0</ele>
        <time>2016-08-06T13:52:09Z</time>
      </trkpt>
      <trkpt lat="40.399467" lon="-5.552433">
        <ele>2081.0</ele>
        <time>2016-08-06T13:52:11Z</time>
      </trkpt>
      <trkpt lat="40.399517" lon="-5.552633">
        <ele>2081.0</ele>
        <time>2016-08-06T13:52:13Z</time>
      </trkpt>
      <trkpt lat="40.399567" lon="-5.552833">
        <ele>2079.0</ele>
        <time>2016-08-06T13:52:15Z</time>
      </trkpt>
      <trkpt lat="40.399600" lon="-5.553017">
        <ele>2077.0</ele>
        <time>2016-08-06T13:52:17Z</time>
      </trkpt>
      <trkpt lat="40.399650" lon="-5.553200">
        <ele>2072.0</ele>
        <time>2016-08-06T13:52:19Z</time>
      </trkpt>
      <trkpt lat="40.399717" lon="-5.553417">
        <ele>2069.0</ele>
        <time>2016-08-06T13:52:21Z</time>
      </trkpt>
      <trkpt lat="40.399783" lon="-5.553600">
        <ele>2067.0</ele>
        <time>2016-08-06T13:52:23Z</time>
      </trkpt>
      <trkpt lat="40.399850" lon="-5.553767">
        <ele>2064.0</ele>
        <time>2016-08-06T13:52:25Z</time>
      </trkpt>
      <trkpt lat="40.399900" lon="-5.553950">
        <ele>2059.0</ele>
        <time>2016-08-06T13:52:27Z</time>
      </trkpt>
      <trkpt lat="40.399983" lon="-5.554100">
        <ele>2055.0</ele>
        <time>2016-08-06T13:52:29Z</time>
      </trkpt>
      <trkpt lat="40.400050" lon="-5.554250">
        <ele>2051.0</ele>
        <time>2016-08-06T13:52:31Z</time>
      </trkpt>
      <trkpt lat="40.400133" lon="-5.554417">
        <ele>2047.0</ele>
        <time>2016-08-06T13:52:33Z</time>
      </trkpt>
      <trkpt lat="40.400183" lon="-5.554583">
        <ele>2045.0</ele>
        <time>2016-08-06T13:52:35Z</time>
      </trkpt>
      <trkpt lat="40.400200" lon="-5.554733">
        <ele>2044.0</ele>
        <time>2016-08-06T13:52:37Z</time>
      </trkpt>
      <trkpt lat="40.400200" lon="-5.554867">
        <ele>2039.0</ele>
        <time>2016-08-06T13:52:39Z</time>
      </trkpt>
      <trkpt lat="40.400217" lon="-5.555017">
        <ele>2032.0</ele>
        <time>2016-08-06T13:52:41Z</time>
      </trkpt>
      <trkpt lat="40.400250" lon="-5.555167">
        <ele>2024.0</ele>
        <time>2016-08-06T13:52:43Z</time>
      </trkpt>
      <trkpt lat="40.400283" lon="-5.555317">
        <ele>2015.0</ele>
        <time>2016-08-06T13:52:45Z</time>
      </trkpt>
      <trkpt lat="40.400350" lon="-5.555483">
        <ele>2007.0</ele>
        <time>2016-08-06T13:52:47Z</time>
      </trkpt>
      <trkpt lat="40.400417" lon="-5.555650">
        <ele>2002.0</ele>
        <time>2016-08-06T13:52:49Z</time>
      </trkpt>
      <trkpt lat="40.400483" lon="-5.555817">
        <ele>1999.0</ele>
        <time>2016-08-06T13:52:51Z</time>
      </trkpt>
      <trkpt lat="40.400550" lon="-5.555967">
        <ele>1994.0</ele>
        <time>2016-08-06T13:52:53Z</time>
      </trkpt>
      <trkpt lat="40.400617" lon="-5.556133">
        <ele>1992.0</ele>
        <time>2016-08-06T13:52:55Z</time>
      </trkpt>
      <trkpt lat="40.400733" lon="-5.556250">
        <ele>1993.0</ele>
        <time>2016-08-06T13:52:57Z</time>
      </trkpt>
      <trkpt lat="40.400800" lon="-5.556367">
        <ele>1992.0</ele>
        <time>2016-08-06T13:52:59Z</time>
      </trkpt>
      <trkpt lat="40.400883" lon="-5.556500">
        <ele>1989.0</ele>
        <time>2016-08-06T13:53:01Z</time>
      </trkpt>
      <trkpt lat="40.400967" lon="-5.556600">
        <ele>1986.0</ele>
        <time>2016-08-06T13:53:03Z</time>
      </trkpt>
      <trkpt lat="40.401050" lon="-5.556717">
        <ele>1981.0</ele>
        <time>2016-08-06T13:53:05Z</time>
      </trkpt>
      <trkpt lat="40.401133" lon="-5.556817">
        <ele>1976.0</ele>
        <time>2016-08-06T13:53:07Z</time>
      </trkpt>
      <trkpt lat="40.401200" lon="-5.556917">
        <ele>1973.0</ele>
        <time>2016-08-06T13:53:09Z</time>
      </trkpt>
      <trkpt lat="40.401283" lon="-5.557017">
        <ele>1968.0</ele>
        <time>2016-08-06T13:53:11Z</time>
      </trkpt>
      <trkpt lat="40.401367" lon="-5.557117">
        <ele>1963.0</ele>
        <time>2016-08-06T13:53:13Z</time>
      </trkpt>
      <trkpt lat="40.401450" lon="-5.557250">
        <ele>1958.0</ele>
        <time>2016-08-06T13:53:15Z</time>
      </trkpt>
      <trkpt lat="40.401517" lon="-5.557367">
        <ele>1955.0</ele>
        <time>2016-08-06T13:53:17Z</time>
      </trkpt>
      <trkpt lat="40.401583" lon="-5.557483">
        <ele>1950.0</ele>
        <time>2016-08-06T13:53:19Z</time>
      </trkpt>
      <trkpt lat="40.401650" lon="-5.557617">
        <ele>1944.0</ele>
        <time>2016-08-06T13:53:21Z</time>
      </trkpt>
      <trkpt lat="40.401717" lon="-5.557733">
        <ele>1937.0</ele>
        <time>2016-08-06T13:53:23Z</time>
      </trkpt>
      <trkpt lat="40.401783" lon="-5.557867">
        <ele>1929.0</ele>
        <time>2016-08-06T13:53:25Z</time>
      </trkpt>
      <trkpt lat="40.401867" lon="-5.558000">
        <ele>1924.0</ele>
        <time>2016-08-06T13:53:27Z</time>
      </trkpt>
      <trkpt lat="40.401917" lon="-5.558133">
        <ele>1919.0</ele>
        <time>2016-08-06T13:53:29Z</time>
      </trkpt>
      <trkpt lat="40.401950" lon="-5.558267">
        <ele>1913.0</ele>
        <time>2016-08-06T13:53:31Z</time>
      </trkpt>
      <trkpt lat="40.402000" lon="-5.558417">
        <ele>1908.0</ele>
        <time>2016-08-06T13:53:33Z</time>
      </trkpt>
      <trkpt lat="40.402033" lon="-5.558567">
        <ele>1905.0</ele>
        <time>2016-08-06T13:53:35Z</time>
      </trkpt>
      <trkpt lat="40.402050" lon="-5.558733">
        <ele>1900.0</ele>
        <time>2016-08-06T13:53:37Z</time>
      </trkpt>
      <trkpt lat="40.402083" lon="-5.558933">
        <ele>1894.0</ele>
        <time>2016-08-06T13:53:39Z</time>
      </trkpt>
      <trkpt lat="40.402100" lon="-5.559117">
        <ele>1891.0</ele>
        <time>2016-08-06T13:53:41Z</time>
      </trkpt>
      <trkpt lat="40.402133" lon="-5.559300">
        <ele>1887.0</ele>
        <time>2016-08-06T13:53:43Z</time>
      </trkpt>
      <trkpt lat="40.402167" lon="-5.559500">
        <ele>1883.0</ele>
        <time>2016-08-06T13:53:45Z</time>
      </trkpt>
      <trkpt lat="40.402200" lon="-5.559717">
        <ele>1879.0</ele>
        <time>2016-08-06T13:53:47Z</time>
      </trkpt>
      <trkpt lat="40.402217" lon="-5.559917">
        <ele>1876.0</ele>
        <time>2016-08-06T13:53:49Z</time>
      </trkpt>
      <trkpt lat="40.402250" lon="-5.560133">
        <ele>1872.0</ele>
        <time>2016-08-06T13:53:51Z</time>
      </trkpt>
      <trkpt lat="40.402283" lon="-5.560367">
        <ele>1871.0</ele>
        <time>2016-08-06T13:53:53Z</time>
      </trkpt>
      <trkpt lat="40.402317" lon="-5.560550">
        <ele>1871.0</ele>
        <time>2016-08-06T13:53:55Z</time>
      </trkpt>
      <trkpt lat="40.402350" lon="-5.560733">
        <ele>1868.0</ele>
        <time>2016-08-06T13:53:57Z</time>
      </trkpt>
      <trkpt lat="40.402400" lon="-5.560933">
        <ele>1865.0</ele>
        <time>2016-08-06T13:53:59Z</time>
      </trkpt>
      <trkpt lat="40.402450" lon="-5.561117">
        <ele>1864.0</ele>
        <time>2016-08-06T13:54:01Z</time>
      </trkpt>
      <trkpt lat="40.402483" lon="-5.561267">
        <ele>1865.0</ele>
        <time>2016-08-06T13:54:03Z</time>
      </trkpt>
      <trkpt lat="40.402533" lon="-5.561417">
        <ele>1862.0</ele>
        <time>2016-08-06T13:54:05Z</time>
      </trkpt>
      <trkpt lat="40.402600" lon="-5.561617">
        <ele>1858.0</ele>
        <time>2016-08-06T13:54:07Z</time>
      </trkpt>
      <trkpt lat="40.402650" lon="-5.561817">
        <ele>1858.0</ele>
        <time>2016-08-06T13:54:09Z</time>
      </trkpt>
      <trkpt lat="40.402700" lon="-5.561967">
        <ele>1861.0</ele>
        <time>2016-08-06T13:54:11Z</time>
      </trkpt>
      <trkpt lat="40.402767" lon="-5.562117">
        <ele>1864.0</ele>
        <time>2016-08-06T13:54:13Z</time>
      </trkpt>
      <trkpt lat="40.402833" lon="-5.562167">
        <ele>1869.0</ele>
        <time>2016-08-06T13:54:15Z</time>
      </trkpt>
      <trkpt lat="40.402867" lon="-5.562133">
        <ele>1874.0</ele>
        <time>2016-08-06T13:54:17Z</time>
      </trkpt>
      <trkpt lat="40.402833" lon="-5.561983">
        <ele>1878.0</ele>
        <time>2016-08-06T13:54:19Z</time>
      </trkpt>
      <trkpt lat="40.402717" lon="-5.561817">
        <ele>1883.0</ele>
        <time>2016-08-06T13:54:21Z</time>
      </trkpt>
      <trkpt lat="40.402517" lon="-5.561733">
        <ele>1885.0</ele>
        <time>2016-08-06T13:54:23Z</time>
      </trkpt>
      <trkpt lat="40.402250" lon="-5.561750">
        <ele>1887.0</ele>
        <time>2016-08-06T13:54:25Z</time>
      </trkpt>
      <trkpt lat="40.402000" lon="-5.561883">
        <ele>1889.0</ele>
        <time>2016-08-06T13:54:27Z</time>
      </trkpt>
      <trkpt lat="40.401833" lon="-5.562083">
        <ele>1892.0</ele>
        <time>2016-08-06T13:54:29Z</time>
      </trkpt>
      <trkpt lat="40.401733" lon="-5.562267">
        <ele>1894.0</ele>
        <time>2016-08-06T13:54:31Z</time>
      </trkpt>
      <trkpt lat="40.401650" lon="-5.562533">
        <ele>1894.0</ele>
        <time>2016-08-06T13:54:33Z</time>
      </trkpt>
      <trkpt lat="40.401633" lon="-5.562750">
        <ele>1900.0</ele>
        <time>2016-08-06T13:54:35Z</time>
      </trkpt>
      <trkpt lat="40.401650" lon="-5.562883">
        <ele>1903.0</ele>
        <time>2016-08-06T13:54:37Z</time>
      </trkpt>
      <trkpt lat="40.401683" lon="-5.563000">
        <ele>1903.0</ele>
        <time>2016-08-06T13:54:39Z</time>
      </trkpt>
      <trkpt lat="40.401750" lon="-5.563117">
        <ele>1904.0</ele>
        <time>2016-08-06T13:54:41Z</time>
      </trkpt>
      <trkpt lat="40.401850" lon="-5.563200">
        <ele>1906.0</ele>
        <time>2016-08-06T13:54:43Z</time>
      </trkpt>
      <trkpt lat="40.401933" lon="-5.563217">
        <ele>1908.0</ele>
        <time>2016-08-06T13:54:45Z</time>
      </trkpt>
      <trkpt lat="40.402000" lon="-5.563167">
        <ele>1910.0</ele>
        <time>2016-08-06T13:54:47Z</time>
      </trkpt>
      <trkpt lat="40.402050" lon="-5.563050">
        <ele>1914.0</ele>
        <time>2016-08-06T13:54:49Z</time>
      </trkpt>
      <trkpt lat="40.402033" lon="-5.562883">
        <ele>1916.0</ele>
        <time>2016-08-06T13:54:51Z</time>
      </trkpt>
      <trkpt lat="40.401967" lon="-5.562700">
        <ele>1917.0</ele>
        <time>2016-08-06T13:54:53Z</time>
      </trkpt>
      <trkpt lat="40.401817" lon="-5.562500">
        <ele>1916.0</ele>
        <time>2016-08-06T13:54:55Z</time>
      </trkpt>
      <trkpt lat="40.401600" lon="-5.562350">
        <ele>1918.0</ele>
        <time>2016-08-06T13:54:57Z</time>
      </trkpt>
      <trkpt lat="40.401333" lon="-5.562367">
        <ele>1918.0</ele>
        <time>2016-08-06T13:54:59Z</time>
      </trkpt>
      <trkpt lat="40.401067" lon="-5.562550">
        <ele>1919.0</ele>
        <time>2016-08-06T13:55:01Z</time>
      </trkpt>
      <trkpt lat="40.400850" lon="-5.562783">
        <ele>1926.0</ele>
        <time>2016-08-06T13:55:03Z</time>
      </trkpt>
      <trkpt lat="40.400717" lon="-5.563050">
        <ele>1932.0</ele>
        <time>2016-08-06T13:55:05Z</time>
      </trkpt>
      <trkpt lat="40.400650" lon="-5.563317">
        <ele>1937.0</ele>
        <time>2016-08-06T13:55:07Z</time>
      </trkpt>
      <trkpt lat="40.400683" lon="-5.563533">
        <ele>1941.0</ele>
        <time>2016-08-06T13:55:09Z</time>
      </trkpt>
      <trkpt lat="40.400750" lon="-5.563617">
        <ele>1945.0</ele>
        <time>2016-08-06T13:55:11Z</time>
      </trkpt>
      <trkpt lat="40.400817" lon="-5.563600">
        <ele>1948.0</ele>
        <time>2016-08-06T13:55:13Z</time>
      </trkpt>
      <trkpt lat="40.400850" lon="-5.563500">
        <ele>1950.0</ele>
        <time>2016-08-06T13:55:15Z</time>
      </trkpt>
      <trkpt lat="40.400800" lon="-5.563333">
        <ele>1951.0</ele>
        <time>2016-08-06T13:55:17Z</time>
      </trkpt>
      <trkpt lat="40.400633" lon="-5.563167">
        <ele>1953.0</ele>
        <time>2016-08-06T13:55:19Z</time>
      </trkpt>
      <trkpt lat="40.400383" lon="-5.563100">
        <ele>1956.0</ele>
        <time>2016-08-06T13:55:21Z</time>
      </trkpt>
      <trkpt lat="40.400133" lon="-5.563233">
        <ele>1959.0</ele>
        <time>2016-08-06T13:55:23Z</time>
      </trkpt>
      <trkpt lat="40.399950" lon="-5.563467">
        <ele>1964.0</ele>
        <time>2016-08-06T13:55:25Z</time>
      </trkpt>
      <trkpt lat="40.399833" lon="-5.563750">
        <ele>1971.0</ele>
        <time>2016-08-06T13:55:27Z</time>
      </trkpt>
      <trkpt lat="40.399767" lon="-5.563967">
        <ele>1978.0</ele>
        <time>2016-08-06T13:55:29Z</time>
      </trkpt>
      <trkpt lat="40.399767" lon="-5.564150">
        <ele>1983.0</ele>
        <time>2016-08-06T13:55:31Z</time>
      </trkpt>
      <trkpt lat="40.399817" lon="-5.564350">
        <ele>1984.0</ele>
        <time>2016-08-06T13:55:33Z</time>
      </trkpt>
      <trkpt lat="40.399950" lon="-5.564433">
        <ele>1987.0</ele>
        <time>2016-08-06T13:55:35Z</time>
      </trkpt>
      <trkpt lat="40.400033" lon="-5.564367">
        <ele>1992.0</ele>
        <time>2016-08-06T13:55:37Z</time>
      </trkpt>
      <trkpt lat="40.400033" lon="-5.564250">
        <ele>1996.0</ele>
        <time>2016-08-06T13:55:39Z</time>
      </trkpt>
      <trkpt lat="40.400000" lon="-5.564100">
        <ele>1997.0</ele>
        <time>2016-08-06T13:55:41Z</time>
      </trkpt>
      <trkpt lat="40.399850" lon="-5.563950">
        <ele>2000.0</ele>
        <time>2016-08-06T13:55:43Z</time>
      </trkpt>
      <trkpt lat="40.399617" lon="-5.563817">
        <ele>2006.0</ele>
        <time>2016-08-06T13:55:45Z</time>
      </trkpt>
      <trkpt lat="40.399383" lon="-5.563800">
        <ele>2012.0</ele>
        <time>2016-08-06T13:55:47Z</time>
      </trkpt>
      <trkpt lat="40.399150" lon="-5.563867">
        <ele>2014.0</ele>
        <time>2016-08-06T13:55:49Z</time>
      </trkpt>
      <trkpt lat="40.398900" lon="-5.564050">
        <ele>2017.0</ele>
        <time>2016-08-06T13:55:51Z</time>
      </trkpt>
      <trkpt lat="40.398783" lon="-5.564300">
        <ele>2024.0</ele>
        <time>2016-08-06T13:55:53Z</time>
      </trkpt>
      <trkpt lat="40.398700" lon="-5.564500">
        <ele>2029.0</ele>
        <time>2016-08-06T13:55:55Z</time>
      </trkpt>
      <trkpt lat="40.398667" lon="-5.564667">
        <ele>2031.0</ele>
        <time>2016-08-06T13:55:57Z</time>
      </trkpt>
      <trkpt lat="40.398683" lon="-5.564833">
        <ele>2029.0</ele>
        <time>2016-08-06T13:55:59Z</time>
      </trkpt>
      <trkpt lat="40.398783" lon="-5.564950">
        <ele>2031.0</ele>
        <time>2016-08-06T13:56:01Z</time>
      </trkpt>
      <trkpt lat="40.398867" lon="-5.565017">
        <ele>2033.0</ele>
        <time>2016-08-06T13:56:03Z</time>
      </trkpt>
      <trkpt lat="40.398950" lon="-5.565000">
        <ele>2035.0</ele>
        <time>2016-08-06T13:56:05Z</time>
      </trkpt>
      <trkpt lat="40.399000" lon="-5.564883">
        <ele>2034.0</ele>
        <time>2016-08-06T13:56:07Z</time>
      </trkpt>
      <trkpt lat="40.398983" lon="-5.564683">
        <ele>2036.0</ele>
        <time>2016-08-06T13:56:09Z</time>
      </trkpt>
      <trkpt lat="40.398933" lon="-5.564483">
        <ele>2043.0</ele>
        <time>2016-08-06T13:56:11Z</time>
      </trkpt>
      <trkpt lat="40.398783" lon="-5.564300">
        <ele>2050.0</ele>
        <time>2016-08-06T13:56:13Z</time>
      </trkpt>
      <trkpt lat="40.398583" lon="-5.564200">
        <ele>2055.0</ele>
        <time>2016-08-06T13:56:15Z</time>
      </trkpt>
      <trkpt lat="40.398333" lon="-5.564133">
        <ele>2060.0</ele>
        <time>2016-08-06T13:56:17Z</time>
      </trkpt>
      <trkpt lat="40.398067" lon="-5.564200">
        <ele>2064.0</ele>
        <time>2016-08-06T13:56:19Z</time>
      </trkpt>
      <trkpt lat="40.397817" lon="-5.564383">
        <ele>2069.0</ele>
        <time>2016-08-06T13:56:21Z</time>
      </trkpt>
      <trkpt lat="40.397683" lon="-5.564600">
        <ele>2075.0</ele>
        <time>2016-08-06T13:56:23Z</time>
      </trkpt>
      <trkpt lat="40.397600" lon="-5.564767">
        <ele>2077.0</ele>
        <time>2016-08-06T13:56:25Z</time>
      </trkpt>
      <trkpt lat="40.397550" lon="-5.564983">
        <ele>2075.0</ele>
        <time>2016-08-06T13:56:27Z</time>
      </trkpt>
      <trkpt lat="40.397600" lon="-5.565200">
        <ele>2073.0</ele>
        <time>2016-08-06T13:56:29Z</time>
      </trkpt>
      <trkpt lat="40.397717" lon="-5.565317">
        <ele>2076.0</ele>
        <time>2016-08-06T13:56:31Z</time>
      </trkpt>
      <trkpt lat="40.397800" lon="-5.565350">
        <ele>2078.0</ele>
        <time>2016-08-06T13:56:33Z</time>
      </trkpt>
      <trkpt lat="40.397900" lon="-5.565267">
        <ele>2078.0</ele>
        <time>2016-08-06T13:56:35Z</time>
      </trkpt>
      <trkpt lat="40.397933" lon="-5.565083">
        <ele>2079.0</ele>
        <time>2016-08-06T13:56:37Z</time>
      </trkpt>
      <trkpt lat="40.397867" lon="-5.564883">
        <ele>2086.0</ele>
        <time>2016-08-06T13:56:39Z</time>
      </trkpt>
      <trkpt lat="40.397717" lon="-5.564733">
        <ele>2091.0</ele>
        <time>2016-08-06T13:56:41Z</time>
      </trkpt>
      <trkpt lat="40.397517" lon="-5.564583">
        <ele>2092.0</ele>
        <time>2016-08-06T13:56:43Z</time>
      </trkpt>
      <trkpt lat="40.397250" lon="-5.564533">
        <ele>2095.0</ele>
        <time>2016-08-06T13:56:45Z</time>
      </trkpt>
      <trkpt lat="40.397017" lon="-5.564683">
        <ele>2098.0</ele>
        <time>2016-08-06T13:56:47Z</time>
      </trkpt>
      <trkpt lat="40.396850" lon="-5.564917">
        <ele>2101.0</ele>
        <time>2016-08-06T13:56:49Z</time>
      </trkpt>
      <trkpt lat="40.396767" lon="-5.565167">
        <ele>2105.0</ele>
        <time>2016-08-06T13:56:51Z</time>
      </trkpt>
      <trkpt lat="40.396767" lon="-5.565400">
        <ele>2107.0</ele>
        <time>2016-08-06T13:56:53Z</time>
      </trkpt>
      <trkpt lat="40.396800" lon="-5.565583">
        <ele>2107.0</ele>
        <time>2016-08-06T13:56:55Z</time>
      </trkpt>
      <trkpt lat="40.396883" lon="-5.565733">
        <ele>2106.0</ele>
        <time>2016-08-06T13:56:57Z</time>
      </trkpt>
      <trkpt lat="40.397017" lon="-5.565833">
        <ele>2109.0</ele>
        <time>2016-08-06T13:56:59Z</time>
      </trkpt>
      <trkpt lat="40.397150" lon="-5.565883">
        <ele>2113.0</ele>
        <time>2016-08-06T13:57:01Z</time>
      </trkpt>
      <trkpt lat="40.397250" lon="-5.565900">
        <ele>2116.0</ele>
        <time>2016-08-06T13:57:03Z</time>
      </trkpt>
      <trkpt lat="40.397367" lon="-5.565850">
        <ele>2117.0</ele>
        <time>2016-08-06T13:57:05Z</time>
      </trkpt>
      <trkpt lat="40.397450" lon="-5.565700">
        <ele>2120.0</ele>
        <time>2016-08-06T13:57:07Z</time>
      </trkpt>
      <trkpt lat="40.397467" lon="-5.565500">
        <ele>2123.0</ele>
        <time>2016-08-06T13:57:09Z</time>
      </trkpt>
      <trkpt lat="40.397383" lon="-5.565300">
        <ele>2125.0</ele>
        <time>2016-08-06T13:57:11Z</time>
      </trkpt>
      <trkpt lat="40.397250" lon="-5.565117">
        <ele>2126.0</ele>
        <time>2016-08-06T13:57:13Z</time>
      </trkpt>
      <trkpt lat="40.397000" lon="-5.565000">
        <ele>2125.0</ele>
        <time>2016-08-06T13:57:15Z</time>
      </trkpt>
      <trkpt lat="40.396750" lon="-5.565000">
        <ele>2127.0</ele>
        <time>2016-08-06T13:57:17Z</time>
      </trkpt>
      <trkpt lat="40.396567" lon="-5.565133">
        <ele>2131.0</ele>
        <time>2016-08-06T13:57:19Z</time>
      </trkpt>
      <trkpt lat="40.396450" lon="-5.565317">
        <ele>2134.0</ele>
        <time>2016-08-06T13:57:21Z</time>
      </trkpt>
      <trkpt lat="40.396383" lon="-5.565533">
        <ele>2135.0</ele>
        <time>2016-08-06T13:57:23Z</time>
      </trkpt>
      <trkpt lat="40.396367" lon="-5.565750">
        <ele>2136.0</ele>
        <time>2016-08-06T13:57:25Z</time>
      </trkpt>
      <trkpt lat="40.396400" lon="-5.565967">
        <ele>2138.0</ele>
        <time>2016-08-06T13:57:27Z</time>
      </trkpt>
      <trkpt lat="40.396467" lon="-5.566133">
        <ele>2140.0</ele>
        <time>2016-08-06T13:57:29Z</time>
      </trkpt>
      <trkpt lat="40.396533" lon="-5.566267">
        <ele>2143.0</ele>
        <time>2016-08-06T13:57:31Z</time>
      </trkpt>
      <trkpt lat="40.396633" lon="-5.566350">
        <ele>2143.0</ele>
        <time>2016-08-06T13:57:33Z</time>
      </trkpt>
      <trkpt lat="40.396750" lon="-5.566350">
        <ele>2144.0</ele>
        <time>2016-08-06T13:57:35Z</time>
      </trkpt>
      <trkpt lat="40.396867" lon="-5.566317">
        <ele>2146.0</ele>
        <time>2016-08-06T13:57:37Z</time>
      </trkpt>
      <trkpt lat="40.396967" lon="-5.566267">
        <ele>2149.0</ele>
        <time>2016-08-06T13:57:39Z</time>
      </trkpt>
      <trkpt lat="40.397033" lon="-5.566167">
        <ele>2152.0</ele>
        <time>2016-08-06T13:57:41Z</time>
      </trkpt>
      <trkpt lat="40.397050" lon="-5.566050">
        <ele>2154.0</ele>
        <time>2016-08-06T13:57:43Z</time>
      </trkpt>
      <trkpt lat="40.397000" lon="-5.565900">
        <ele>2154.0</ele>
        <time>2016-08-06T13:57:45Z</time>
      </trkpt>
      <trkpt lat="40.396833" lon="-5.565733">
        <ele>2153.0</ele>
        <time>2016-08-06T13:57:47Z</time>
      </trkpt>
      <trkpt lat="40.396633" lon="-5.565650">
        <ele>2156.0</ele>
        <time>2016-08-06T13:57:49Z</time>
      </trkpt>
      <trkpt lat="40.396417" lon="-5.565667">
        <ele>2156.0</ele>
        <time>2016-08-06T13:57:51Z</time>
      </trkpt>
      <trkpt lat="40.396167" lon="-5.565783">
        <ele>2155.0</ele>
        <time>2016-08-06T13:57:53Z</time>
      </trkpt>
      <trkpt lat="40.396000" lon="-5.566000">
        <ele>2155.0</ele>
        <time>2016-08-06T13:57:55Z</time>
      </trkpt>
      <trkpt lat="40.395933" lon="-5.566250">
        <ele>2159.0</ele>
        <time>2016-08-06T13:57:57Z</time>
      </trkpt>
      <trkpt lat="40.395933" lon="-5.566483">
        <ele>2161.0</ele>
        <time>2016-08-06T13:57:59Z</time>
      </trkpt>
      <trkpt lat="40.395967" lon="-5.566733">
        <ele>2162.0</ele>
        <time>2016-08-06T13:58:01Z</time>
      </trkpt>
      <trkpt lat="40.396017" lon="-5.566967">
        <ele>2164.0</ele>
        <time>2016-08-06T13:58:03Z</time>
      </trkpt>
      <trkpt lat="40.396083" lon="-5.567150">
        <ele>2165.0</ele>
        <time>2016-08-06T13:58:05Z</time>
      </trkpt>
      <trkpt lat="40.396150" lon="-5.567317">
        <ele>2165.0</ele>
        <time>2016-08-06T13:58:07Z</time>
      </trkpt>
      <trkpt lat="40.396217" lon="-5.567500">
        <ele>2164.0</ele>
        <time>2016-08-06T13:58:09Z</time>
      </trkpt>
      <trkpt lat="40.396300" lon="-5.567700">
        <ele>2162.0</ele>
        <time>2016-08-06T13:58:11Z</time>
      </trkpt>
      <trkpt lat="40.396383" lon="-5.567917">
        <ele>2160.0</ele>
        <time>2016-08-06T13:58:13Z</time>
      </trkpt>
      <trkpt lat="40.396450" lon="-5.568133">
        <ele>2160.0</ele>
        <time>2016-08-06T13:58:15Z</time>
      </trkpt>
      <trkpt lat="40.396517" lon="-5.568350">
        <ele>2160.0</ele>
        <time>2016-08-06T13:58:17Z</time>
      </trkpt>
      <trkpt lat="40.396600" lon="-5.568583">
        <ele>2161.0</ele>
        <time>2016-08-06T13:58:19Z</time>
      </trkpt>
      <trkpt lat="40.396667" lon="-5.568833">
        <ele>2165.0</ele>
        <time>2016-08-06T13:58:21Z</time>
      </trkpt>
      <trkpt lat="40.396733" lon="-5.569017">
        <ele>2166.0</ele>
        <time>2016-08-06T13:58:23Z</time>
      </trkpt>
      <trkpt lat="40.396833" lon="-5.569200">
        <ele>2165.0</ele>
        <time>2016-08-06T13:58:25Z</time>
      </trkpt>
      <trkpt lat="40.396933" lon="-5.569383">
        <ele>2164.0</ele>
        <time>2016-08-06T13:58:27Z</time>
      </trkpt>
      <trkpt lat="40.397000" lon="-5.569533">
        <ele>2160.0</ele>
        <time>2016-08-06T13:58:29Z</time>
      </trkpt>
      <trkpt lat="40.397067" lon="-5.569733">
        <ele>2154.0</ele>
        <time>2016-08-06T13:58:31Z</time>
      </trkpt>
      <trkpt lat="40.397183" lon="-5.569950">
        <ele>2152.0</ele>
        <time>2016-08-06T13:58:33Z</time>
      </trkpt>
      <trkpt lat="40.397283" lon="-5.570100">
        <ele>2150.0</ele>
        <time>2016-08-06T13:58:35Z</time>
      </trkpt>
      <trkpt lat="40.397383" lon="-5.570267">
        <ele>2150.0</ele>
        <time>2016-08-06T13:58:37Z</time>
      </trkpt>
      <trkpt lat="40.397467" lon="-5.570433">
        <ele>2150.0</ele>
        <time>2016-08-06T13:58:39Z</time>
      </trkpt>
      <trkpt lat="40.397550" lon="-5.570567">
        <ele>2148.0</ele>
        <time>2016-08-06T13:58:41Z</time>
      </trkpt>
      <trkpt lat="40.397667" lon="-5.570717">
        <ele>2143.0</ele>
        <time>2016-08-06T13:58:43Z</time>
      </trkpt>
      <trkpt lat="40.397783" lon="-5.570867">
        <ele>2141.0</ele>
        <time>2016-08-06T13:58:45Z</time>
      </trkpt>
      <trkpt lat="40.397900" lon="-5.571017">
        <ele>2141.0</ele>
        <time>2016-08-06T13:58:47Z</time>
      </trkpt>
      <trkpt lat="40.397983" lon="-5.571167">
        <ele>2140.0</ele>
        <time>2016-08-06T13:58:49Z</time>
      </trkpt>
      <trkpt lat="40.398083" lon="-5.571350">
        <ele>2137.0</ele>
        <time>2016-08-06T13:58:51Z</time>
      </trkpt>
      <trkpt lat="40.398183" lon="-5.571567">
        <ele>2134.0</ele>
        <time>2016-08-06T13:58:53Z</time>
      </trkpt>
      <trkpt lat="40.398267" lon="-5.571767">
        <ele>2131.0</ele>
        <time>2016-08-06T13:58:55Z</time>
      </trkpt>
      <trkpt lat="40.398367" lon="-5.571933">
        <ele>2128.0</ele>
        <time>2016-08-06T13:58:57Z</time>
      </trkpt>
      <trkpt lat="40.398467" lon="-5.572083">
        <ele>2125.0</ele>
        <time>2016-08-06T13:58:59Z</time>
      </trkpt>
      <trkpt lat="40.398550" lon="-5.572217">
        <ele>2123.0</ele>
        <time>2016-08-06T13:59:01Z</time>
      </trkpt>
      <trkpt lat="40.398633" lon="-5.572367">
        <ele>2121.0</ele>
        <time>2016-08-06T13:59:03Z</time>
      </trkpt>
      <trkpt lat="40.398700" lon="-5.572517">
        <ele>2118.0</ele>
        <time>2016-08-06T13:59:05Z</time>
      </trkpt>
      <trkpt lat="40.398800" lon="-5.572667">
        <ele>2115.0</ele>
        <time>2016-08-06T13:59:07Z</time>
      </trkpt>
      <trkpt lat="40.398900" lon="-5.572800">
        <ele>2113.0</ele>
        <time>2016-08-06T13:59:09Z</time>
      </trkpt>
      <trkpt lat="40.399017" lon="-5.572917">
        <ele>2110.0</ele>
        <time>2016-08-06T13:59:11Z</time>
      </trkpt>
      <trkpt lat="40.399100" lon="-5.573050">
        <ele>2108.0</ele>
        <time>2016-08-06T13:59:13Z</time>
      </trkpt>
      <trkpt lat="40.399183" lon="-5.573150">
        <ele>2105.0</ele>
        <time>2016-08-06T13:59:15Z</time>
      </trkpt>
      <trkpt lat="40.399250" lon="-5.573300">
        <ele>2100.0</ele>
        <time>2016-08-06T13:59:17Z</time>
      </trkpt>
      <trkpt lat="40.399317" lon="-5.573500">
        <ele>2093.0</ele>
        <time>2016-08-06T13:59:19Z</time>
      </trkpt>
      <trkpt lat="40.399367" lon="-5.573700">
        <ele>2087.0</ele>
        <time>2016-08-06T13:59:21Z</time>
      </trkpt>
      <trkpt lat="40.399417" lon="-5.573883">
        <ele>2081.0</ele>
        <time>2016-08-06T13:59:23Z</time>
      </trkpt>
      <trkpt lat="40.399500" lon="-5.574100">
        <ele>2079.0</ele>
        <time>2016-08-06T13:59:25Z</time>
      </trkpt>
      <trkpt lat="40.399567" lon="-5.574250">
        <ele>2080.0</ele>
        <time>2016-08-06T13:59:27Z</time>
      </trkpt>
      <trkpt lat="40.399650" lon="-5.574417">
        <ele>2077.0</ele>
        <time>2016-08-06T13:59:29Z</time>
      </trkpt>
      <trkpt lat="40.399733" lon="-5.574617">
        <ele>2074.0</ele>
        <time>2016-08-06T13:59:31Z</time>
      </trkpt>
      <trkpt lat="40.399817" lon="-5.574817">
        <ele>2074.0</ele>
        <time>2016-08-06T13:59:33Z</time>
      </trkpt>
      <trkpt lat="40.399850" lon="-5.575050">
        <ele>2073.0</ele>
        <time>2016-08-06T13:59:35Z</time>
      </trkpt>
      <trkpt lat="40.399917" lon="-5.575317">
        <ele>2071.0</ele>
        <time>2016-08-06T13:59:37Z</time>
      </trkpt>
      <trkpt lat="40.400017" lon="-5.575533">
        <ele>2069.0</ele>
        <time>2016-08-06T13:59:39Z</time>
      </trkpt>
      <trkpt lat="40.400100" lon="-5.575783">
        <ele>2067.0</ele>
        <time>2016-08-06T13:59:41Z</time>
      </trkpt>
      <trkpt lat="40.400183" lon="-5.575983">
        <ele>2065.0</ele>
        <time>2016-08-06T13:59:43Z</time>
      </trkpt>
      <trkpt lat="40.400300" lon="-5.576183">
        <ele>2062.0</ele>
        <time>2016-08-06T13:59:45Z</time>
      </trkpt>
      <trkpt lat="40.400383" lon="-5.576400">
        <ele>2061.0</ele>
        <time>2016-08-06T13:59:47Z</time>
      </trkpt>
      <trkpt lat="40.400467" lon="-5.576567">
        <ele>2062.0</ele>
        <time>2016-08-06T13:59:49Z</time>
      </trkpt>
      <trkpt lat="40.400533" lon="-5.576733">
        <ele>2060.0</ele>
        <time>2016-08-06T13:59:51Z</time>
      </trkpt>
      <trkpt lat="40.400600" lon="-5.576950">
        <ele>2058.0</ele>
        <time>2016-08-06T13:59:53Z</time>
      </trkpt>
      <trkpt lat="40.400650" lon="-5.577150">
        <ele>2058.0</ele>
        <time>2016-08-06T13:59:55Z</time>
      </trkpt>
      <trkpt lat="40.400700" lon="-5.577333">
        <ele>2055.0</ele>
        <time>2016-08-06T13:59:57Z</time>
      </trkpt>
      <trkpt lat="40.400733" lon="-5.577567">
        <ele>2050.0</ele>
        <time>2016-08-06T13:59:59Z</time>
      </trkpt>
      <trkpt lat="40.400767" lon="-5.577800">
        <ele>2046.0</ele>
        <time>2016-08-06T14:00:01Z</time>
      </trkpt>
      <trkpt lat="40.400817" lon="-5.578000">
        <ele>2041.0</ele>
        <time>2016-08-06T14:00:03Z</time>
      </trkpt>
      <trkpt lat="40.400850" lon="-5.578233">
        <ele>2036.0</ele>
        <time>2016-08-06T14:00:05Z</time>
      </trkpt>
      <trkpt lat="40.400883" lon="-5.578467">
        <ele>2031.0</ele>
        <time>2016-08-06T14:00:07Z</time>
      </trkpt>
      <trkpt lat="40.400917" lon="-5.578683">
        <ele>2026.0</ele>
        <time>2016-08-06T14:00:09Z</time>
      </trkpt>
      <trkpt lat="40.400967" lon="-5.578900">
        <ele>2020.0</ele>
        <time>2016-08-06T14:00:11Z</time>
      </trkpt>
      <trkpt lat="40.401017" lon="-5.579133">
        <ele>2014.0</ele>
        <time>2016-08-06T14:00:13Z</time>
      </trkpt>
      <trkpt lat="40.401067" lon="-5.579367">
        <ele>2009.0</ele>
        <time>2016-08-06T14:00:15Z</time>
      </trkpt>
      <trkpt lat="40.401100" lon="-5.579583">
        <ele>2004.0</ele>
        <time>2016-08-06T14:00:17Z</time>
      </trkpt>
      <trkpt lat="40.401150" lon="-5.579817">
        <ele>1997.0</ele>
        <time>2016-08-06T14:00:19Z</time>
      </trkpt>
      <trkpt lat="40.401200" lon="-5.580050">
        <ele>1993.0</ele>
        <time>2016-08-06T14:00:21Z</time>
      </trkpt>
      <trkpt lat="40.401250" lon="-5.580283">
        <ele>1989.0</ele>
        <time>2016-08-06T14:00:23Z</time>
      </trkpt>
      <trkpt lat="40.401283" lon="-5.580517">
        <ele>1985.0</ele>
        <time>2016-08-06T14:00:25Z</time>
      </trkpt>
      <trkpt lat="40.401317" lon="-5.580750">
        <ele>1980.0</ele>
        <time>2016-08-06T14:00:27Z</time>
      </trkpt>
      <trkpt lat="40.401367" lon="-5.581000">
        <ele>1975.0</ele>
        <time>2016-08-06T14:00:29Z</time>
      </trkpt>
      <trkpt lat="40.401417" lon="-5.581217">
        <ele>1970.0</ele>
        <time>2016-08-06T14:00:31Z</time>
      </trkpt>
      <trkpt lat="40.401467" lon="-5.581450">
        <ele>1962.0</ele>
        <time>2016-08-06T14:00:33Z</time>
      </trkpt>
      <trkpt lat="40.401533" lon="-5.581717">
        <ele>1956.0</ele>
        <time>2016-08-06T14:00:35Z</time>
      </trkpt>
      <trkpt lat="40.401600" lon="-5.581950">
        <ele>1956.0</ele>
        <time>2016-08-06T14:00:37Z</time>
      </trkpt>
      <trkpt lat="40.401650" lon="-5.582150">
        <ele>1957.0</ele>
        <time>2016-08-06T14:00:39Z</time>
      </trkpt>
      <trkpt lat="40.401700" lon="-5.582367">
        <ele>1954.0</ele>
        <time>2016-08-06T14:00:41Z</time>
      </trkpt>
      <trkpt lat="40.401767" lon="-5.582583">
        <ele>1950.0</ele>
        <time>2016-08-06T14:00:43Z</time>
      </trkpt>
      <trkpt lat="40.401833" lon="-5.582800">
        <ele>1949.0</ele>
        <time>2016-08-06T14:00:45Z</time>
      </trkpt>
      <trkpt lat="40.401900" lon="-5.583017">
        <ele>1947.0</ele>
        <time>2016-08-06T14:00:47Z</time>
      </trkpt>
      <trkpt lat="40.401967" lon="-5.583217">
        <ele>1944.0</ele>
        <time>2016-08-06T14:00:49Z</time>
      </trkpt>
      <trkpt lat="40.402017" lon="-5.583450">
        <ele>1939.0</ele>
        <time>2016-08-06T14:00:51Z</time>
      </trkpt>
      <trkpt lat="40.402083" lon="-5.583667">
        <ele>1934.0</ele>
        <time>2016-08-06T14:00:53Z</time>
      </trkpt>
      <trkpt lat="40.402167" lon="-5.583900">
        <ele>1931.0</ele>
        <time>2016-08-06T14:00:55Z</time>
      </trkpt>
      <trkpt lat="40.402217" lon="-5.584100">
        <ele>1927.0</ele>
        <time>2016-08-06T14:00:57Z</time>
      </trkpt>
      <trkpt lat="40.402267" lon="-5.584300">
        <ele>1922.0</ele>
        <time>2016-08-06T14:00:59Z</time>
      </trkpt>
      <trkpt lat="40.402317" lon="-5.584517">
        <ele>1916.0</ele>
        <time>2016-08-06T14:01:01Z</time>
      </trkpt>
      <trkpt lat="40.402367" lon="-5.584750">
        <ele>1910.0</ele>
        <time>2016-08-06T14:01:03Z</time>
      </trkpt>
      <trkpt lat="40.402433" lon="-5.584983">
        <ele>1906.0</ele>
        <time>2016-08-06T14:01:05Z</time>
      </trkpt>
      <trkpt lat="40.402467" lon="-5.585233">
        <ele>1901.0</ele>
        <time>2016-08-06T14:01:07Z</time>
      </trkpt>
      <trkpt lat="40.402517" lon="-5.585483">
        <ele>1897.0</ele>
        <time>2016-08-06T14:01:09Z</time>
      </trkpt>
      <trkpt lat="40.402550" lon="-5.585767">
        <ele>1895.0</ele>
        <time>2016-08-06T14:01:11Z</time>
      </trkpt>
      <trkpt lat="40.402583" lon="-5.586033">
        <ele>1893.0</ele>
        <time>2016-08-06T14:01:13Z</time>
      </trkpt>
      <trkpt lat="40.402633" lon="-5.586267">
        <ele>1892.0</ele>
        <time>2016-08-06T14:01:15Z</time>
      </trkpt>
      <trkpt lat="40.402667" lon="-5.586500">
        <ele>1888.0</ele>
        <time>2016-08-06T14:01:17Z</time>
      </trkpt>
      <trkpt lat="40.402717" lon="-5.586750">
        <ele>1884.0</ele>
        <time>2016-08-06T14:01:19Z</time>
      </trkpt>
      <trkpt lat="40.402750" lon="-5.587000">
        <ele>1882.0</ele>
        <time>2016-08-06T14:01:21Z</time>
      </trkpt>
      <trkpt lat="40.402783" lon="-5.587250">
        <ele>1878.0</ele>
        <time>2016-08-06T14:01:23Z</time>
      </trkpt>
      <trkpt lat="40.402783" lon="-5.587500">
        <ele>1874.0</ele>
        <time>2016-08-06T14:01:25Z</time>
      </trkpt>
      <trkpt lat="40.402817" lon="-5.587750">
        <ele>1870.0</ele>
        <time>2016-08-06T14:01:27Z</time>
      </trkpt>
      <trkpt lat="40.402850" lon="-5.587967">
        <ele>1866.0</ele>
        <time>2016-08-06T14:01:29Z</time>
      </trkpt>
      <trkpt lat="40.402900" lon="-5.588200">
        <ele>1861.0</ele>
        <time>2016-08-06T14:01:31Z</time>
      </trkpt>
      <trkpt lat="40.402933" lon="-5.588417">
        <ele>1858.0</ele>
        <time>2016-08-06T14:01:33Z</time>
      </trkpt>
      <trkpt lat="40.402967" lon="-5.588650">
        <ele>1855.0</ele>
        <time>2016-08-06T14:01:35Z</time>
      </trkpt>
      <trkpt lat="40.403000" lon="-5.588883">
        <ele>1851.0</ele>
        <time>2016-08-06T14:01:37Z</time>
      </trkpt>
      <trkpt lat="40.403067" lon="-5.589117">
        <ele>1848.0</ele>
        <time>2016-08-06T14:01:39Z</time>
      </trkpt>
      <trkpt lat="40.403133" lon="-5.589333">
        <ele>1847.0</ele>
        <time>2016-08-06T14:01:41Z</time>
      </trkpt>
      <trkpt lat="40.403167" lon="-5.589533">
        <ele>1845.0</ele>
        <time>2016-08-06T14:01:43Z</time>
      </trkpt>
      <trkpt lat="40.403250" lon="-5.589733">
        <ele>1841.0</ele>
        <time>2016-08-06T14:01:45Z</time>
      </trkpt>
      <trkpt lat="40.403317" lon="-5.589933">
        <ele>1838.0</ele>
        <time>2016-08-06T14:01:47Z</time>
      </trkpt>
      <trkpt lat="40.403367" lon="-5.590133">
        <ele>1835.0</ele>
        <time>2016-08-06T14:01:49Z</time>
      </trkpt>
      <trkpt lat="40.403417" lon="-5.590350">
        <ele>1831.0</ele>
        <time>2016-08-06T14:01:51Z</time>
      </trkpt>
      <trkpt lat="40.403500" lon="-5.590567">
        <ele>1829.0</ele>
        <time>2016-08-06T14:01:53Z</time>
      </trkpt>
      <trkpt lat="40.403617" lon="-5.590767">
        <ele>1827.0</ele>
        <time>2016-08-06T14:01:55Z</time>
      </trkpt>
      <trkpt lat="40.403700" lon="-5.590967">
        <ele>1825.0</ele>
        <time>2016-08-06T14:01:57Z</time>
      </trkpt>
      <trkpt lat="40.403800" lon="-5.591150">
        <ele>1822.0</ele>
        <time>2016-08-06T14:01:59Z</time>
      </trkpt>
      <trkpt lat="40.403867" lon="-5.591367">
        <ele>1819.0</ele>
        <time>2016-08-06T14:02:01Z</time>
      </trkpt>
      <trkpt lat="40.403950" lon="-5.591583">
        <ele>1815.0</ele>
        <time>2016-08-06T14:02:03Z</time>
      </trkpt>
      <trkpt lat="40.404017" lon="-5.591800">
        <ele>1811.0</ele>
        <time>2016-08-06T14:02:05Z</time>
      </trkpt>
      <trkpt lat="40.404100" lon="-5.592033">
        <ele>1808.0</ele>
        <time>2016-08-06T14:02:07Z</time>
      </trkpt>
      <trkpt lat="40.404167" lon="-5.592267">
        <ele>1805.0</ele>
        <time>2016-08-06T14:02:09Z</time>
      </trkpt>
      <trkpt lat="40.404233" lon="-5.592483">
        <ele>1802.0</ele>
        <time>2016-08-06T14:02:11Z</time>
      </trkpt>
      <trkpt lat="40.404317" lon="-5.592717">
        <ele>1799.0</ele>
        <time>2016-08-06T14:02:13Z</time>
      </trkpt>
      <trkpt lat="40.404400" lon="-5.592933">
        <ele>1796.0</ele>
        <time>2016-08-06T14:02:15Z</time>
      </trkpt>
      <trkpt lat="40.404517" lon="-5.593150">
        <ele>1792.0</ele>
        <time>2016-08-06T14:02:17Z</time>
      </trkpt>
      <trkpt lat="40.404617" lon="-5.593367">
        <ele>1789.0</ele>
        <time>2016-08-06T14:02:19Z</time>
      </trkpt>
      <trkpt lat="40.404717" lon="-5.593567">
        <ele>1786.0</ele>
        <time>2016-08-06T14:02:21Z</time>
      </trkpt>
      <trkpt lat="40.404783" lon="-5.593767">
        <ele>1783.0</ele>
        <time>2016-08-06T14:02:23Z</time>
      </trkpt>
      <trkpt lat="40.404867" lon="-5.593983">
        <ele>1778.0</ele>
        <time>2016-08-06T14:02:25Z</time>
      </trkpt>
      <trkpt lat="40.404950" lon="-5.594217">
        <ele>1774.0</ele>
        <time>2016-08-06T14:02:27Z</time>
      </trkpt>
      <trkpt lat="40.405017" lon="-5.594467">
        <ele>1771.0</ele>
        <time>2016-08-06T14:02:29Z</time>
      </trkpt>
      <trkpt lat="40.405117" lon="-5.594667">
        <ele>1766.0</ele>
        <time>2016-08-06T14:02:31Z</time>
      </trkpt>
      <trkpt lat="40.405233" lon="-5.594883">
        <ele>1761.0</ele>
        <time>2016-08-06T14:02:33Z</time>
      </trkpt>
      <trkpt lat="40.405350" lon="-5.595100">
        <ele>1759.0</ele>
        <time>2016-08-06T14:02:35Z</time>
      </trkpt>
      <trkpt lat="40.405483" lon="-5.595300">
        <ele>1755.0</ele>
        <time>2016-08-06T14:02:37Z</time>
      </trkpt>
      <trkpt lat="40.405617" lon="-5.595500">
        <ele>1751.0</ele>
        <time>2016-08-06T14:02:39Z</time>
      </trkpt>
      <trkpt lat="40.405733" lon="-5.595717">
        <ele>1749.0</ele>
        <time>2016-08-06T14:02:41Z</time>
      </trkpt>
      <trkpt lat="40.405850" lon="-5.595917">
        <ele>1748.0</ele>
        <time>2016-08-06T14:02:43Z</time>
      </trkpt>
      <trkpt lat="40.405950" lon="-5.596083">
        <ele>1745.0</ele>
        <time>2016-08-06T14:02:45Z</time>
      </trkpt>
      <trkpt lat="40.406050" lon="-5.596250">
        <ele>1742.0</ele>
        <time>2016-08-06T14:02:47Z</time>
      </trkpt>
      <trkpt lat="40.406167" lon="-5.596417">
        <ele>1739.0</ele>
        <time>2016-08-06T14:02:49Z</time>
      </trkpt>
      <trkpt lat="40.406267" lon="-5.596567">
        <ele>1735.0</ele>
        <time>2016-08-06T14:02:51Z</time>
      </trkpt>
      <trkpt lat="40.406383" lon="-5.596717">
        <ele>1731.0</ele>
        <time>2016-08-06T14:02:53Z</time>
      </trkpt>
      <trkpt lat="40.406483" lon="-5.596900">
        <ele>1725.0</ele>
        <time>2016-08-06T14:02:55Z</time>
      </trkpt>
      <trkpt lat="40.406583" lon="-5.597117">
        <ele>1720.0</ele>
        <time>2016-08-06T14:02:57Z</time>
      </trkpt>
      <trkpt lat="40.406700" lon="-5.597283">
        <ele>1717.0</ele>
        <time>2016-08-06T14:02:59Z</time>
      </trkpt>
      <trkpt lat="40.406817" lon="-5.597467">
        <ele>1714.0</ele>
        <time>2016-08-06T14:03:01Z</time>
      </trkpt>
      <trkpt lat="40.406950" lon="-5.597633">
        <ele>1712.0</ele>
        <time>2016-08-06T14:03:03Z</time>
      </trkpt>
      <trkpt lat="40.407083" lon="-5.597733">
        <ele>1711.0</ele>
        <time>2016-08-06T14:03:05Z</time>
      </trkpt>
      <trkpt lat="40.407200" lon="-5.597850">
        <ele>1708.0</ele>
        <time>2016-08-06T14:03:07Z</time>
      </trkpt>
      <trkpt lat="40.407317" lon="-5.598017">
        <ele>1705.0</ele>
        <time>2016-08-06T14:03:09Z</time>
      </trkpt>
      <trkpt lat="40.407433" lon="-5.598167">
        <ele>1702.0</ele>
        <time>2016-08-06T14:03:11Z</time>
      </trkpt>
      <trkpt lat="40.407550" lon="-5.598317">
        <ele>1696.0</ele>
        <time>2016-08-06T14:03:13Z</time>
      </trkpt>
      <trkpt lat="40.407667" lon="-5.598483">
        <ele>1689.0</ele>
        <time>2016-08-06T14:03:15Z</time>
      </trkpt>
      <trkpt lat="40.407767" lon="-5.598633">
        <ele>1686.0</ele>
        <time>2016-08-06T14:03:17Z</time>
      </trkpt>
      <trkpt lat="40.407867" lon="-5.598800">
        <ele>1683.0</ele>
        <time>2016-08-06T14:03:19Z</time>
      </trkpt>
      <trkpt lat="40.407933" lon="-5.598967">
        <ele>1678.0</ele>
        <time>2016-08-06T14:03:21Z</time>
      </trkpt>
      <trkpt lat="40.408000" lon="-5.599150">
        <ele>1673.0</ele>
        <time>2016-08-06T14:03:23Z</time>
      </trkpt>
      <trkpt lat="40.408083" lon="-5.599317">
        <ele>1667.0</ele>
        <time>2016-08-06T14:03:25Z</time>
      </trkpt>
      <trkpt lat="40.408167" lon="-5.599517">
        <ele>1661.0</ele>
        <time>2016-08-06T14:03:27Z</time>
      </trkpt>
      <trkpt lat="40.408233" lon="-5.599683">
        <ele>1657.0</ele>
        <time>2016-08-06T14:03:29Z</time>
      </trkpt>
      <trkpt lat="40.408283" lon="-5.599833">
        <ele>1652.0</ele>
        <time>2016-08-06T14:03:31Z</time>
      </trkpt>
      <trkpt lat="40.408367" lon="-5.599983">
        <ele>1645.0</ele>
        <time>2016-08-06T14:03:33Z</time>
      </trkpt>
      <trkpt lat="40.408450" lon="-5.600150">
        <ele>1637.0</ele>
        <time>2016-08-06T14:03:35Z</time>
      </trkpt>
      <trkpt lat="40.408550" lon="-5.600283">
        <ele>1631.0</ele>
        <time>2016-08-06T14:03:37Z</time>
      </trkpt>
      <trkpt lat="40.408650" lon="-5.600433">
        <ele>1626.0</ele>
        <time>2016-08-06T14:03:39Z</time>
      </trkpt>
      <trkpt lat="40.408750" lon="-5.600617">
        <ele>1620.0</ele>
        <time>2016-08-06T14:03:41Z</time>
      </trkpt>
      <trkpt lat="40.408850" lon="-5.600767">
        <ele>1614.0</ele>
        <time>2016-08-06T14:03:43Z</time>
      </trkpt>
      <trkpt lat="40.408933" lon="-5.600933">
        <ele>1607.0</ele>
        <time>2016-08-06T14:03:45Z</time>
      </trkpt>
      <trkpt lat="40.409033" lon="-5.601117">
        <ele>1599.0</ele>
        <time>2016-08-06T14:03:47Z</time>
      </trkpt>
      <trkpt lat="40.409150" lon="-5.601283">
        <ele>1591.0</ele>
        <time>2016-08-06T14:03:49Z</time>
      </trkpt>
      <trkpt lat="40.409283" lon="-5.601450">
        <ele>1587.0</ele>
        <time>2016-08-06T14:03:51Z</time>
      </trkpt>
      <trkpt lat="40.409400" lon="-5.601583">
        <ele>1581.0</ele>
        <time>2016-08-06T14:03:53Z</time>
      </trkpt>
      <trkpt lat="40.409533" lon="-5.601717">
        <ele>1576.0</ele>
        <time>2016-08-06T14:03:55Z</time>
      </trkpt>
      <trkpt lat="40.409667" lon="-5.601850">
        <ele>1570.0</ele>
        <time>2016-08-06T14:03:57Z</time>
      </trkpt>
      <trkpt lat="40.409817" lon="-5.601983">
        <ele>1564.0</ele>
        <time>2016-08-06T14:03:59Z</time>
      </trkpt>
      <trkpt lat="40.409967" lon="-5.602117">
        <ele>1559.0</ele>
        <time>2016-08-06T14:04:01Z</time>
      </trkpt>
      <trkpt lat="40.410100" lon="-5.602233">
        <ele>1555.0</ele>
        <time>2016-08-06T14:04:03Z</time>
      </trkpt>
      <trkpt lat="40.410233" lon="-5.602367">
        <ele>1550.0</ele>
        <time>2016-08-06T14:04:05Z</time>
      </trkpt>
      <trkpt lat="40.410383" lon="-5.602517">
        <ele>1545.0</ele>
        <time>2016-08-06T14:04:07Z</time>
      </trkpt>
      <trkpt lat="40.410500" lon="-5.602633">
        <ele>1541.0</ele>
        <time>2016-08-06T14:04:09Z</time>
      </trkpt>
      <trkpt lat="40.410633" lon="-5.602750">
        <ele>1535.0</ele>
        <time>2016-08-06T14:04:11Z</time>
      </trkpt>
      <trkpt lat="40.410783" lon="-5.602833">
        <ele>1529.0</ele>
        <time>2016-08-06T14:04:13Z</time>
      </trkpt>
      <trkpt lat="40.410917" lon="-5.602917">
        <ele>1527.0</ele>
        <time>2016-08-06T14:04:15Z</time>
      </trkpt>
      <trkpt lat="40.411067" lon="-5.603050">
        <ele>1525.0</ele>
        <time>2016-08-06T14:04:17Z</time>
      </trkpt>
      <trkpt lat="40.411200" lon="-5.603200">
        <ele>1528.0</ele>
        <time>2016-08-06T14:04:19Z</time>
      </trkpt>
      <trkpt lat="40.411300" lon="-5.603317">
        <ele>1528.0</ele>
        <time>2016-08-06T14:04:21Z</time>
      </trkpt>
      <trkpt lat="40.411433" lon="-5.603450">
        <ele>1524.0</ele>
        <time>2016-08-06T14:04:23Z</time>
      </trkpt>
      <trkpt lat="40.411550" lon="-5.603550">
        <ele>1522.0</ele>
        <time>2016-08-06T14:04:25Z</time>
      </trkpt>
      <trkpt lat="40.411650" lon="-5.603667">
        <ele>1517.0</ele>
        <time>2016-08-06T14:04:27Z</time>
      </trkpt>
      <trkpt lat="40.411750" lon="-5.603783">
        <ele>1511.0</ele>
        <time>2016-08-06T14:04:29Z</time>
      </trkpt>
      <trkpt lat="40.411867" lon="-5.603900">
        <ele>1504.0</ele>
        <time>2016-08-06T14:04:31Z</time>
      </trkpt>
      <trkpt lat="40.411983" lon="-5.604067">
        <ele>1499.0</ele>
        <time>2016-08-06T14:04:33Z</time>
      </trkpt>
      <trkpt lat="40.412083" lon="-5.604233">
        <ele>1493.0</ele>
        <time>2016-08-06T14:04:35Z</time>
      </trkpt>
      <trkpt lat="40.412133" lon="-5.604433">
        <ele>1488.0</ele>
        <time>2016-08-06T14:04:37Z</time>
      </trkpt>
      <trkpt lat="40.412167" lon="-5.604650">
        <ele>1482.0</ele>
        <time>2016-08-06T14:04:39Z</time>
      </trkpt>
      <trkpt lat="40.412217" lon="-5.604900">
        <ele>1479.0</ele>
        <time>2016-08-06T14:04:41Z</time>
      </trkpt>
      <trkpt lat="40.412267" lon="-5.605100">
        <ele>1478.0</ele>
        <time>2016-08-06T14:04:43Z</time>
      </trkpt>
      <trkpt lat="40.412300" lon="-5.605300">
        <ele>1475.0</ele>
        <time>2016-08-06T14:04:45Z</time>
      </trkpt>
      <trkpt lat="40.412350" lon="-5.605483">
        <ele>1471.0</ele>
        <time>2016-08-06T14:04:47Z</time>
      </trkpt>
      <trkpt lat="40.412417" lon="-5.605650">
        <ele>1466.0</ele>
        <time>2016-08-06T14:04:49Z</time>
      </trkpt>
      <trkpt lat="40.412483" lon="-5.605850">
        <ele>1463.0</ele>
        <time>2016-08-06T14:04:51Z</time>
      </trkpt>
      <trkpt lat="40.412550" lon="-5.606050">
        <ele>1460.0</ele>
        <time>2016-08-06T14:04:53Z</time>
      </trkpt>
      <trkpt lat="40.412583" lon="-5.606233">
        <ele>1461.0</ele>
        <time>2016-08-06T14:04:55Z</time>
      </trkpt>
      <trkpt lat="40.412633" lon="-5.606367">
        <ele>1461.0</ele>
        <time>2016-08-06T14:04:57Z</time>
      </trkpt>
      <trkpt lat="40.412700" lon="-5.606517">
        <ele>1458.0</ele>
        <time>2016-08-06T14:04:59Z</time>
      </trkpt>
      <trkpt lat="40.412800" lon="-5.606683">
        <ele>1459.0</ele>
        <time>2016-08-06T14:05:01Z</time>
      </trkpt>
      <trkpt lat="40.412867" lon="-5.606817">
        <ele>1464.0</ele>
        <time>2016-08-06T14:05:03Z</time>
      </trkpt>
      <trkpt lat="40.412933" lon="-5.606883">
        <ele>1464.0</ele>
        <time>2016-08-06T14:05:05Z</time>
      </trkpt>
      <trkpt lat="40.413083" lon="-5.606817">
        <ele>1462.0</ele>
        <time>2016-08-06T14:05:07Z</time>
      </trkpt>
      <trkpt lat="40.413200" lon="-5.606633">
        <ele>1465.0</ele>
        <time>2016-08-06T14:05:09Z</time>
      </trkpt>
      <trkpt lat="40.413250" lon="-5.606500">
        <ele>1471.0</ele>
        <time>2016-08-06T14:05:11Z</time>
      </trkpt>
      <trkpt lat="40.413317" lon="-5.606500">
        <ele>1472.0</ele>
        <time>2016-08-06T14:05:13Z</time>
      </trkpt>
      <trkpt lat="40.413417" lon="-5.606583">
        <ele>1473.0</ele>
        <time>2016-08-06T14:05:15Z</time>
      </trkpt>
      <trkpt lat="40.413467" lon="-5.606717">
        <ele>1475.0</ele>
        <time>2016-08-06T14:05:17Z</time>
      </trkpt>
      <trkpt lat="40.413483" lon="-5.606883">
        <ele>1475.0</ele>
        <time>2016-08-06T14:05:19Z</time>
      </trkpt>
      <trkpt lat="40.413483" lon="-5.607117">
        <ele>1475.0</ele>
        <time>2016-08-06T14:05:21Z</time>
      </trkpt>
      <trkpt lat="40.413467" lon="-5.607367">
        <ele>1477.0</ele>
        <time>2016-08-06T14:05:23Z</time>
      </trkpt>
      <trkpt lat="40.413483" lon="-5.607567">
        <ele>1481.0</ele>
        <time>2016-08-06T14:05:25Z</time>
      </trkpt>
      <trkpt lat="40.413533" lon="-5.607700">
        <ele>1481.0</ele>
        <time>2016-08-06T14:05:27Z</time>
      </trkpt>
      <trkpt lat="40.413633" lon="-5.607767">
        <ele>1481.0</ele>
        <time>2016-08-06T14:05:29Z</time>
      </trkpt>
      <trkpt lat="40.413717" lon="-5.607700">
        <ele>1482.0</ele>
        <time>2016-08-06T14:05:31Z</time>
      </trkpt>
      <trkpt lat="40.413750" lon="-5.607567">
        <ele>1483.0</ele>
        <time>2016-08-06T14:05:33Z</time>
      </trkpt>
      <trkpt lat="40.413700" lon="-5.607367">
        <ele>1482.0</ele>
        <time>2016-08-06T14:05:35Z</time>
      </trkpt>
      <trkpt lat="40.413533" lon="-5.607167">
        <ele>1482.0</ele>
        <time>2016-08-06T14:05:37Z</time>
      </trkpt>
      <trkpt lat="40.413267" lon="-5.607117">
        <ele>1486.0</ele>
        <time>2016-08-06T14:05:39Z</time>
      </trkpt>
      <trkpt lat="40.413017" lon="-5.607150">
        <ele>1491.0</ele>
        <time>2016-08-06T14:05:41Z</time>
      </trkpt>
      <trkpt lat="40.412783" lon="-5.607283">
        <ele>1494.0</ele>
        <time>2016-08-06T14:05:43Z</time>
      </trkpt>
      <trkpt lat="40.412600" lon="-5.607517">
        <ele>1498.0</ele>
        <time>2016-08-06T14:05:45Z</time>
      </trkpt>
      <trkpt lat="40.412483" lon="-5.607750">
        <ele>1504.0</ele>
        <time>2016-08-06T14:05:47Z</time>
      </trkpt>
      <trkpt lat="40.412417" lon="-5.607983">
        <ele>1506.0</ele>
        <time>2016-08-06T14:05:49Z</time>
      </trkpt>
      <trkpt lat="40.412383" lon="-5.608283">
        <ele>1506.0</ele>
        <time>2016-08-06T14:05:51Z</time>
      </trkpt>
      <trkpt lat="40.412467" lon="-5.608500">
        <ele>1510.0</ele>
        <time>2016-08-06T14:05:53Z</time>
      </trkpt>
      <trkpt lat="40.412550" lon="-5.608600">
        <ele>1519.0</ele>
        <time>2016-08-06T14:05:55Z</time>
      </trkpt>
      <trkpt lat="40.412633" lon="-5.608667">
        <ele>1525.0</ele>
        <time>2016-08-06T14:05:57Z</time>
      </trkpt>
      <trkpt lat="40.412733" lon="-5.608667">
        <ele>1528.0</ele>
        <time>2016-08-06T14:05:59Z</time>
      </trkpt>
      <trkpt lat="40.412767" lon="-5.608517">
        <ele>1530.0</ele>
        <time>2016-08-06T14:06:01Z</time>
      </trkpt>
      <trkpt lat="40.412683" lon="-5.608317">
        <ele>1533.0</ele>
        <time>2016-08-06T14:06:03Z</time>
      </trkpt>
      <trkpt lat="40.412517" lon="-5.608217">
        <ele>1539.0</ele>
        <time>2016-08-06T14:06:05Z</time>
      </trkpt>
      <trkpt lat="40.412267" lon="-5.608250">
        <ele>1543.0</ele>
        <time>2016-08-06T14:06:07Z</time>
      </trkpt>
      <trkpt lat="40.412050" lon="-5.608433">
        <ele>1548.0</ele>
        <time>2016-08-06T14:06:09Z</time>
      </trkpt>
      <trkpt lat="40.411950" lon="-5.608667">
        <ele>1553.0</ele>
        <time>2016-08-06T14:06:11Z</time>
      </trkpt>
      <trkpt lat="40.411917" lon="-5.608900">
        <ele>1557.0</ele>
        <time>2016-08-06T14:06:13Z</time>
      </trkpt>
      <trkpt lat="40.411933" lon="-5.609133">
        <ele>1560.0</ele>
        <time>2016-08-06T14:06:15Z</time>
      </trkpt>
      <trkpt lat="40.412033" lon="-5.609300">
        <ele>1564.0</ele>
        <time>2016-08-06T14:06:17Z</time>
      </trkpt>
      <trkpt lat="40.412150" lon="-5.609383">
        <ele>1571.0</ele>
        <time>2016-08-06T14:06:19Z</time>
      </trkpt>
      <trkpt lat="40.412233" lon="-5.609367">
        <ele>1577.0</ele>
        <time>2016-08-06T14:06:21Z</time>
      </trkpt>
      <trkpt lat="40.412267" lon="-5.609233">
        <ele>1582.0</ele>
        <time>2016-08-06T14:06:23Z</time>
      </trkpt>
      <trkpt lat="40.412233" lon="-5.609067">
        <ele>1588.0</ele>
        <time>2016-08-06T14:06:25Z</time>
      </trkpt>
      <trkpt lat="40.412117" lon="-5.608883">
        <ele>1594.0</ele>
        <time>2016-08-06T14:06:27Z</time>
      </trkpt>
      <trkpt lat="40.411950" lon="-5.608767">
        <ele>1600.0</ele>
        <time>2016-08-06T14:06:29Z</time>
      </trkpt>
      <trkpt lat="40.411717" lon="-5.608767">
        <ele>1604.0</ele>
        <time>2016-08-06T14:06:31Z</time>
      </trkpt>
      <trkpt lat="40.411467" lon="-5.608883">
        <ele>1611.0</ele>
        <time>2016-08-06T14:06:33Z</time>
      </trkpt>
      <trkpt lat="40.411317" lon="-5.609100">
        <ele>1619.0</ele>
        <time>2016-08-06T14:06:35Z</time>
      </trkpt>
      <trkpt lat="40.411267" lon="-5.609333">
        <ele>1625.0</ele>
        <time>2016-08-06T14:06:37Z</time>
      </trkpt>
      <trkpt lat="40.411283" lon="-5.609583">
        <ele>1627.0</ele>
        <time>2016-08-06T14:06:39Z</time>
      </trkpt>
      <trkpt lat="40.411400" lon="-5.609817">
        <ele>1629.0</ele>
        <time>2016-08-06T14:06:41Z</time>
      </trkpt>
      <trkpt lat="40.411567" lon="-5.609900">
        <ele>1634.0</ele>
        <time>2016-08-06T14:06:43Z</time>
      </trkpt>
      <trkpt lat="40.411700" lon="-5.609917">
        <ele>1640.0</ele>
        <time>2016-08-06T14:06:45Z</time>
      </trkpt>
      <trkpt lat="40.411817" lon="-5.609850">
        <ele>1646.0</ele>
        <time>2016-08-06T14:06:47Z</time>
      </trkpt>
      <trkpt lat="40.411867" lon="-5.609667">
        <ele>1653.0</ele>
        <time>2016-08-06T14:06:49Z</time>
      </trkpt>
      <trkpt lat="40.411767" lon="-5.609483">
        <ele>1659.0</ele>
        <time>2016-08-06T14:06:51Z</time>
      </trkpt>
      <trkpt lat="40.411550" lon="-5.609417">
        <ele>1662.0</ele>
        <time>2016-08-06T14:06:53Z</time>
      </trkpt>
      <trkpt lat="40.411300" lon="-5.609483">
        <ele>1667.0</ele>
        <time>2016-08-06T14:06:55Z</time>
      </trkpt>
      <trkpt lat="40.411083" lon="-5.609717">
        <ele>1674.0</ele>
        <time>2016-08-06T14:06:57Z</time>
      </trkpt>
      <trkpt lat="40.410983" lon="-5.609950">
        <ele>1684.0</ele>
        <time>2016-08-06T14:06:59Z</time>
      </trkpt>
      <trkpt lat="40.410950" lon="-5.610183">
        <ele>1689.0</ele>
        <time>2016-08-06T14:07:01Z</time>
      </trkpt>
      <trkpt lat="40.410950" lon="-5.610483">
        <ele>1691.0</ele>
        <time>2016-08-06T14:07:03Z</time>
      </trkpt>
      <trkpt lat="40.411083" lon="-5.610717">
        <ele>1697.0</ele>
        <time>2016-08-06T14:07:05Z</time>
      </trkpt>
      <trkpt lat="40.411217" lon="-5.610850">
        <ele>1702.0</ele>
        <time>2016-08-06T14:07:07Z</time>
      </trkpt>
      <trkpt lat="40.411350" lon="-5.610883">
        <ele>1705.0</ele>
        <time>2016-08-06T14:07:09Z</time>
      </trkpt>
      <trkpt lat="40.411483" lon="-5.610833">
        <ele>1711.0</ele>
        <time>2016-08-06T14:07:11Z</time>
      </trkpt>
      <trkpt lat="40.411567" lon="-5.610717">
        <ele>1718.0</ele>
        <time>2016-08-06T14:07:13Z</time>
      </trkpt>
      <trkpt lat="40.411583" lon="-5.610583">
        <ele>1724.0</ele>
        <time>2016-08-06T14:07:15Z</time>
      </trkpt>
      <trkpt lat="40.411500" lon="-5.610383">
        <ele>1726.0</ele>
        <time>2016-08-06T14:07:17Z</time>
      </trkpt>
      <trkpt lat="40.411350" lon="-5.610217">
        <ele>1731.0</ele>
        <time>2016-08-06T14:07:19Z</time>
      </trkpt>
      <trkpt lat="40.411133" lon="-5.610183">
        <ele>1738.0</ele>
        <time>2016-08-06T14:07:21Z</time>
      </trkpt>
      <trkpt lat="40.410933" lon="-5.610233">
        <ele>1745.0</ele>
        <time>2016-08-06T14:07:23Z</time>
      </trkpt>
      <trkpt lat="40.410750" lon="-5.610383">
        <ele>1750.0</ele>
        <time>2016-08-06T14:07:25Z</time>
      </trkpt>
      <trkpt lat="40.410633" lon="-5.610650">
        <ele>1754.0</ele>
        <time>2016-08-06T14:07:27Z</time>
      </trkpt>
      <trkpt lat="40.410583" lon="-5.610933">
        <ele>1763.0</ele>
        <time>2016-08-06T14:07:29Z</time>
      </trkpt>
      <trkpt lat="40.410617" lon="-5.611167">
        <ele>1770.0</ele>
        <time>2016-08-06T14:07:31Z</time>
      </trkpt>
      <trkpt lat="40.410700" lon="-5.611400">
        <ele>1775.0</ele>
        <time>2016-08-06T14:07:33Z</time>
      </trkpt>
      <trkpt lat="40.410833" lon="-5.611517">
        <ele>1778.0</ele>
        <time>2016-08-06T14:07:35Z</time>
      </trkpt>
      <trkpt lat="40.410983" lon="-5.611517">
        <ele>1785.0</ele>
        <time>2016-08-06T14:07:37Z</time>
      </trkpt>
      <trkpt lat="40.411050" lon="-5.611450">
        <ele>1793.0</ele>
        <time>2016-08-06T14:07:39Z</time>
      </trkpt>
      <trkpt lat="40.411067" lon="-5.611317">
        <ele>1799.0</ele>
        <time>2016-08-06T14:07:41Z</time>
      </trkpt>
      <trkpt lat="40.411017" lon="-5.611150">
        <ele>1805.0</ele>
        <time>2016-08-06T14:07:43Z</time>
      </trkpt>
      <trkpt lat="40.410883" lon="-5.611033">
        <ele>1812.0</ele>
        <time>2016-08-06T14:07:45Z</time>
      </trkpt>
      <trkpt lat="40.410700" lon="-5.610983">
        <ele>1817.0</ele>
        <time>2016-08-06T14:07:47Z</time>
      </trkpt>
      <trkpt lat="40.410483" lon="-5.611100">
        <ele>1820.0</ele>
        <time>2016-08-06T14:07:49Z</time>
      </trkpt>
      <trkpt lat="40.410333" lon="-5.611333">
        <ele>1825.0</ele>
        <time>2016-08-06T14:07:51Z</time>
      </trkpt>
      <trkpt lat="40.410267" lon="-5.611583">
        <ele>1832.0</ele>
        <time>2016-08-06T14:07:53Z</time>
      </trkpt>
      <trkpt lat="40.410250" lon="-5.611867">
        <ele>1837.0</ele>
        <time>2016-08-06T14:07:55Z</time>
      </trkpt>
      <trkpt lat="40.410317" lon="-5.612117">
        <ele>1842.0</ele>
        <time>2016-08-06T14:07:57Z</time>
      </trkpt>
      <trkpt lat="40.410433" lon="-5.612350">
        <ele>1846.0</ele>
        <time>2016-08-06T14:07:59Z</time>
      </trkpt>
      <trkpt lat="40.410600" lon="-5.612433">
        <ele>1851.0</ele>
        <time>2016-08-06T14:08:01Z</time>
      </trkpt>
      <trkpt lat="40.410717" lon="-5.612383">
        <ele>1858.0</ele>
        <time>2016-08-06T14:08:03Z</time>
      </trkpt>
      <trkpt lat="40.410767" lon="-5.612250">
        <ele>1869.0</ele>
        <time>2016-08-06T14:08:05Z</time>
      </trkpt>
      <trkpt lat="40.410733" lon="-5.612150">
        <ele>1879.0</ele>
        <time>2016-08-06T14:08:07Z</time>
      </trkpt>
      <trkpt lat="40.410667" lon="-5.612000">
        <ele>1885.0</ele>
        <time>2016-08-06T14:08:09Z</time>
      </trkpt>
      <trkpt lat="40.410500" lon="-5.611900">
        <ele>1891.0</ele>
        <time>2016-08-06T14:08:11Z</time>
      </trkpt>
      <trkpt lat="40.410283" lon="-5.611967">
        <ele>1897.0</ele>
        <time>2016-08-06T14:08:13Z</time>
      </trkpt>
      <trkpt lat="40.410133" lon="-5.612117">
        <ele>1902.0</ele>
        <time>2016-08-06T14:08:15Z</time>
      </trkpt>
      <trkpt lat="40.410000" lon="-5.612333">
        <ele>1904.0</ele>
        <time>2016-08-06T14:08:17Z</time>
      </trkpt>
      <trkpt lat="40.409917" lon="-5.612617">
        <ele>1907.0</ele>
        <time>2016-08-06T14:08:19Z</time>
      </trkpt>
      <trkpt lat="40.410000" lon="-5.612883">
        <ele>1911.0</ele>
        <time>2016-08-06T14:08:21Z</time>
      </trkpt>
      <trkpt lat="40.410133" lon="-5.613050">
        <ele>1917.0</ele>
        <time>2016-08-06T14:08:23Z</time>
      </trkpt>
      <trkpt lat="40.410250" lon="-5.613100">
        <ele>1924.0</ele>
        <time>2016-08-06T14:08:25Z</time>
      </trkpt>
      <trkpt lat="40.410317" lon="-5.613033">
        <ele>1931.0</ele>
        <time>2016-08-06T14:08:27Z</time>
      </trkpt>
      <trkpt lat="40.410300" lon="-5.612900">
        <ele>1936.0</ele>
        <time>2016-08-06T14:08:29Z</time>
      </trkpt>
      <trkpt lat="40.410200" lon="-5.612783">
        <ele>1941.0</ele>
        <time>2016-08-06T14:08:31Z</time>
      </trkpt>
      <trkpt lat="40.410000" lon="-5.612733">
        <ele>1945.0</ele>
        <time>2016-08-06T14:08:33Z</time>
      </trkpt>
      <trkpt lat="40.409783" lon="-5.612867">
        <ele>1952.0</ele>
        <time>2016-08-06T14:08:35Z</time>
      </trkpt>
      <trkpt lat="40.409667" lon="-5.613083">
        <ele>1957.0</ele>
        <time>2016-08-06T14:08:37Z</time>
      </trkpt>
      <trkpt lat="40.409633" lon="-5.613367">
        <ele>1960.0</ele>
        <time>2016-08-06T14:08:39Z</time>
      </trkpt>
      <trkpt lat="40.409683" lon="-5.613650">
        <ele>1964.0</ele>
        <time>2016-08-06T14:08:41Z</time>
      </trkpt>
      <trkpt lat="40.409817" lon="-5.613833">
        <ele>1970.0</ele>
        <time>2016-08-06T14:08:43Z</time>
      </trkpt>
      <trkpt lat="40.409950" lon="-5.613900">
        <ele>1977.0</ele>
        <time>2016-08-06T14:08:45Z</time>
      </trkpt>
      <trkpt lat="40.410033" lon="-5.613867">
        <ele>1979.0</ele>
        <time>2016-08-06T14:08:47Z</time>
      </trkpt>
      <trkpt lat="40.410050" lon="-5.613733">
        <ele>1981.0</ele>
        <time>2016-08-06T14:08:49Z</time>
      </trkpt>
      <trkpt lat="40.410000" lon="-5.613550">
        <ele>1983.0</ele>
        <time>2016-08-06T14:08:51Z</time>
      </trkpt>
      <trkpt lat="40.409883" lon="-5.613350">
        <ele>1988.0</ele>
        <time>2016-08-06T14:08:53Z</time>
      </trkpt>
      <trkpt lat="40.409733" lon="-5.613233">
        <ele>1995.0</ele>
        <time>2016-08-06T14:08:55Z</time>
      </trkpt>
      <trkpt lat="40.409567" lon="-5.613217">
        <ele>1997.0</ele>
        <time>2016-08-06T14:08:57Z</time>
      </trkpt>
      <trkpt lat="40.409350" lon="-5.613300">
        <ele>1999.0</ele>
        <time>2016-08-06T14:08:59Z</time>
      </trkpt>
      <trkpt lat="40.409200" lon="-5.613500">
        <ele>2003.0</ele>
        <time>2016-08-06T14:09:01Z</time>
      </trkpt>
      <trkpt lat="40.409117" lon="-5.613750">
        <ele>2006.0</ele>
        <time>2016-08-06T14:09:03Z</time>
      </trkpt>
      <trkpt lat="40.409100" lon="-5.614017">
        <ele>2009.0</ele>
        <time>2016-08-06T14:09:05Z</time>
      </trkpt>
      <trkpt lat="40.409117" lon="-5.614267">
        <ele>2011.0</ele>
        <time>2016-08-06T14:09:07Z</time>
      </trkpt>
      <trkpt lat="40.409217" lon="-5.614467">
        <ele>2014.0</ele>
        <time>2016-08-06T14:09:09Z</time>
      </trkpt>
      <trkpt lat="40.409350" lon="-5.614583">
        <ele>2017.0</ele>
        <time>2016-08-06T14:09:11Z</time>
      </trkpt>
      <trkpt lat="40.409450" lon="-5.614533">
        <ele>2022.0</ele>
        <time>2016-08-06T14:09:13Z</time>
      </trkpt>
      <trkpt lat="40.409467" lon="-5.614383">
        <ele>2026.0</ele>
        <time>2016-08-06T14:09:15Z</time>
      </trkpt>
      <trkpt lat="40.409400" lon="-5.614233">
        <ele>2030.0</ele>
        <time>2016-08-06T14:09:17Z</time>
      </trkpt>
      <trkpt lat="40.409267" lon="-5.614117">
        <ele>2033.0</ele>
        <time>2016-08-06T14:09:19Z</time>
      </trkpt>
      <trkpt lat="40.409100" lon="-5.614050">
        <ele>2035.0</ele>
        <time>2016-08-06T14:09:21Z</time>
      </trkpt>
      <trkpt lat="40.408900" lon="-5.614100">
        <ele>2035.0</ele>
        <time>2016-08-06T14:09:23Z</time>
      </trkpt>
      <trkpt lat="40.408733" lon="-5.614317">
        <ele>2037.0</ele>
        <time>2016-08-06T14:09:25Z</time>
      </trkpt>
      <trkpt lat="40.408667" lon="-5.614567">
        <ele>2039.0</ele>
        <time>2016-08-06T14:09:27Z</time>
      </trkpt>
      <trkpt lat="40.408650" lon="-5.614833">
        <ele>2042.0</ele>
        <time>2016-08-06T14:09:29Z</time>
      </trkpt>
      <trkpt lat="40.408650" lon="-5.615100">
        <ele>2043.0</ele>
        <time>2016-08-06T14:09:31Z</time>
      </trkpt>
      <trkpt lat="40.408683" lon="-5.615367">
        <ele>2044.0</ele>
        <time>2016-08-06T14:09:33Z</time>
      </trkpt>
      <trkpt lat="40.408750" lon="-5.615617">
        <ele>2046.0</ele>
        <time>2016-08-06T14:09:35Z</time>
      </trkpt>
      <trkpt lat="40.408867" lon="-5.615817">
        <ele>2047.0</ele>
        <time>2016-08-06T14:09:37Z</time>
      </trkpt>
      <trkpt lat="40.409017" lon="-5.615967">
        <ele>2047.0</ele>
        <time>2016-08-06T14:09:39Z</time>
      </trkpt>
      <trkpt lat="40.409167" lon="-5.616017">
        <ele>2047.0</ele>
        <time>2016-08-06T14:09:41Z</time>
      </trkpt>
      <trkpt lat="40.409267" lon="-5.615917">
        <ele>2045.0</ele>
        <time>2016-08-06T14:09:43Z</time>
      </trkpt>
      <trkpt lat="40.409300" lon="-5.615700">
        <ele>2044.0</ele>
        <time>2016-08-06T14:09:45Z</time>
      </trkpt>
      <trkpt lat="40.409250" lon="-5.615517">
        <ele>2046.0</ele>
        <time>2016-08-06T14:09:47Z</time>
      </trkpt>
      <trkpt lat="40.409100" lon="-5.615383">
        <ele>2043.0</ele>
        <time>2016-08-06T14:09:49Z</time>
      </trkpt>
      <trkpt lat="40.408867" lon="-5.615333">
        <ele>2043.0</ele>
        <time>2016-08-06T14:09:51Z</time>
      </trkpt>
      <trkpt lat="40.408667" lon="-5.615417">
        <ele>2050.0</ele>
        <time>2016-08-06T14:09:53Z</time>
      </trkpt>
      <trkpt lat="40.408483" lon="-5.615583">
        <ele>2053.0</ele>
        <time>2016-08-06T14:09:55Z</time>
      </trkpt>
      <trkpt lat="40.408300" lon="-5.615833">
        <ele>2054.0</ele>
        <time>2016-08-06T14:09:57Z</time>
      </trkpt>
      <trkpt lat="40.408217" lon="-5.616117">
        <ele>2057.0</ele>
        <time>2016-08-06T14:09:59Z</time>
      </trkpt>
      <trkpt lat="40.408183" lon="-5.616367">
        <ele>2060.0</ele>
        <time>2016-08-06T14:10:01Z</time>
      </trkpt>
      <trkpt lat="40.408183" lon="-5.616600">
        <ele>2059.0</ele>
        <time>2016-08-06T14:10:03Z</time>
      </trkpt>
      <trkpt lat="40.408183" lon="-5.616867">
        <ele>2058.0</ele>
        <time>2016-08-06T14:10:05Z</time>
      </trkpt>
      <trkpt lat="40.408233" lon="-5.617133">
        <ele>2058.0</ele>
        <time>2016-08-06T14:10:07Z</time>
      </trkpt>
      <trkpt lat="40.408333" lon="-5.617350">
        <ele>2060.0</ele>
        <time>2016-08-06T14:10:09Z</time>
      </trkpt>
      <trkpt lat="40.408417" lon="-5.617550">
        <ele>2061.0</ele>
        <time>2016-08-06T14:10:11Z</time>
      </trkpt>
      <trkpt lat="40.408517" lon="-5.617683">
        <ele>2060.0</ele>
        <time>2016-08-06T14:10:13Z</time>
      </trkpt>
      <trkpt lat="40.408633" lon="-5.617717">
        <ele>2058.0</ele>
        <time>2016-08-06T14:10:15Z</time>
      </trkpt>
      <trkpt lat="40.408767" lon="-5.617700">
        <ele>2059.0</ele>
        <time>2016-08-06T14:10:17Z</time>
      </trkpt>
      <trkpt lat="40.408850" lon="-5.617617">
        <ele>2061.0</ele>
        <time>2016-08-06T14:10:19Z</time>
      </trkpt>
      <trkpt lat="40.408900" lon="-5.617500">
        <ele>2059.0</ele>
        <time>2016-08-06T14:10:21Z</time>
      </trkpt>
      <trkpt lat="40.408933" lon="-5.617317">
        <ele>2056.0</ele>
        <time>2016-08-06T14:10:23Z</time>
      </trkpt>
      <trkpt lat="40.408900" lon="-5.617133">
        <ele>2056.0</ele>
        <time>2016-08-06T14:10:25Z</time>
      </trkpt>
      <trkpt lat="40.408800" lon="-5.616967">
        <ele>2055.0</ele>
        <time>2016-08-06T14:10:27Z</time>
      </trkpt>
      <trkpt lat="40.408650" lon="-5.616867">
        <ele>2055.0</ele>
        <time>2016-08-06T14:10:29Z</time>
      </trkpt>
      <trkpt lat="40.408450" lon="-5.616833">
        <ele>2054.0</ele>
        <time>2016-08-06T14:10:31Z</time>
      </trkpt>
      <trkpt lat="40.408250" lon="-5.616933">
        <ele>2055.0</ele>
        <time>2016-08-06T14:10:33Z</time>
      </trkpt>
      <trkpt lat="40.408083" lon="-5.617100">
        <ele>2057.0</ele>
        <time>2016-08-06T14:10:35Z</time>
      </trkpt>
      <trkpt lat="40.407967" lon="-5.617283">
        <ele>2058.0</ele>
        <time>2016-08-06T14:10:37Z</time>
      </trkpt>
      <trkpt lat="40.407883" lon="-5.617533">
        <ele>2054.0</ele>
        <time>2016-08-06T14:10:39Z</time>
      </trkpt>
      <trkpt lat="40.407833" lon="-5.617833">
        <ele>2052.0</ele>
        <time>2016-08-06T14:10:41Z</time>
      </trkpt>
      <trkpt lat="40.407817" lon="-5.618117">
        <ele>2053.0</ele>
        <time>2016-08-06T14:10:43Z</time>
      </trkpt>
      <trkpt lat="40.407783" lon="-5.618367">
        <ele>2054.0</ele>
        <time>2016-08-06T14:10:45Z</time>
      </trkpt>
      <trkpt lat="40.407733" lon="-5.618617">
        <ele>2052.0</ele>
        <time>2016-08-06T14:10:47Z</time>
      </trkpt>
      <trkpt lat="40.407700" lon="-5.618917">
        <ele>2049.0</ele>
        <time>2016-08-06T14:10:49Z</time>
      </trkpt>
      <trkpt lat="40.407650" lon="-5.619167">
        <ele>2047.0</ele>
        <time>2016-08-06T14:10:51Z</time>
      </trkpt>
      <trkpt lat="40.407650" lon="-5.619433">
        <ele>2042.0</ele>
        <time>2016-08-06T14:10:53Z</time>
      </trkpt>
      <trkpt lat="40.407633" lon="-5.619733">
        <ele>2036.0</ele>
        <time>2016-08-06T14:10:55Z</time>
      </trkpt>
      <trkpt lat="40.407617" lon="-5.620033">
        <ele>2033.0</ele>
        <time>2016-08-06T14:10:57Z</time>
      </trkpt>
      <trkpt lat="40.407583" lon="-5.620317">
        <ele>2029.0</ele>
        <time>2016-08-06T14:10:59Z</time>
      </trkpt>
      <trkpt lat="40.407550" lon="-5.620617">
        <ele>2021.0</ele>
        <time>2016-08-06T14:11:01Z</time>
      </trkpt>
      <trkpt lat="40.407550" lon="-5.620917">
        <ele>2016.0</ele>
        <time>2016-08-06T14:11:03Z</time>
      </trkpt>
      <trkpt lat="40.407550" lon="-5.621200">
        <ele>2013.0</ele>
        <time>2016-08-06T14:11:05Z</time>
      </trkpt>
      <trkpt lat="40.407550" lon="-5.621467">
        <ele>2008.0</ele>
        <time>2016-08-06T14:11:07Z</time>
      </trkpt>
      <trkpt lat="40.407550" lon="-5.621750">
        <ele>2001.0</ele>
        <time>2016-08-06T14:11:09Z</time>
      </trkpt>
      <trkpt lat="40.407533" lon="-5.622050">
        <ele>1997.0</ele>
        <time>2016-08-06T14:11:11Z</time>
      </trkpt>
      <trkpt lat="40.407500" lon="-5.622333">
        <ele>1993.0</ele>
        <time>2016-08-06T14:11:13Z</time>
      </trkpt>
      <trkpt lat="40.407467" lon="-5.622617">
        <ele>1988.0</ele>
        <time>2016-08-06T14:11:15Z</time>
      </trkpt>
      <trkpt lat="40.407467" lon="-5.622900">
        <ele>1981.0</ele>
        <time>2016-08-06T14:11:17Z</time>
      </trkpt>
      <trkpt lat="40.407450" lon="-5.623217">
        <ele>1978.0</ele>
        <time>2016-08-06T14:11:19Z</time>
      </trkpt>
      <trkpt lat="40.407417" lon="-5.623450">
        <ele>1976.0</ele>
        <time>2016-08-06T14:11:21Z</time>
      </trkpt>
      <trkpt lat="40.407350" lon="-5.623683">
        <ele>1969.0</ele>
        <time>2016-08-06T14:11:23Z</time>
      </trkpt>
      <trkpt lat="40.407283" lon="-5.623967">
        <ele>1960.0</ele>
        <time>2016-08-06T14:11:25Z</time>
      </trkpt>
      <trkpt lat="40.407267" lon="-5.624250">
        <ele>1955.0</ele>
        <time>2016-08-06T14:11:27Z</time>
      </trkpt>
      <trkpt lat="40.407250" lon="-5.624500">
        <ele>1950.0</ele>
        <time>2016-08-06T14:11:29Z</time>
      </trkpt>
      <trkpt lat="40.407250" lon="-5.624767">
        <ele>1944.0</ele>
        <time>2016-08-06T14:11:31Z</time>
      </trkpt>
      <trkpt lat="40.407233" lon="-5.625050">
        <ele>1939.0</ele>
        <time>2016-08-06T14:11:33Z</time>
      </trkpt>
      <trkpt lat="40.407233" lon="-5.625317">
        <ele>1936.0</ele>
        <time>2016-08-06T14:11:35Z</time>
      </trkpt>
      <trkpt lat="40.407217" lon="-5.625567">
        <ele>1933.0</ele>
        <time>2016-08-06T14:11:37Z</time>
      </trkpt>
      <trkpt lat="40.407200" lon="-5.625817">
        <ele>1929.0</ele>
        <time>2016-08-06T14:11:39Z</time>
      </trkpt>
      <trkpt lat="40.407183" lon="-5.626067">
        <ele>1925.0</ele>
        <time>2016-08-06T14:11:41Z</time>
      </trkpt>
      <trkpt lat="40.407167" lon="-5.626283">
        <ele>1922.0</ele>
        <time>2016-08-06T14:11:43Z</time>
      </trkpt>
      <trkpt lat="40.407133" lon="-5.626517">
        <ele>1916.0</ele>
        <time>2016-08-06T14:11:45Z</time>
      </trkpt>
      <trkpt lat="40.407100" lon="-5.626783">
        <ele>1910.0</ele>
        <time>2016-08-06T14:11:47Z</time>
      </trkpt>
      <trkpt lat="40.407083" lon="-5.627050">
        <ele>1906.0</ele>
        <time>2016-08-06T14:11:49Z</time>
      </trkpt>
      <trkpt lat="40.407067" lon="-5.627317">
        <ele>1902.0</ele>
        <time>2016-08-06T14:11:51Z</time>
      </trkpt>
      <trkpt lat="40.407067" lon="-5.627600">
        <ele>1899.0</ele>
        <time>2016-08-06T14:11:53Z</time>
      </trkpt>
      <trkpt lat="40.407050" lon="-5.627850">
        <ele>1897.0</ele>
        <time>2016-08-06T14:11:55Z</time>
      </trkpt>
      <trkpt lat="40.407017" lon="-5.628083">
        <ele>1895.0</ele>
        <time>2016-08-06T14:11:57Z</time>
      </trkpt>
      <trkpt lat="40.407000" lon="-5.628367">
        <ele>1891.0</ele>
        <time>2016-08-06T14:11:59Z</time>
      </trkpt>
      <trkpt lat="40.406967" lon="-5.628633">
        <ele>1890.0</ele>
        <time>2016-08-06T14:12:01Z</time>
      </trkpt>
      <trkpt lat="40.406950" lon="-5.628883">
        <ele>1890.0</ele>
        <time>2016-08-06T14:12:03Z</time>
      </trkpt>
      <trkpt lat="40.406933" lon="-5.629133">
        <ele>1888.0</ele>
        <time>2016-08-06T14:12:05Z</time>
      </trkpt>
      <trkpt lat="40.406900" lon="-5.629383">
        <ele>1887.0</ele>
        <time>2016-08-06T14:12:07Z</time>
      </trkpt>
      <trkpt lat="40.406883" lon="-5.629617">
        <ele>1886.0</ele>
        <time>2016-08-06T14:12:09Z</time>
      </trkpt>
      <trkpt lat="40.406867" lon="-5.629850">
        <ele>1885.0</ele>
        <time>2016-08-06T14:12:11Z</time>
      </trkpt>
      <trkpt lat="40.406850" lon="-5.630100">
        <ele>1884.0</ele>
        <time>2016-08-06T14:12:13Z</time>
      </trkpt>
      <trkpt lat="40.406833" lon="-5.630350">
        <ele>1885.0</ele>
        <time>2016-08-06T14:12:15Z</time>
      </trkpt>
      <trkpt lat="40.406800" lon="-5.630600">
        <ele>1885.0</ele>
        <time>2016-08-06T14:12:17Z</time>
      </trkpt>
      <trkpt lat="40.406800" lon="-5.630833">
        <ele>1885.0</ele>
        <time>2016-08-06T14:12:19Z</time>
      </trkpt>
      <trkpt lat="40.406800" lon="-5.631083">
        <ele>1883.0</ele>
        <time>2016-08-06T14:12:21Z</time>
      </trkpt>
      <trkpt lat="40.406783" lon="-5.631333">
        <ele>1881.0</ele>
        <time>2016-08-06T14:12:23Z</time>
      </trkpt>
      <trkpt lat="40.406783" lon="-5.631617">
        <ele>1880.0</ele>
        <time>2016-08-06T14:12:25Z</time>
      </trkpt>
      <trkpt lat="40.406783" lon="-5.631867">
        <ele>1881.0</ele>
        <time>2016-08-06T14:12:27Z</time>
      </trkpt>
      <trkpt lat="40.406783" lon="-5.632133">
        <ele>1880.0</ele>
        <time>2016-08-06T14:12:29Z</time>
      </trkpt>
      <trkpt lat="40.406783" lon="-5.632400">
        <ele>1881.0</ele>
        <time>2016-08-06T14:12:31Z</time>
      </trkpt>
      <trkpt lat="40.406767" lon="-5.632667">
        <ele>1883.0</ele>
        <time>2016-08-06T14:12:33Z</time>
      </trkpt>
      <trkpt lat="40.406767" lon="-5.632900">
        <ele>1884.0</ele>
        <time>2016-08-06T14:12:35Z</time>
      </trkpt>
      <trkpt lat="40.406800" lon="-5.633133">
        <ele>1883.0</ele>
        <time>2016-08-06T14:12:37Z</time>
      </trkpt>
      <trkpt lat="40.406867" lon="-5.633333">
        <ele>1882.0</ele>
        <time>2016-08-06T14:12:39Z</time>
      </trkpt>
      <trkpt lat="40.406917" lon="-5.633533">
        <ele>1880.0</ele>
        <time>2016-08-06T14:12:41Z</time>
      </trkpt>
      <trkpt lat="40.406983" lon="-5.633733">
        <ele>1876.0</ele>
        <time>2016-08-06T14:12:43Z</time>
      </trkpt>
      <trkpt lat="40.407033" lon="-5.633983">
        <ele>1873.0</ele>
        <time>2016-08-06T14:12:45Z</time>
      </trkpt>
      <trkpt lat="40.407033" lon="-5.634250">
        <ele>1872.0</ele>
        <time>2016-08-06T14:12:47Z</time>
      </trkpt>
      <trkpt lat="40.407017" lon="-5.634517">
        <ele>1875.0</ele>
        <time>2016-08-06T14:12:49Z</time>
      </trkpt>
      <trkpt lat="40.407000" lon="-5.634733">
        <ele>1879.0</ele>
        <time>2016-08-06T14:12:51Z</time>
      </trkpt>
      <trkpt lat="40.406950" lon="-5.634933">
        <ele>1880.0</ele>
        <time>2016-08-06T14:12:53Z</time>
      </trkpt>
      <trkpt lat="40.406917" lon="-5.635167">
        <ele>1881.0</ele>
        <time>2016-08-06T14:12:55Z</time>
      </trkpt>
      <trkpt lat="40.406950" lon="-5.635367">
        <ele>1883.0</ele>
        <time>2016-08-06T14:12:57Z</time>
      </trkpt>
      <trkpt lat="40.407050" lon="-5.635500">
        <ele>1884.0</ele>
        <time>2016-08-06T14:12:59Z</time>
      </trkpt>
      <trkpt lat="40.407167" lon="-5.635567">
        <ele>1884.0</ele>
        <time>2016-08-06T14:13:01Z</time>
      </trkpt>
      <trkpt lat="40.407300" lon="-5.635517">
        <ele>1880.0</ele>
        <time>2016-08-06T14:13:03Z</time>
      </trkpt>
      <trkpt lat="40.407400" lon="-5.635350">
        <ele>1877.0</ele>
        <time>2016-08-06T14:13:05Z</time>
      </trkpt>
      <trkpt lat="40.407400" lon="-5.635117">
        <ele>1874.0</ele>
        <time>2016-08-06T14:13:07Z</time>
      </trkpt>
      <trkpt lat="40.407300" lon="-5.634900">
        <ele>1872.0</ele>
        <time>2016-08-06T14:13:09Z</time>
      </trkpt>
      <trkpt lat="40.407117" lon="-5.634733">
        <ele>1872.0</ele>
        <time>2016-08-06T14:13:11Z</time>
      </trkpt>
      <trkpt lat="40.406933" lon="-5.634700">
        <ele>1873.0</ele>
        <time>2016-08-06T14:13:13Z</time>
      </trkpt>
      <trkpt lat="40.406767" lon="-5.634817">
        <ele>1872.0</ele>
        <time>2016-08-06T14:13:15Z</time>
      </trkpt>
      <trkpt lat="40.406650" lon="-5.635033">
        <ele>1872.0</ele>
        <time>2016-08-06T14:13:17Z</time>
      </trkpt>
      <trkpt lat="40.406567" lon="-5.635250">
        <ele>1874.0</ele>
        <time>2016-08-06T14:13:19Z</time>
      </trkpt>
      <trkpt lat="40.406500" lon="-5.635500">
        <ele>1875.0</ele>
        <time>2016-08-06T14:13:21Z</time>
      </trkpt>
      <trkpt lat="40.406433" lon="-5.635750">
        <ele>1878.0</ele>
        <time>2016-08-06T14:13:23Z</time>
      </trkpt>
      <trkpt lat="40.406400" lon="-5.635983">
        <ele>1881.0</ele>
        <time>2016-08-06T14:13:25Z</time>
      </trkpt>
      <trkpt lat="40.406383" lon="-5.636217">
        <ele>1883.0</ele>
        <time>2016-08-06T14:13:27Z</time>
      </trkpt>
      <trkpt lat="40.406433" lon="-5.636467">
        <ele>1884.0</ele>
        <time>2016-08-06T14:13:29Z</time>
      </trkpt>
      <trkpt lat="40.406550" lon="-5.636633">
        <ele>1885.0</ele>
        <time>2016-08-06T14:13:31Z</time>
      </trkpt>
      <trkpt lat="40.406683" lon="-5.636717">
        <ele>1886.0</ele>
        <time>2016-08-06T14:13:33Z</time>
      </trkpt>
      <trkpt lat="40.406817" lon="-5.636717">
        <ele>1884.0</ele>
        <time>2016-08-06T14:13:35Z</time>
      </trkpt>
      <trkpt lat="40.406933" lon="-5.636600">
        <ele>1880.0</ele>
        <time>2016-08-06T14:13:37Z</time>
      </trkpt>
      <trkpt lat="40.407017" lon="-5.636383">
        <ele>1875.0</ele>
        <time>2016-08-06T14:13:39Z</time>
      </trkpt>
      <trkpt lat="40.407000" lon="-5.636133">
        <ele>1873.0</ele>
        <time>2016-08-06T14:13:41Z</time>
      </trkpt>
      <trkpt lat="40.406867" lon="-5.635950">
        <ele>1870.0</ele>
        <time>2016-08-06T14:13:43Z</time>
      </trkpt>
      <trkpt lat="40.406667" lon="-5.635867">
        <ele>1868.0</ele>
        <time>2016-08-06T14:13:45Z</time>
      </trkpt>
      <trkpt lat="40.406467" lon="-5.635917">
        <ele>1867.0</ele>
        <time>2016-08-06T14:13:47Z</time>
      </trkpt>
      <trkpt lat="40.406317" lon="-5.636050">
        <ele>1869.0</ele>
        <time>2016-08-06T14:13:49Z</time>
      </trkpt>
      <trkpt lat="40.406217" lon="-5.636250">
        <ele>1868.0</ele>
        <time>2016-08-06T14:13:51Z</time>
      </trkpt>
      <trkpt lat="40.406167" lon="-5.636500">
        <ele>1869.0</ele>
        <time>2016-08-06T14:13:53Z</time>
      </trkpt>
      <trkpt lat="40.406133" lon="-5.636750">
        <ele>1870.0</ele>
        <time>2016-08-06T14:13:55Z</time>
      </trkpt>
      <trkpt lat="40.406117" lon="-5.637017">
        <ele>1871.0</ele>
        <time>2016-08-06T14:13:57Z</time>
      </trkpt>
      <trkpt lat="40.406133" lon="-5.637250">
        <ele>1872.0</ele>
        <time>2016-08-06T14:13:59Z</time>
      </trkpt>
      <trkpt lat="40.406117" lon="-5.637483">
        <ele>1871.0</ele>
        <time>2016-08-06T14:14:01Z</time>
      </trkpt>
      <trkpt lat="40.406100" lon="-5.637750">
        <ele>1870.0</ele>
        <time>2016-08-06T14:14:03Z</time>
      </trkpt>
      <trkpt lat="40.406083" lon="-5.637983">
        <ele>1870.0</ele>
        <time>2016-08-06T14:14:05Z</time>
      </trkpt>
      <trkpt lat="40.406100" lon="-5.638217">
        <ele>1872.0</ele>
        <time>2016-08-06T14:14:07Z</time>
      </trkpt>
      <trkpt lat="40.406133" lon="-5.638433">
        <ele>1870.0</ele>
        <time>2016-08-06T14:14:09Z</time>
      </trkpt>
      <trkpt lat="40.406150" lon="-5.638667">
        <ele>1869.0</ele>
        <time>2016-08-06T14:14:11Z</time>
      </trkpt>
      <trkpt lat="40.406167" lon="-5.638917">
        <ele>1870.0</ele>
        <time>2016-08-06T14:14:13Z</time>
      </trkpt>
      <trkpt lat="40.406167" lon="-5.639133">
        <ele>1871.0</ele>
        <time>2016-08-06T14:14:15Z</time>
      </trkpt>
      <trkpt lat="40.406150" lon="-5.639367">
        <ele>1870.0</ele>
        <time>2016-08-06T14:14:17Z</time>
      </trkpt>
      <trkpt lat="40.406150" lon="-5.639617">
        <ele>1869.0</ele>
        <time>2016-08-06T14:14:19Z</time>
      </trkpt>
      <trkpt lat="40.406150" lon="-5.639867">
        <ele>1866.0</ele>
        <time>2016-08-06T14:14:21Z</time>
      </trkpt>
      <trkpt lat="40.406167" lon="-5.640133">
        <ele>1864.0</ele>
        <time>2016-08-06T14:14:23Z</time>
      </trkpt>
      <trkpt lat="40.406183" lon="-5.640367">
        <ele>1861.0</ele>
        <time>2016-08-06T14:14:25Z</time>
      </trkpt>
      <trkpt lat="40.406233" lon="-5.640617">
        <ele>1855.0</ele>
        <time>2016-08-06T14:14:27Z</time>
      </trkpt>
      <trkpt lat="40.406267" lon="-5.640883">
        <ele>1851.0</ele>
        <time>2016-08-06T14:14:29Z</time>
      </trkpt>
      <trkpt lat="40.406283" lon="-5.641133">
        <ele>1847.0</ele>
        <time>2016-08-06T14:14:31Z</time>
      </trkpt>
      <trkpt lat="40.406300" lon="-5.641383">
        <ele>1843.0</ele>
        <time>2016-08-06T14:14:33Z</time>
      </trkpt>
      <trkpt lat="40.406317" lon="-5.641650">
        <ele>1839.0</ele>
        <time>2016-08-06T14:14:35Z</time>
      </trkpt>
      <trkpt lat="40.406333" lon="-5.641900">
        <ele>1835.0</ele>
        <time>2016-08-06T14:14:37Z</time>
      </trkpt>
      <trkpt lat="40.406350" lon="-5.642167">
        <ele>1830.0</ele>
        <time>2016-08-06T14:14:39Z</time>
      </trkpt>
      <trkpt lat="40.406383" lon="-5.642417">
        <ele>1826.0</ele>
        <time>2016-08-06T14:14:41Z</time>
      </trkpt>
      <trkpt lat="40.406417" lon="-5.642683">
        <ele>1823.0</ele>
        <time>2016-08-06T14:14:43Z</time>
      </trkpt>
      <trkpt lat="40.406417" lon="-5.642950">
        <ele>1819.0</ele>
        <time>2016-08-06T14:14:45Z</time>
      </trkpt>
      <trkpt lat="40.406400" lon="-5.643233">
        <ele>1817.0</ele>
        <time>2016-08-06T14:14:47Z</time>
      </trkpt>
      <trkpt lat="40.406400" lon="-5.643517">
        <ele>1815.0</ele>
        <time>2016-08-06T14:14:49Z</time>
      </trkpt>
      <trkpt lat="40.406400" lon="-5.643800">
        <ele>1814.0</ele>
        <time>2016-08-06T14:14:51Z</time>
      </trkpt>
      <trkpt lat="40.406433" lon="-5.644067">
        <ele>1812.0</ele>
        <time>2016-08-06T14:14:53Z</time>
      </trkpt>
      <trkpt lat="40.406450" lon="-5.644333">
        <ele>1811.0</ele>
        <time>2016-08-06T14:14:55Z</time>
      </trkpt>
      <trkpt lat="40.406467" lon="-5.644600">
        <ele>1809.0</ele>
        <time>2016-08-06T14:14:57Z</time>
      </trkpt>
      <trkpt lat="40.406467" lon="-5.644883">
        <ele>1808.0</ele>
        <time>2016-08-06T14:14:59Z</time>
      </trkpt>
      <trkpt lat="40.406467" lon="-5.645150">
        <ele>1808.0</ele>
        <time>2016-08-06T14:15:01Z</time>
      </trkpt>
      <trkpt lat="40.406467" lon="-5.645417">
        <ele>1807.0</ele>
        <time>2016-08-06T14:15:03Z</time>
      </trkpt>
      <trkpt lat="40.406450" lon="-5.645733">
        <ele>1805.0</ele>
        <time>2016-08-06T14:15:05Z</time>
      </trkpt>
      <trkpt lat="40.406417" lon="-5.646033">
        <ele>1805.0</ele>
        <time>2016-08-06T14:15:07Z</time>
      </trkpt>
      <trkpt lat="40.406400" lon="-5.646300">
        <ele>1805.0</ele>
        <time>2016-08-06T14:15:09Z</time>
      </trkpt>
      <trkpt lat="40.406400" lon="-5.646583">
        <ele>1803.0</ele>
        <time>2016-08-06T14:15:11Z</time>
      </trkpt>
      <trkpt lat="40.406400" lon="-5.646900">
        <ele>1802.0</ele>
        <time>2016-08-06T14:15:13Z</time>
      </trkpt>
      <trkpt lat="40.406417" lon="-5.647200">
        <ele>1803.0</ele>
        <time>2016-08-06T14:15:15Z</time>
      </trkpt>
      <trkpt lat="40.406483" lon="-5.647483">
        <ele>1804.0</ele>
        <time>2016-08-06T14:15:17Z</time>
      </trkpt>
      <trkpt lat="40.406567" lon="-5.647700">
        <ele>1806.0</ele>
        <time>2016-08-06T14:15:19Z</time>
      </trkpt>
      <trkpt lat="40.406683" lon="-5.647867">
        <ele>1806.0</ele>
        <time>2016-08-06T14:15:21Z</time>
      </trkpt>
      <trkpt lat="40.406850" lon="-5.648033">
        <ele>1807.0</ele>
        <time>2016-08-06T14:15:23Z</time>
      </trkpt>
      <trkpt lat="40.407017" lon="-5.648150">
        <ele>1810.0</ele>
        <time>2016-08-06T14:15:25Z</time>
      </trkpt>
      <trkpt lat="40.407150" lon="-5.648267">
        <ele>1812.0</ele>
        <time>2016-08-06T14:15:27Z</time>
      </trkpt>
      <trkpt lat="40.407283" lon="-5.648300">
        <ele>1811.0</ele>
        <time>2016-08-06T14:15:29Z</time>
      </trkpt>
      <trkpt lat="40.407450" lon="-5.648267">
        <ele>1811.0</ele>
        <time>2016-08-06T14:15:31Z</time>
      </trkpt>
      <trkpt lat="40.407567" lon="-5.648183">
        <ele>1813.0</ele>
        <time>2016-08-06T14:15:33Z</time>
      </trkpt>
      <trkpt lat="40.407633" lon="-5.648050">
        <ele>1813.0</ele>
        <time>2016-08-06T14:15:35Z</time>
      </trkpt>
      <trkpt lat="40.407633" lon="-5.647867">
        <ele>1813.0</ele>
        <time>2016-08-06T14:15:37Z</time>
      </trkpt>
      <trkpt lat="40.407550" lon="-5.647700">
        <ele>1813.0</ele>
        <time>2016-08-06T14:15:39Z</time>
      </trkpt>
      <trkpt lat="40.407433" lon="-5.647567">
        <ele>1814.0</ele>
        <time>2016-08-06T14:15:41Z</time>
      </trkpt>
      <trkpt lat="40.407250" lon="-5.647533">
        <ele>1814.0</ele>
        <time>2016-08-06T14:15:43Z</time>
      </trkpt>
      <trkpt lat="40.407050" lon="-5.647633">
        <ele>1816.0</ele>
        <time>2016-08-06T14:15:45Z</time>
      </trkpt>
      <trkpt lat="40.406917" lon="-5.647783">
        <ele>1819.0</ele>
        <time>2016-08-06T14:15:47Z</time>
      </trkpt>
      <trkpt lat="40.406800" lon="-5.648017">
        <ele>1820.0</ele>
        <time>2016-08-06T14:15:49Z</time>
      </trkpt>
      <trkpt lat="40.406700" lon="-5.648283">
        <ele>1824.0</ele>
        <time>2016-08-06T14:15:51Z</time>
      </trkpt>
      <trkpt lat="40.406617" lon="-5.648500">
        <ele>1826.0</ele>
        <time>2016-08-06T14:15:53Z</time>
      </trkpt>
      <trkpt lat="40.406583" lon="-5.648750">
        <ele>1825.0</ele>
        <time>2016-08-06T14:15:55Z</time>
      </trkpt>
      <trkpt lat="40.406600" lon="-5.649067">
        <ele>1824.0</ele>
        <time>2016-08-06T14:15:57Z</time>
      </trkpt>
      <trkpt lat="40.406633" lon="-5.649317">
        <ele>1826.0</ele>
        <time>2016-08-06T14:15:59Z</time>
      </trkpt>
      <trkpt lat="40.406667" lon="-5.649567">
        <ele>1826.0</ele>
        <time>2016-08-06T14:16:01Z</time>
      </trkpt>
      <trkpt lat="40.406700" lon="-5.649867">
        <ele>1824.0</ele>
        <time>2016-08-06T14:16:03Z</time>
      </trkpt>
      <trkpt lat="40.406783" lon="-5.650117">
        <ele>1827.0</ele>
        <time>2016-08-06T14:16:05Z</time>
      </trkpt>
      <trkpt lat="40.406883" lon="-5.650317">
        <ele>1827.0</ele>
        <time>2016-08-06T14:16:07Z</time>
      </trkpt>
      <trkpt lat="40.406967" lon="-5.650450">
        <ele>1824.0</ele>
        <time>2016-08-06T14:16:09Z</time>
      </trkpt>
      <trkpt lat="40.407100" lon="-5.650517">
        <ele>1819.0</ele>
        <time>2016-08-06T14:16:11Z</time>
      </trkpt>
      <trkpt lat="40.407217" lon="-5.650483">
        <ele>1815.0</ele>
        <time>2016-08-06T14:16:13Z</time>
      </trkpt>
      <trkpt lat="40.407300" lon="-5.650400">
        <ele>1812.0</ele>
        <time>2016-08-06T14:16:15Z</time>
      </trkpt>
      <trkpt lat="40.407350" lon="-5.650233">
        <ele>1809.0</ele>
        <time>2016-08-06T14:16:17Z</time>
      </trkpt>
      <trkpt lat="40.407333" lon="-5.650050">
        <ele>1808.0</ele>
        <time>2016-08-06T14:16:19Z</time>
      </trkpt>
      <trkpt lat="40.407200" lon="-5.649933">
        <ele>1809.0</ele>
        <time>2016-08-06T14:16:21Z</time>
      </trkpt>
      <trkpt lat="40.407033" lon="-5.649933">
        <ele>1809.0</ele>
        <time>2016-08-06T14:16:23Z</time>
      </trkpt>
      <trkpt lat="40.406850" lon="-5.650033">
        <ele>1808.0</ele>
        <time>2016-08-06T14:16:25Z</time>
      </trkpt>
      <trkpt lat="40.406717" lon="-5.650233">
        <ele>1806.0</ele>
        <time>2016-08-06T14:16:27Z</time>
      </trkpt>
      <trkpt lat="40.406633" lon="-5.650500">
        <ele>1803.0</ele>
        <time>2016-08-06T14:16:29Z</time>
      </trkpt>
      <trkpt lat="40.406567" lon="-5.650783">
        <ele>1800.0</ele>
        <time>2016-08-06T14:16:31Z</time>
      </trkpt>
      <trkpt lat="40.406500" lon="-5.651100">
        <ele>1798.0</ele>
        <time>2016-08-06T14:16:33Z</time>
      </trkpt>
      <trkpt lat="40.406433" lon="-5.651383">
        <ele>1797.0</ele>
        <time>2016-08-06T14:16:35Z</time>
      </trkpt>
      <trkpt lat="40.406400" lon="-5.651683">
        <ele>1794.0</ele>
        <time>2016-08-06T14:16:37Z</time>
      </trkpt>
      <trkpt lat="40.406383" lon="-5.652033">
        <ele>1793.0</ele>
        <time>2016-08-06T14:16:39Z</time>
      </trkpt>
      <trkpt lat="40.406367" lon="-5.652333">
        <ele>1795.0</ele>
        <time>2016-08-06T14:16:41Z</time>
      </trkpt>
      <trkpt lat="40.406333" lon="-5.652600">
        <ele>1795.0</ele>
        <time>2016-08-06T14:16:43Z</time>
      </trkpt>
      <trkpt lat="40.406300" lon="-5.652883">
        <ele>1793.0</ele>
        <time>2016-08-06T14:16:45Z</time>
      </trkpt>
      <trkpt lat="40.406283" lon="-5.653183">
        <ele>1789.0</ele>
        <time>2016-08-06T14:16:47Z</time>
      </trkpt>
      <trkpt lat="40.406250" lon="-5.653533">
        <ele>1787.0</ele>
        <time>2016-08-06T14:16:49Z</time>
      </trkpt>
      <trkpt lat="40.406217" lon="-5.653883">
        <ele>1789.0</ele>
        <time>2016-08-06T14:16:51Z</time>
      </trkpt>
      <trkpt lat="40.406183" lon="-5.654167">
        <ele>1788.0</ele>
        <time>2016-08-06T14:16:53Z</time>
      </trkpt>
      <trkpt lat="40.406150" lon="-5.654500">
        <ele>1782.0</ele>
        <time>2016-08-06T14:16:55Z</time>
      </trkpt>
      <trkpt lat="40.406133" lon="-5.654867">
        <ele>1779.0</ele>
        <time>2016-08-06T14:16:57Z</time>
      </trkpt>
      <trkpt lat="40.406100" lon="-5.655167">
        <ele>1777.0</ele>
        <time>2016-08-06T14:16:59Z</time>
      </trkpt>
      <trkpt lat="40.406083" lon="-5.655483">
        <ele>1770.0</ele>
        <time>2016-08-06T14:17:01Z</time>
      </trkpt>
      <trkpt lat="40.406067" lon="-5.655833">
        <ele>1766.0</ele>
        <time>2016-08-06T14:17:03Z</time>
      </trkpt>
      <trkpt lat="40.406033" lon="-5.656183">
        <ele>1767.0</ele>
        <time>2016-08-06T14:17:05Z</time>
      </trkpt>
      <trkpt lat="40.406017" lon="-5.656500">
        <ele>1770.0</ele>
        <time>2016-08-06T14:17:07Z</time>
      </trkpt>
      <trkpt lat="40.406033" lon="-5.656800">
        <ele>1770.0</ele>
        <time>2016-08-06T14:17:09Z</time>
      </trkpt>
      <trkpt lat="40.406050" lon="-5.657133">
        <ele>1770.0</ele>
        <time>2016-08-06T14:17:11Z</time>
      </trkpt>
      <trkpt lat="40.406050" lon="-5.657483">
        <ele>1772.0</ele>
        <time>2016-08-06T14:17:13Z</time>
      </trkpt>
      <trkpt lat="40.406100" lon="-5.657817">
        <ele>1776.0</ele>
        <time>2016-08-06T14:17:15Z</time>
      </trkpt>
      <trkpt lat="40.406183" lon="-5.658083">
        <ele>1781.0</ele>
        <time>2016-08-06T14:17:17Z</time>
      </trkpt>
      <trkpt lat="40.406250" lon="-5.658300">
        <ele>1786.0</ele>
        <time>2016-08-06T14:17:19Z</time>
      </trkpt>
      <trkpt lat="40.406350" lon="-5.658467">
        <ele>1788.0</ele>
        <time>2016-08-06T14:17:21Z</time>
      </trkpt>
      <trkpt lat="40.406450" lon="-5.658483">
        <ele>1791.0</ele>
        <time>2016-08-06T14:17:23Z</time>
      </trkpt>
      <trkpt lat="40.406467" lon="-5.658400">
        <ele>1795.0</ele>
        <time>2016-08-06T14:17:25Z</time>
      </trkpt>
      <trkpt lat="40.406400" lon="-5.658317">
        <ele>1799.0</ele>
        <time>2016-08-06T14:17:27Z</time>
      </trkpt>
      <trkpt lat="40.406217" lon="-5.658283">
        <ele>1802.0</ele>
        <time>2016-08-06T14:17:29Z</time>
      </trkpt>
      <trkpt lat="40.406017" lon="-5.658383">
        <ele>1803.0</ele>
        <time>2016-08-06T14:17:31Z</time>
      </trkpt>
      <trkpt lat="40.405817" lon="-5.658617">
        <ele>1803.0</ele>
        <time>2016-08-06T14:17:33Z</time>
      </trkpt>
      <trkpt lat="40.405633" lon="-5.658933">
        <ele>1804.0</ele>
        <time>2016-08-06T14:17:35Z</time>
      </trkpt>
      <trkpt lat="40.405500" lon="-5.659300">
        <ele>1810.0</ele>
        <time>2016-08-06T14:17:37Z</time>
      </trkpt>
      <trkpt lat="40.405400" lon="-5.659617">
        <ele>1818.0</ele>
        <time>2016-08-06T14:17:39Z</time>
      </trkpt>
      <trkpt lat="40.405317" lon="-5.659867">
        <ele>1823.0</ele>
        <time>2016-08-06T14:17:41Z</time>
      </trkpt>
      <trkpt lat="40.405267" lon="-5.660183">
        <ele>1821.0</ele>
        <time>2016-08-06T14:17:43Z</time>
      </trkpt>
      <trkpt lat="40.405300" lon="-5.660483">
        <ele>1824.0</ele>
        <time>2016-08-06T14:17:45Z</time>
      </trkpt>
      <trkpt lat="40.405333" lon="-5.660683">
        <ele>1827.0</ele>
        <time>2016-08-06T14:17:47Z</time>
      </trkpt>
      <trkpt lat="40.405400" lon="-5.660817">
        <ele>1825.0</ele>
        <time>2016-08-06T14:17:49Z</time>
      </trkpt>
      <trkpt lat="40.405533" lon="-5.660950">
        <ele>1819.0</ele>
        <time>2016-08-06T14:17:51Z</time>
      </trkpt>
      <trkpt lat="40.405683" lon="-5.661017">
        <ele>1820.0</ele>
        <time>2016-08-06T14:17:53Z</time>
      </trkpt>
      <trkpt lat="40.405767" lon="-5.661000">
        <ele>1822.0</ele>
        <time>2016-08-06T14:17:55Z</time>
      </trkpt>
      <trkpt lat="40.405817" lon="-5.660933">
        <ele>1821.0</ele>
        <time>2016-08-06T14:17:57Z</time>
      </trkpt>
      <trkpt lat="40.405800" lon="-5.660783">
        <ele>1818.0</ele>
        <time>2016-08-06T14:17:59Z</time>
      </trkpt>
      <trkpt lat="40.405750" lon="-5.660617">
        <ele>1820.0</ele>
        <time>2016-08-06T14:18:01Z</time>
      </trkpt>
      <trkpt lat="40.405683" lon="-5.660483">
        <ele>1824.0</ele>
        <time>2016-08-06T14:18:03Z</time>
      </trkpt>
      <trkpt lat="40.405583" lon="-5.660400">
        <ele>1827.0</ele>
        <time>2016-08-06T14:18:05Z</time>
      </trkpt>
      <trkpt lat="40.405433" lon="-5.660333">
        <ele>1829.0</ele>
        <time>2016-08-06T14:18:07Z</time>
      </trkpt>
      <trkpt lat="40.405283" lon="-5.660250">
        <ele>1833.0</ele>
        <time>2016-08-06T14:18:09Z</time>
      </trkpt>
      <trkpt lat="40.405133" lon="-5.660200">
        <ele>1838.0</ele>
        <time>2016-08-06T14:18:11Z</time>
      </trkpt>
      <trkpt lat="40.404933" lon="-5.660217">
        <ele>1840.0</ele>
        <time>2016-08-06T14:18:13Z</time>
      </trkpt>
      <trkpt lat="40.404683" lon="-5.660350">
        <ele>1841.0</ele>
        <time>2016-08-06T14:18:15Z</time>
      </trkpt>
      <trkpt lat="40.404483" lon="-5.660617">
        <ele>1845.0</ele>
        <time>2016-08-06T14:18:17Z</time>
      </trkpt>
      <trkpt lat="40.404367" lon="-5.660883">
        <ele>1852.0</ele>
        <time>2016-08-06T14:18:19Z</time>
      </trkpt>
      <trkpt lat="40.404300" lon="-5.661117">
        <ele>1856.0</ele>
        <time>2016-08-06T14:18:21Z</time>
      </trkpt>
      <trkpt lat="40.404300" lon="-5.661383">
        <ele>1857.0</ele>
        <time>2016-08-06T14:18:23Z</time>
      </trkpt>
      <trkpt lat="40.404367" lon="-5.661600">
        <ele>1859.0</ele>
        <time>2016-08-06T14:18:25Z</time>
      </trkpt>
      <trkpt lat="40.404450" lon="-5.661733">
        <ele>1860.0</ele>
        <time>2016-08-06T14:18:27Z</time>
      </trkpt>
      <trkpt lat="40.404583" lon="-5.661800">
        <ele>1862.0</ele>
        <time>2016-08-06T14:18:29Z</time>
      </trkpt>
      <trkpt lat="40.404667" lon="-5.661767">
        <ele>1865.0</ele>
        <time>2016-08-06T14:18:31Z</time>
      </trkpt>
      <trkpt lat="40.404700" lon="-5.661683">
        <ele>1867.0</ele>
        <time>2016-08-06T14:18:33Z</time>
      </trkpt>
      <trkpt lat="40.404667" lon="-5.661533">
        <ele>1869.0</ele>
        <time>2016-08-06T14:18:35Z</time>
      </trkpt>
      <trkpt lat="40.404550" lon="-5.661433">
        <ele>1873.0</ele>
        <time>2016-08-06T14:18:37Z</time>
      </trkpt>
      <trkpt lat="40.404350" lon="-5.661417">
        <ele>1875.0</ele>
        <time>2016-08-06T14:18:39Z</time>
      </trkpt>
      <trkpt lat="40.404117" lon="-5.661550">
        <ele>1877.0</ele>
        <time>2016-08-06T14:18:41Z</time>
      </trkpt>
      <trkpt lat="40.403933" lon="-5.661767">
        <ele>1880.0</ele>
        <time>2016-08-06T14:18:43Z</time>
      </trkpt>
      <trkpt lat="40.403833" lon="-5.662050">
        <ele>1882.0</ele>
        <time>2016-08-06T14:18:45Z</time>
      </trkpt>
      <trkpt lat="40.403783" lon="-5.662317">
        <ele>1885.0</ele>
        <time>2016-08-06T14:18:47Z</time>
      </trkpt>
      <trkpt lat="40.403783" lon="-5.662567">
        <ele>1886.0</ele>
        <time>2016-08-06T14:18:49Z</time>
      </trkpt>
      <trkpt lat="40.403833" lon="-5.662800">
        <ele>1885.0</ele>
        <time>2016-08-06T14:18:51Z</time>
      </trkpt>
      <trkpt lat="40.403967" lon="-5.662950">
        <ele>1885.0</ele>
        <time>2016-08-06T14:18:53Z</time>
      </trkpt>
      <trkpt lat="40.404083" lon="-5.663017">
        <ele>1888.0</ele>
        <time>2016-08-06T14:18:55Z</time>
      </trkpt>
      <trkpt lat="40.404167" lon="-5.662983">
        <ele>1889.0</ele>
        <time>2016-08-06T14:18:57Z</time>
      </trkpt>
      <trkpt lat="40.404200" lon="-5.662883">
        <ele>1890.0</ele>
        <time>2016-08-06T14:18:59Z</time>
      </trkpt>
      <trkpt lat="40.404183" lon="-5.662767">
        <ele>1892.0</ele>
        <time>2016-08-06T14:19:01Z</time>
      </trkpt>
      <trkpt lat="40.404117" lon="-5.662617">
        <ele>1892.0</ele>
        <time>2016-08-06T14:19:03Z</time>
      </trkpt>
      <trkpt lat="40.404000" lon="-5.662533">
        <ele>1894.0</ele>
        <time>2016-08-06T14:19:05Z</time>
      </trkpt>
      <trkpt lat="40.403800" lon="-5.662517">
        <ele>1896.0</ele>
        <time>2016-08-06T14:19:07Z</time>
      </trkpt>
      <trkpt lat="40.403583" lon="-5.662617">
        <ele>1896.0</ele>
        <time>2016-08-06T14:19:09Z</time>
      </trkpt>
      <trkpt lat="40.403383" lon="-5.662800">
        <ele>1897.0</ele>
        <time>2016-08-06T14:19:11Z</time>
      </trkpt>
      <trkpt lat="40.403250" lon="-5.663067">
        <ele>1898.0</ele>
        <time>2016-08-06T14:19:13Z</time>
      </trkpt>
      <trkpt lat="40.403183" lon="-5.663333">
        <ele>1901.0</ele>
        <time>2016-08-06T14:19:15Z</time>
      </trkpt>
      <trkpt lat="40.403133" lon="-5.663600">
        <ele>1901.0</ele>
        <time>2016-08-06T14:19:17Z</time>
      </trkpt>
      <trkpt lat="40.403100" lon="-5.663850">
        <ele>1901.0</ele>
        <time>2016-08-06T14:19:19Z</time>
      </trkpt>
      <trkpt lat="40.403133" lon="-5.664117">
        <ele>1900.0</ele>
        <time>2016-08-06T14:19:21Z</time>
      </trkpt>
      <trkpt lat="40.403217" lon="-5.664317">
        <ele>1899.0</ele>
        <time>2016-08-06T14:19:23Z</time>
      </trkpt>
      <trkpt lat="40.403333" lon="-5.664450">
        <ele>1898.0</ele>
        <time>2016-08-06T14:19:25Z</time>
      </trkpt>
      <trkpt lat="40.403467" lon="-5.664483">
        <ele>1898.0</ele>
        <time>2016-08-06T14:19:27Z</time>
      </trkpt>
      <trkpt lat="40.403550" lon="-5.664400">
        <ele>1899.0</ele>
        <time>2016-08-06T14:19:29Z</time>
      </trkpt>
      <trkpt lat="40.403517" lon="-5.664267">
        <ele>1900.0</ele>
        <time>2016-08-06T14:19:31Z</time>
      </trkpt>
      <trkpt lat="40.403433" lon="-5.664167">
        <ele>1899.0</ele>
        <time>2016-08-06T14:19:33Z</time>
      </trkpt>
      <trkpt lat="40.403317" lon="-5.664033">
        <ele>1898.0</ele>
        <time>2016-08-06T14:19:35Z</time>
      </trkpt>
      <trkpt lat="40.403133" lon="-5.663950">
        <ele>1898.0</ele>
        <time>2016-08-06T14:19:37Z</time>
      </trkpt>
      <trkpt lat="40.402900" lon="-5.664017">
        <ele>1898.0</ele>
        <time>2016-08-06T14:19:39Z</time>
      </trkpt>
      <trkpt lat="40.402667" lon="-5.664217">
        <ele>1899.0</ele>
        <time>2016-08-06T14:19:41Z</time>
      </trkpt>
      <trkpt lat="40.402500" lon="-5.664483">
        <ele>1901.0</ele>
        <time>2016-08-06T14:19:43Z</time>
      </trkpt>
      <trkpt lat="40.402383" lon="-5.664733">
        <ele>1901.0</ele>
        <time>2016-08-06T14:19:45Z</time>
      </trkpt>
      <trkpt lat="40.402283" lon="-5.665017">
        <ele>1900.0</ele>
        <time>2016-08-06T14:19:47Z</time>
      </trkpt>
      <trkpt lat="40.402233" lon="-5.665300">
        <ele>1899.0</ele>
        <time>2016-08-06T14:19:49Z</time>
      </trkpt>
      <trkpt lat="40.402217" lon="-5.665583">
        <ele>1897.0</ele>
        <time>2016-08-06T14:19:51Z</time>
      </trkpt>
      <trkpt lat="40.402233" lon="-5.665867">
        <ele>1896.0</ele>
        <time>2016-08-06T14:19:53Z</time>
      </trkpt>
      <trkpt lat="40.402267" lon="-5.666117">
        <ele>1895.0</ele>
        <time>2016-08-06T14:19:55Z</time>
      </trkpt>
      <trkpt lat="40.402317" lon="-5.666383">
        <ele>1892.0</ele>
        <time>2016-08-06T14:19:57Z</time>
      </trkpt>
      <trkpt lat="40.402350" lon="-5.666700">
        <ele>1892.0</ele>
        <time>2016-08-06T14:19:59Z</time>
      </trkpt>
      <trkpt lat="40.402333" lon="-5.666967">
        <ele>1893.0</ele>
        <time>2016-08-06T14:20:01Z</time>
      </trkpt>
      <trkpt lat="40.402333" lon="-5.667233">
        <ele>1890.0</ele>
        <time>2016-08-06T14:20:03Z</time>
      </trkpt>
      <trkpt lat="40.402333" lon="-5.667550">
        <ele>1888.0</ele>
        <time>2016-08-06T14:20:05Z</time>
      </trkpt>
      <trkpt lat="40.402317" lon="-5.667850">
        <ele>1887.0</ele>
        <time>2016-08-06T14:20:07Z</time>
      </trkpt>
      <trkpt lat="40.402300" lon="-5.668133">
        <ele>1882.0</ele>
        <time>2016-08-06T14:20:09Z</time>
      </trkpt>
      <trkpt lat="40.402267" lon="-5.668467">
        <ele>1878.0</ele>
        <time>2016-08-06T14:20:11Z</time>
      </trkpt>
      <trkpt lat="40.402267" lon="-5.668800">
        <ele>1875.0</ele>
        <time>2016-08-06T14:20:13Z</time>
      </trkpt>
      <trkpt lat="40.402300" lon="-5.669100">
        <ele>1872.0</ele>
        <time>2016-08-06T14:20:15Z</time>
      </trkpt>
      <trkpt lat="40.402283" lon="-5.669417">
        <ele>1869.0</ele>
        <time>2016-08-06T14:20:17Z</time>
      </trkpt>
      <trkpt lat="40.402250" lon="-5.669733">
        <ele>1866.0</ele>
        <time>2016-08-06T14:20:19Z</time>
      </trkpt>
      <trkpt lat="40.402200" lon="-5.670067">
        <ele>1861.0</ele>
        <time>2016-08-06T14:20:21Z</time>
      </trkpt>
      <trkpt lat="40.402167" lon="-5.670400">
        <ele>1857.0</ele>
        <time>2016-08-06T14:20:23Z</time>
      </trkpt>
      <trkpt lat="40.402150" lon="-5.670717">
        <ele>1855.0</ele>
        <time>2016-08-06T14:20:25Z</time>
      </trkpt>
      <trkpt lat="40.402117" lon="-5.671033">
        <ele>1852.0</ele>
        <time>2016-08-06T14:20:27Z</time>
      </trkpt>
      <trkpt lat="40.402083" lon="-5.671367">
        <ele>1849.0</ele>
        <time>2016-08-06T14:20:29Z</time>
      </trkpt>
      <trkpt lat="40.402033" lon="-5.671700">
        <ele>1847.0</ele>
        <time>2016-08-06T14:20:31Z</time>
      </trkpt>
      <trkpt lat="40.401983" lon="-5.672033">
        <ele>1845.0</ele>
        <time>2016-08-06T14:20:33Z</time>
      </trkpt>
      <trkpt lat="40.401917" lon="-5.672383">
        <ele>1843.0</ele>
        <time>2016-08-06T14:20:35Z</time>
      </trkpt>
      <trkpt lat="40.401850" lon="-5.672750">
        <ele>1841.0</ele>
        <time>2016-08-06T14:20:37Z</time>
      </trkpt>
      <trkpt lat="40.401800" lon="-5.673100">
        <ele>1841.0</ele>
        <time>2016-08-06T14:20:39Z</time>
      </trkpt>
      <trkpt lat="40.401717" lon="-5.673433">
        <ele>1839.0</ele>
        <time>2016-08-06T14:20:41Z</time>
      </trkpt>
      <trkpt lat="40.401633" lon="-5.673767">
        <ele>1836.0</ele>
        <time>2016-08-06T14:20:43Z</time>
      </trkpt>
      <trkpt lat="40.401567" lon="-5.674117">
        <ele>1835.0</ele>
        <time>2016-08-06T14:20:45Z</time>
      </trkpt>
      <trkpt lat="40.401483" lon="-5.674433">
        <ele>1835.0</ele>
        <time>2016-08-06T14:20:47Z</time>
      </trkpt>
      <trkpt lat="40.401417" lon="-5.674767">
        <ele>1835.0</ele>
        <time>2016-08-06T14:20:49Z</time>
      </trkpt>
      <trkpt lat="40.401350" lon="-5.675083">
        <ele>1834.0</ele>
        <time>2016-08-06T14:20:51Z</time>
      </trkpt>
      <trkpt lat="40.401283" lon="-5.675367">
        <ele>1831.0</ele>
        <time>2016-08-06T14:20:53Z</time>
      </trkpt>
      <trkpt lat="40.401267" lon="-5.675683">
        <ele>1823.0</ele>
        <time>2016-08-06T14:20:55Z</time>
      </trkpt>
      <trkpt lat="40.401233" lon="-5.676033">
        <ele>1818.0</ele>
        <time>2016-08-06T14:20:57Z</time>
      </trkpt>
      <trkpt lat="40.401200" lon="-5.676367">
        <ele>1815.0</ele>
        <time>2016-08-06T14:20:59Z</time>
      </trkpt>
      <trkpt lat="40.401167" lon="-5.676700">
        <ele>1813.0</ele>
        <time>2016-08-06T14:21:01Z</time>
      </trkpt>
      <trkpt lat="40.401133" lon="-5.677033">
        <ele>1810.0</ele>
        <time>2016-08-06T14:21:03Z</time>
      </trkpt>
      <trkpt lat="40.401100" lon="-5.677350">
        <ele>1807.0</ele>
        <time>2016-08-06T14:21:05Z</time>
      </trkpt>
      <trkpt lat="40.401050" lon="-5.677683">
        <ele>1806.0</ele>
        <time>2016-08-06T14:21:07Z</time>
      </trkpt>
      <trkpt lat="40.401017" lon="-5.677983">
        <ele>1804.0</ele>
        <time>2016-08-06T14:21:09Z</time>
      </trkpt>
      <trkpt lat="40.400983" lon="-5.678317">
        <ele>1803.0</ele>
        <time>2016-08-06T14:21:11Z</time>
      </trkpt>
      <trkpt lat="40.400933" lon="-5.678650">
        <ele>1804.0</ele>
        <time>2016-08-06T14:21:13Z</time>
      </trkpt>
      <trkpt lat="40.400917" lon="-5.678967">
        <ele>1806.0</ele>
        <time>2016-08-06T14:21:15Z</time>
      </trkpt>
      <trkpt lat="40.400933" lon="-5.679250">
        <ele>1807.0</ele>
        <time>2016-08-06T14:21:17Z</time>
      </trkpt>
      <trkpt lat="40.401017" lon="-5.679467">
        <ele>1806.0</ele>
        <time>2016-08-06T14:21:19Z</time>
      </trkpt>
      <trkpt lat="40.401100" lon="-5.679733">
        <ele>1803.0</ele>
        <time>2016-08-06T14:21:21Z</time>
      </trkpt>
      <trkpt lat="40.401133" lon="-5.680017">
        <ele>1800.0</ele>
        <time>2016-08-06T14:21:23Z</time>
      </trkpt>
      <trkpt lat="40.401150" lon="-5.680283">
        <ele>1795.0</ele>
        <time>2016-08-06T14:21:25Z</time>
      </trkpt>
      <trkpt lat="40.401117" lon="-5.680583">
        <ele>1790.0</ele>
        <time>2016-08-06T14:21:27Z</time>
      </trkpt>
      <trkpt lat="40.401100" lon="-5.680867">
        <ele>1786.0</ele>
        <time>2016-08-06T14:21:29Z</time>
      </trkpt>
      <trkpt lat="40.401067" lon="-5.681117">
        <ele>1781.0</ele>
        <time>2016-08-06T14:21:31Z</time>
      </trkpt>
      <trkpt lat="40.401000" lon="-5.681383">
        <ele>1775.0</ele>
        <time>2016-08-06T14:21:33Z</time>
      </trkpt>
      <trkpt lat="40.400950" lon="-5.681667">
        <ele>1768.0</ele>
        <time>2016-08-06T14:21:35Z</time>
      </trkpt>
      <trkpt lat="40.400867" lon="-5.682000">
        <ele>1762.0</ele>
        <time>2016-08-06T14:21:37Z</time>
      </trkpt>
      <trkpt lat="40.400767" lon="-5.682333">
        <ele>1760.0</ele>
        <time>2016-08-06T14:21:39Z</time>
      </trkpt>
      <trkpt lat="40.400667" lon="-5.682600">
        <ele>1757.0</ele>
        <time>2016-08-06T14:21:41Z</time>
      </trkpt>
      <trkpt lat="40.400567" lon="-5.682883">
        <ele>1750.0</ele>
        <time>2016-08-06T14:21:43Z</time>
      </trkpt>
      <trkpt lat="40.400433" lon="-5.683200">
        <ele>1743.0</ele>
        <time>2016-08-06T14:21:45Z</time>
      </trkpt>
      <trkpt lat="40.400300" lon="-5.683500">
        <ele>1739.0</ele>
        <time>2016-08-06T14:21:47Z</time>
      </trkpt>
      <trkpt lat="40.400167" lon="-5.683783">
        <ele>1734.0</ele>
        <time>2016-08-06T14:21:49Z</time>
      </trkpt>
      <trkpt lat="40.400050" lon="-5.684100">
        <ele>1727.0</ele>
        <time>2016-08-06T14:21:51Z</time>
      </trkpt>
      <trkpt lat="40.399967" lon="-5.684417">
        <ele>1722.0</ele>
        <time>2016-08-06T14:21:53Z</time>
      </trkpt>
      <trkpt lat="40.399850" lon="-5.684733">
        <ele>1717.0</ele>
        <time>2016-08-06T14:21:55Z</time>
      </trkpt>
      <trkpt lat="40.399750" lon="-5.685033">
        <ele>1714.0</ele>
        <time>2016-08-06T14:21:57Z</time>
      </trkpt>
      <trkpt lat="40.399650" lon="-5.685317">
        <ele>1710.0</ele>
        <time>2016-08-06T14:21:59Z</time>
      </trkpt>
      <trkpt lat="40.399550" lon="-5.685617">
        <ele>1706.0</ele>
        <time>2016-08-06T14:22:01Z</time>
      </trkpt>
      <trkpt lat="40.399450" lon="-5.685917">
        <ele>1703.0</ele>
        <time>2016-08-06T14:22:03Z</time>
      </trkpt>
      <trkpt lat="40.399350" lon="-5.686200">
        <ele>1700.0</ele>
        <time>2016-08-06T14:22:05Z</time>
      </trkpt>
      <trkpt lat="40.399283" lon="-5.686483">
        <ele>1694.0</ele>
        <time>2016-08-06T14:22:07Z</time>
      </trkpt>
      <trkpt lat="40.399217" lon="-5.686800">
        <ele>1688.0</ele>
        <time>2016-08-06T14:22:09Z</time>
      </trkpt>
      <trkpt lat="40.399133" lon="-5.687117">
        <ele>1685.0</ele>
        <time>2016-08-06T14:22:11Z</time>
      </trkpt>
      <trkpt lat="40.399067" lon="-5.687400">
        <ele>1682.0</ele>
        <time>2016-08-06T14:22:13Z</time>
      </trkpt>
      <trkpt lat="40.399000" lon="-5.687717">
        <ele>1678.0</ele>
        <time>2016-08-06T14:22:15Z</time>
      </trkpt>
      <trkpt lat="40.398967" lon="-5.688033">
        <ele>1676.0</ele>
        <time>2016-08-06T14:22:17Z</time>
      </trkpt>
      <trkpt lat="40.398917" lon="-5.688317">
        <ele>1675.0</ele>
        <time>2016-08-06T14:22:19Z</time>
      </trkpt>
      <trkpt lat="40.398867" lon="-5.688617">
        <ele>1671.0</ele>
        <time>2016-08-06T14:22:21Z</time>
      </trkpt>
      <trkpt lat="40.398833" lon="-5.688950">
        <ele>1669.0</ele>
        <time>2016-08-06T14:22:23Z</time>
      </trkpt>
      <trkpt lat="40.398800" lon="-5.689250">
        <ele>1668.0</ele>
        <time>2016-08-06T14:22:25Z</time>
      </trkpt>
      <trkpt lat="40.398750" lon="-5.689533">
        <ele>1666.0</ele>
        <time>2016-08-06T14:22:27Z</time>
      </trkpt>
      <trkpt lat="40.398683" lon="-5.689867">
        <ele>1663.0</ele>
        <time>2016-08-06T14:22:29Z</time>
      </trkpt>
      <trkpt lat="40.398650" lon="-5.690183">
        <ele>1661.0</ele>
        <time>2016-08-06T14:22:31Z</time>
      </trkpt>
      <trkpt lat="40.398600" lon="-5.690500">
        <ele>1660.0</ele>
        <time>2016-08-06T14:22:33Z</time>
      </trkpt>
      <trkpt lat="40.398550" lon="-5.690783">
        <ele>1659.0</ele>
        <time>2016-08-06T14:22:35Z</time>
      </trkpt>
      <trkpt lat="40.398533" lon="-5.691050">
        <ele>1656.0</ele>
        <time>2016-08-06T14:22:37Z</time>
      </trkpt>
      <trkpt lat="40.398533" lon="-5.691367">
        <ele>1653.0</ele>
        <time>2016-08-06T14:22:39Z</time>
      </trkpt>
      <trkpt lat="40.398533" lon="-5.691700">
        <ele>1653.0</ele>
        <time>2016-08-06T14:22:41Z</time>
      </trkpt>
      <trkpt lat="40.398550" lon="-5.692017">
        <ele>1653.0</ele>
        <time>2016-08-06T14:22:43Z</time>
      </trkpt>
      <trkpt lat="40.398550" lon="-5.692350">
        <ele>1654.0</ele>
        <time>2016-08-06T14:22:45Z</time>
      </trkpt>
      <trkpt lat="40.398567" lon="-5.692667">
        <ele>1654.0</ele>
        <time>2016-08-06T14:22:47Z</time>
      </trkpt>
      <trkpt lat="40.398583" lon="-5.692983">
        <ele>1655.0</ele>
        <time>2016-08-06T14:22:49Z</time>
      </trkpt>
      <trkpt lat="40.398617" lon="-5.693267">
        <ele>1658.0</ele>
        <time>2016-08-06T14:22:51Z</time>
      </trkpt>
      <trkpt lat="40.398650" lon="-5.693450">
        <ele>1660.0</ele>
        <time>2016-08-06T14:22:53Z</time>
      </trkpt>
      <trkpt lat="40.398700" lon="-5.693567">
        <ele>1657.0</ele>
        <time>2016-08-06T14:22:55Z</time>
      </trkpt>
      <trkpt lat="40.398800" lon="-5.693550">
        <ele>1652.0</ele>
        <time>2016-08-06T14:22:57Z</time>
      </trkpt>
      <trkpt lat="40.398833" lon="-5.693383">
        <ele>1651.0</ele>
        <time>2016-08-06T14:22:59Z</time>
      </trkpt>
      <trkpt lat="40.398750" lon="-5.693250">
        <ele>1652.0</ele>
        <time>2016-08-06T14:23:01Z</time>
      </trkpt>
      <trkpt lat="40.398600" lon="-5.693167">
        <ele>1649.0</ele>
        <time>2016-08-06T14:23:03Z</time>
      </trkpt>
      <trkpt lat="40.398367" lon="-5.693117">
        <ele>1646.0</ele>
        <time>2016-08-06T14:23:05Z</time>
      </trkpt>
      <trkpt lat="40.398133" lon="-5.693217">
        <ele>1650.0</ele>
        <time>2016-08-06T14:23:07Z</time>
      </trkpt>
      <trkpt lat="40.397967" lon="-5.693383">
        <ele>1650.0</ele>
        <time>2016-08-06T14:23:09Z</time>
      </trkpt>
      <trkpt lat="40.397767" lon="-5.693617">
        <ele>1647.0</ele>
        <time>2016-08-06T14:23:11Z</time>
      </trkpt>
      <trkpt lat="40.397583" lon="-5.693867">
        <ele>1646.0</ele>
        <time>2016-08-06T14:23:13Z</time>
      </trkpt>
      <trkpt lat="40.397433" lon="-5.694117">
        <ele>1645.0</ele>
        <time>2016-08-06T14:23:15Z</time>
      </trkpt>
      <trkpt lat="40.397267" lon="-5.694433">
        <ele>1642.0</ele>
        <time>2016-08-06T14:23:17Z</time>
      </trkpt>
      <trkpt lat="40.397133" lon="-5.694750">
        <ele>1644.0</ele>
        <time>2016-08-06T14:23:19Z</time>
      </trkpt>
      <trkpt lat="40.397050" lon="-5.695033">
        <ele>1644.0</ele>
        <time>2016-08-06T14:23:21Z</time>
      </trkpt>
      <trkpt lat="40.396967" lon="-5.695350">
        <ele>1640.0</ele>
        <time>2016-08-06T14:23:23Z</time>
      </trkpt>
      <trkpt lat="40.396917" lon="-5.695700">
        <ele>1638.0</ele>
        <time>2016-08-06T14:23:25Z</time>
      </trkpt>
      <trkpt lat="40.396850" lon="-5.696017">
        <ele>1637.0</ele>
        <time>2016-08-06T14:23:27Z</time>
      </trkpt>
      <trkpt lat="40.396783" lon="-5.696367">
        <ele>1634.0</ele>
        <time>2016-08-06T14:23:29Z</time>
      </trkpt>
      <trkpt lat="40.396733" lon="-5.696717">
        <ele>1631.0</ele>
        <time>2016-08-06T14:23:31Z</time>
      </trkpt>
      <trkpt lat="40.396667" lon="-5.697067">
        <ele>1631.0</ele>
        <time>2016-08-06T14:23:33Z</time>
      </trkpt>
      <trkpt lat="40.396617" lon="-5.697383">
        <ele>1630.0</ele>
        <time>2016-08-06T14:23:35Z</time>
      </trkpt>
      <trkpt lat="40.396567" lon="-5.697700">
        <ele>1628.0</ele>
        <time>2016-08-06T14:23:37Z</time>
      </trkpt>
      <trkpt lat="40.396533" lon="-5.698033">
        <ele>1626.0</ele>
        <time>2016-08-06T14:23:39Z</time>
      </trkpt>
      <trkpt lat="40.396517" lon="-5.698367">
        <ele>1625.0</ele>
        <time>2016-08-06T14:23:41Z</time>
      </trkpt>
      <trkpt lat="40.396500" lon="-5.698683">
        <ele>1627.0</ele>
        <time>2016-08-06T14:23:43Z</time>
      </trkpt>
      <trkpt lat="40.396483" lon="-5.698967">
        <ele>1627.0</ele>
        <time>2016-08-06T14:23:45Z</time>
      </trkpt>
      <trkpt lat="40.396533" lon="-5.699233">
        <ele>1626.0</ele>
        <time>2016-08-06T14:23:47Z</time>
      </trkpt>
      <trkpt lat="40.396567" lon="-5.699533">
        <ele>1626.0</ele>
        <time>2016-08-06T14:23:49Z</time>
      </trkpt>
      <trkpt lat="40.396600" lon="-5.699767">
        <ele>1629.0</ele>
        <time>2016-08-06T14:23:51Z</time>
      </trkpt>
      <trkpt lat="40.396650" lon="-5.699950">
        <ele>1628.0</ele>
        <time>2016-08-06T14:23:53Z</time>
      </trkpt>
      <trkpt lat="40.396750" lon="-5.700133">
        <ele>1626.0</ele>
        <time>2016-08-06T14:23:55Z</time>
      </trkpt>
      <trkpt lat="40.396833" lon="-5.700233">
        <ele>1626.0</ele>
        <time>2016-08-06T14:23:57Z</time>
      </trkpt>
      <trkpt lat="40.396917" lon="-5.700317">
        <ele>1624.0</ele>
        <time>2016-08-06T14:23:59Z</time>
      </trkpt>
      <trkpt lat="40.397033" lon="-5.700367">
        <ele>1619.0</ele>
        <time>2016-08-06T14:24:01Z</time>
      </trkpt>
      <trkpt lat="40.397133" lon="-5.700333">
        <ele>1616.0</ele>
        <time>2016-08-06T14:24:03Z</time>
      </trkpt>
      <trkpt lat="40.397233" lon="-5.700350">
        <ele>1614.0</ele>
        <time>2016-08-06T14:24:05Z</time>
      </trkpt>
      <trkpt lat="40.397367" lon="-5.700433">
        <ele>1613.0</ele>
        <time>2016-08-06T14:24:07Z</time>
      </trkpt>
      <trkpt lat="40.397467" lon="-5.700550">
        <ele>1614.0</ele>
        <time>2016-08-06T14:24:09Z</time>
      </trkpt>
      <trkpt lat="40.397567" lon="-5.700683">
        <ele>1612.0</ele>
        <time>2016-08-06T14:24:11Z</time>
      </trkpt>
      <trkpt lat="40.397683" lon="-5.700867">
        <ele>1610.0</ele>
        <time>2016-08-06T14:24:13Z</time>
      </trkpt>
      <trkpt lat="40.397783" lon="-5.701050">
        <ele>1611.0</ele>
        <time>2016-08-06T14:24:15Z</time>
      </trkpt>
      <trkpt lat="40.397883" lon="-5.701250">
        <ele>1613.0</ele>
        <time>2016-08-06T14:24:17Z</time>
      </trkpt>
      <trkpt lat="40.397967" lon="-5.701400">
        <ele>1616.0</ele>
        <time>2016-08-06T14:24:19Z</time>
      </trkpt>
      <trkpt lat="40.398050" lon="-5.701517">
        <ele>1618.0</ele>
        <time>2016-08-06T14:24:21Z</time>
      </trkpt>
      <trkpt lat="40.398150" lon="-5.701583">
        <ele>1618.0</ele>
        <time>2016-08-06T14:24:23Z</time>
      </trkpt>
      <trkpt lat="40.398217" lon="-5.701567">
        <ele>1618.0</ele>
        <time>2016-08-06T14:24:25Z</time>
      </trkpt>
      <trkpt lat="40.398233" lon="-5.701483">
        <ele>1618.0</ele>
        <time>2016-08-06T14:24:27Z</time>
      </trkpt>
      <trkpt lat="40.398183" lon="-5.701350">
        <ele>1619.0</ele>
        <time>2016-08-06T14:24:29Z</time>
      </trkpt>
      <trkpt lat="40.398050" lon="-5.701233">
        <ele>1621.0</ele>
        <time>2016-08-06T14:24:31Z</time>
      </trkpt>
      <trkpt lat="40.397833" lon="-5.701217">
        <ele>1620.0</ele>
        <time>2016-08-06T14:24:33Z</time>
      </trkpt>
      <trkpt lat="40.397617" lon="-5.701300">
        <ele>1620.0</ele>
        <time>2016-08-06T14:24:35Z</time>
      </trkpt>
      <trkpt lat="40.397417" lon="-5.701500">
        <ele>1619.0</ele>
        <time>2016-08-06T14:24:37Z</time>
      </trkpt>
      <trkpt lat="40.397250" lon="-5.701767">
        <ele>1618.0</ele>
        <time>2016-08-06T14:24:39Z</time>
      </trkpt>
      <trkpt lat="40.397117" lon="-5.702050">
        <ele>1619.0</ele>
        <time>2016-08-06T14:24:41Z</time>
      </trkpt>
      <trkpt lat="40.396967" lon="-5.702350">
        <ele>1621.0</ele>
        <time>2016-08-06T14:24:43Z</time>
      </trkpt>
      <trkpt lat="40.396850" lon="-5.702600">
        <ele>1623.0</ele>
        <time>2016-08-06T14:24:45Z</time>
      </trkpt>
      <trkpt lat="40.396800" lon="-5.702883">
        <ele>1620.0</ele>
        <time>2016-08-06T14:24:47Z</time>
      </trkpt>
      <trkpt lat="40.396767" lon="-5.703217">
        <ele>1620.0</ele>
        <time>2016-08-06T14:24:49Z</time>
      </trkpt>
      <trkpt lat="40.396750" lon="-5.703500">
        <ele>1622.0</ele>
        <time>2016-08-06T14:24:51Z</time>
      </trkpt>
      <trkpt lat="40.396767" lon="-5.703767">
        <ele>1620.0</ele>
        <time>2016-08-06T14:24:53Z</time>
      </trkpt>
      <trkpt lat="40.396783" lon="-5.704050">
        <ele>1616.0</ele>
        <time>2016-08-06T14:24:55Z</time>
      </trkpt>
      <trkpt lat="40.396800" lon="-5.704350">
        <ele>1615.0</ele>
        <time>2016-08-06T14:24:57Z</time>
      </trkpt>
      <trkpt lat="40.396833" lon="-5.704617">
        <ele>1615.0</ele>
        <time>2016-08-06T14:24:59Z</time>
      </trkpt>
      <trkpt lat="40.396883" lon="-5.704883">
        <ele>1614.0</ele>
        <time>2016-08-06T14:25:01Z</time>
      </trkpt>
      <trkpt lat="40.396933" lon="-5.705183">
        <ele>1613.0</ele>
        <time>2016-08-06T14:25:03Z</time>
      </trkpt>
      <trkpt lat="40.397033" lon="-5.705433">
        <ele>1615.0</ele>
        <time>2016-08-06T14:25:05Z</time>
      </trkpt>
      <trkpt lat="40.397100" lon="-5.705650">
        <ele>1615.0</ele>
        <time>2016-08-06T14:25:07Z</time>
      </trkpt>
      <trkpt lat="40.397150" lon="-5.705883">
        <ele>1613.0</ele>
        <time>2016-08-06T14:25:09Z</time>
      </trkpt>
      <trkpt lat="40.397233" lon="-5.706133">
        <ele>1613.0</ele>
        <time>2016-08-06T14:25:11Z</time>
      </trkpt>
      <trkpt lat="40.397300" lon="-5.706367">
        <ele>1615.0</ele>
        <time>2016-08-06T14:25:13Z</time>
      </trkpt>
      <trkpt lat="40.397367" lon="-5.706533">
        <ele>1613.0</ele>
        <time>2016-08-06T14:25:15Z</time>
      </trkpt>
      <trkpt lat="40.397483" lon="-5.706700">
        <ele>1613.0</ele>
        <time>2016-08-06T14:25:17Z</time>
      </trkpt>
      <trkpt lat="40.397583" lon="-5.706850">
        <ele>1614.0</ele>
        <time>2016-08-06T14:25:19Z</time>
      </trkpt>
      <trkpt lat="40.397683" lon="-5.706967">
        <ele>1613.0</ele>
        <time>2016-08-06T14:25:21Z</time>
      </trkpt>
      <trkpt lat="40.397800" lon="-5.707117">
        <ele>1612.0</ele>
        <time>2016-08-06T14:25:23Z</time>
      </trkpt>
      <trkpt lat="40.397933" lon="-5.707250">
        <ele>1611.0</ele>
        <time>2016-08-06T14:25:25Z</time>
      </trkpt>
      <trkpt lat="40.398067" lon="-5.707367">
        <ele>1610.0</ele>
        <time>2016-08-06T14:25:27Z</time>
      </trkpt>
      <trkpt lat="40.398183" lon="-5.707533">
        <ele>1607.0</ele>
        <time>2016-08-06T14:25:29Z</time>
      </trkpt>
      <trkpt lat="40.398267" lon="-5.707750">
        <ele>1605.0</ele>
        <time>2016-08-06T14:25:31Z</time>
      </trkpt>
      <trkpt lat="40.398350" lon="-5.707967">
        <ele>1604.0</ele>
        <time>2016-08-06T14:25:33Z</time>
      </trkpt>
      <trkpt lat="40.398417" lon="-5.708200">
        <ele>1607.0</ele>
        <time>2016-08-06T14:25:35Z</time>
      </trkpt>
      <trkpt lat="40.398467" lon="-5.708417">
        <ele>1607.0</ele>
        <time>2016-08-06T14:25:37Z</time>
      </trkpt>
      <trkpt lat="40.398533" lon="-5.708650">
        <ele>1606.0</ele>
        <time>2016-08-06T14:25:39Z</time>
      </trkpt>
      <trkpt lat="40.398583" lon="-5.708900">
        <ele>1606.0</ele>
        <time>2016-08-06T14:25:41Z</time>
      </trkpt>
      <trkpt lat="40.398617" lon="-5.709167">
        <ele>1605.0</ele>
        <time>2016-08-06T14:25:43Z</time>
      </trkpt>
      <trkpt lat="40.398683" lon="-5.709450">
        <ele>1603.0</ele>
        <time>2016-08-06T14:25:45Z</time>
      </trkpt>
      <trkpt lat="40.398767" lon="-5.709717">
        <ele>1602.0</ele>
        <time>2016-08-06T14:25:47Z</time>
      </trkpt>
      <trkpt lat="40.398783" lon="-5.710033">
        <ele>1600.0</ele>
        <time>2016-08-06T14:25:49Z</time>
      </trkpt>
      <trkpt lat="40.398767" lon="-5.710367">
        <ele>1596.0</ele>
        <time>2016-08-06T14:25:51Z</time>
      </trkpt>
      <trkpt lat="40.398800" lon="-5.710667">
        <ele>1593.0</ele>
        <time>2016-08-06T14:25:53Z</time>
      </trkpt>
      <trkpt lat="40.398850" lon="-5.710933">
        <ele>1589.0</ele>
        <time>2016-08-06T14:25:55Z</time>
      </trkpt>
      <trkpt lat="40.398933" lon="-5.711217">
        <ele>1583.0</ele>
        <time>2016-08-06T14:25:57Z</time>
      </trkpt>
      <trkpt lat="40.399033" lon="-5.711433">
        <ele>1583.0</ele>
        <time>2016-08-06T14:25:59Z</time>
      </trkpt>
      <trkpt lat="40.399117" lon="-5.711633">
        <ele>1579.0</ele>
        <time>2016-08-06T14:26:01Z</time>
      </trkpt>
      <trkpt lat="40.399200" lon="-5.711867">
        <ele>1572.0</ele>
        <time>2016-08-06T14:26:03Z</time>
      </trkpt>
      <trkpt lat="40.399317" lon="-5.712117">
        <ele>1568.0</ele>
        <time>2016-08-06T14:26:05Z</time>
      </trkpt>
      <trkpt lat="40.399367" lon="-5.712350">
        <ele>1564.0</ele>
        <time>2016-08-06T14:26:07Z</time>
      </trkpt>
      <trkpt lat="40.399383" lon="-5.712600">
        <ele>1556.0</ele>
        <time>2016-08-06T14:26:09Z</time>
      </trkpt>
      <trkpt lat="40.399400" lon="-5.712900">
        <ele>1550.0</ele>
        <time>2016-08-06T14:26:11Z</time>
      </trkpt>
      <trkpt lat="40.399417" lon="-5.713200">
        <ele>1546.0</ele>
        <time>2016-08-06T14:26:13Z</time>
      </trkpt>
      <trkpt lat="40.399417" lon="-5.713483">
        <ele>1540.0</ele>
        <time>2016-08-06T14:26:15Z</time>
      </trkpt>
      <trkpt lat="40.399417" lon="-5.713800">
        <ele>1534.0</ele>
        <time>2016-08-06T14:26:17Z</time>
      </trkpt>
      <trkpt lat="40.399400" lon="-5.714167">
        <ele>1530.0</ele>
        <time>2016-08-06T14:26:19Z</time>
      </trkpt>
      <trkpt lat="40.399317" lon="-5.714483">
        <ele>1530.0</ele>
        <time>2016-08-06T14:26:21Z</time>
      </trkpt>
      <trkpt lat="40.399200" lon="-5.714767">
        <ele>1527.0</ele>
        <time>2016-08-06T14:26:23Z</time>
      </trkpt>
      <trkpt lat="40.399100" lon="-5.715100">
        <ele>1525.0</ele>
        <time>2016-08-06T14:26:25Z</time>
      </trkpt>
      <trkpt lat="40.399017" lon="-5.715400">
        <ele>1528.0</ele>
        <time>2016-08-06T14:26:27Z</time>
      </trkpt>
      <trkpt lat="40.398967" lon="-5.715583">
        <ele>1525.0</ele>
        <time>2016-08-06T14:26:29Z</time>
      </trkpt>
      <trkpt lat="40.398950" lon="-5.715833">
        <ele>1516.0</ele>
        <time>2016-08-06T14:26:31Z</time>
      </trkpt>
      <trkpt lat="40.398900" lon="-5.716183">
        <ele>1509.0</ele>
        <time>2016-08-06T14:26:33Z</time>
      </trkpt>
      <trkpt lat="40.398817" lon="-5.716517">
        <ele>1514.0</ele>
        <time>2016-08-06T14:26:35Z</time>
      </trkpt>
      <trkpt lat="40.398750" lon="-5.716767">
        <ele>1519.0</ele>
        <time>2016-08-06T14:26:37Z</time>
      </trkpt>
      <trkpt lat="40.398700" lon="-5.717017">
        <ele>1519.0</ele>
        <time>2016-08-06T14:26:39Z</time>
      </trkpt>
      <trkpt lat="40.398717" lon="-5.717250">
        <ele>1519.0</ele>
        <time>2016-08-06T14:26:41Z</time>
      </trkpt>
      <trkpt lat="40.398817" lon="-5.717467">
        <ele>1517.0</ele>
        <time>2016-08-06T14:26:43Z</time>
      </trkpt>
      <trkpt lat="40.398900" lon="-5.717583">
        <ele>1521.0</ele>
        <time>2016-08-06T14:26:45Z</time>
      </trkpt>
      <trkpt lat="40.398950" lon="-5.717550">
        <ele>1521.0</ele>
        <time>2016-08-06T14:26:47Z</time>
      </trkpt>
      <trkpt lat="40.398967" lon="-5.717450">
        <ele>1519.0</ele>
        <time>2016-08-06T14:26:49Z</time>
      </trkpt>
      <trkpt lat="40.398917" lon="-5.717317">
        <ele>1513.0</ele>
        <time>2016-08-06T14:26:51Z</time>
      </trkpt>
      <trkpt lat="40.398733" lon="-5.717183">
        <ele>1506.0</ele>
        <time>2016-08-06T14:26:53Z</time>
      </trkpt>
      <trkpt lat="40.398483" lon="-5.717183">
        <ele>1503.0</ele>
        <time>2016-08-06T14:26:55Z</time>
      </trkpt>
      <trkpt lat="40.398300" lon="-5.717333">
        <ele>1504.0</ele>
        <time>2016-08-06T14:26:57Z</time>
      </trkpt>
      <trkpt lat="40.398117" lon="-5.717500">
        <ele>1501.0</ele>
        <time>2016-08-06T14:26:59Z</time>
      </trkpt>
      <trkpt lat="40.397900" lon="-5.717767">
        <ele>1497.0</ele>
        <time>2016-08-06T14:27:01Z</time>
      </trkpt>
      <trkpt lat="40.397700" lon="-5.718000">
        <ele>1499.0</ele>
        <time>2016-08-06T14:27:03Z</time>
      </trkpt>
      <trkpt lat="40.397500" lon="-5.718200">
        <ele>1500.0</ele>
        <time>2016-08-06T14:27:05Z</time>
      </trkpt>
      <trkpt lat="40.397317" lon="-5.718450">
        <ele>1499.0</ele>
        <time>2016-08-06T14:27:07Z</time>
      </trkpt>
      <trkpt lat="40.397117" lon="-5.718700">
        <ele>1503.0</ele>
        <time>2016-08-06T14:27:09Z</time>
      </trkpt>
      <trkpt lat="40.397000" lon="-5.718933">
        <ele>1508.0</ele>
        <time>2016-08-06T14:27:11Z</time>
      </trkpt>
      <trkpt lat="40.396983" lon="-5.719133">
        <ele>1510.0</ele>
        <time>2016-08-06T14:27:13Z</time>
      </trkpt>
      <trkpt lat="40.397017" lon="-5.719317">
        <ele>1512.0</ele>
        <time>2016-08-06T14:27:15Z</time>
      </trkpt>
      <trkpt lat="40.397100" lon="-5.719400">
        <ele>1513.0</ele>
        <time>2016-08-06T14:27:17Z</time>
      </trkpt>
      <trkpt lat="40.397183" lon="-5.719383">
        <ele>1515.0</ele>
        <time>2016-08-06T14:27:19Z</time>
      </trkpt>
      <trkpt lat="40.397217" lon="-5.719317">
        <ele>1516.0</ele>
        <time>2016-08-06T14:27:21Z</time>
      </trkpt>
      <trkpt lat="40.397183" lon="-5.719200">
        <ele>1516.0</ele>
        <time>2016-08-06T14:27:23Z</time>
      </trkpt>
      <trkpt lat="40.397050" lon="-5.719017">
        <ele>1513.0</ele>
        <time>2016-08-06T14:27:25Z</time>
      </trkpt>
      <trkpt lat="40.396833" lon="-5.718950">
        <ele>1514.0</ele>
        <time>2016-08-06T14:27:27Z</time>
      </trkpt>
      <trkpt lat="40.396600" lon="-5.718967">
        <ele>1516.0</ele>
        <time>2016-08-06T14:27:29Z</time>
      </trkpt>
      <trkpt lat="40.396350" lon="-5.719033">
        <ele>1516.0</ele>
        <time>2016-08-06T14:27:31Z</time>
      </trkpt>
      <trkpt lat="40.396117" lon="-5.719167">
        <ele>1516.0</ele>
        <time>2016-08-06T14:27:33Z</time>
      </trkpt>
      <trkpt lat="40.395933" lon="-5.719367">
        <ele>1517.0</ele>
        <time>2016-08-06T14:27:35Z</time>
      </trkpt>
      <trkpt lat="40.395783" lon="-5.719600">
        <ele>1519.0</ele>
        <time>2016-08-06T14:27:37Z</time>
      </trkpt>
      <trkpt lat="40.395650" lon="-5.719833">
        <ele>1521.0</ele>
        <time>2016-08-06T14:27:39Z</time>
      </trkpt>
      <trkpt lat="40.395600" lon="-5.720083">
        <ele>1521.0</ele>
        <time>2016-08-06T14:27:41Z</time>
      </trkpt>
      <trkpt lat="40.395600" lon="-5.720317">
        <ele>1520.0</ele>
        <time>2016-08-06T14:27:43Z</time>
      </trkpt>
      <trkpt lat="40.395617" lon="-5.720550">
        <ele>1518.0</ele>
        <time>2016-08-06T14:27:45Z</time>
      </trkpt>
      <trkpt lat="40.395667" lon="-5.720817">
        <ele>1516.0</ele>
        <time>2016-08-06T14:27:47Z</time>
      </trkpt>
      <trkpt lat="40.395717" lon="-5.721083">
        <ele>1517.0</ele>
        <time>2016-08-06T14:27:49Z</time>
      </trkpt>
      <trkpt lat="40.395783" lon="-5.721300">
        <ele>1520.0</ele>
        <time>2016-08-06T14:27:51Z</time>
      </trkpt>
      <trkpt lat="40.395883" lon="-5.721500">
        <ele>1526.0</ele>
        <time>2016-08-06T14:27:53Z</time>
      </trkpt>
      <trkpt lat="40.395950" lon="-5.721700">
        <ele>1532.0</ele>
        <time>2016-08-06T14:27:55Z</time>
      </trkpt>
      <trkpt lat="40.396017" lon="-5.721817">
        <ele>1535.0</ele>
        <time>2016-08-06T14:27:57Z</time>
      </trkpt>
      <trkpt lat="40.396117" lon="-5.721783">
        <ele>1535.0</ele>
        <time>2016-08-06T14:27:59Z</time>
      </trkpt>
      <trkpt lat="40.396150" lon="-5.721667">
        <ele>1537.0</ele>
        <time>2016-08-06T14:28:01Z</time>
      </trkpt>
      <trkpt lat="40.396117" lon="-5.721517">
        <ele>1538.0</ele>
        <time>2016-08-06T14:28:03Z</time>
      </trkpt>
      <trkpt lat="40.395983" lon="-5.721383">
        <ele>1541.0</ele>
        <time>2016-08-06T14:28:05Z</time>
      </trkpt>
      <trkpt lat="40.395750" lon="-5.721333">
        <ele>1542.0</ele>
        <time>2016-08-06T14:28:07Z</time>
      </trkpt>
      <trkpt lat="40.395500" lon="-5.721350">
        <ele>1543.0</ele>
        <time>2016-08-06T14:28:09Z</time>
      </trkpt>
      <trkpt lat="40.395283" lon="-5.721450">
        <ele>1545.0</ele>
        <time>2016-08-06T14:28:11Z</time>
      </trkpt>
      <trkpt lat="40.395100" lon="-5.721633">
        <ele>1546.0</ele>
        <time>2016-08-06T14:28:13Z</time>
      </trkpt>
      <trkpt lat="40.394900" lon="-5.721883">
        <ele>1547.0</ele>
        <time>2016-08-06T14:28:15Z</time>
      </trkpt>
      <trkpt lat="40.394783" lon="-5.722167">
        <ele>1551.0</ele>
        <time>2016-08-06T14:28:17Z</time>
      </trkpt>
      <trkpt lat="40.394683" lon="-5.722483">
        <ele>1554.0</ele>
        <time>2016-08-06T14:28:19Z</time>
      </trkpt>
      <trkpt lat="40.394617" lon="-5.722833">
        <ele>1560.0</ele>
        <time>2016-08-06T14:28:21Z</time>
      </trkpt>
      <trkpt lat="40.394583" lon="-5.723150">
        <ele>1568.0</ele>
        <time>2016-08-06T14:28:23Z</time>
      </trkpt>
      <trkpt lat="40.394633" lon="-5.723383">
        <ele>1572.0</ele>
        <time>2016-08-06T14:28:25Z</time>
      </trkpt>
      <trkpt lat="40.394733" lon="-5.723550">
        <ele>1573.0</ele>
        <time>2016-08-06T14:28:27Z</time>
      </trkpt>
      <trkpt lat="40.394833" lon="-5.723650">
        <ele>1572.0</ele>
        <time>2016-08-06T14:28:29Z</time>
      </trkpt>
      <trkpt lat="40.394933" lon="-5.723650">
        <ele>1573.0</ele>
        <time>2016-08-06T14:28:31Z</time>
      </trkpt>
      <trkpt lat="40.395017" lon="-5.723583">
        <ele>1577.0</ele>
        <time>2016-08-06T14:28:33Z</time>
      </trkpt>
      <trkpt lat="40.395017" lon="-5.723483">
        <ele>1579.0</ele>
        <time>2016-08-06T14:28:35Z</time>
      </trkpt>
      <trkpt lat="40.394950" lon="-5.723350">
        <ele>1579.0</ele>
        <time>2016-08-06T14:28:37Z</time>
      </trkpt>
      <trkpt lat="40.394783" lon="-5.723217">
        <ele>1581.0</ele>
        <time>2016-08-06T14:28:39Z</time>
      </trkpt>
      <trkpt lat="40.394583" lon="-5.723183">
        <ele>1585.0</ele>
        <time>2016-08-06T14:28:41Z</time>
      </trkpt>
      <trkpt lat="40.394383" lon="-5.723233">
        <ele>1588.0</ele>
        <time>2016-08-06T14:28:43Z</time>
      </trkpt>
      <trkpt lat="40.394183" lon="-5.723400">
        <ele>1590.0</ele>
        <time>2016-08-06T14:28:45Z</time>
      </trkpt>
      <trkpt lat="40.394017" lon="-5.723633">
        <ele>1596.0</ele>
        <time>2016-08-06T14:28:47Z</time>
      </trkpt>
      <trkpt lat="40.393883" lon="-5.723867">
        <ele>1600.0</ele>
        <time>2016-08-06T14:28:49Z</time>
      </trkpt>
      <trkpt lat="40.393800" lon="-5.724133">
        <ele>1602.0</ele>
        <time>2016-08-06T14:28:51Z</time>
      </trkpt>
      <trkpt lat="40.393750" lon="-5.724433">
        <ele>1604.0</ele>
        <time>2016-08-06T14:28:53Z</time>
      </trkpt>
      <trkpt lat="40.393750" lon="-5.724683">
        <ele>1606.0</ele>
        <time>2016-08-06T14:28:55Z</time>
      </trkpt>
      <trkpt lat="40.393800" lon="-5.724867">
        <ele>1604.0</ele>
        <time>2016-08-06T14:28:57Z</time>
      </trkpt>
      <trkpt lat="40.393917" lon="-5.724967">
        <ele>1606.0</ele>
        <time>2016-08-06T14:28:59Z</time>
      </trkpt>
      <trkpt lat="40.394000" lon="-5.725000">
        <ele>1610.0</ele>
        <time>2016-08-06T14:29:01Z</time>
      </trkpt>
      <trkpt lat="40.394067" lon="-5.724967">
        <ele>1612.0</ele>
        <time>2016-08-06T14:29:03Z</time>
      </trkpt>
      <trkpt lat="40.394083" lon="-5.724833">
        <ele>1613.0</ele>
        <time>2016-08-06T14:29:05Z</time>
      </trkpt>
      <trkpt lat="40.393983" lon="-5.724683">
        <ele>1616.0</ele>
        <time>2016-08-06T14:29:07Z</time>
      </trkpt>
      <trkpt lat="40.393833" lon="-5.724633">
        <ele>1617.0</ele>
        <time>2016-08-06T14:29:09Z</time>
      </trkpt>
      <trkpt lat="40.393617" lon="-5.724683">
        <ele>1619.0</ele>
        <time>2016-08-06T14:29:11Z</time>
      </trkpt>
      <trkpt lat="40.393383" lon="-5.724817">
        <ele>1625.0</ele>
        <time>2016-08-06T14:29:13Z</time>
      </trkpt>
      <trkpt lat="40.393217" lon="-5.725017">
        <ele>1630.0</ele>
        <time>2016-08-06T14:29:15Z</time>
      </trkpt>
      <trkpt lat="40.393100" lon="-5.725283">
        <ele>1631.0</ele>
        <time>2016-08-06T14:29:17Z</time>
      </trkpt>
      <trkpt lat="40.393017" lon="-5.725600">
        <ele>1632.0</ele>
        <time>2016-08-06T14:29:19Z</time>
      </trkpt>
      <trkpt lat="40.393000" lon="-5.725900">
        <ele>1636.0</ele>
        <time>2016-08-06T14:29:21Z</time>
      </trkpt>
      <trkpt lat="40.393033" lon="-5.726133">
        <ele>1639.0</ele>
        <time>2016-08-06T14:29:23Z</time>
      </trkpt>
      <trkpt lat="40.393117" lon="-5.726350">
        <ele>1641.0</ele>
        <time>2016-08-06T14:29:25Z</time>
      </trkpt>
      <trkpt lat="40.393200" lon="-5.726483">
        <ele>1645.0</ele>
        <time>2016-08-06T14:29:27Z</time>
      </trkpt>
      <trkpt lat="40.393283" lon="-5.726517">
        <ele>1649.0</ele>
        <time>2016-08-06T14:29:29Z</time>
      </trkpt>
      <trkpt lat="40.393333" lon="-5.726467">
        <ele>1652.0</ele>
        <time>2016-08-06T14:29:31Z</time>
      </trkpt>
      <trkpt lat="40.393317" lon="-5.726383">
        <ele>1656.0</ele>
        <time>2016-08-06T14:29:33Z</time>
      </trkpt>
      <trkpt lat="40.393200" lon="-5.726300">
        <ele>1659.0</ele>
        <time>2016-08-06T14:29:35Z</time>
      </trkpt>
      <trkpt lat="40.393017" lon="-5.726283">
        <ele>1662.0</ele>
        <time>2016-08-06T14:29:37Z</time>
      </trkpt>
      <trkpt lat="40.392767" lon="-5.726400">
        <ele>1664.0</ele>
        <time>2016-08-06T14:29:39Z</time>
      </trkpt>
      <trkpt lat="40.392567" lon="-5.726617">
        <ele>1668.0</ele>
        <time>2016-08-06T14:29:41Z</time>
      </trkpt>
      <trkpt lat="40.392433" lon="-5.726883">
        <ele>1672.0</ele>
        <time>2016-08-06T14:29:43Z</time>
      </trkpt>
      <trkpt lat="40.392350" lon="-5.727167">
        <ele>1671.0</ele>
        <time>2016-08-06T14:29:45Z</time>
      </trkpt>
      <trkpt lat="40.392300" lon="-5.727500">
        <ele>1672.0</ele>
        <time>2016-08-06T14:29:47Z</time>
      </trkpt>
      <trkpt lat="40.392333" lon="-5.727783">
        <ele>1673.0</ele>
        <time>2016-08-06T14:29:49Z</time>
      </trkpt>
      <trkpt lat="40.392417" lon="-5.727967">
        <ele>1674.0</ele>
        <time>2016-08-06T14:29:51Z</time>
      </trkpt>
      <trkpt lat="40.392500" lon="-5.728067">
        <ele>1677.0</ele>
        <time>2016-08-06T14:29:53Z</time>
      </trkpt>
      <trkpt lat="40.392567" lon="-5.728083">
        <ele>1680.0</ele>
        <time>2016-08-06T14:29:55Z</time>
      </trkpt>
      <trkpt lat="40.392600" lon="-5.728017">
        <ele>1682.0</ele>
        <time>2016-08-06T14:29:57Z</time>
      </trkpt>
      <trkpt lat="40.392533" lon="-5.727900">
        <ele>1684.0</ele>
        <time>2016-08-06T14:29:59Z</time>
      </trkpt>
      <trkpt lat="40.392367" lon="-5.727833">
        <ele>1687.0</ele>
        <time>2016-08-06T14:30:01Z</time>
      </trkpt>
      <trkpt lat="40.392150" lon="-5.727883">
        <ele>1691.0</ele>
        <time>2016-08-06T14:30:03Z</time>
      </trkpt>
      <trkpt lat="40.391933" lon="-5.728050">
        <ele>1695.0</ele>
        <time>2016-08-06T14:30:05Z</time>
      </trkpt>
      <trkpt lat="40.391800" lon="-5.728283">
        <ele>1695.0</ele>
        <time>2016-08-06T14:30:07Z</time>
      </trkpt>
      <trkpt lat="40.391683" lon="-5.728600">
        <ele>1693.0</ele>
        <time>2016-08-06T14:30:09Z</time>
      </trkpt>
      <trkpt lat="40.391600" lon="-5.728933">
        <ele>1695.0</ele>
        <time>2016-08-06T14:30:11Z</time>
      </trkpt>
      <trkpt lat="40.391550" lon="-5.729233">
        <ele>1698.0</ele>
        <time>2016-08-06T14:30:13Z</time>
      </trkpt>
      <trkpt lat="40.391533" lon="-5.729500">
        <ele>1701.0</ele>
        <time>2016-08-06T14:30:15Z</time>
      </trkpt>
      <trkpt lat="40.391567" lon="-5.729750">
        <ele>1700.0</ele>
        <time>2016-08-06T14:30:17Z</time>
      </trkpt>
      <trkpt lat="40.391650" lon="-5.729900">
        <ele>1700.0</ele>
        <time>2016-08-06T14:30:19Z</time>
      </trkpt>
      <trkpt lat="40.391733" lon="-5.729933">
        <ele>1702.0</ele>
        <time>2016-08-06T14:30:21Z</time>
      </trkpt>
      <trkpt lat="40.391817" lon="-5.729917">
        <ele>1705.0</ele>
        <time>2016-08-06T14:30:23Z</time>
      </trkpt>
      <trkpt lat="40.391817" lon="-5.729867">
        <ele>1708.0</ele>
        <time>2016-08-06T14:30:25Z</time>
      </trkpt>
      <trkpt lat="40.391767" lon="-5.729767">
        <ele>1707.0</ele>
        <time>2016-08-06T14:30:27Z</time>
      </trkpt>
      <trkpt lat="40.391633" lon="-5.729683">
        <ele>1708.0</ele>
        <time>2016-08-06T14:30:29Z</time>
      </trkpt>
      <trkpt lat="40.391417" lon="-5.729717">
        <ele>1711.0</ele>
        <time>2016-08-06T14:30:31Z</time>
      </trkpt>
      <trkpt lat="40.391183" lon="-5.729900">
        <ele>1713.0</ele>
        <time>2016-08-06T14:30:33Z</time>
      </trkpt>
      <trkpt lat="40.391017" lon="-5.730183">
        <ele>1713.0</ele>
        <time>2016-08-06T14:30:35Z</time>
      </trkpt>
      <trkpt lat="40.390867" lon="-5.730533">
        <ele>1714.0</ele>
        <time>2016-08-06T14:30:37Z</time>
      </trkpt>
      <trkpt lat="40.390800" lon="-5.730867">
        <ele>1718.0</ele>
        <time>2016-08-06T14:30:39Z</time>
      </trkpt>
      <trkpt lat="40.390767" lon="-5.731183">
        <ele>1720.0</ele>
        <time>2016-08-06T14:30:41Z</time>
      </trkpt>
      <trkpt lat="40.390800" lon="-5.731467">
        <ele>1721.0</ele>
        <time>2016-08-06T14:30:43Z</time>
      </trkpt>
      <trkpt lat="40.390883" lon="-5.731667">
        <ele>1719.0</ele>
        <time>2016-08-06T14:30:45Z</time>
      </trkpt>
      <trkpt lat="40.390983" lon="-5.731767">
        <ele>1718.0</ele>
        <time>2016-08-06T14:30:47Z</time>
      </trkpt>
      <trkpt lat="40.391067" lon="-5.731767">
        <ele>1719.0</ele>
        <time>2016-08-06T14:30:49Z</time>
      </trkpt>
      <trkpt lat="40.391067" lon="-5.731717">
        <ele>1720.0</ele>
        <time>2016-08-06T14:30:51Z</time>
      </trkpt>
      <trkpt lat="40.391000" lon="-5.731600">
        <ele>1720.0</ele>
        <time>2016-08-06T14:30:53Z</time>
      </trkpt>
      <trkpt lat="40.390867" lon="-5.731483">
        <ele>1719.0</ele>
        <time>2016-08-06T14:30:55Z</time>
      </trkpt>
      <trkpt lat="40.390633" lon="-5.731500">
        <ele>1718.0</ele>
        <time>2016-08-06T14:30:57Z</time>
      </trkpt>
      <trkpt lat="40.390383" lon="-5.731650">
        <ele>1720.0</ele>
        <time>2016-08-06T14:30:59Z</time>
      </trkpt>
      <trkpt lat="40.390217" lon="-5.731917">
        <ele>1722.0</ele>
        <time>2016-08-06T14:31:01Z</time>
      </trkpt>
      <trkpt lat="40.390117" lon="-5.732283">
        <ele>1722.0</ele>
        <time>2016-08-06T14:31:03Z</time>
      </trkpt>
      <trkpt lat="40.390067" lon="-5.732633">
        <ele>1724.0</ele>
        <time>2016-08-06T14:31:05Z</time>
      </trkpt>
      <trkpt lat="40.390117" lon="-5.732900">
        <ele>1724.0</ele>
        <time>2016-08-06T14:31:07Z</time>
      </trkpt>
      <trkpt lat="40.390167" lon="-5.733117">
        <ele>1722.0</ele>
        <time>2016-08-06T14:31:09Z</time>
      </trkpt>
      <trkpt lat="40.390283" lon="-5.733250">
        <ele>1719.0</ele>
        <time>2016-08-06T14:31:11Z</time>
      </trkpt>
      <trkpt lat="40.390400" lon="-5.733283">
        <ele>1719.0</ele>
        <time>2016-08-06T14:31:13Z</time>
      </trkpt>
      <trkpt lat="40.390467" lon="-5.733300">
        <ele>1720.0</ele>
        <time>2016-08-06T14:31:15Z</time>
      </trkpt>
      <trkpt lat="40.390517" lon="-5.733283">
        <ele>1718.0</ele>
        <time>2016-08-06T14:31:17Z</time>
      </trkpt>
      <trkpt lat="40.390517" lon="-5.733183">
        <ele>1716.0</ele>
        <time>2016-08-06T14:31:19Z</time>
      </trkpt>
      <trkpt lat="40.390417" lon="-5.733050">
        <ele>1714.0</ele>
        <time>2016-08-06T14:31:21Z</time>
      </trkpt>
      <trkpt lat="40.390217" lon="-5.733033">
        <ele>1715.0</ele>
        <time>2016-08-06T14:31:23Z</time>
      </trkpt>
      <trkpt lat="40.390017" lon="-5.733117">
        <ele>1714.0</ele>
        <time>2016-08-06T14:31:25Z</time>
      </trkpt>
      <trkpt lat="40.389817" lon="-5.733300">
        <ele>1714.0</ele>
        <time>2016-08-06T14:31:27Z</time>
      </trkpt>
      <trkpt lat="40.389650" lon="-5.733550">
        <ele>1715.0</ele>
        <time>2016-08-06T14:31:29Z</time>
      </trkpt>
      <trkpt lat="40.389533" lon="-5.733833">
        <ele>1716.0</ele>
        <time>2016-08-06T14:31:31Z</time>
      </trkpt>
      <trkpt lat="40.389467" lon="-5.734133">
        <ele>1714.0</ele>
        <time>2016-08-06T14:31:33Z</time>
      </trkpt>
      <trkpt lat="40.389417" lon="-5.734450">
        <ele>1713.0</ele>
        <time>2016-08-06T14:31:35Z</time>
      </trkpt>
      <trkpt lat="40.389417" lon="-5.734767">
        <ele>1712.0</ele>
        <time>2016-08-06T14:31:37Z</time>
      </trkpt>
      <trkpt lat="40.389383" lon="-5.735100">
        <ele>1711.0</ele>
        <time>2016-08-06T14:31:39Z</time>
      </trkpt>
      <trkpt lat="40.389350" lon="-5.735417">
        <ele>1711.0</ele>
        <time>2016-08-06T14:31:41Z</time>
      </trkpt>
      <trkpt lat="40.389300" lon="-5.735750">
        <ele>1710.0</ele>
        <time>2016-08-06T14:31:43Z</time>
      </trkpt>
      <trkpt lat="40.389267" lon="-5.736100">
        <ele>1709.0</ele>
        <time>2016-08-06T14:31:45Z</time>
      </trkpt>
      <trkpt lat="40.389217" lon="-5.736467">
        <ele>1708.0</ele>
        <time>2016-08-06T14:31:47Z</time>
      </trkpt>
      <trkpt lat="40.389200" lon="-5.736817">
        <ele>1707.0</ele>
        <time>2016-08-06T14:31:49Z</time>
      </trkpt>
      <trkpt lat="40.389167" lon="-5.737200">
        <ele>1707.0</ele>
        <time>2016-08-06T14:31:51Z</time>
      </trkpt>
      <trkpt lat="40.389150" lon="-5.737533">
        <ele>1706.0</ele>
        <time>2016-08-06T14:31:53Z</time>
      </trkpt>
      <trkpt lat="40.389183" lon="-5.737850">
        <ele>1703.0</ele>
        <time>2016-08-06T14:31:55Z</time>
      </trkpt>
      <trkpt lat="40.389233" lon="-5.738167">
        <ele>1701.0</ele>
        <time>2016-08-06T14:31:57Z</time>
      </trkpt>
      <trkpt lat="40.389317" lon="-5.738483">
        <ele>1701.0</ele>
        <time>2016-08-06T14:31:59Z</time>
      </trkpt>
      <trkpt lat="40.389333" lon="-5.738767">
        <ele>1704.0</ele>
        <time>2016-08-06T14:32:01Z</time>
      </trkpt>
      <trkpt lat="40.389350" lon="-5.739050">
        <ele>1703.0</ele>
        <time>2016-08-06T14:32:03Z</time>
      </trkpt>
      <trkpt lat="40.389367" lon="-5.739367">
        <ele>1702.0</ele>
        <time>2016-08-06T14:32:05Z</time>
      </trkpt>
      <trkpt lat="40.389400" lon="-5.739700">
        <ele>1703.0</ele>
        <time>2016-08-06T14:32:07Z</time>
      </trkpt>
      <trkpt lat="40.389400" lon="-5.740000">
        <ele>1703.0</ele>
        <time>2016-08-06T14:32:09Z</time>
      </trkpt>
      <trkpt lat="40.389417" lon="-5.740300">
        <ele>1699.0</ele>
        <time>2016-08-06T14:32:11Z</time>
      </trkpt>
      <trkpt lat="40.389433" lon="-5.740617">
        <ele>1691.0</ele>
        <time>2016-08-06T14:32:13Z</time>
      </trkpt>
      <trkpt lat="40.389467" lon="-5.740967">
        <ele>1684.0</ele>
        <time>2016-08-06T14:32:15Z</time>
      </trkpt>
      <trkpt lat="40.389517" lon="-5.741283">
        <ele>1682.0</ele>
        <time>2016-08-06T14:32:17Z</time>
      </trkpt>
      <trkpt lat="40.389567" lon="-5.741583">
        <ele>1678.0</ele>
        <time>2016-08-06T14:32:19Z</time>
      </trkpt>
      <trkpt lat="40.389617" lon="-5.741917">
        <ele>1672.0</ele>
        <time>2016-08-06T14:32:21Z</time>
      </trkpt>
      <trkpt lat="40.389683" lon="-5.742217">
        <ele>1668.0</ele>
        <time>2016-08-06T14:32:23Z</time>
      </trkpt>
      <trkpt lat="40.389733" lon="-5.742533">
        <ele>1664.0</ele>
        <time>2016-08-06T14:32:25Z</time>
      </trkpt>
      <trkpt lat="40.389783" lon="-5.742867">
        <ele>1658.0</ele>
        <time>2016-08-06T14:32:27Z</time>
      </trkpt>
      <trkpt lat="40.389817" lon="-5.743200">
        <ele>1653.0</ele>
        <time>2016-08-06T14:32:29Z</time>
      </trkpt>
      <trkpt lat="40.389867" lon="-5.743517">
        <ele>1648.0</ele>
        <time>2016-08-06T14:32:31Z</time>
      </trkpt>
      <trkpt lat="40.389917" lon="-5.743867">
        <ele>1642.0</ele>
        <time>2016-08-06T14:32:33Z</time>
      </trkpt>
      <trkpt lat="40.389950" lon="-5.744200">
        <ele>1637.0</ele>
        <time>2016-08-06T14:32:35Z</time>
      </trkpt>
      <trkpt lat="40.390000" lon="-5.744533">
        <ele>1632.0</ele>
        <time>2016-08-06T14:32:37Z</time>
      </trkpt>
      <trkpt lat="40.390050" lon="-5.744883">
        <ele>1628.0</ele>
        <time>2016-08-06T14:32:39Z</time>
      </trkpt>
      <trkpt lat="40.390067" lon="-5.745233">
        <ele>1624.0</ele>
        <time>2016-08-06T14:32:41Z</time>
      </trkpt>
      <trkpt lat="40.390083" lon="-5.745567">
        <ele>1622.0</ele>
        <time>2016-08-06T14:32:43Z</time>
      </trkpt>
      <trkpt lat="40.390117" lon="-5.745900">
        <ele>1618.0</ele>
        <time>2016-08-06T14:32:45Z</time>
      </trkpt>
      <trkpt lat="40.390150" lon="-5.746233">
        <ele>1616.0</ele>
        <time>2016-08-06T14:32:47Z</time>
      </trkpt>
      <trkpt lat="40.390183" lon="-5.746550">
        <ele>1615.0</ele>
        <time>2016-08-06T14:32:49Z</time>
      </trkpt>
      <trkpt lat="40.390183" lon="-5.746867">
        <ele>1612.0</ele>
        <time>2016-08-06T14:32:51Z</time>
      </trkpt>
      <trkpt lat="40.390183" lon="-5.747200">
        <ele>1608.0</ele>
        <time>2016-08-06T14:32:53Z</time>
      </trkpt>
      <trkpt lat="40.390183" lon="-5.747533">
        <ele>1603.0</ele>
        <time>2016-08-06T14:32:55Z</time>
      </trkpt>
      <trkpt lat="40.390200" lon="-5.747900">
        <ele>1599.0</ele>
        <time>2016-08-06T14:32:57Z</time>
      </trkpt>
      <trkpt lat="40.390200" lon="-5.748233">
        <ele>1595.0</ele>
        <time>2016-08-06T14:32:59Z</time>
      </trkpt>
      <trkpt lat="40.390217" lon="-5.748567">
        <ele>1591.0</ele>
        <time>2016-08-06T14:33:01Z</time>
      </trkpt>
      <trkpt lat="40.390233" lon="-5.748917">
        <ele>1587.0</ele>
        <time>2016-08-06T14:33:03Z</time>
      </trkpt>
      <trkpt lat="40.390233" lon="-5.749233">
        <ele>1582.0</ele>
        <time>2016-08-06T14:33:05Z</time>
      </trkpt>
      <trkpt lat="40.390250" lon="-5.749567">
        <ele>1578.0</ele>
        <time>2016-08-06T14:33:07Z</time>
      </trkpt>
      <trkpt lat="40.390233" lon="-5.749900">
        <ele>1573.0</ele>
        <time>2016-08-06T14:33:09Z</time>
      </trkpt>
      <trkpt lat="40.390233" lon="-5.750233">
        <ele>1569.0</ele>
        <time>2016-08-06T14:33:11Z</time>
      </trkpt>
      <trkpt lat="40.390233" lon="-5.750550">
        <ele>1564.0</ele>
        <time>2016-08-06T14:33:13Z</time>
      </trkpt>
      <trkpt lat="40.390233" lon="-5.750867">
        <ele>1560.0</ele>
        <time>2016-08-06T14:33:15Z</time>
      </trkpt>
      <trkpt lat="40.390233" lon="-5.751183">
        <ele>1556.0</ele>
        <time>2016-08-06T14:33:17Z</time>
      </trkpt>
      <trkpt lat="40.390233" lon="-5.751483">
        <ele>1554.0</ele>
        <time>2016-08-06T14:33:19Z</time>
      </trkpt>
      <trkpt lat="40.390233" lon="-5.751767">
        <ele>1551.0</ele>
        <time>2016-08-06T14:33:21Z</time>
      </trkpt>
      <trkpt lat="40.390217" lon="-5.752067">
        <ele>1546.0</ele>
        <time>2016-08-06T14:33:23Z</time>
      </trkpt>
      <trkpt lat="40.390183" lon="-5.752383">
        <ele>1542.0</ele>
        <time>2016-08-06T14:33:25Z</time>
      </trkpt>
      <trkpt lat="40.390167" lon="-5.752667">
        <ele>1538.0</ele>
        <time>2016-08-06T14:33:27Z</time>
      </trkpt>
      <trkpt lat="40.390167" lon="-5.752933">
        <ele>1534.0</ele>
        <time>2016-08-06T14:33:29Z</time>
      </trkpt>
      <trkpt lat="40.390167" lon="-5.753217">
        <ele>1529.0</ele>
        <time>2016-08-06T14:33:31Z</time>
      </trkpt>
      <trkpt lat="40.390217" lon="-5.753517">
        <ele>1529.0</ele>
        <time>2016-08-06T14:33:33Z</time>
      </trkpt>
      <trkpt lat="40.390250" lon="-5.753750">
        <ele>1533.0</ele>
        <time>2016-08-06T14:33:35Z</time>
      </trkpt>
      <trkpt lat="40.390283" lon="-5.753917">
        <ele>1535.0</ele>
        <time>2016-08-06T14:33:37Z</time>
      </trkpt>
      <trkpt lat="40.390383" lon="-5.754033">
        <ele>1536.0</ele>
        <time>2016-08-06T14:33:39Z</time>
      </trkpt>
      <trkpt lat="40.390467" lon="-5.754033">
        <ele>1539.0</ele>
        <time>2016-08-06T14:33:41Z</time>
      </trkpt>
      <trkpt lat="40.390483" lon="-5.753950">
        <ele>1540.0</ele>
        <time>2016-08-06T14:33:43Z</time>
      </trkpt>
      <trkpt lat="40.390467" lon="-5.753833">
        <ele>1539.0</ele>
        <time>2016-08-06T14:33:45Z</time>
      </trkpt>
      <trkpt lat="40.390383" lon="-5.753650">
        <ele>1536.0</ele>
        <time>2016-08-06T14:33:47Z</time>
      </trkpt>
      <trkpt lat="40.390183" lon="-5.753550">
        <ele>1537.0</ele>
        <time>2016-08-06T14:33:49Z</time>
      </trkpt>
      <trkpt lat="40.389967" lon="-5.753533">
        <ele>1538.0</ele>
        <time>2016-08-06T14:33:51Z</time>
      </trkpt>
      <trkpt lat="40.389767" lon="-5.753633">
        <ele>1539.0</ele>
        <time>2016-08-06T14:33:53Z</time>
      </trkpt>
      <trkpt lat="40.389617" lon="-5.753850">
        <ele>1538.0</ele>
        <time>2016-08-06T14:33:55Z</time>
      </trkpt>
      <trkpt lat="40.389517" lon="-5.754117">
        <ele>1537.0</ele>
        <time>2016-08-06T14:33:57Z</time>
      </trkpt>
      <trkpt lat="40.389450" lon="-5.754400">
        <ele>1540.0</ele>
        <time>2016-08-06T14:33:59Z</time>
      </trkpt>
      <trkpt lat="40.389400" lon="-5.754667">
        <ele>1542.0</ele>
        <time>2016-08-06T14:34:01Z</time>
      </trkpt>
      <trkpt lat="40.389367" lon="-5.754933">
        <ele>1544.0</ele>
        <time>2016-08-06T14:34:03Z</time>
      </trkpt>
      <trkpt lat="40.389400" lon="-5.755150">
        <ele>1547.0</ele>
        <time>2016-08-06T14:34:05Z</time>
      </trkpt>
      <trkpt lat="40.389500" lon="-5.755283">
        <ele>1548.0</ele>
        <time>2016-08-06T14:34:07Z</time>
      </trkpt>
      <trkpt lat="40.389633" lon="-5.755300">
        <ele>1550.0</ele>
        <time>2016-08-06T14:34:09Z</time>
      </trkpt>
      <trkpt lat="40.389700" lon="-5.755200">
        <ele>1552.0</ele>
        <time>2016-08-06T14:34:11Z</time>
      </trkpt>
      <trkpt lat="40.389683" lon="-5.755067">
        <ele>1552.0</ele>
        <time>2016-08-06T14:34:13Z</time>
      </trkpt>
      <trkpt lat="40.389600" lon="-5.754900">
        <ele>1551.0</ele>
        <time>2016-08-06T14:34:15Z</time>
      </trkpt>
      <trkpt lat="40.389400" lon="-5.754800">
        <ele>1550.0</ele>
        <time>2016-08-06T14:34:17Z</time>
      </trkpt>
      <trkpt lat="40.389167" lon="-5.754850">
        <ele>1550.0</ele>
        <time>2016-08-06T14:34:19Z</time>
      </trkpt>
      <trkpt lat="40.388967" lon="-5.754950">
        <ele>1550.0</ele>
        <time>2016-08-06T14:34:21Z</time>
      </trkpt>
      <trkpt lat="40.388767" lon="-5.755150">
        <ele>1547.0</ele>
        <time>2016-08-06T14:34:23Z</time>
      </trkpt>
      <trkpt lat="40.388650" lon="-5.755433">
        <ele>1549.0</ele>
        <time>2016-08-06T14:34:25Z</time>
      </trkpt>
      <trkpt lat="40.388600" lon="-5.755700">
        <ele>1554.0</ele>
        <time>2016-08-06T14:34:27Z</time>
      </trkpt>
      <trkpt lat="40.388567" lon="-5.755933">
        <ele>1557.0</ele>
        <time>2016-08-06T14:34:29Z</time>
      </trkpt>
      <trkpt lat="40.388600" lon="-5.756167">
        <ele>1560.0</ele>
        <time>2016-08-06T14:34:31Z</time>
      </trkpt>
      <trkpt lat="40.388700" lon="-5.756333">
        <ele>1560.0</ele>
        <time>2016-08-06T14:34:33Z</time>
      </trkpt>
      <trkpt lat="40.388833" lon="-5.756417">
        <ele>1561.0</ele>
        <time>2016-08-06T14:34:35Z</time>
      </trkpt>
      <trkpt lat="40.388950" lon="-5.756367">
        <ele>1563.0</ele>
        <time>2016-08-06T14:34:37Z</time>
      </trkpt>
      <trkpt lat="40.389000" lon="-5.756233">
        <ele>1563.0</ele>
        <time>2016-08-06T14:34:39Z</time>
      </trkpt>
      <trkpt lat="40.388967" lon="-5.756050">
        <ele>1565.0</ele>
        <time>2016-08-06T14:34:41Z</time>
      </trkpt>
      <trkpt lat="40.388883" lon="-5.755900">
        <ele>1565.0</ele>
        <time>2016-08-06T14:34:43Z</time>
      </trkpt>
      <trkpt lat="40.388733" lon="-5.755817">
        <ele>1564.0</ele>
        <time>2016-08-06T14:34:45Z</time>
      </trkpt>
      <trkpt lat="40.388533" lon="-5.755817">
        <ele>1563.0</ele>
        <time>2016-08-06T14:34:47Z</time>
      </trkpt>
      <trkpt lat="40.388333" lon="-5.755950">
        <ele>1561.0</ele>
        <time>2016-08-06T14:34:49Z</time>
      </trkpt>
      <trkpt lat="40.388200" lon="-5.756217">
        <ele>1559.0</ele>
        <time>2016-08-06T14:34:51Z</time>
      </trkpt>
      <trkpt lat="40.388183" lon="-5.756500">
        <ele>1561.0</ele>
        <time>2016-08-06T14:34:53Z</time>
      </trkpt>
      <trkpt lat="40.388217" lon="-5.756750">
        <ele>1565.0</ele>
        <time>2016-08-06T14:34:55Z</time>
      </trkpt>
      <trkpt lat="40.388233" lon="-5.756983">
        <ele>1567.0</ele>
        <time>2016-08-06T14:34:57Z</time>
      </trkpt>
      <trkpt lat="40.388283" lon="-5.757183">
        <ele>1569.0</ele>
        <time>2016-08-06T14:34:59Z</time>
      </trkpt>
      <trkpt lat="40.388400" lon="-5.757333">
        <ele>1570.0</ele>
        <time>2016-08-06T14:35:01Z</time>
      </trkpt>
      <trkpt lat="40.388567" lon="-5.757367">
        <ele>1570.0</ele>
        <time>2016-08-06T14:35:03Z</time>
      </trkpt>
      <trkpt lat="40.388683" lon="-5.757250">
        <ele>1569.0</ele>
        <time>2016-08-06T14:35:05Z</time>
      </trkpt>
      <trkpt lat="40.388700" lon="-5.757067">
        <ele>1569.0</ele>
        <time>2016-08-06T14:35:07Z</time>
      </trkpt>
      <trkpt lat="40.388667" lon="-5.756883">
        <ele>1568.0</ele>
        <time>2016-08-06T14:35:09Z</time>
      </trkpt>
      <trkpt lat="40.388583" lon="-5.756733">
        <ele>1567.0</ele>
        <time>2016-08-06T14:35:11Z</time>
      </trkpt>
      <trkpt lat="40.388400" lon="-5.756667">
        <ele>1564.0</ele>
        <time>2016-08-06T14:35:13Z</time>
      </trkpt>
      <trkpt lat="40.388217" lon="-5.756767">
        <ele>1563.0</ele>
        <time>2016-08-06T14:35:15Z</time>
      </trkpt>
      <trkpt lat="40.388100" lon="-5.757000">
        <ele>1562.0</ele>
        <time>2016-08-06T14:35:17Z</time>
      </trkpt>
      <trkpt lat="40.388050" lon="-5.757267">
        <ele>1563.0</ele>
        <time>2016-08-06T14:35:19Z</time>
      </trkpt>
      <trkpt lat="40.388050" lon="-5.757517">
        <ele>1563.0</ele>
        <time>2016-08-06T14:35:21Z</time>
      </trkpt>
      <trkpt lat="40.388100" lon="-5.757733">
        <ele>1565.0</ele>
        <time>2016-08-06T14:35:23Z</time>
      </trkpt>
      <trkpt lat="40.388133" lon="-5.757917">
        <ele>1567.0</ele>
        <time>2016-08-06T14:35:25Z</time>
      </trkpt>
      <trkpt lat="40.388183" lon="-5.758083">
        <ele>1567.0</ele>
        <time>2016-08-06T14:35:27Z</time>
      </trkpt>
      <trkpt lat="40.388267" lon="-5.758267">
        <ele>1568.0</ele>
        <time>2016-08-06T14:35:29Z</time>
      </trkpt>
      <trkpt lat="40.388367" lon="-5.758383">
        <ele>1571.0</ele>
        <time>2016-08-06T14:35:31Z</time>
      </trkpt>
      <trkpt lat="40.388433" lon="-5.758533">
        <ele>1571.0</ele>
        <time>2016-08-06T14:35:33Z</time>
      </trkpt>
      <trkpt lat="40.388500" lon="-5.758717">
        <ele>1571.0</ele>
        <time>2016-08-06T14:35:35Z</time>
      </trkpt>
      <trkpt lat="40.388567" lon="-5.758833">
        <ele>1573.0</ele>
        <time>2016-08-06T14:35:37Z</time>
      </trkpt>
      <trkpt lat="40.388617" lon="-5.758883">
        <ele>1574.0</ele>
        <time>2016-08-06T14:35:39Z</time>
      </trkpt>
      <trkpt lat="40.388667" lon="-5.758917">
        <ele>1575.0</ele>
        <time>2016-08-06T14:35:41Z</time>
      </trkpt>
      <trkpt lat="40.388700" lon="-5.758900">
        <ele>1574.0</ele>
        <time>2016-08-06T14:35:43Z</time>
      </trkpt>
      <trkpt lat="40.388683" lon="-5.758850">
        <ele>1571.0</ele>
        <time>2016-08-06T14:35:45Z</time>
      </trkpt>
      <trkpt lat="40.388650" lon="-5.758750">
        <ele>1566.0</ele>
        <time>2016-08-06T14:35:47Z</time>
      </trkpt>
      <trkpt lat="40.388533" lon="-5.758617">
        <ele>1561.0</ele>
        <time>2016-08-06T14:35:49Z</time>
      </trkpt>
      <trkpt lat="40.388317" lon="-5.758567">
        <ele>1559.0</ele>
        <time>2016-08-06T14:35:51Z</time>
      </trkpt>
      <trkpt lat="40.388100" lon="-5.758650">
        <ele>1557.0</ele>
        <time>2016-08-06T14:35:53Z</time>
      </trkpt>
      <trkpt lat="40.387917" lon="-5.758833">
        <ele>1554.0</ele>
        <time>2016-08-06T14:35:55Z</time>
      </trkpt>
      <trkpt lat="40.387800" lon="-5.759083">
        <ele>1552.0</ele>
        <time>2016-08-06T14:35:57Z</time>
      </trkpt>
      <trkpt lat="40.387733" lon="-5.759350">
        <ele>1551.0</ele>
        <time>2016-08-06T14:35:59Z</time>
      </trkpt>
      <trkpt lat="40.387667" lon="-5.759633">
        <ele>1551.0</ele>
        <time>2016-08-06T14:36:01Z</time>
      </trkpt>
      <trkpt lat="40.387633" lon="-5.759900">
        <ele>1550.0</ele>
        <time>2016-08-06T14:36:03Z</time>
      </trkpt>
      <trkpt lat="40.387617" lon="-5.760183">
        <ele>1548.0</ele>
        <time>2016-08-06T14:36:05Z</time>
      </trkpt>
      <trkpt lat="40.387567" lon="-5.760467">
        <ele>1549.0</ele>
        <time>2016-08-06T14:36:07Z</time>
      </trkpt>
      <trkpt lat="40.387550" lon="-5.760700">
        <ele>1549.0</ele>
        <time>2016-08-06T14:36:09Z</time>
      </trkpt>
      <trkpt lat="40.387567" lon="-5.760950">
        <ele>1549.0</ele>
        <time>2016-08-06T14:36:11Z</time>
      </trkpt>
      <trkpt lat="40.387600" lon="-5.761200">
        <ele>1550.0</ele>
        <time>2016-08-06T14:36:13Z</time>
      </trkpt>
      <trkpt lat="40.387617" lon="-5.761467">
        <ele>1553.0</ele>
        <time>2016-08-06T14:36:15Z</time>
      </trkpt>
      <trkpt lat="40.387600" lon="-5.761750">
        <ele>1555.0</ele>
        <time>2016-08-06T14:36:17Z</time>
      </trkpt>
      <trkpt lat="40.387650" lon="-5.761967">
        <ele>1556.0</ele>
        <time>2016-08-06T14:36:19Z</time>
      </trkpt>
      <trkpt lat="40.387717" lon="-5.762067">
        <ele>1558.0</ele>
        <time>2016-08-06T14:36:21Z</time>
      </trkpt>
      <trkpt lat="40.387750" lon="-5.762067">
        <ele>1560.0</ele>
        <time>2016-08-06T14:36:23Z</time>
      </trkpt>
      <trkpt lat="40.387683" lon="-5.761983">
        <ele>1560.0</ele>
        <time>2016-08-06T14:36:25Z</time>
      </trkpt>
      <trkpt lat="40.387533" lon="-5.761917">
        <ele>1562.0</ele>
        <time>2016-08-06T14:36:27Z</time>
      </trkpt>
      <trkpt lat="40.387333" lon="-5.761883">
        <ele>1563.0</ele>
        <time>2016-08-06T14:36:29Z</time>
      </trkpt>
      <trkpt lat="40.387067" lon="-5.761917">
        <ele>1564.0</ele>
        <time>2016-08-06T14:36:31Z</time>
      </trkpt>
      <trkpt lat="40.386800" lon="-5.762033">
        <ele>1566.0</ele>
        <time>2016-08-06T14:36:33Z</time>
      </trkpt>
      <trkpt lat="40.386583" lon="-5.762300">
        <ele>1563.0</ele>
        <time>2016-08-06T14:36:35Z</time>
      </trkpt>
      <trkpt lat="40.386450" lon="-5.762650">
        <ele>1562.0</ele>
        <time>2016-08-06T14:36:37Z</time>
      </trkpt>
      <trkpt lat="40.386433" lon="-5.762950">
        <ele>1564.0</ele>
        <time>2016-08-06T14:36:39Z</time>
      </trkpt>
      <trkpt lat="40.386433" lon="-5.763200">
        <ele>1563.0</ele>
        <time>2016-08-06T14:36:41Z</time>
      </trkpt>
      <trkpt lat="40.386483" lon="-5.763483">
        <ele>1562.0</ele>
        <time>2016-08-06T14:36:43Z</time>
      </trkpt>
      <trkpt lat="40.386567" lon="-5.763733">
        <ele>1565.0</ele>
        <time>2016-08-06T14:36:45Z</time>
      </trkpt>
      <trkpt lat="40.386633" lon="-5.763917">
        <ele>1568.0</ele>
        <time>2016-08-06T14:36:47Z</time>
      </trkpt>
      <trkpt lat="40.386717" lon="-5.764083">
        <ele>1567.0</ele>
        <time>2016-08-06T14:36:49Z</time>
      </trkpt>
      <trkpt lat="40.386833" lon="-5.764200">
        <ele>1565.0</ele>
        <time>2016-08-06T14:36:51Z</time>
      </trkpt>
      <trkpt lat="40.386950" lon="-5.764217">
        <ele>1564.0</ele>
        <time>2016-08-06T14:36:53Z</time>
      </trkpt>
      <trkpt lat="40.387050" lon="-5.764167">
        <ele>1565.0</ele>
        <time>2016-08-06T14:36:55Z</time>
      </trkpt>
      <trkpt lat="40.387067" lon="-5.764050">
        <ele>1567.0</ele>
        <time>2016-08-06T14:36:57Z</time>
      </trkpt>
      <trkpt lat="40.387033" lon="-5.763917">
        <ele>1570.0</ele>
        <time>2016-08-06T14:36:59Z</time>
      </trkpt>
      <trkpt lat="40.386883" lon="-5.763817">
        <ele>1571.0</ele>
        <time>2016-08-06T14:37:01Z</time>
      </trkpt>
      <trkpt lat="40.386683" lon="-5.763783">
        <ele>1575.0</ele>
        <time>2016-08-06T14:37:03Z</time>
      </trkpt>
      <trkpt lat="40.386467" lon="-5.763883">
        <ele>1579.0</ele>
        <time>2016-08-06T14:37:05Z</time>
      </trkpt>
      <trkpt lat="40.386317" lon="-5.764117">
        <ele>1581.0</ele>
        <time>2016-08-06T14:37:07Z</time>
      </trkpt>
      <trkpt lat="40.386233" lon="-5.764400">
        <ele>1584.0</ele>
        <time>2016-08-06T14:37:09Z</time>
      </trkpt>
      <trkpt lat="40.386250" lon="-5.764683">
        <ele>1586.0</ele>
        <time>2016-08-06T14:37:11Z</time>
      </trkpt>
      <trkpt lat="40.386317" lon="-5.764900">
        <ele>1587.0</ele>
        <time>2016-08-06T14:37:13Z</time>
      </trkpt>
      <trkpt lat="40.386417" lon="-5.765117">
        <ele>1587.0</ele>
        <time>2016-08-06T14:37:15Z</time>
      </trkpt>
      <trkpt lat="40.386550" lon="-5.765217">
        <ele>1587.0</ele>
        <time>2016-08-06T14:37:17Z</time>
      </trkpt>
      <trkpt lat="40.386683" lon="-5.765217">
        <ele>1590.0</ele>
        <time>2016-08-06T14:37:19Z</time>
      </trkpt>
      <trkpt lat="40.386750" lon="-5.765150">
        <ele>1593.0</ele>
        <time>2016-08-06T14:37:21Z</time>
      </trkpt>
      <trkpt lat="40.386750" lon="-5.765067">
        <ele>1595.0</ele>
        <time>2016-08-06T14:37:23Z</time>
      </trkpt>
      <trkpt lat="40.386667" lon="-5.764967">
        <ele>1597.0</ele>
        <time>2016-08-06T14:37:25Z</time>
      </trkpt>
      <trkpt lat="40.386500" lon="-5.764917">
        <ele>1597.0</ele>
        <time>2016-08-06T14:37:27Z</time>
      </trkpt>
      <trkpt lat="40.386283" lon="-5.764967">
        <ele>1598.0</ele>
        <time>2016-08-06T14:37:29Z</time>
      </trkpt>
      <trkpt lat="40.386067" lon="-5.765117">
        <ele>1598.0</ele>
        <time>2016-08-06T14:37:31Z</time>
      </trkpt>
      <trkpt lat="40.385883" lon="-5.765350">
        <ele>1598.0</ele>
        <time>2016-08-06T14:37:33Z</time>
      </trkpt>
      <trkpt lat="40.385733" lon="-5.765617">
        <ele>1600.0</ele>
        <time>2016-08-06T14:37:35Z</time>
      </trkpt>
      <trkpt lat="40.385600" lon="-5.765883">
        <ele>1602.0</ele>
        <time>2016-08-06T14:37:37Z</time>
      </trkpt>
      <trkpt lat="40.385533" lon="-5.766183">
        <ele>1602.0</ele>
        <time>2016-08-06T14:37:39Z</time>
      </trkpt>
      <trkpt lat="40.385550" lon="-5.766483">
        <ele>1603.0</ele>
        <time>2016-08-06T14:37:41Z</time>
      </trkpt>
      <trkpt lat="40.385600" lon="-5.766717">
        <ele>1604.0</ele>
        <time>2016-08-06T14:37:43Z</time>
      </trkpt>
      <trkpt lat="40.385700" lon="-5.766900">
        <ele>1603.0</ele>
        <time>2016-08-06T14:37:45Z</time>
      </trkpt>
      <trkpt lat="40.385817" lon="-5.767017">
        <ele>1605.0</ele>
        <time>2016-08-06T14:37:47Z</time>
      </trkpt>
      <trkpt lat="40.385883" lon="-5.766983">
        <ele>1607.0</ele>
        <time>2016-08-06T14:37:49Z</time>
      </trkpt>
      <trkpt lat="40.385867" lon="-5.766917">
        <ele>1611.0</ele>
        <time>2016-08-06T14:37:51Z</time>
      </trkpt>
      <trkpt lat="40.385800" lon="-5.766867">
        <ele>1610.0</ele>
        <time>2016-08-06T14:37:53Z</time>
      </trkpt>
      <trkpt lat="40.385617" lon="-5.766817">
        <ele>1605.0</ele>
        <time>2016-08-06T14:37:55Z</time>
      </trkpt>
      <trkpt lat="40.385367" lon="-5.766933">
        <ele>1604.0</ele>
        <time>2016-08-06T14:37:57Z</time>
      </trkpt>
      <trkpt lat="40.385183" lon="-5.767233">
        <ele>1608.0</ele>
        <time>2016-08-06T14:37:59Z</time>
      </trkpt>
      <trkpt lat="40.385083" lon="-5.767500">
        <ele>1613.0</ele>
        <time>2016-08-06T14:38:01Z</time>
      </trkpt>
      <trkpt lat="40.385050" lon="-5.767783">
        <ele>1612.0</ele>
        <time>2016-08-06T14:38:03Z</time>
      </trkpt>
      <trkpt lat="40.385050" lon="-5.768117">
        <ele>1610.0</ele>
        <time>2016-08-06T14:38:05Z</time>
      </trkpt>
      <trkpt lat="40.385100" lon="-5.768383">
        <ele>1612.0</ele>
        <time>2016-08-06T14:38:07Z</time>
      </trkpt>
      <trkpt lat="40.385200" lon="-5.768550">
        <ele>1614.0</ele>
        <time>2016-08-06T14:38:09Z</time>
      </trkpt>
      <trkpt lat="40.385300" lon="-5.768633">
        <ele>1617.0</ele>
        <time>2016-08-06T14:38:11Z</time>
      </trkpt>
      <trkpt lat="40.385367" lon="-5.768667">
        <ele>1620.0</ele>
        <time>2016-08-06T14:38:13Z</time>
      </trkpt>
      <trkpt lat="40.385367" lon="-5.768633">
        <ele>1620.0</ele>
        <time>2016-08-06T14:38:15Z</time>
      </trkpt>
      <trkpt lat="40.385300" lon="-5.768533">
        <ele>1618.0</ele>
        <time>2016-08-06T14:38:17Z</time>
      </trkpt>
      <trkpt lat="40.385167" lon="-5.768467">
        <ele>1620.0</ele>
        <time>2016-08-06T14:38:19Z</time>
      </trkpt>
      <trkpt lat="40.384967" lon="-5.768517">
        <ele>1622.0</ele>
        <time>2016-08-06T14:38:21Z</time>
      </trkpt>
      <trkpt lat="40.384750" lon="-5.768683">
        <ele>1623.0</ele>
        <time>2016-08-06T14:38:23Z</time>
      </trkpt>
      <trkpt lat="40.384567" lon="-5.768950">
        <ele>1625.0</ele>
        <time>2016-08-06T14:38:25Z</time>
      </trkpt>
      <trkpt lat="40.384417" lon="-5.769233">
        <ele>1628.0</ele>
        <time>2016-08-06T14:38:27Z</time>
      </trkpt>
      <trkpt lat="40.384333" lon="-5.769567">
        <ele>1630.0</ele>
        <time>2016-08-06T14:38:29Z</time>
      </trkpt>
      <trkpt lat="40.384317" lon="-5.769900">
        <ele>1632.0</ele>
        <time>2016-08-06T14:38:31Z</time>
      </trkpt>
      <trkpt lat="40.384300" lon="-5.770200">
        <ele>1634.0</ele>
        <time>2016-08-06T14:38:33Z</time>
      </trkpt>
      <trkpt lat="40.384300" lon="-5.770500">
        <ele>1634.0</ele>
        <time>2016-08-06T14:38:35Z</time>
      </trkpt>
      <trkpt lat="40.384300" lon="-5.770817">
        <ele>1633.0</ele>
        <time>2016-08-06T14:38:37Z</time>
      </trkpt>
      <trkpt lat="40.384300" lon="-5.771117">
        <ele>1634.0</ele>
        <time>2016-08-06T14:38:39Z</time>
      </trkpt>
      <trkpt lat="40.384283" lon="-5.771433">
        <ele>1634.0</ele>
        <time>2016-08-06T14:38:41Z</time>
      </trkpt>
      <trkpt lat="40.384267" lon="-5.771783">
        <ele>1633.0</ele>
        <time>2016-08-06T14:38:43Z</time>
      </trkpt>
      <trkpt lat="40.384267" lon="-5.772067">
        <ele>1633.0</ele>
        <time>2016-08-06T14:38:45Z</time>
      </trkpt>
      <trkpt lat="40.384233" lon="-5.772350">
        <ele>1628.0</ele>
        <time>2016-08-06T14:38:47Z</time>
      </trkpt>
      <trkpt lat="40.384233" lon="-5.772717">
        <ele>1622.0</ele>
        <time>2016-08-06T14:38:49Z</time>
      </trkpt>
      <trkpt lat="40.384233" lon="-5.773050">
        <ele>1621.0</ele>
        <time>2016-08-06T14:38:51Z</time>
      </trkpt>
      <trkpt lat="40.384217" lon="-5.773367">
        <ele>1615.0</ele>
        <time>2016-08-06T14:38:53Z</time>
      </trkpt>
      <trkpt lat="40.384217" lon="-5.773750">
        <ele>1607.0</ele>
        <time>2016-08-06T14:38:55Z</time>
      </trkpt>
      <trkpt lat="40.384233" lon="-5.774100">
        <ele>1604.0</ele>
        <time>2016-08-06T14:38:57Z</time>
      </trkpt>
      <trkpt lat="40.384233" lon="-5.774400">
        <ele>1601.0</ele>
        <time>2016-08-06T14:38:59Z</time>
      </trkpt>
      <trkpt lat="40.384233" lon="-5.774717">
        <ele>1595.0</ele>
        <time>2016-08-06T14:39:01Z</time>
      </trkpt>
      <trkpt lat="40.384250" lon="-5.775033">
        <ele>1589.0</ele>
        <time>2016-08-06T14:39:03Z</time>
      </trkpt>
      <trkpt lat="40.384283" lon="-5.775333">
        <ele>1585.0</ele>
        <time>2016-08-06T14:39:05Z</time>
      </trkpt>
      <trkpt lat="40.384300" lon="-5.775617">
        <ele>1581.0</ele>
        <time>2016-08-06T14:39:07Z</time>
      </trkpt>
      <trkpt lat="40.384333" lon="-5.775917">
        <ele>1576.0</ele>
        <time>2016-08-06T14:39:09Z</time>
      </trkpt>
      <trkpt lat="40.384333" lon="-5.776200">
        <ele>1573.0</ele>
        <time>2016-08-06T14:39:11Z</time>
      </trkpt>
      <trkpt lat="40.384367" lon="-5.776483">
        <ele>1568.0</ele>
        <time>2016-08-06T14:39:13Z</time>
      </trkpt>
      <trkpt lat="40.384400" lon="-5.776767">
        <ele>1562.0</ele>
        <time>2016-08-06T14:39:15Z</time>
      </trkpt>
      <trkpt lat="40.384467" lon="-5.777017">
        <ele>1558.0</ele>
        <time>2016-08-06T14:39:17Z</time>
      </trkpt>
      <trkpt lat="40.384567" lon="-5.777250">
        <ele>1555.0</ele>
        <time>2016-08-06T14:39:19Z</time>
      </trkpt>
      <trkpt lat="40.384650" lon="-5.777467">
        <ele>1551.0</ele>
        <time>2016-08-06T14:39:21Z</time>
      </trkpt>
      <trkpt lat="40.384750" lon="-5.777667">
        <ele>1547.0</ele>
        <time>2016-08-06T14:39:23Z</time>
      </trkpt>
      <trkpt lat="40.384850" lon="-5.777883">
        <ele>1542.0</ele>
        <time>2016-08-06T14:39:25Z</time>
      </trkpt>
      <trkpt lat="40.384933" lon="-5.778100">
        <ele>1538.0</ele>
        <time>2016-08-06T14:39:27Z</time>
      </trkpt>
      <trkpt lat="40.385033" lon="-5.778317">
        <ele>1534.0</ele>
        <time>2016-08-06T14:39:29Z</time>
      </trkpt>
      <trkpt lat="40.385133" lon="-5.778533">
        <ele>1530.0</ele>
        <time>2016-08-06T14:39:31Z</time>
      </trkpt>
      <trkpt lat="40.385233" lon="-5.778750">
        <ele>1526.0</ele>
        <time>2016-08-06T14:39:33Z</time>
      </trkpt>
      <trkpt lat="40.385367" lon="-5.778967">
        <ele>1521.0</ele>
        <time>2016-08-06T14:39:35Z</time>
      </trkpt>
      <trkpt lat="40.385500" lon="-5.779183">
        <ele>1522.0</ele>
        <time>2016-08-06T14:39:37Z</time>
      </trkpt>
      <trkpt lat="40.385583" lon="-5.779367">
        <ele>1524.0</ele>
        <time>2016-08-06T14:39:39Z</time>
      </trkpt>
      <trkpt lat="40.385683" lon="-5.779550">
        <ele>1523.0</ele>
        <time>2016-08-06T14:39:41Z</time>
      </trkpt>
      <trkpt lat="40.385800" lon="-5.779717">
        <ele>1519.0</ele>
        <time>2016-08-06T14:39:43Z</time>
      </trkpt>
      <trkpt lat="40.385933" lon="-5.779867">
        <ele>1518.0</ele>
        <time>2016-08-06T14:39:45Z</time>
      </trkpt>
      <trkpt lat="40.386033" lon="-5.780017">
        <ele>1517.0</ele>
        <time>2016-08-06T14:39:47Z</time>
      </trkpt>
      <trkpt lat="40.386150" lon="-5.780133">
        <ele>1512.0</ele>
        <time>2016-08-06T14:39:49Z</time>
      </trkpt>
      <trkpt lat="40.386267" lon="-5.780250">
        <ele>1508.0</ele>
        <time>2016-08-06T14:39:51Z</time>
      </trkpt>
      <trkpt lat="40.386383" lon="-5.780417">
        <ele>1504.0</ele>
        <time>2016-08-06T14:39:53Z</time>
      </trkpt>
      <trkpt lat="40.386483" lon="-5.780633">
        <ele>1498.0</ele>
        <time>2016-08-06T14:39:55Z</time>
      </trkpt>
      <trkpt lat="40.386600" lon="-5.780817">
        <ele>1493.0</ele>
        <time>2016-08-06T14:39:57Z</time>
      </trkpt>
      <trkpt lat="40.386717" lon="-5.781017">
        <ele>1490.0</ele>
        <time>2016-08-06T14:39:59Z</time>
      </trkpt>
      <trkpt lat="40.386817" lon="-5.781233">
        <ele>1487.0</ele>
        <time>2016-08-06T14:40:01Z</time>
      </trkpt>
      <trkpt lat="40.386917" lon="-5.781433">
        <ele>1482.0</ele>
        <time>2016-08-06T14:40:03Z</time>
      </trkpt>
      <trkpt lat="40.387033" lon="-5.781617">
        <ele>1477.0</ele>
        <time>2016-08-06T14:40:05Z</time>
      </trkpt>
      <trkpt lat="40.387133" lon="-5.781817">
        <ele>1473.0</ele>
        <time>2016-08-06T14:40:07Z</time>
      </trkpt>
      <trkpt lat="40.387233" lon="-5.781983">
        <ele>1471.0</ele>
        <time>2016-08-06T14:40:09Z</time>
      </trkpt>
      <trkpt lat="40.387333" lon="-5.782150">
        <ele>1466.0</ele>
        <time>2016-08-06T14:40:11Z</time>
      </trkpt>
      <trkpt lat="40.387450" lon="-5.782333">
        <ele>1461.0</ele>
        <time>2016-08-06T14:40:13Z</time>
      </trkpt>
      <trkpt lat="40.387567" lon="-5.782483">
        <ele>1458.0</ele>
        <time>2016-08-06T14:40:15Z</time>
      </trkpt>
      <trkpt lat="40.387667" lon="-5.782650">
        <ele>1454.0</ele>
        <time>2016-08-06T14:40:17Z</time>
      </trkpt>
      <trkpt lat="40.387783" lon="-5.782800">
        <ele>1450.0</ele>
        <time>2016-08-06T14:40:19Z</time>
      </trkpt>
      <trkpt lat="40.387883" lon="-5.782967">
        <ele>1446.0</ele>
        <time>2016-08-06T14:40:21Z</time>
      </trkpt>
      <trkpt lat="40.388000" lon="-5.783117">
        <ele>1443.0</ele>
        <time>2016-08-06T14:40:23Z</time>
      </trkpt>
      <trkpt lat="40.388117" lon="-5.783250">
        <ele>1440.0</ele>
        <time>2016-08-06T14:40:25Z</time>
      </trkpt>
      <trkpt lat="40.388233" lon="-5.783367">
        <ele>1437.0</ele>
        <time>2016-08-06T14:40:27Z</time>
      </trkpt>
      <trkpt lat="40.388333" lon="-5.783517">
        <ele>1433.0</ele>
        <time>2016-08-06T14:40:29Z</time>
      </trkpt>
      <trkpt lat="40.388450" lon="-5.783667">
        <ele>1430.0</ele>
        <time>2016-08-06T14:40:31Z</time>
      </trkpt>
      <trkpt lat="40.388600" lon="-5.783817">
        <ele>1429.0</ele>
        <time>2016-08-06T14:40:33Z</time>
      </trkpt>
      <trkpt lat="40.388733" lon="-5.784000">
        <ele>1431.0</ele>
        <time>2016-08-06T14:40:35Z</time>
      </trkpt>
      <trkpt lat="40.388833" lon="-5.784133">
        <ele>1437.0</ele>
        <time>2016-08-06T14:40:37Z</time>
      </trkpt>
      <trkpt lat="40.388933" lon="-5.784233">
        <ele>1441.0</ele>
        <time>2016-08-06T14:40:39Z</time>
      </trkpt>
      <trkpt lat="40.389050" lon="-5.784383">
        <ele>1441.0</ele>
        <time>2016-08-06T14:40:41Z</time>
      </trkpt>
      <trkpt lat="40.389183" lon="-5.784550">
        <ele>1442.0</ele>
        <time>2016-08-06T14:40:43Z</time>
      </trkpt>
      <trkpt lat="40.389283" lon="-5.784717">
        <ele>1445.0</ele>
        <time>2016-08-06T14:40:45Z</time>
      </trkpt>
      <trkpt lat="40.389400" lon="-5.784883">
        <ele>1447.0</ele>
        <time>2016-08-06T14:40:47Z</time>
      </trkpt>
      <trkpt lat="40.389517" lon="-5.785033">
        <ele>1448.0</ele>
        <time>2016-08-06T14:40:49Z</time>
      </trkpt>
      <trkpt lat="40.389617" lon="-5.785217">
        <ele>1448.0</ele>
        <time>2016-08-06T14:40:51Z</time>
      </trkpt>
      <trkpt lat="40.389733" lon="-5.785450">
        <ele>1447.0</ele>
        <time>2016-08-06T14:40:53Z</time>
      </trkpt>
      <trkpt lat="40.389850" lon="-5.785650">
        <ele>1448.0</ele>
        <time>2016-08-06T14:40:55Z</time>
      </trkpt>
      <trkpt lat="40.389950" lon="-5.785833">
        <ele>1448.0</ele>
        <time>2016-08-06T14:40:57Z</time>
      </trkpt>
      <trkpt lat="40.390033" lon="-5.786050">
        <ele>1445.0</ele>
        <time>2016-08-06T14:40:59Z</time>
      </trkpt>
      <trkpt lat="40.390133" lon="-5.786267">
        <ele>1444.0</ele>
        <time>2016-08-06T14:41:01Z</time>
      </trkpt>
      <trkpt lat="40.390217" lon="-5.786450">
        <ele>1443.0</ele>
        <time>2016-08-06T14:41:03Z</time>
      </trkpt>
      <trkpt lat="40.390283" lon="-5.786650">
        <ele>1442.0</ele>
        <time>2016-08-06T14:41:05Z</time>
      </trkpt>
      <trkpt lat="40.390333" lon="-5.786867">
        <ele>1439.0</ele>
        <time>2016-08-06T14:41:07Z</time>
      </trkpt>
      <trkpt lat="40.390400" lon="-5.787100">
        <ele>1437.0</ele>
        <time>2016-08-06T14:41:09Z</time>
      </trkpt>
      <trkpt lat="40.390467" lon="-5.787283">
        <ele>1436.0</ele>
        <time>2016-08-06T14:41:11Z</time>
      </trkpt>
      <trkpt lat="40.390517" lon="-5.787317">
        <ele>1433.0</ele>
        <time>2016-08-06T14:41:13Z</time>
      </trkpt>
      <trkpt lat="40.390517" lon="-5.787183">
        <ele>1427.0</ele>
        <time>2016-08-06T14:41:15Z</time>
      </trkpt>
      <trkpt lat="40.390300" lon="-5.787067">
        <ele>1422.0</ele>
        <time>2016-08-06T14:41:17Z</time>
      </trkpt>
      <trkpt lat="40.390033" lon="-5.787267">
        <ele>1418.0</ele>
        <time>2016-08-06T14:41:19Z</time>
      </trkpt>
      <trkpt lat="40.389950" lon="-5.787583">
        <ele>1417.0</ele>
        <time>2016-08-06T14:41:21Z</time>
      </trkpt>
      <trkpt lat="40.390000" lon="-5.787783">
        <ele>1414.0</ele>
        <time>2016-08-06T14:41:23Z</time>
      </trkpt>
      <trkpt lat="40.390083" lon="-5.787850">
        <ele>1410.0</ele>
        <time>2016-08-06T14:41:25Z</time>
      </trkpt>
      <trkpt lat="40.390117" lon="-5.787750">
        <ele>1406.0</ele>
        <time>2016-08-06T14:41:27Z</time>
      </trkpt>
      <trkpt lat="40.390000" lon="-5.787600">
        <ele>1401.0</ele>
        <time>2016-08-06T14:41:29Z</time>
      </trkpt>
      <trkpt lat="40.389733" lon="-5.787583">
        <ele>1397.0</ele>
        <time>2016-08-06T14:41:31Z</time>
      </trkpt>
      <trkpt lat="40.389517" lon="-5.787817">
        <ele>1393.0</ele>
        <time>2016-08-06T14:41:33Z</time>
      </trkpt>
      <trkpt lat="40.389467" lon="-5.788100">
        <ele>1390.0</ele>
        <time>2016-08-06T14:41:35Z</time>
      </trkpt>
      <trkpt lat="40.389533" lon="-5.788283">
        <ele>1387.0</ele>
        <time>2016-08-06T14:41:37Z</time>
      </trkpt>
      <trkpt lat="40.389600" lon="-5.788233">
        <ele>1382.0</ele>
        <time>2016-08-06T14:41:39Z</time>
      </trkpt>
      <trkpt lat="40.389500" lon="-5.788067">
        <ele>1377.0</ele>
        <time>2016-08-06T14:41:41Z</time>
      </trkpt>
      <trkpt lat="40.389233" lon="-5.788067">
        <ele>1372.0</ele>
        <time>2016-08-06T14:41:43Z</time>
      </trkpt>
      <trkpt lat="40.389017" lon="-5.788333">
        <ele>1368.0</ele>
        <time>2016-08-06T14:41:45Z</time>
      </trkpt>
      <trkpt lat="40.389000" lon="-5.788617">
        <ele>1366.0</ele>
        <time>2016-08-06T14:41:47Z</time>
      </trkpt>
      <trkpt lat="40.389117" lon="-5.788733">
        <ele>1364.0</ele>
        <time>2016-08-06T14:41:49Z</time>
      </trkpt>
      <trkpt lat="40.389183" lon="-5.788650">
        <ele>1363.0</ele>
        <time>2016-08-06T14:41:51Z</time>
      </trkpt>
      <trkpt lat="40.389117" lon="-5.788500">
        <ele>1360.0</ele>
        <time>2016-08-06T14:41:53Z</time>
      </trkpt>
      <trkpt lat="40.388900" lon="-5.788433">
        <ele>1356.0</ele>
        <time>2016-08-06T14:41:55Z</time>
      </trkpt>
      <trkpt lat="40.388667" lon="-5.788650">
        <ele>1349.0</ele>
        <time>2016-08-06T14:41:57Z</time>
      </trkpt>
      <trkpt lat="40.388683" lon="-5.788983">
        <ele>1341.0</ele>
        <time>2016-08-06T14:41:59Z</time>
      </trkpt>
      <trkpt lat="40.388817" lon="-5.788983">
        <ele>1339.0</ele>
        <time>2016-08-06T14:42:01Z</time>
      </trkpt>
      <trkpt lat="40.388767" lon="-5.788850">
        <ele>1343.0</ele>
        <time>2016-08-06T14:42:03Z</time>
      </trkpt>
      <trkpt lat="40.388600" lon="-5.788750">
        <ele>1343.0</ele>
        <time>2016-08-06T14:42:05Z</time>
      </trkpt>
      <trkpt lat="40.388383" lon="-5.788733">
        <ele>1340.0</ele>
        <time>2016-08-06T14:42:07Z</time>
      </trkpt>
      <trkpt lat="40.388150" lon="-5.788950">
        <ele>1334.0</ele>
        <time>2016-08-06T14:42:09Z</time>
      </trkpt>
      <trkpt lat="40.388150" lon="-5.789283">
        <ele>1327.0</ele>
        <time>2016-08-06T14:42:11Z</time>
      </trkpt>
      <trkpt lat="40.388283" lon="-5.789350">
        <ele>1326.0</ele>
        <time>2016-08-06T14:42:13Z</time>
      </trkpt>
      <trkpt lat="40.388317" lon="-5.789233">
        <ele>1327.0</ele>
        <time>2016-08-06T14:42:15Z</time>
      </trkpt>
      <trkpt lat="40.388333" lon="-5.789117">
        <ele>1328.0</ele>
        <time>2016-08-06T14:42:17Z</time>
      </trkpt>
      <trkpt lat="40.388400" lon="-5.789033">
        <ele>1327.0</ele>
        <time>2016-08-06T14:42:19Z</time>
      </trkpt>
      <trkpt lat="40.388483" lon="-5.788900">
        <ele>1330.0</ele>
        <time>2016-08-06T14:42:21Z</time>
      </trkpt>
      <trkpt lat="40.388550" lon="-5.788867">
        <ele>1333.0</ele>
        <time>2016-08-06T14:42:23Z</time>
      </trkpt>
      <trkpt lat="40.388617" lon="-5.788867">
        <ele>1334.0</ele>
        <time>2016-08-06T14:42:25Z</time>
      </trkpt>
      <trkpt lat="40.388683" lon="-5.788867">
        <ele>1330.0</ele>
        <time>2016-08-06T14:42:27Z</time>
      </trkpt>
      <trkpt lat="40.388767" lon="-5.788867">
        <ele>1326.0</ele>
        <time>2016-08-06T14:42:29Z</time>
      </trkpt>
      <trkpt lat="40.388850" lon="-5.788883">
        <ele>1322.0</ele>
        <time>2016-08-06T14:42:31Z</time>
      </trkpt>
      <trkpt lat="40.388933" lon="-5.788900">
        <ele>1319.0</ele>
        <time>2016-08-06T14:42:33Z</time>
      </trkpt>
      <trkpt lat="40.389033" lon="-5.788917">
        <ele>1317.0</ele>
        <time>2016-08-06T14:42:35Z</time>
      </trkpt>
      <trkpt lat="40.389100" lon="-5.788967">
        <ele>1313.0</ele>
        <time>2016-08-06T14:42:37Z</time>
      </trkpt>
      <trkpt lat="40.389167" lon="-5.788967">
        <ele>1310.0</ele>
        <time>2016-08-06T14:42:39Z</time>
      </trkpt>
      <trkpt lat="40.389233" lon="-5.788983">
        <ele>1307.0</ele>
        <time>2016-08-06T14:42:41Z</time>
      </trkpt>
      <trkpt lat="40.389283" lon="-5.789017">
        <ele>1303.0</ele>
        <time>2016-08-06T14:42:43Z</time>
      </trkpt>
      <trkpt lat="40.389383" lon="-5.789067">
        <ele>1300.0</ele>
        <time>2016-08-06T14:42:45Z</time>
      </trkpt>
      <trkpt lat="40.389450" lon="-5.789083">
        <ele>1300.0</ele>
        <time>2016-08-06T14:42:47Z</time>
      </trkpt>
      <trkpt lat="40.389483" lon="-5.789083">
        <ele>1296.0</ele>
        <time>2016-08-06T14:42:49Z</time>
      </trkpt>
      <trkpt lat="40.389550" lon="-5.789050">
        <ele>1290.0</ele>
        <time>2016-08-06T14:42:51Z</time>
      </trkpt>
      <trkpt lat="40.389633" lon="-5.789017">
        <ele>1285.0</ele>
        <time>2016-08-06T14:42:53Z</time>
      </trkpt>
      <trkpt lat="40.389717" lon="-5.789033">
        <ele>1282.0</ele>
        <time>2016-08-06T14:42:55Z</time>
      </trkpt>
      <trkpt lat="40.389783" lon="-5.789050">
        <ele>1277.0</ele>
        <time>2016-08-06T14:42:57Z</time>
      </trkpt>
      <trkpt lat="40.389867" lon="-5.789067">
        <ele>1272.0</ele>
        <time>2016-08-06T14:42:59Z</time>
      </trkpt>
      <trkpt lat="40.389933" lon="-5.789050">
        <ele>1267.0</ele>
        <time>2016-08-06T14:43:01Z</time>
      </trkpt>
      <trkpt lat="40.390017" lon="-5.789033">
        <ele>1263.0</ele>
        <time>2016-08-06T14:43:03Z</time>
      </trkpt>
      <trkpt lat="40.390067" lon="-5.789033">
        <ele>1263.0</ele>
        <time>2016-08-06T14:43:05Z</time>
      </trkpt>
      <trkpt lat="40.390117" lon="-5.789050">
        <ele>1261.0</ele>
        <time>2016-08-06T14:43:07Z</time>
      </trkpt>
      <trkpt lat="40.390167" lon="-5.789067">
        <ele>1257.0</ele>
        <time>2016-08-06T14:43:09Z</time>
      </trkpt>
      <trkpt lat="40.390250" lon="-5.789050">
        <ele>1254.0</ele>
        <time>2016-08-06T14:43:11Z</time>
      </trkpt>
      <trkpt lat="40.390283" lon="-5.788950">
        <ele>1253.0</ele>
        <time>2016-08-06T14:43:13Z</time>
      </trkpt>
      <trkpt lat="40.390300" lon="-5.788817">
        <ele>1251.0</ele>
        <time>2016-08-06T14:43:15Z</time>
      </trkpt>
      <trkpt lat="40.390350" lon="-5.788717">
        <ele>1249.0</ele>
        <time>2016-08-06T14:43:17Z</time>
      </trkpt>
      <trkpt lat="40.390383" lon="-5.788667">
        <ele>1248.0</ele>
        <time>2016-08-06T14:43:19Z</time>
      </trkpt>
      <trkpt lat="40.390417" lon="-5.788600">
        <ele>1245.0</ele>
        <time>2016-08-06T14:43:21Z</time>
      </trkpt>
      <trkpt lat="40.390450" lon="-5.788517">
        <ele>1242.0</ele>
        <time>2016-08-06T14:43:23Z</time>
      </trkpt>
      <trkpt lat="40.390517" lon="-5.788500">
        <ele>1240.0</ele>
        <time>2016-08-06T14:43:25Z</time>
      </trkpt>
      <trkpt lat="40.390600" lon="-5.788583">
        <ele>1236.0</ele>
        <time>2016-08-06T14:43:27Z</time>
      </trkpt>
      <trkpt lat="40.390667" lon="-5.788717">
        <ele>1234.0</ele>
        <time>2016-08-06T14:43:29Z</time>
      </trkpt>
      <trkpt lat="40.390733" lon="-5.788850">
        <ele>1232.0</ele>
        <time>2016-08-06T14:43:31Z</time>
      </trkpt>
      <trkpt lat="40.390783" lon="-5.788983">
        <ele>1229.0</ele>
        <time>2016-08-06T14:43:33Z</time>
      </trkpt>
      <trkpt lat="40.390850" lon="-5.789117">
        <ele>1225.0</ele>
        <time>2016-08-06T14:43:35Z</time>
      </trkpt>
      <trkpt lat="40.390917" lon="-5.789250">
        <ele>1222.0</ele>
        <time>2016-08-06T14:43:37Z</time>
      </trkpt>
      <trkpt lat="40.390983" lon="-5.789367">
        <ele>1219.0</ele>
        <time>2016-08-06T14:43:39Z</time>
      </trkpt>
      <trkpt lat="40.391050" lon="-5.789483">
        <ele>1214.0</ele>
        <time>2016-08-06T14:43:41Z</time>
      </trkpt>
      <trkpt lat="40.391133" lon="-5.789600">
        <ele>1209.0</ele>
        <time>2016-08-06T14:43:43Z</time>
      </trkpt>
      <trkpt lat="40.391217" lon="-5.789700">
        <ele>1204.0</ele>
        <time>2016-08-06T14:43:45Z</time>
      </trkpt>
      <trkpt lat="40.391300" lon="-5.789833">
        <ele>1199.0</ele>
        <time>2016-08-06T14:43:47Z</time>
      </trkpt>
      <trkpt lat="40.391400" lon="-5.789950">
        <ele>1195.0</ele>
        <time>2016-08-06T14:43:49Z</time>
      </trkpt>
      <trkpt lat="40.391467" lon="-5.789950">
        <ele>1193.0</ele>
        <time>2016-08-06T14:43:51Z</time>
      </trkpt>
      <trkpt lat="40.391450" lon="-5.789800">
        <ele>1189.0</ele>
        <time>2016-08-06T14:43:53Z</time>
      </trkpt>
      <trkpt lat="40.391250" lon="-5.789683">
        <ele>1184.0</ele>
        <time>2016-08-06T14:43:55Z</time>
      </trkpt>
      <trkpt lat="40.390967" lon="-5.789767">
        <ele>1179.0</ele>
        <time>2016-08-06T14:43:57Z</time>
      </trkpt>
      <trkpt lat="40.390817" lon="-5.790083">
        <ele>1174.0</ele>
        <time>2016-08-06T14:43:59Z</time>
      </trkpt>
      <trkpt lat="40.390867" lon="-5.790300">
        <ele>1169.0</ele>
        <time>2016-08-06T14:44:01Z</time>
      </trkpt>
      <trkpt lat="40.390983" lon="-5.790333">
        <ele>1165.0</ele>
        <time>2016-08-06T14:44:03Z</time>
      </trkpt>
      <trkpt lat="40.391017" lon="-5.790317">
        <ele>1164.0</ele>
        <time>2016-08-06T14:44:05Z</time>
      </trkpt>
      <trkpt lat="40.391067" lon="-5.790300">
        <ele>1159.0</ele>
        <time>2016-08-06T14:44:07Z</time>
      </trkpt>
      <trkpt lat="40.391150" lon="-5.790283">
        <ele>1154.0</ele>
        <time>2016-08-06T14:44:09Z</time>
      </trkpt>
      <trkpt lat="40.391217" lon="-5.790300">
        <ele>1151.0</ele>
        <time>2016-08-06T14:44:11Z</time>
      </trkpt>
      <trkpt lat="40.391283" lon="-5.790300">
        <ele>1147.0</ele>
        <time>2016-08-06T14:44:13Z</time>
      </trkpt>
      <trkpt lat="40.391367" lon="-5.790250">
        <ele>1144.0</ele>
        <time>2016-08-06T14:44:15Z</time>
      </trkpt>
      <trkpt lat="40.391417" lon="-5.790200">
        <ele>1147.0</ele>
        <time>2016-08-06T14:44:17Z</time>
      </trkpt>
      <trkpt lat="40.391450" lon="-5.790150">
        <ele>1148.0</ele>
        <time>2016-08-06T14:44:19Z</time>
      </trkpt>
      <trkpt lat="40.391483" lon="-5.790133">
        <ele>1145.0</ele>
        <time>2016-08-06T14:44:21Z</time>
      </trkpt>
      <trkpt lat="40.391550" lon="-5.790067">
        <ele>1142.0</ele>
        <time>2016-08-06T14:44:23Z</time>
      </trkpt>
      <trkpt lat="40.391617" lon="-5.789983">
        <ele>1142.0</ele>
        <time>2016-08-06T14:44:25Z</time>
      </trkpt>
      <trkpt lat="40.391667" lon="-5.789917">
        <ele>1140.0</ele>
        <time>2016-08-06T14:44:27Z</time>
      </trkpt>
      <trkpt lat="40.391717" lon="-5.789850">
        <ele>1137.0</ele>
        <time>2016-08-06T14:44:29Z</time>
      </trkpt>
      <trkpt lat="40.391783" lon="-5.789817">
        <ele>1133.0</ele>
        <time>2016-08-06T14:44:31Z</time>
      </trkpt>
      <trkpt lat="40.391850" lon="-5.789783">
        <ele>1130.0</ele>
        <time>2016-08-06T14:44:33Z</time>
      </trkpt>
      <trkpt lat="40.391900" lon="-5.789733">
        <ele>1126.0</ele>
        <time>2016-08-06T14:44:35Z</time>
      </trkpt>
      <trkpt lat="40.391967" lon="-5.789717">
        <ele>1121.0</ele>
        <time>2016-08-06T14:44:37Z</time>
      </trkpt>
      <trkpt lat="40.392050" lon="-5.789717">
        <ele>1117.0</ele>
        <time>2016-08-06T14:44:39Z</time>
      </trkpt>
      <trkpt lat="40.392133" lon="-5.789700">
        <ele>1114.0</ele>
        <time>2016-08-06T14:44:41Z</time>
      </trkpt>
      <trkpt lat="40.392217" lon="-5.789633">
        <ele>1108.0</ele>
        <time>2016-08-06T14:44:43Z</time>
      </trkpt>
      <trkpt lat="40.392300" lon="-5.789567">
        <ele>1105.0</ele>
        <time>2016-08-06T14:44:45Z</time>
      </trkpt>
      <trkpt lat="40.392350" lon="-5.789500">
        <ele>1105.0</ele>
        <time>2016-08-06T14:44:47Z</time>
      </trkpt>
      <trkpt lat="40.392417" lon="-5.789483">
        <ele>1103.0</ele>
        <time>2016-08-06T14:44:49Z</time>
      </trkpt>
      <trkpt lat="40.392517" lon="-5.789500">
        <ele>1101.0</ele>
        <time>2016-08-06T14:44:51Z</time>
      </trkpt>
      <trkpt lat="40.392583" lon="-5.789550">
        <ele>1103.0</ele>
        <time>2016-08-06T14:44:53Z</time>
      </trkpt>
      <trkpt lat="40.392650" lon="-5.789650">
        <ele>1103.0</ele>
        <time>2016-08-06T14:44:55Z</time>
      </trkpt>
      <trkpt lat="40.392717" lon="-5.789733">
        <ele>1099.0</ele>
        <time>2016-08-06T14:44:57Z</time>
      </trkpt>
      <trkpt lat="40.392783" lon="-5.789767">
        <ele>1095.0</ele>
        <time>2016-08-06T14:44:59Z</time>
      </trkpt>
      <trkpt lat="40.392850" lon="-5.789800">
        <ele>1090.0</ele>
        <time>2016-08-06T14:45:01Z</time>
      </trkpt>
      <trkpt lat="40.392950" lon="-5.789883">
        <ele>1087.0</ele>
        <time>2016-08-06T14:45:03Z</time>
      </trkpt>
      <trkpt lat="40.393017" lon="-5.789933">
        <ele>1086.0</ele>
        <time>2016-08-06T14:45:05Z</time>
      </trkpt>
      <trkpt lat="40.393050" lon="-5.789983">
        <ele>1082.0</ele>
        <time>2016-08-06T14:45:07Z</time>
      </trkpt>
      <trkpt lat="40.393117" lon="-5.790100">
        <ele>1075.0</ele>
        <time>2016-08-06T14:45:09Z</time>
      </trkpt>
      <trkpt lat="40.393200" lon="-5.790217">
        <ele>1067.0</ele>
        <time>2016-08-06T14:45:11Z</time>
      </trkpt>
      <trkpt lat="40.393283" lon="-5.790317">
        <ele>1060.0</ele>
        <time>2016-08-06T14:45:13Z</time>
      </trkpt>
      <trkpt lat="40.393367" lon="-5.790433">
        <ele>1053.0</ele>
        <time>2016-08-06T14:45:15Z</time>
      </trkpt>
      <trkpt lat="40.393417" lon="-5.790583">
        <ele>1051.0</ele>
        <time>2016-08-06T14:45:17Z</time>
      </trkpt>
      <trkpt lat="40.393433" lon="-5.790600">
        <ele>1045.0</ele>
        <time>2016-08-06T14:45:19Z</time>
      </trkpt>
      <trkpt lat="40.393433" lon="-5.790467">
        <ele>1039.0</ele>
        <time>2016-08-06T14:45:21Z</time>
      </trkpt>
      <trkpt lat="40.393383" lon="-5.790367">
        <ele>1036.0</ele>
        <time>2016-08-06T14:45:23Z</time>
      </trkpt>
      <trkpt lat="40.393300" lon="-5.790267">
        <ele>1031.0</ele>
        <time>2016-08-06T14:45:25Z</time>
      </trkpt>
      <trkpt lat="40.393267" lon="-5.790117">
        <ele>1021.0</ele>
        <time>2016-08-06T14:45:27Z</time>
      </trkpt>
      <trkpt lat="40.393283" lon="-5.789983">
        <ele>1013.0</ele>
        <time>2016-08-06T14:45:29Z</time>
      </trkpt>
      <trkpt lat="40.393333" lon="-5.789933">
        <ele>1005.0</ele>
        <time>2016-08-06T14:45:31Z</time>
      </trkpt>
      <trkpt lat="40.393400" lon="-5.789983">
        <ele>997.0</ele>
        <time>2016-08-06T14:45:33Z</time>
      </trkpt>
      <trkpt lat="40.393400" lon="-5.790250">
        <ele>989.0</ele>
        <time>2016-08-06T14:45:35Z</time>
      </trkpt>
      <trkpt lat="40.393333" lon="-5.790533">
        <ele>983.0</ele>
        <time>2016-08-06T14:45:37Z</time>
      </trkpt>
      <trkpt lat="40.393300" lon="-5.790750">
        <ele>979.0</ele>
        <time>2016-08-06T14:45:39Z</time>
      </trkpt>
      <trkpt lat="40.393283" lon="-5.790983">
        <ele>971.0</ele>
        <time>2016-08-06T14:45:41Z</time>
      </trkpt>
      <trkpt lat="40.393283" lon="-5.791217">
        <ele>966.0</ele>
        <time>2016-08-06T14:45:43Z</time>
      </trkpt>
      <trkpt lat="40.393333" lon="-5.791350">
        <ele>961.0</ele>
        <time>2016-08-06T14:45:45Z</time>
      </trkpt>
      <trkpt lat="40.393400" lon="-5.791500">
        <ele>959.0</ele>
        <time>2016-08-06T14:45:47Z</time>
      </trkpt>
      <trkpt lat="40.393400" lon="-5.791667">
        <ele>958.0</ele>
        <time>2016-08-06T14:45:49Z</time>
      </trkpt>
      <trkpt lat="40.393433" lon="-5.791817">
        <ele>956.0</ele>
        <time>2016-08-06T14:45:51Z</time>
      </trkpt>
      <trkpt lat="40.393517" lon="-5.791800">
        <ele>952.0</ele>
        <time>2016-08-06T14:45:53Z</time>
      </trkpt>
      <trkpt lat="40.393450" lon="-5.791667">
        <ele>949.0</ele>
        <time>2016-08-06T14:45:55Z</time>
      </trkpt>
      <trkpt lat="40.393317" lon="-5.791567">
        <ele>949.0</ele>
        <time>2016-08-06T14:45:57Z</time>
      </trkpt>
      <trkpt lat="40.393317" lon="-5.791483">
        <ele>947.0</ele>
        <time>2016-08-06T14:45:59Z</time>
      </trkpt>
      <trkpt lat="40.393433" lon="-5.791500">
        <ele>944.0</ele>
        <time>2016-08-06T14:46:01Z</time>
      </trkpt>
      <trkpt lat="40.393533" lon="-5.791633">
        <ele>944.0</ele>
        <time>2016-08-06T14:46:03Z</time>
      </trkpt>
      <trkpt lat="40.393617" lon="-5.791717">
        <ele>943.0</ele>
        <time>2016-08-06T14:46:05Z</time>
      </trkpt>
      <trkpt lat="40.393683" lon="-5.791733">
        <ele>941.0</ele>
        <time>2016-08-06T14:46:07Z</time>
      </trkpt>
      <trkpt lat="40.393717" lon="-5.791717">
        <ele>940.0</ele>
        <time>2016-08-06T14:46:09Z</time>
      </trkpt>
      <trkpt lat="40.393767" lon="-5.791667">
        <ele>935.0</ele>
        <time>2016-08-06T14:46:11Z</time>
      </trkpt>
      <trkpt lat="40.393817" lon="-5.791533">
        <ele>930.0</ele>
        <time>2016-08-06T14:46:13Z</time>
      </trkpt>
      <trkpt lat="40.393850" lon="-5.791467">
        <ele>931.0</ele>
        <time>2016-08-06T14:46:15Z</time>
      </trkpt>
      <trkpt lat="40.393900" lon="-5.791417">
        <ele>929.0</ele>
        <time>2016-08-06T14:46:17Z</time>
      </trkpt>
      <trkpt lat="40.393933" lon="-5.791350">
        <ele>926.0</ele>
        <time>2016-08-06T14:46:19Z</time>
      </trkpt>
      <trkpt lat="40.393967" lon="-5.791333">
        <ele>924.0</ele>
        <time>2016-08-06T14:46:21Z</time>
      </trkpt>
      <trkpt lat="40.393950" lon="-5.791317">
        <ele>923.0</ele>
        <time>2016-08-06T14:46:23Z</time>
      </trkpt>
      <trkpt lat="40.393967" lon="-5.791317">
        <ele>923.0</ele>
        <time>2016-08-06T14:46:25Z</time>
      </trkpt>
      <trkpt lat="40.393967" lon="-5.791317">
        <ele>923.0</ele>
        <time>2016-08-06T14:46:27Z</time>
      </trkpt>
      <trkpt lat="40.393967" lon="-5.791317">
        <ele>923.0</ele>
        <time>2016-08-06T14:46:29Z</time>
      </trkpt>
      <trkpt lat="40.393967" lon="-5.791317">
        <ele>923.0</ele>
        <time>2016-08-06T14:46:31Z</time>
      </trkpt>
      <trkpt lat="40.393967" lon="-5.791317">
        <ele>923.0</ele>
        <time>2016-08-06T14:46:33Z</time>
      </trkpt>
      <trkpt lat="40.393967" lon="-5.791317">
        <ele>923.0</ele>
        <time>2016-08-06T14:46:35Z</time>
      </trkpt>
      <trkpt lat="40.393967" lon="-5.791317">
        <ele>923.0</ele>
        <time>2016-08-06T14:46:37Z</time>
      </trkpt>
      <trkpt lat="40.393967" lon="-5.791317">
        <ele>923.0</ele>
        <time>2016-08-06T14:46:39Z</time>
      </trkpt>
      <trkpt lat="40.393983" lon="-5.791317">
        <ele>923.0</ele>
        <time>2016-08-06T14:46:41Z</time>
      </trkpt>
      <trkpt lat="40.393983" lon="-5.791317">
        <ele>922.0</ele>
        <time>2016-08-06T14:46:43Z</time>
      </trkpt>
      <trkpt lat="40.393983" lon="-5.791300">
        <ele>922.0</ele>
        <time>2016-08-06T14:46:45Z</time>
      </trkpt>
      <trkpt lat="40.393983" lon="-5.791300">
        <ele>922.0</ele>
        <time>2016-08-06T14:46:47Z</time>
      </trkpt>
      <trkpt lat="40.393983" lon="-5.791300">
        <ele>922.0</ele>
        <time>2016-08-06T14:46:49Z</time>
      </trkpt>
      <trkpt lat="40.393983" lon="-5.791300">
        <ele>922.0</ele>
        <time>2016-08-06T14:46:51Z</time>
      </trkpt>
      <trkpt lat="40.393983" lon="-5.791300">
        <ele>922.0</ele>
        <time>2016-08-06T14:46:53Z</time>
      </trkpt>
      <trkpt lat="40.393983" lon="-5.791300">
        <ele>922.0</ele>
        <time>2016-08-06T14:46:55Z</time>
      </trkpt>
      <trkpt lat="40.393983" lon="-5.791300">
        <ele>922.0</ele>
        <time>2016-08-06T14:46:57Z</time>
      </trkpt>
      <trkpt lat="40.393983" lon="-5.791300">
        <ele>922.0</ele>
        <time>2016-08-06T14:46:59Z</time>
      </trkpt>
      <trkpt lat="40.393983" lon="-5.791300">
        <ele>922.0</ele>
        <time>2016-08-06T14:47:01Z</time>
      </trkpt>
      <trkpt lat="40.393983" lon="-5.791300">
        <ele>922.0</ele>
        <time>2016-08-06T14:47:03Z</time>
      </trkpt>
      <trkpt lat="40.393983" lon="-5.791317">
        <ele>922.0</ele>
        <time>2016-08-06T14:47:05Z</time>
      </trkpt>
      <trkpt lat="40.393983" lon="-5.791300">
        <ele>922.0</ele>
        <time>2016-08-06T14:47:07Z</time>
      </trkpt>
      <trkpt lat="40.393983" lon="-5.791317">
        <ele>924.0</ele>
        <time>2016-08-06T14:47:09Z</time>
      </trkpt>
      <trkpt lat="40.393967" lon="-5.791317">
        <ele>923.0</ele>
        <time>2016-08-06T14:47:11Z</time>
      </trkpt>
      <trkpt lat="40.393967" lon="-5.791317">
        <ele>924.0</ele>
        <time>2016-08-06T14:47:13Z</time>
      </trkpt>
    </trkseg>
  </trk>
</gpx>
